<?xml version='1.0' encoding='UTF-8'?><gpx version="1.1" creator="JPX - https://github.com/jenetics/jpx" xmlns="http://www.topografix.com/GPX/1/1"><trk><trkseg><trkpt lat="44.04070709010855" lon="10.85880223673258"><ele>704.0</ele><time>2026-04-16T07:35:57.001Z</time></trkpt><trkpt lat="44.04063775813635" lon="10.85880652963582"><ele>704.0</ele><time>2026-04-16T07:36:00.001Z</time></trkpt><trkpt lat="44.04055920752091" lon="10.858792343432611"><ele>704.0</ele><time>2026-04-16T07:36:02.001Z</time></trkpt><trkpt lat="44.04046510750912" lon="10.85880521684033"><ele>704.0</ele><time>2026-04-16T07:36:04.001Z</time></trkpt><trkpt lat="44.040364693018816" lon="10.858819927275807"><ele>704.0</ele><time>2026-04-16T07:36:06.001Z</time></trkpt><trkpt lat="44.04028936721462" lon="10.858833921479508"><ele>704.0</ele><time>2026-04-16T07:36:08.001Z</time></trkpt><trkpt lat="44.040206140680695" lon="10.858853733488298"><ele>704.0</ele><time>2026-04-16T07:36:10.001Z</time></trkpt><trkpt lat="44.04011039673022" lon="10.858889069241451"><ele>704.0</ele><time>2026-04-16T07:36:12.001Z</time></trkpt><trkpt lat="44.040034492300386" lon="10.858901033390731"><ele>704.0</ele><time>2026-04-16T07:36:14.001Z</time></trkpt><trkpt lat="44.0399764042828" lon="10.859003769608156"><ele>704.0</ele><time>2026-04-16T07:36:16.001Z</time></trkpt><trkpt lat="44.03990734468927" lon="10.859094041865559"><ele>704.0</ele><time>2026-04-16T07:36:19.001Z</time></trkpt><trkpt lat="44.039950990528546" lon="10.85915839043186"><ele>704.0</ele><time>2026-04-16T07:36:38.001Z</time></trkpt><trkpt lat="44.040054533323435" lon="10.859084296204347"><ele>704.0</ele><time>2026-04-16T07:36:41.001Z</time></trkpt><trkpt lat="44.04011724432269" lon="10.859001807180167"><ele>704.0</ele><time>2026-04-16T07:36:42.001Z</time></trkpt><trkpt lat="44.04019133931848" lon="10.858934317622719"><ele>704.0</ele><time>2026-04-16T07:36:43.001Z</time></trkpt><trkpt lat="44.04026070898334" lon="10.858897134298916"><ele>704.0</ele><time>2026-04-16T07:36:44.001Z</time></trkpt><trkpt lat="44.04034661295653" lon="10.858890609868313"><ele>704.0</ele><time>2026-04-16T07:36:45.001Z</time></trkpt><trkpt lat="44.04041975920475" lon="10.858856122539843"><ele>704.0</ele><time>2026-04-16T07:36:46.001Z</time></trkpt><trkpt lat="44.04048975323533" lon="10.858851441887216"><ele>704.0</ele><time>2026-04-16T07:36:47.001Z</time></trkpt><trkpt lat="44.04055755403452" lon="10.858852650857408"><ele>704.0</ele><time>2026-04-16T07:36:48.001Z</time></trkpt><trkpt lat="44.04066361032752" lon="10.85887028257338"><ele>704.0</ele><time>2026-04-16T07:36:50.001Z</time></trkpt><trkpt lat="44.04072600775606" lon="10.858827639418235"><ele>704.0</ele><time>2026-04-16T07:36:53.001Z</time></trkpt><trkpt lat="44.040788389202675" lon="10.85890996053918"><ele>704.0</ele><time>2026-04-16T07:37:01.001Z</time></trkpt><trkpt lat="44.04071789776894" lon="10.85888675595677"><ele>704.0</ele><time>2026-04-16T07:37:22.001Z</time></trkpt><trkpt lat="44.040590497054986" lon="10.858861362497011"><ele>704.0</ele><time>2026-04-16T07:37:24.001Z</time></trkpt><trkpt lat="44.040484202629635" lon="10.858848500916551"><ele>704.0</ele><time>2026-04-16T07:37:25.001Z</time></trkpt><trkpt lat="44.04038695469099" lon="10.85883849920024"><ele>704.0</ele><time>2026-04-16T07:37:26.001Z</time></trkpt><trkpt lat="44.040277911018755" lon="10.858847158562588"><ele>704.0</ele><time>2026-04-16T07:37:27.001Z</time></trkpt><trkpt lat="44.040187750181516" lon="10.858872178206408"><ele>704.0</ele><time>2026-04-16T07:37:28.001Z</time></trkpt><trkpt lat="44.04008895749178" lon="10.858899226761153"><ele>704.0</ele><time>2026-04-16T07:37:29.001Z</time></trkpt><trkpt lat="44.04000442855594" lon="10.858963187472503"><ele>704.0</ele><time>2026-04-16T07:37:30.001Z</time></trkpt><trkpt lat="44.039946282229735" lon="10.859047138068302"><ele>704.0</ele><time>2026-04-16T07:37:31.001Z</time></trkpt><trkpt lat="44.03991332582767" lon="10.859171555805704"><ele>704.0</ele><time>2026-04-16T07:37:32.001Z</time></trkpt><trkpt lat="44.039904351326435" lon="10.859292822347193"><ele>704.0</ele><time>2026-04-16T07:37:33.001Z</time></trkpt><trkpt lat="44.03988524724933" lon="10.859405498868238"><ele>704.0</ele><time>2026-04-16T07:37:34.001Z</time></trkpt><trkpt lat="44.03987459197561" lon="10.859549435334705"><ele>702.6</ele><time>2026-04-16T07:37:35.001Z</time></trkpt><trkpt lat="44.039864439318265" lon="10.859702681196529"><ele>701.2</ele><time>2026-04-16T07:37:36Z</time></trkpt><trkpt lat="44.03985495167015" lon="10.859859429559089"><ele>699.8000000000001</ele><time>2026-04-16T07:37:36.999Z</time></trkpt><trkpt lat="44.03983444771676" lon="10.860016208474434"><ele>698.4000000000001</ele><time>2026-04-16T07:37:37.999Z</time></trkpt><trkpt lat="44.03982326755119" lon="10.860154720004138"><ele>697.0</ele><time>2026-04-16T07:37:39Z</time></trkpt><trkpt lat="44.039809842859555" lon="10.860253362623787"><ele>697.0</ele><time>2026-04-16T07:37:40Z</time></trkpt><trkpt lat="44.039765451629584" lon="10.86036583407862"><ele>697.0</ele><time>2026-04-16T07:37:41Z</time></trkpt><trkpt lat="44.039703901452626" lon="10.860469582353774"><ele>697.0</ele><time>2026-04-16T07:37:42Z</time></trkpt><trkpt lat="44.039614499488266" lon="10.860550619799774"><ele>697.0</ele><time>2026-04-16T07:37:43Z</time></trkpt><trkpt lat="44.039511692519454" lon="10.860621356893803"><ele>697.0</ele><time>2026-04-16T07:37:44Z</time></trkpt><trkpt lat="44.0394127688677" lon="10.86066427438378"><ele>697.0</ele><time>2026-04-16T07:37:45Z</time></trkpt><trkpt lat="44.03931605113992" lon="10.860715084826975"><ele>697.0</ele><time>2026-04-16T07:37:46Z</time></trkpt><trkpt lat="44.03924298323816" lon="10.860751187703798"><ele>697.0</ele><time>2026-04-16T07:37:47Z</time></trkpt><trkpt lat="44.03918116182812" lon="10.860773699524055"><ele>697.0</ele><time>2026-04-16T07:37:48Z</time></trkpt><trkpt lat="44.039091240882534" lon="10.860821725450041"><ele>697.0</ele><time>2026-04-16T07:37:50Z</time></trkpt><trkpt lat="44.039024635594245" lon="10.860842405709318"><ele>697.0</ele><time>2026-04-16T07:37:52Z</time></trkpt><trkpt lat="44.03894653982946" lon="10.860762423499782"><ele>697.5</ele><time>2026-04-16T07:37:56Z</time></trkpt><trkpt lat="44.038903225164745" lon="10.860688294038399"><ele>698.0</ele><time>2026-04-16T07:37:57Z</time></trkpt><trkpt lat="44.038879365690995" lon="10.860583388589474"><ele>698.5</ele><time>2026-04-16T07:37:58Z</time></trkpt><trkpt lat="44.038852107837364" lon="10.86048783287672"><ele>699.0</ele><time>2026-04-16T07:37:59Z</time></trkpt><trkpt lat="44.03882940830582" lon="10.860343246318918"><ele>699.5</ele><time>2026-04-16T07:38:00Z</time></trkpt><trkpt lat="44.03880963773552" lon="10.860194025044516"><ele>700.0</ele><time>2026-04-16T07:38:01Z</time></trkpt><trkpt lat="44.03879273963157" lon="10.860039531037676"><ele>700.0</ele><time>2026-04-16T07:38:02Z</time></trkpt><trkpt lat="44.03879066398746" lon="10.859904907645905"><ele>700.0</ele><time>2026-04-16T07:38:03Z</time></trkpt><trkpt lat="44.03879105708549" lon="10.859754228569182"><ele>700.0</ele><time>2026-04-16T07:38:04Z</time></trkpt><trkpt lat="44.038807135462235" lon="10.85960922238142"><ele>700.0</ele><time>2026-04-16T07:38:05Z</time></trkpt><trkpt lat="44.038809907971384" lon="10.859457307566071"><ele>700.0</ele><time>2026-04-16T07:38:06Z</time></trkpt><trkpt lat="44.03878710116441" lon="10.859317839238418"><ele>702.25</ele><time>2026-04-16T07:38:07Z</time></trkpt><trkpt lat="44.03877150236278" lon="10.859164490164336"><ele>704.5</ele><time>2026-04-16T07:38:08Z</time></trkpt><trkpt lat="44.03874255647135" lon="10.858989786701994"><ele>706.75</ele><time>2026-04-16T07:38:09Z</time></trkpt><trkpt lat="44.038700946173286" lon="10.85881556160652"><ele>709.0</ele><time>2026-04-16T07:38:10Z</time></trkpt><trkpt lat="44.03867097485169" lon="10.858653642066454"><ele>709.0</ele><time>2026-04-16T07:38:11Z</time></trkpt><trkpt lat="44.03863257262897" lon="10.858493594884704"><ele>709.0</ele><time>2026-04-16T07:38:12Z</time></trkpt><trkpt lat="44.03859221764511" lon="10.85834140377928"><ele>709.0</ele><time>2026-04-16T07:38:13Z</time></trkpt><trkpt lat="44.03855542020942" lon="10.8582007953255"><ele>709.0</ele><time>2026-04-16T07:38:14Z</time></trkpt><trkpt lat="44.03852803894164" lon="10.858036277960437"><ele>708.8000000000001</ele><time>2026-04-16T07:38:15Z</time></trkpt><trkpt lat="44.03848763896166" lon="10.857869755315727"><ele>708.6</ele><time>2026-04-16T07:38:16Z</time></trkpt><trkpt lat="44.03845398440864" lon="10.857718477915979"><ele>708.4</ele><time>2026-04-16T07:38:17Z</time></trkpt><trkpt lat="44.03844756113804" lon="10.857584403962639"><ele>708.2</ele><time>2026-04-16T07:38:18Z</time></trkpt><trkpt lat="44.03840222219052" lon="10.857453698848547"><ele>708.0</ele><time>2026-04-16T07:38:19Z</time></trkpt><trkpt lat="44.03835133869374" lon="10.857322637000898"><ele>709.8</ele><time>2026-04-16T07:38:20Z</time></trkpt><trkpt lat="44.038283673457286" lon="10.857221961095172"><ele>711.5999999999999</ele><time>2026-04-16T07:38:21Z</time></trkpt><trkpt lat="44.03819000717746" lon="10.857138494784088"><ele>713.4000000000001</ele><time>2026-04-16T07:38:22Z</time></trkpt><trkpt lat="44.0380902576319" lon="10.857063454592877"><ele>715.2</ele><time>2026-04-16T07:38:23Z</time></trkpt><trkpt lat="44.03799972259505" lon="10.857006899920119"><ele>717.0</ele><time>2026-04-16T07:38:24Z</time></trkpt><trkpt lat="44.03791748891489" lon="10.856957836669183"><ele>717.0</ele><time>2026-04-16T07:38:25Z</time></trkpt><trkpt lat="44.03787252605867" lon="10.856844259940917"><ele>717.0</ele><time>2026-04-16T07:38:26Z</time></trkpt><trkpt lat="44.037872492607626" lon="10.856704097542123"><ele>717.0</ele><time>2026-04-16T07:38:27Z</time></trkpt><trkpt lat="44.03786402990437" lon="10.856547649987306"><ele>717.0</ele><time>2026-04-16T07:38:28Z</time></trkpt><trkpt lat="44.037853508126126" lon="10.856394207428437"><ele>717.0</ele><time>2026-04-16T07:38:29Z</time></trkpt><trkpt lat="44.037847155022824" lon="10.856236507216126"><ele>716.5</ele><time>2026-04-16T07:38:30Z</time></trkpt><trkpt lat="44.03784683849197" lon="10.856075520828874"><ele>716.0</ele><time>2026-04-16T07:38:31Z</time></trkpt><trkpt lat="44.037843035636286" lon="10.855901657795677"><ele>715.5</ele><time>2026-04-16T07:38:32Z</time></trkpt><trkpt lat="44.037822188010004" lon="10.855742104027755"><ele>715.0</ele><time>2026-04-16T07:38:33Z</time></trkpt><trkpt lat="44.03779531861326" lon="10.855576166838537"><ele>715.0</ele><time>2026-04-16T07:38:34Z</time></trkpt><trkpt lat="44.03776662169539" lon="10.855404392339695"><ele>715.0</ele><time>2026-04-16T07:38:35Z</time></trkpt><trkpt lat="44.0377482842905" lon="10.855262500878839"><ele>715.0</ele><time>2026-04-16T07:38:36Z</time></trkpt><trkpt lat="44.03776143912022" lon="10.85515827006987"><ele>715.0</ele><time>2026-04-16T07:38:37Z</time></trkpt><trkpt lat="44.037743167370586" lon="10.855038644840917"><ele>715.0</ele><time>2026-04-16T07:38:38Z</time></trkpt><trkpt lat="44.03771222905624" lon="10.854904946991725"><ele>714.6666666666667</ele><time>2026-04-16T07:38:39Z</time></trkpt><trkpt lat="44.03769626121355" lon="10.854796866572224"><ele>714.3333333333334</ele><time>2026-04-16T07:38:40Z</time></trkpt><trkpt lat="44.037654372725676" lon="10.854700892458421"><ele>714.0</ele><time>2026-04-16T07:38:41Z</time></trkpt><trkpt lat="44.03759067385663" lon="10.854600033590014"><ele>713.6666666666666</ele><time>2026-04-16T07:38:42Z</time></trkpt><trkpt lat="44.03755462566338" lon="10.85451162352076"><ele>713.3333333333333</ele><time>2026-04-16T07:38:43Z</time></trkpt><trkpt lat="44.03750581465162" lon="10.854405581253713"><ele>713.0</ele><time>2026-04-16T07:38:45Z</time></trkpt><trkpt lat="44.03744821061237" lon="10.854274709771358"><ele>713.8333333333333</ele><time>2026-04-16T07:38:47Z</time></trkpt><trkpt lat="44.03740609181398" lon="10.854189664491804"><ele>714.6666666666666</ele><time>2026-04-16T07:38:48Z</time></trkpt><trkpt lat="44.037368265957234" lon="10.854096345864251"><ele>715.5</ele><time>2026-04-16T07:38:49Z</time></trkpt><trkpt lat="44.03732504312077" lon="10.853977115603165"><ele>716.3333333333334</ele><time>2026-04-16T07:38:50Z</time></trkpt><trkpt lat="44.03730290659314" lon="10.853857473582687"><ele>717.1666666666667</ele><time>2026-04-16T07:38:51Z</time></trkpt><trkpt lat="44.037335880442676" lon="10.853717081664033"><ele>718.0</ele><time>2026-04-16T07:38:52Z</time></trkpt><trkpt lat="44.03737581868593" lon="10.853593009359995"><ele>718.0</ele><time>2026-04-16T07:38:53Z</time></trkpt><trkpt lat="44.03743489886491" lon="10.85348075974842"><ele>718.0</ele><time>2026-04-16T07:38:54.001Z</time></trkpt><trkpt lat="44.0375070190216" lon="10.853391956073402"><ele>718.0</ele><time>2026-04-16T07:38:55.001Z</time></trkpt><trkpt lat="44.037592626320816" lon="10.853316495846823"><ele>718.0</ele><time>2026-04-16T07:38:56.001Z</time></trkpt><trkpt lat="44.03768300706384" lon="10.853241271488857"><ele>718.0</ele><time>2026-04-16T07:38:57.001Z</time></trkpt><trkpt lat="44.03775678195931" lon="10.85317086581209"><ele>716.8</ele><time>2026-04-16T07:38:58.001Z</time></trkpt><trkpt lat="44.0377947085224" lon="10.853059760780145"><ele>715.5999999999999</ele><time>2026-04-16T07:38:59.001Z</time></trkpt><trkpt lat="44.0378251476109" lon="10.852925787614721"><ele>714.4000000000001</ele><time>2026-04-16T07:39:00.001Z</time></trkpt><trkpt lat="44.03783366082851" lon="10.852792075175154"><ele>713.2</ele><time>2026-04-16T07:39:01.001Z</time></trkpt><trkpt lat="44.03783097148943" lon="10.852640036191055"><ele>712.0</ele><time>2026-04-16T07:39:02.001Z</time></trkpt><trkpt lat="44.03781423066446" lon="10.852490567374371"><ele>712.0</ele><time>2026-04-16T07:39:03.001Z</time></trkpt><trkpt lat="44.03777157031793" lon="10.852318660581568"><ele>712.0</ele><time>2026-04-16T07:39:04.001Z</time></trkpt><trkpt lat="44.037731019461944" lon="10.852155594821859"><ele>712.0</ele><time>2026-04-16T07:39:05.001Z</time></trkpt><trkpt lat="44.03767095573959" lon="10.851985114926634"><ele>712.0</ele><time>2026-04-16T07:39:06.001Z</time></trkpt><trkpt lat="44.03763046990579" lon="10.851797042769475"><ele>712.0</ele><time>2026-04-16T07:39:07.001Z</time></trkpt><trkpt lat="44.03758789059131" lon="10.851606407257856"><ele>712.0</ele><time>2026-04-16T07:39:08.001Z</time></trkpt><trkpt lat="44.03755957028535" lon="10.851439702059832"><ele>712.0</ele><time>2026-04-16T07:39:09.001Z</time></trkpt><trkpt lat="44.03754098898612" lon="10.851281997744449"><ele>712.0</ele><time>2026-04-16T07:39:10.001Z</time></trkpt><trkpt lat="44.0376125843053" lon="10.851131583021703"><ele>712.25</ele><time>2026-04-16T07:39:11.001Z</time></trkpt><trkpt lat="44.037658382667885" lon="10.850948128351124"><ele>712.5</ele><time>2026-04-16T07:39:12.001Z</time></trkpt><trkpt lat="44.03770398139089" lon="10.850770353817827"><ele>712.75</ele><time>2026-04-16T07:39:13.001Z</time></trkpt><trkpt lat="44.0377462850462" lon="10.850567577188023"><ele>713.0</ele><time>2026-04-16T07:39:14.001Z</time></trkpt><trkpt lat="44.037805465975104" lon="10.850384904176956"><ele>713.0</ele><time>2026-04-16T07:39:15.001Z</time></trkpt><trkpt lat="44.03784924685136" lon="10.850196196089177"><ele>713.0</ele><time>2026-04-16T07:39:16.001Z</time></trkpt><trkpt lat="44.03790466124081" lon="10.850043574467703"><ele>713.0</ele><time>2026-04-16T07:39:17.001Z</time></trkpt><trkpt lat="44.03795812204097" lon="10.849902878121066"><ele>713.0</ele><time>2026-04-16T07:39:18.001Z</time></trkpt><trkpt lat="44.03802824576258" lon="10.849757180320578"><ele>713.0</ele><time>2026-04-16T07:39:19.001Z</time></trkpt><trkpt lat="44.03805563017292" lon="10.84957088377377"><ele>713.0</ele><time>2026-04-16T07:39:20.001Z</time></trkpt><trkpt lat="44.038143634934336" lon="10.849447646969477"><ele>713.0</ele><time>2026-04-16T07:39:21.001Z</time></trkpt><trkpt lat="44.0382264933157" lon="10.849301839489847"><ele>713.0</ele><time>2026-04-16T07:39:22.001Z</time></trkpt><trkpt lat="44.03830257269843" lon="10.849147454844687"><ele>715.5</ele><time>2026-04-16T07:39:23.001Z</time></trkpt><trkpt lat="44.03839738033794" lon="10.849030081026896"><ele>718.0</ele><time>2026-04-16T07:39:24.001Z</time></trkpt><trkpt lat="44.038468907817354" lon="10.84888972763962"><ele>720.5</ele><time>2026-04-16T07:39:25.001Z</time></trkpt><trkpt lat="44.03854348209679" lon="10.848743395731208"><ele>723.0</ele><time>2026-04-16T07:39:26.001Z</time></trkpt><trkpt lat="44.03860604283797" lon="10.848580226071595"><ele>722.0</ele><time>2026-04-16T07:39:27.001Z</time></trkpt><trkpt lat="44.038692890482906" lon="10.848445922641291"><ele>721.0</ele><time>2026-04-16T07:39:28.001Z</time></trkpt><trkpt lat="44.03875900040972" lon="10.848312502786333"><ele>720.0</ele><time>2026-04-16T07:39:29.001Z</time></trkpt><trkpt lat="44.038826698486076" lon="10.84815818781206"><ele>719.0</ele><time>2026-04-16T07:39:30.001Z</time></trkpt><trkpt lat="44.038887769511035" lon="10.84802598012336"><ele>719.0</ele><time>2026-04-16T07:39:31.001Z</time></trkpt><trkpt lat="44.03897036153795" lon="10.847919692442877"><ele>719.0</ele><time>2026-04-16T07:39:32.001Z</time></trkpt><trkpt lat="44.03906001996924" lon="10.847799221278681"><ele>719.0</ele><time>2026-04-16T07:39:33.001Z</time></trkpt><trkpt lat="44.03915485849851" lon="10.847680551059444"><ele>719.0</ele><time>2026-04-16T07:39:34.001Z</time></trkpt><trkpt lat="44.03925854886937" lon="10.847570218514488"><ele>720.8000000000001</ele><time>2026-04-16T07:39:35.001Z</time></trkpt><trkpt lat="44.039365441812556" lon="10.847473406448424"><ele>722.6</ele><time>2026-04-16T07:39:36.001Z</time></trkpt><trkpt lat="44.039464360602075" lon="10.847396716813053"><ele>724.4</ele><time>2026-04-16T07:39:37.001Z</time></trkpt><trkpt lat="44.03955125411598" lon="10.847320884080547"><ele>726.2</ele><time>2026-04-16T07:39:38.001Z</time></trkpt><trkpt lat="44.03963413579951" lon="10.847239716649543"><ele>728.0</ele><time>2026-04-16T07:39:39.001Z</time></trkpt><trkpt lat="44.039718072696935" lon="10.847157042016883"><ele>728.0</ele><time>2026-04-16T07:39:40.001Z</time></trkpt><trkpt lat="44.03981069612561" lon="10.847095064128897"><ele>728.0</ele><time>2026-04-16T07:39:41.001Z</time></trkpt><trkpt lat="44.039912797993296" lon="10.847079001414459"><ele>728.0</ele><time>2026-04-16T07:39:42Z</time></trkpt><trkpt lat="44.04001544051591" lon="10.847073467064"><ele>728.0</ele><time>2026-04-16T07:39:43Z</time></trkpt><trkpt lat="44.040103260824594" lon="10.847090339450636"><ele>728.0</ele><time>2026-04-16T07:39:44Z</time></trkpt><trkpt lat="44.040178954326024" lon="10.847080351375896"><ele>729.1666666666666</ele><time>2026-04-16T07:39:45Z</time></trkpt><trkpt lat="44.04024081444548" lon="10.847049532532923"><ele>730.3333333333333</ele><time>2026-04-16T07:39:46Z</time></trkpt><trkpt lat="44.040290044179464" lon="10.846983173335348"><ele>731.5</ele><time>2026-04-16T07:39:47Z</time></trkpt><trkpt lat="44.04034327062872" lon="10.846867598023326"><ele>732.6666666666666</ele><time>2026-04-16T07:39:48Z</time></trkpt><trkpt lat="44.04036595550926" lon="10.846761516839944"><ele>733.8333333333334</ele><time>2026-04-16T07:39:49Z</time></trkpt><trkpt lat="44.04038660647148" lon="10.846670955294574"><ele>735.0</ele><time>2026-04-16T07:39:50Z</time></trkpt><trkpt lat="44.04042697096116" lon="10.846592674307566"><ele>735.0</ele><time>2026-04-16T07:39:51Z</time></trkpt><trkpt lat="44.04047219430368" lon="10.846513461015377"><ele>735.0</ele><time>2026-04-16T07:39:52Z</time></trkpt><trkpt lat="44.04054838438302" lon="10.846464550059439"><ele>735.0</ele><time>2026-04-16T07:39:53Z</time></trkpt><trkpt lat="44.04062771842928" lon="10.846453345567944"><ele>735.0</ele><time>2026-04-16T07:39:54Z</time></trkpt><trkpt lat="44.0407004068223" lon="10.846451480236967"><ele>735.0</ele><time>2026-04-16T07:39:55Z</time></trkpt><trkpt lat="44.04076461289234" lon="10.8464580771881"><ele>735.0</ele><time>2026-04-16T07:39:56Z</time></trkpt><trkpt lat="44.04083984307315" lon="10.846458570162088"><ele>735.0</ele><time>2026-04-16T07:39:57Z</time></trkpt><trkpt lat="44.040919433440884" lon="10.846433462569536"><ele>736.3333333333334</ele><time>2026-04-16T07:39:58Z</time></trkpt><trkpt lat="44.04098238754044" lon="10.846384032910237"><ele>737.6666666666666</ele><time>2026-04-16T07:39:59Z</time></trkpt><trkpt lat="44.04102227387163" lon="10.846295775306404"><ele>739.0</ele><time>2026-04-16T07:40:00Z</time></trkpt><trkpt lat="44.04106308780765" lon="10.846195216421826"><ele>740.3333333333333</ele><time>2026-04-16T07:40:01Z</time></trkpt><trkpt lat="44.04110404246632" lon="10.846107470766778"><ele>741.6666666666666</ele><time>2026-04-16T07:40:02Z</time></trkpt><trkpt lat="44.04114802679313" lon="10.846002993036112"><ele>743.0</ele><time>2026-04-16T07:40:03Z</time></trkpt><trkpt lat="44.041202858963636" lon="10.845908415450273"><ele>743.0</ele><time>2026-04-16T07:40:04Z</time></trkpt><trkpt lat="44.04125939916408" lon="10.845814979350259"><ele>743.0</ele><time>2026-04-16T07:40:05Z</time></trkpt><trkpt lat="44.0413264960912" lon="10.845705623149854"><ele>743.0</ele><time>2026-04-16T07:40:06Z</time></trkpt><trkpt lat="44.04139357074257" lon="10.845619962830755"><ele>743.0</ele><time>2026-04-16T07:40:07Z</time></trkpt><trkpt lat="44.04146469780934" lon="10.84554036454973"><ele>743.0</ele><time>2026-04-16T07:40:08Z</time></trkpt><trkpt lat="44.041551015998344" lon="10.845450827474478"><ele>746.25</ele><time>2026-04-16T07:40:09Z</time></trkpt><trkpt lat="44.041642875043415" lon="10.845331199288713"><ele>749.5</ele><time>2026-04-16T07:40:10Z</time></trkpt><trkpt lat="44.041743492261055" lon="10.845195836111325"><ele>752.75</ele><time>2026-04-16T07:40:11Z</time></trkpt><trkpt lat="44.04184267932535" lon="10.845057211723294"><ele>756.0</ele><time>2026-04-16T07:40:12Z</time></trkpt><trkpt lat="44.04192695897141" lon="10.844877918296328"><ele>756.0</ele><time>2026-04-16T07:40:13Z</time></trkpt><trkpt lat="44.04200860214128" lon="10.844689998438279"><ele>756.0</ele><time>2026-04-16T07:40:14Z</time></trkpt><trkpt lat="44.042095623378415" lon="10.844511830589667"><ele>756.0</ele><time>2026-04-16T07:40:15Z</time></trkpt><trkpt lat="44.04219406854562" lon="10.84436107172455"><ele>755.0</ele><time>2026-04-16T07:40:16Z</time></trkpt><trkpt lat="44.04231340833545" lon="10.844239789378136"><ele>754.0</ele><time>2026-04-16T07:40:17Z</time></trkpt><trkpt lat="44.04245621720128" lon="10.844129625834913"><ele>753.0</ele><time>2026-04-16T07:40:18Z</time></trkpt><trkpt lat="44.042605880272845" lon="10.844032283429806"><ele>757.3333333333334</ele><time>2026-04-16T07:40:19Z</time></trkpt><trkpt lat="44.042755679961246" lon="10.843931256239161"><ele>761.6666666666667</ele><time>2026-04-16T07:40:20Z</time></trkpt><trkpt lat="44.04290710698544" lon="10.843823724290374"><ele>766.0</ele><time>2026-04-16T07:40:21Z</time></trkpt><trkpt lat="44.04305425047096" lon="10.843703327946615"><ele>766.0</ele><time>2026-04-16T07:40:22Z</time></trkpt><trkpt lat="44.0431950238339" lon="10.843585580859175"><ele>766.0</ele><time>2026-04-16T07:40:23Z</time></trkpt><trkpt lat="44.04332664160876" lon="10.843479375438532"><ele>766.0</ele><time>2026-04-16T07:40:24Z</time></trkpt><trkpt lat="44.04345072932955" lon="10.84339202606253"><ele>768.1999999999999</ele><time>2026-04-16T07:40:25Z</time></trkpt><trkpt lat="44.04357541866104" lon="10.843330988193204"><ele>770.4</ele><time>2026-04-16T07:40:26Z</time></trkpt><trkpt lat="44.04368769568415" lon="10.843299789952361"><ele>772.6</ele><time>2026-04-16T07:40:27Z</time></trkpt><trkpt lat="44.04377830086997" lon="10.843268527970684"><ele>774.8</ele><time>2026-04-16T07:40:28Z</time></trkpt><trkpt lat="44.043843205125626" lon="10.843244135561072"><ele>777.0</ele><time>2026-04-16T07:40:29Z</time></trkpt><trkpt lat="44.04389660660331" lon="10.843168645879066"><ele>777.0</ele><time>2026-04-16T07:40:30Z</time></trkpt><trkpt lat="44.043924723693856" lon="10.843082435889356"><ele>777.0</ele><time>2026-04-16T07:40:31Z</time></trkpt><trkpt lat="44.04391893790792" lon="10.842977667364853"><ele>777.0</ele><time>2026-04-16T07:40:32Z</time></trkpt><trkpt lat="44.04386810443141" lon="10.842873955692717"><ele>777.0</ele><time>2026-04-16T07:40:33Z</time></trkpt><trkpt lat="44.043787638955386" lon="10.842796197531817"><ele>777.0</ele><time>2026-04-16T07:40:34Z</time></trkpt><trkpt lat="44.0436765754082" lon="10.842730405621225"><ele>777.0</ele><time>2026-04-16T07:40:35Z</time></trkpt><trkpt lat="44.043555079762406" lon="10.842701977005076"><ele>777.0</ele><time>2026-04-16T07:40:36Z</time></trkpt><trkpt lat="44.043430451227856" lon="10.842628218095436"><ele>777.0</ele><time>2026-04-16T07:40:37Z</time></trkpt><trkpt lat="44.04331474133545" lon="10.842526316798459"><ele>777.0</ele><time>2026-04-16T07:40:38Z</time></trkpt><trkpt lat="44.04320680200194" lon="10.842406937571566"><ele>778.25</ele><time>2026-04-16T07:40:39Z</time></trkpt><trkpt lat="44.04312178532073" lon="10.842250375753634"><ele>779.5</ele><time>2026-04-16T07:40:40Z</time></trkpt><trkpt lat="44.0430544140597" lon="10.842079472644524"><ele>780.75</ele><time>2026-04-16T07:40:41.001Z</time></trkpt><trkpt lat="44.04299421542839" lon="10.841904435611278"><ele>782.0</ele><time>2026-04-16T07:40:42.001Z</time></trkpt><trkpt lat="44.042923633407135" lon="10.84173812653864"><ele>782.0</ele><time>2026-04-16T07:40:43.001Z</time></trkpt><trkpt lat="44.04286608325939" lon="10.841560442803434"><ele>782.0</ele><time>2026-04-16T07:40:44.001Z</time></trkpt><trkpt lat="44.042832961188395" lon="10.841395690480857"><ele>782.0</ele><time>2026-04-16T07:40:45.001Z</time></trkpt><trkpt lat="44.04284962997509" lon="10.841236244571357"><ele>782.0</ele><time>2026-04-16T07:40:46.001Z</time></trkpt><trkpt lat="44.04287199596878" lon="10.841058871554916"><ele>782.25</ele><time>2026-04-16T07:40:47.001Z</time></trkpt><trkpt lat="44.042896088326835" lon="10.840877332879629"><ele>782.5</ele><time>2026-04-16T07:40:48.001Z</time></trkpt><trkpt lat="44.04295402387733" lon="10.840718174402488"><ele>782.75</ele><time>2026-04-16T07:40:49.001Z</time></trkpt><trkpt lat="44.04302893672673" lon="10.840544248011431"><ele>783.0</ele><time>2026-04-16T07:40:50.001Z</time></trkpt><trkpt lat="44.04308616682095" lon="10.840361555086892"><ele>783.0</ele><time>2026-04-16T07:40:51.001Z</time></trkpt><trkpt lat="44.04311721438051" lon="10.840160149777404"><ele>783.0</ele><time>2026-04-16T07:40:52.001Z</time></trkpt><trkpt lat="44.04310848659384" lon="10.839967919403147"><ele>783.0</ele><time>2026-04-16T07:40:53.001Z</time></trkpt><trkpt lat="44.04310084754471" lon="10.839804411629428"><ele>783.0</ele><time>2026-04-16T07:40:54.001Z</time></trkpt><trkpt lat="44.0430583904107" lon="10.839659066015043"><ele>784.5</ele><time>2026-04-16T07:40:55.001Z</time></trkpt><trkpt lat="44.04298649440004" lon="10.839533379320184"><ele>786.0</ele><time>2026-04-16T07:40:56.001Z</time></trkpt><trkpt lat="44.04289179291867" lon="10.839455624029297"><ele>787.5</ele><time>2026-04-16T07:40:57.001Z</time></trkpt><trkpt lat="44.04277133895589" lon="10.839378945422338"><ele>789.0</ele><time>2026-04-16T07:40:58.001Z</time></trkpt><trkpt lat="44.04263849794984" lon="10.839331219127482"><ele>789.0</ele><time>2026-04-16T07:40:59.001Z</time></trkpt><trkpt lat="44.04251301899838" lon="10.839320452816434"><ele>789.0</ele><time>2026-04-16T07:41:00.001Z</time></trkpt><trkpt lat="44.04240454964864" lon="10.839305105578553"><ele>789.0</ele><time>2026-04-16T07:41:01.001Z</time></trkpt><trkpt lat="44.04230368739681" lon="10.839278238372886"><ele>789.0</ele><time>2026-04-16T07:41:02.001Z</time></trkpt><trkpt lat="44.04222476115359" lon="10.839210277965117"><ele>789.0</ele><time>2026-04-16T07:41:03.001Z</time></trkpt><trkpt lat="44.042193298404634" lon="10.83910250947548"><ele>789.6</ele><time>2026-04-16T07:41:04.001Z</time></trkpt><trkpt lat="44.04219803877634" lon="10.838990715741637"><ele>790.2</ele><time>2026-04-16T07:41:05.001Z</time></trkpt><trkpt lat="44.042238959617045" lon="10.83888032845063"><ele>790.8000000000001</ele><time>2026-04-16T07:41:06.001Z</time></trkpt><trkpt lat="44.042297758580354" lon="10.838783459674353"><ele>791.4000000000001</ele><time>2026-04-16T07:41:07.001Z</time></trkpt><trkpt lat="44.04237184800427" lon="10.838666282061931"><ele>792.0</ele><time>2026-04-16T07:41:08.001Z</time></trkpt><trkpt lat="44.04245221840146" lon="10.838545708232852"><ele>796.75</ele><time>2026-04-16T07:41:09.001Z</time></trkpt><trkpt lat="44.04253218919286" lon="10.838425177019749"><ele>801.5</ele><time>2026-04-16T07:41:10.001Z</time></trkpt><trkpt lat="44.04258199602863" lon="10.838280609042027"><ele>806.25</ele><time>2026-04-16T07:41:11.001Z</time></trkpt><trkpt lat="44.04260911650749" lon="10.838116603048437"><ele>811.0</ele><time>2026-04-16T07:41:12.001Z</time></trkpt><trkpt lat="44.04261249900908" lon="10.837934754641655"><ele>811.0</ele><time>2026-04-16T07:41:13.001Z</time></trkpt><trkpt lat="44.04260727513864" lon="10.837745027722075"><ele>811.0</ele><time>2026-04-16T07:41:14.001Z</time></trkpt><trkpt lat="44.04259622201248" lon="10.837575434994474"><ele>811.0</ele><time>2026-04-16T07:41:15.001Z</time></trkpt><trkpt lat="44.042598643453886" lon="10.837403703585451"><ele>811.0</ele><time>2026-04-16T07:41:16.001Z</time></trkpt><trkpt lat="44.04260228625949" lon="10.837229571895932"><ele>812.5999999999999</ele><time>2026-04-16T07:41:17.001Z</time></trkpt><trkpt lat="44.042621537125086" lon="10.837063034363798"><ele>814.2</ele><time>2026-04-16T07:41:18.001Z</time></trkpt><trkpt lat="44.04265190306907" lon="10.836924449600215"><ele>815.8</ele><time>2026-04-16T07:41:19.001Z</time></trkpt><trkpt lat="44.04269335336084" lon="10.836817638755731"><ele>817.4000000000001</ele><time>2026-04-16T07:41:20.001Z</time></trkpt><trkpt lat="44.04274789447355" lon="10.836709876143454"><ele>819.0</ele><time>2026-04-16T07:41:21.001Z</time></trkpt><trkpt lat="44.04281903507094" lon="10.836607360823702"><ele>820.25</ele><time>2026-04-16T07:41:22.001Z</time></trkpt><trkpt lat="44.04290372778845" lon="10.836503926332366"><ele>821.5</ele><time>2026-04-16T07:41:23.001Z</time></trkpt><trkpt lat="44.04297607262534" lon="10.83637833857605"><ele>822.75</ele><time>2026-04-16T07:41:24.001Z</time></trkpt><trkpt lat="44.0430182440286" lon="10.836211072859824"><ele>824.0</ele><time>2026-04-16T07:41:25.001Z</time></trkpt><trkpt lat="44.043036922718926" lon="10.836031905916919"><ele>825.0</ele><time>2026-04-16T07:41:26.001Z</time></trkpt><trkpt lat="44.04302720225606" lon="10.835814793622392"><ele>826.0</ele><time>2026-04-16T07:41:27.001Z</time></trkpt><trkpt lat="44.04300165057548" lon="10.835584910976907"><ele>827.0</ele><time>2026-04-16T07:41:28.001Z</time></trkpt><trkpt lat="44.04296794998239" lon="10.835355882250054"><ele>825.25</ele><time>2026-04-16T07:41:29.001Z</time></trkpt><trkpt lat="44.04293458519635" lon="10.835131200905908"><ele>823.5</ele><time>2026-04-16T07:41:30.001Z</time></trkpt><trkpt lat="44.042913678876566" lon="10.834942015662334"><ele>821.75</ele><time>2026-04-16T07:41:31.001Z</time></trkpt><trkpt lat="44.042899881281514" lon="10.834746012390296"><ele>820.0</ele><time>2026-04-16T07:41:32.001Z</time></trkpt><trkpt lat="44.04290468708658" lon="10.834530241806155"><ele>820.0</ele><time>2026-04-16T07:41:33.001Z</time></trkpt><trkpt lat="44.0429465617909" lon="10.834315457196778"><ele>820.0</ele><time>2026-04-16T07:41:34.001Z</time></trkpt><trkpt lat="44.04299083800532" lon="10.834128802830328"><ele>820.0</ele><time>2026-04-16T07:41:35.001Z</time></trkpt><trkpt lat="44.04303694394251" lon="10.833947726857788"><ele>820.0</ele><time>2026-04-16T07:41:36.001Z</time></trkpt><trkpt lat="44.04307299850339" lon="10.833780280286536"><ele>817.5</ele><time>2026-04-16T07:41:37.001Z</time></trkpt><trkpt lat="44.043108828429325" lon="10.833616142737748"><ele>815.0</ele><time>2026-04-16T07:41:38.001Z</time></trkpt><trkpt lat="44.04312734691571" lon="10.833435745580083"><ele>812.5</ele><time>2026-04-16T07:41:39.001Z</time></trkpt><trkpt lat="44.04311685650013" lon="10.833243607307653"><ele>810.0</ele><time>2026-04-16T07:41:40.001Z</time></trkpt><trkpt lat="44.04309540426827" lon="10.83303899967377"><ele>808.6666666666667</ele><time>2026-04-16T07:41:41.001Z</time></trkpt><trkpt lat="44.04306409123201" lon="10.832818269482235"><ele>807.3333333333334</ele><time>2026-04-16T07:41:42.001Z</time></trkpt><trkpt lat="44.04302453744165" lon="10.832592712512517"><ele>806.0</ele><time>2026-04-16T07:41:43.001Z</time></trkpt><trkpt lat="44.042979992950194" lon="10.832377953909907"><ele>804.75</ele><time>2026-04-16T07:41:44.001Z</time></trkpt><trkpt lat="44.042943592208744" lon="10.832181013420588"><ele>803.5</ele><time>2026-04-16T07:41:45.001Z</time></trkpt><trkpt lat="44.042916433863375" lon="10.831974972278458"><ele>802.25</ele><time>2026-04-16T07:41:46.001Z</time></trkpt><trkpt lat="44.04289097865921" lon="10.831786713468832"><ele>801.0</ele><time>2026-04-16T07:41:47.001Z</time></trkpt><trkpt lat="44.042857254039866" lon="10.83165810499266"><ele>800.0</ele><time>2026-04-16T07:41:48Z</time></trkpt><trkpt lat="44.04279637300364" lon="10.831551544610175"><ele>799.0</ele><time>2026-04-16T07:41:48.999Z</time></trkpt><trkpt lat="44.04271176726599" lon="10.831462199534277"><ele>798.0</ele><time>2026-04-16T07:41:49.999Z</time></trkpt><trkpt lat="44.04259053050894" lon="10.831368520198115"><ele>797.0</ele><time>2026-04-16T07:41:51Z</time></trkpt><trkpt lat="44.04245503244112" lon="10.831312387378102"><ele>797.0</ele><time>2026-04-16T07:41:52Z</time></trkpt><trkpt lat="44.042332237331756" lon="10.831270033369819"><ele>797.0</ele><time>2026-04-16T07:41:53Z</time></trkpt><trkpt lat="44.042218997131954" lon="10.831256014625257"><ele>797.0</ele><time>2026-04-16T07:41:54Z</time></trkpt><trkpt lat="44.04211702441394" lon="10.831214156567112"><ele>797.0</ele><time>2026-04-16T07:41:55Z</time></trkpt><trkpt lat="44.042030391899" lon="10.83112562431919"><ele>797.0</ele><time>2026-04-16T07:41:56Z</time></trkpt><trkpt lat="44.041990384005196" lon="10.831002669910742"><ele>797.0</ele><time>2026-04-16T07:41:57Z</time></trkpt><trkpt lat="44.041970091367176" lon="10.830846467902582"><ele>797.0</ele><time>2026-04-16T07:41:58Z</time></trkpt><trkpt lat="44.0419569008181" lon="10.83067139094787"><ele>797.0</ele><time>2026-04-16T07:41:59Z</time></trkpt><trkpt lat="44.041979091574845" lon="10.830494833457728"><ele>796.5</ele><time>2026-04-16T07:42:00Z</time></trkpt><trkpt lat="44.042023534837256" lon="10.83031621374214"><ele>796.0</ele><time>2026-04-16T07:42:01Z</time></trkpt><trkpt lat="44.04207456322194" lon="10.830122248320102"><ele>795.5</ele><time>2026-04-16T07:42:02Z</time></trkpt><trkpt lat="44.042125386145244" lon="10.82991794472266"><ele>795.0</ele><time>2026-04-16T07:42:03Z</time></trkpt><trkpt lat="44.04216493917548" lon="10.829706039848828"><ele>796.25</ele><time>2026-04-16T07:42:04Z</time></trkpt><trkpt lat="44.042175899136375" lon="10.82950388858737"><ele>797.5</ele><time>2026-04-16T07:42:05Z</time></trkpt><trkpt lat="44.04217973661533" lon="10.829298227422157"><ele>798.75</ele><time>2026-04-16T07:42:06Z</time></trkpt><trkpt lat="44.04215670495668" lon="10.829087488417839"><ele>800.0</ele><time>2026-04-16T07:42:07Z</time></trkpt><trkpt lat="44.04211300864993" lon="10.828877664590182"><ele>796.6666666666667</ele><time>2026-04-16T07:42:08Z</time></trkpt><trkpt lat="44.04206203741665" lon="10.82867538452911"><ele>793.3333333333333</ele><time>2026-04-16T07:42:09Z</time></trkpt><trkpt lat="44.042024997412454" lon="10.828461644337638"><ele>790.0</ele><time>2026-04-16T07:42:10Z</time></trkpt><trkpt lat="44.042005677089435" lon="10.828237583479062"><ele>788.3333333333333</ele><time>2026-04-16T07:42:11Z</time></trkpt><trkpt lat="44.042003911608106" lon="10.828023124697559"><ele>786.6666666666667</ele><time>2026-04-16T07:42:12Z</time></trkpt><trkpt lat="44.042025246942345" lon="10.827825937066267"><ele>785.0</ele><time>2026-04-16T07:42:13Z</time></trkpt><trkpt lat="44.042074332395906" lon="10.827623359955279"><ele>785.0</ele><time>2026-04-16T07:42:14Z</time></trkpt><trkpt lat="44.04214482835916" lon="10.827423059645264"><ele>785.0</ele><time>2026-04-16T07:42:15Z</time></trkpt><trkpt lat="44.042248100070054" lon="10.827232938019922"><ele>785.0</ele><time>2026-04-16T07:42:16Z</time></trkpt><trkpt lat="44.04235683021644" lon="10.827051977938785"><ele>759.0</ele><time>2026-04-16T07:42:17Z</time></trkpt><trkpt lat="44.04270826091174" lon="10.826470023404337"><ele>759.0</ele><time>2026-04-16T07:42:20Z</time></trkpt><trkpt lat="44.04282466991481" lon="10.826293852220935"><ele>759.0</ele><time>2026-04-16T07:42:21Z</time></trkpt><trkpt lat="44.04293725433914" lon="10.826135004799944"><ele>759.0</ele><time>2026-04-16T07:42:22Z</time></trkpt><trkpt lat="44.043065493556355" lon="10.825976100194223"><ele>759.75</ele><time>2026-04-16T07:42:23Z</time></trkpt><trkpt lat="44.04317880397909" lon="10.825806225307572"><ele>760.5</ele><time>2026-04-16T07:42:24Z</time></trkpt><trkpt lat="44.043283368365856" lon="10.825666690792396"><ele>761.25</ele><time>2026-04-16T07:42:25Z</time></trkpt><trkpt lat="44.04337730423695" lon="10.825542902969984"><ele>762.0</ele><time>2026-04-16T07:42:26Z</time></trkpt><trkpt lat="44.043473972304476" lon="10.825452385543938"><ele>759.25</ele><time>2026-04-16T07:42:27Z</time></trkpt><trkpt lat="44.043573649357" lon="10.825338499731275"><ele>756.5</ele><time>2026-04-16T07:42:28Z</time></trkpt><trkpt lat="44.043629427765644" lon="10.82520368118261"><ele>753.75</ele><time>2026-04-16T07:42:29Z</time></trkpt><trkpt lat="44.043672847228514" lon="10.825065429294776"><ele>751.0</ele><time>2026-04-16T07:42:30Z</time></trkpt><trkpt lat="44.043677106728545" lon="10.824913782885591"><ele>750.75</ele><time>2026-04-16T07:42:31Z</time></trkpt><trkpt lat="44.04364435940747" lon="10.824737059431474"><ele>750.5</ele><time>2026-04-16T07:42:32Z</time></trkpt><trkpt lat="44.04362623193732" lon="10.82453263946818"><ele>750.25</ele><time>2026-04-16T07:42:33Z</time></trkpt><trkpt lat="44.04358811854717" lon="10.824355443209607"><ele>750.0</ele><time>2026-04-16T07:42:34Z</time></trkpt><trkpt lat="44.04352775443712" lon="10.824180793694168"><ele>749.0</ele><time>2026-04-16T07:42:35Z</time></trkpt><trkpt lat="44.04348305254996" lon="10.824014776173366"><ele>748.0</ele><time>2026-04-16T07:42:36Z</time></trkpt><trkpt lat="44.04346824273381" lon="10.8238241845829"><ele>747.0</ele><time>2026-04-16T07:42:37Z</time></trkpt><trkpt lat="44.04347044521776" lon="10.823609665412148"><ele>746.0</ele><time>2026-04-16T07:42:38Z</time></trkpt><trkpt lat="44.04352454987033" lon="10.82339833998417"><ele>746.0</ele><time>2026-04-16T07:42:39Z</time></trkpt><trkpt lat="44.043568072342154" lon="10.823195650090836"><ele>746.0</ele><time>2026-04-16T07:42:40Z</time></trkpt><trkpt lat="44.04362028700988" lon="10.823007280528168"><ele>746.0</ele><time>2026-04-16T07:42:41Z</time></trkpt><trkpt lat="44.04365656583274" lon="10.822822981377769"><ele>746.0</ele><time>2026-04-16T07:42:42Z</time></trkpt><trkpt lat="44.04370329178078" lon="10.822584385869941"><ele>745.0</ele><time>2026-04-16T07:42:43Z</time></trkpt><trkpt lat="44.04376554406479" lon="10.822344831695402"><ele>744.0</ele><time>2026-04-16T07:42:44Z</time></trkpt><trkpt lat="44.04381545919406" lon="10.822153215697377"><ele>743.0</ele><time>2026-04-16T07:42:45Z</time></trkpt><trkpt lat="44.04386027464428" lon="10.822020670579873"><ele>742.0</ele><time>2026-04-16T07:42:46Z</time></trkpt><trkpt lat="44.0439310147898" lon="10.821856476882296"><ele>741.25</ele><time>2026-04-16T07:42:47Z</time></trkpt><trkpt lat="44.04397859193005" lon="10.82172802110498"><ele>740.5</ele><time>2026-04-16T07:42:48Z</time></trkpt><trkpt lat="44.04401053930714" lon="10.821582536820655"><ele>739.75</ele><time>2026-04-16T07:42:49Z</time></trkpt><trkpt lat="44.04402627838549" lon="10.82141047350513"><ele>739.0</ele><time>2026-04-16T07:42:50Z</time></trkpt><trkpt lat="44.04400893228071" lon="10.82125323310211"><ele>739.0</ele><time>2026-04-16T07:42:51Z</time></trkpt><trkpt lat="44.043949954541176" lon="10.821068421632651"><ele>739.0</ele><time>2026-04-16T07:42:52Z</time></trkpt><trkpt lat="44.043872782588714" lon="10.820883989128589"><ele>739.0</ele><time>2026-04-16T07:42:53Z</time></trkpt><trkpt lat="44.043818864011534" lon="10.820704137542323"><ele>739.0</ele><time>2026-04-16T07:42:54Z</time></trkpt><trkpt lat="44.04379566661086" lon="10.820496185535427"><ele>737.75</ele><time>2026-04-16T07:42:55Z</time></trkpt><trkpt lat="44.043809228438406" lon="10.820289572591799"><ele>736.5</ele><time>2026-04-16T07:42:56Z</time></trkpt><trkpt lat="44.04381995664974" lon="10.820092740847144"><ele>735.25</ele><time>2026-04-16T07:42:57Z</time></trkpt><trkpt lat="44.04382101007841" lon="10.819901698987803"><ele>734.0</ele><time>2026-04-16T07:42:58Z</time></trkpt><trkpt lat="44.04379427259836" lon="10.819718867169595"><ele>732.0</ele><time>2026-04-16T07:42:59Z</time></trkpt><trkpt lat="44.043752287288804" lon="10.819546970145879"><ele>730.0</ele><time>2026-04-16T07:43:00Z</time></trkpt><trkpt lat="44.043691306294235" lon="10.819381181258256"><ele>728.0</ele><time>2026-04-16T07:43:01Z</time></trkpt><trkpt lat="44.04364113408932" lon="10.819214574415362"><ele>726.0</ele><time>2026-04-16T07:43:02Z</time></trkpt><trkpt lat="44.04364977527581" lon="10.819055114175153"><ele>724.75</ele><time>2026-04-16T07:43:03Z</time></trkpt><trkpt lat="44.0436889729801" lon="10.818889459937363"><ele>723.5</ele><time>2026-04-16T07:43:04Z</time></trkpt><trkpt lat="44.04373796985583" lon="10.818701403114044"><ele>722.25</ele><time>2026-04-16T07:43:05Z</time></trkpt><trkpt lat="44.04378761288644" lon="10.818496622660374"><ele>721.0</ele><time>2026-04-16T07:43:06Z</time></trkpt><trkpt lat="44.04383526345953" lon="10.818288160114124"><ele>719.6666666666667</ele><time>2026-04-16T07:43:07Z</time></trkpt><trkpt lat="44.04387899427631" lon="10.81806288142394"><ele>718.3333333333334</ele><time>2026-04-16T07:43:08Z</time></trkpt><trkpt lat="44.043933748383175" lon="10.817849032480774"><ele>717.0</ele><time>2026-04-16T07:43:09Z</time></trkpt><trkpt lat="44.04398908099957" lon="10.81762667376057"><ele>716.3333333333334</ele><time>2026-04-16T07:43:10Z</time></trkpt><trkpt lat="44.04403883278756" lon="10.817387236126335"><ele>715.6666666666667</ele><time>2026-04-16T07:43:11Z</time></trkpt><trkpt lat="44.0440903146943" lon="10.817158193982724"><ele>715.0</ele><time>2026-04-16T07:43:12Z</time></trkpt><trkpt lat="44.04414044747803" lon="10.816921294202162"><ele>709.3333333333334</ele><time>2026-04-16T07:43:13Z</time></trkpt><trkpt lat="44.044190409318766" lon="10.816696846892452"><ele>703.6666666666666</ele><time>2026-04-16T07:43:14Z</time></trkpt><trkpt lat="44.044248620548984" lon="10.816476073351268"><ele>698.0</ele><time>2026-04-16T07:43:15.001Z</time></trkpt><trkpt lat="44.04430083618098" lon="10.816260614613727"><ele>698.0</ele><time>2026-04-16T07:43:16.001Z</time></trkpt><trkpt lat="44.04435521285411" lon="10.81605801551775"><ele>698.0</ele><time>2026-04-16T07:43:17.001Z</time></trkpt><trkpt lat="44.04443210189764" lon="10.815879159273022"><ele>698.0</ele><time>2026-04-16T07:43:18.001Z</time></trkpt><trkpt lat="44.044514282137214" lon="10.815692758174507"><ele>698.0</ele><time>2026-04-16T07:43:19.001Z</time></trkpt><trkpt lat="44.04463057463953" lon="10.815505216726114"><ele>698.0</ele><time>2026-04-16T07:43:20.001Z</time></trkpt><trkpt lat="44.04475315092045" lon="10.815311384360355"><ele>698.0</ele><time>2026-04-16T07:43:21.001Z</time></trkpt><trkpt lat="44.0448729491685" lon="10.815121945278914"><ele>694.6666666666666</ele><time>2026-04-16T07:43:22.001Z</time></trkpt><trkpt lat="44.04498805936787" lon="10.814939495362669"><ele>691.3333333333334</ele><time>2026-04-16T07:43:23.001Z</time></trkpt><trkpt lat="44.0450991116987" lon="10.814794528650124"><ele>688.0</ele><time>2026-04-16T07:43:24.001Z</time></trkpt><trkpt lat="44.04519130752055" lon="10.814634091192362"><ele>688.0</ele><time>2026-04-16T07:43:25.001Z</time></trkpt><trkpt lat="44.0452768481621" lon="10.814483660414027"><ele>688.0</ele><time>2026-04-16T07:43:26.001Z</time></trkpt><trkpt lat="44.0453533769191" lon="10.8143431391851"><ele>688.0</ele><time>2026-04-16T07:43:27.001Z</time></trkpt><trkpt lat="44.04542452298692" lon="10.814213335691107"><ele>688.0</ele><time>2026-04-16T07:43:28.001Z</time></trkpt><trkpt lat="44.04548872592854" lon="10.814073629767625"><ele>687.8</ele><time>2026-04-16T07:43:29.001Z</time></trkpt><trkpt lat="44.04552806424889" lon="10.813961812765722"><ele>687.5999999999999</ele><time>2026-04-16T07:43:30.001Z</time></trkpt><trkpt lat="44.045552508303885" lon="10.81385383027999"><ele>687.4000000000001</ele><time>2026-04-16T07:43:31.001Z</time></trkpt><trkpt lat="44.04553092862098" lon="10.813716890093119"><ele>687.2</ele><time>2026-04-16T07:43:32.001Z</time></trkpt><trkpt lat="44.04547927914378" lon="10.813567836265289"><ele>687.0</ele><time>2026-04-16T07:43:33.001Z</time></trkpt><trkpt lat="44.04540705042023" lon="10.81341791165036"><ele>685.0</ele><time>2026-04-16T07:43:34.001Z</time></trkpt><trkpt lat="44.04529553120351" lon="10.813301605937417"><ele>683.0</ele><time>2026-04-16T07:43:35.001Z</time></trkpt><trkpt lat="44.04515842479347" lon="10.813229361872363"><ele>681.0</ele><time>2026-04-16T07:43:36.001Z</time></trkpt><trkpt lat="44.045012287278404" lon="10.813151677823676"><ele>679.0</ele><time>2026-04-16T07:43:37.001Z</time></trkpt><trkpt lat="44.04487393517496" lon="10.813080022494532"><ele>679.0</ele><time>2026-04-16T07:43:38.001Z</time></trkpt><trkpt lat="44.04475078941771" lon="10.813015325033838"><ele>679.0</ele><time>2026-04-16T07:43:39.001Z</time></trkpt><trkpt lat="44.04463590283173" lon="10.81295276389375"><ele>679.0</ele><time>2026-04-16T07:43:40.001Z</time></trkpt><trkpt lat="44.04453488183323" lon="10.812892518591443"><ele>679.0</ele><time>2026-04-16T07:43:41.001Z</time></trkpt><trkpt lat="44.044443940036885" lon="10.81280949270701"><ele>679.0</ele><time>2026-04-16T07:43:42.001Z</time></trkpt><trkpt lat="44.04437569181111" lon="10.81270361525924"><ele>679.0</ele><time>2026-04-16T07:43:43.001Z</time></trkpt><trkpt lat="44.044325914029145" lon="10.81258078133863"><ele>679.0</ele><time>2026-04-16T07:43:44.001Z</time></trkpt><trkpt lat="44.04429107979519" lon="10.812443459210895"><ele>679.0</ele><time>2026-04-16T07:43:45.001Z</time></trkpt><trkpt lat="44.04431058120381" lon="10.812298416477809"><ele>679.0</ele><time>2026-04-16T07:43:46.001Z</time></trkpt><trkpt lat="44.04436651596144" lon="10.812143854455542"><ele>677.75</ele><time>2026-04-16T07:43:47.001Z</time></trkpt><trkpt lat="44.044411825772954" lon="10.811991194658257"><ele>676.5</ele><time>2026-04-16T07:43:48.001Z</time></trkpt><trkpt lat="44.04447750687782" lon="10.811867112127224"><ele>675.25</ele><time>2026-04-16T07:43:49.001Z</time></trkpt><trkpt lat="44.04457972447345" lon="10.81174906280687"><ele>674.0</ele><time>2026-04-16T07:43:50.001Z</time></trkpt><trkpt lat="44.04470298187144" lon="10.811631896723709"><ele>674.0</ele><time>2026-04-16T07:43:51.001Z</time></trkpt><trkpt lat="44.044826444238424" lon="10.811501334602683"><ele>674.0</ele><time>2026-04-16T07:43:52.001Z</time></trkpt><trkpt lat="44.04496107139849" lon="10.811375835114434"><ele>674.0</ele><time>2026-04-16T07:43:53.001Z</time></trkpt><trkpt lat="44.045107428367885" lon="10.811261205906858"><ele>671.0</ele><time>2026-04-16T07:43:54Z</time></trkpt><trkpt lat="44.045261577325995" lon="10.811140541672561"><ele>668.0</ele><time>2026-04-16T07:43:55Z</time></trkpt><trkpt lat="44.04540130258682" lon="10.811019167987958"><ele>665.0</ele><time>2026-04-16T07:43:56Z</time></trkpt><trkpt lat="44.04553606631835" lon="10.810890607302174"><ele>665.0</ele><time>2026-04-16T07:43:57Z</time></trkpt><trkpt lat="44.045668922433606" lon="10.810782806251202"><ele>665.0</ele><time>2026-04-16T07:43:58Z</time></trkpt><trkpt lat="44.04580033925723" lon="10.810686058758822"><ele>665.0</ele><time>2026-04-16T07:43:59Z</time></trkpt><trkpt lat="44.04593682005675" lon="10.810590950192305"><ele>661.75</ele><time>2026-04-16T07:44:00Z</time></trkpt><trkpt lat="44.04607353603411" lon="10.810515964223878"><ele>658.5</ele><time>2026-04-16T07:44:01Z</time></trkpt><trkpt lat="44.046197282663854" lon="10.810431088750178"><ele>655.25</ele><time>2026-04-16T07:44:02Z</time></trkpt><trkpt lat="44.046317868952414" lon="10.810352093784472"><ele>652.0</ele><time>2026-04-16T07:44:03Z</time></trkpt><trkpt lat="44.046445228174974" lon="10.810289083906191"><ele>652.0</ele><time>2026-04-16T07:44:04Z</time></trkpt><trkpt lat="44.046559110896204" lon="10.810240108130447"><ele>652.0</ele><time>2026-04-16T07:44:05Z</time></trkpt><trkpt lat="44.04666482493752" lon="10.810158041758708"><ele>652.0</ele><time>2026-04-16T07:44:06Z</time></trkpt><trkpt lat="44.04676763003614" lon="10.810066510769403"><ele>652.0</ele><time>2026-04-16T07:44:07Z</time></trkpt><trkpt lat="44.04684558698226" lon="10.809970387783643"><ele>650.2</ele><time>2026-04-16T07:44:08Z</time></trkpt><trkpt lat="44.0468993522" lon="10.80984668077881"><ele>648.4000000000001</ele><time>2026-04-16T07:44:09Z</time></trkpt><trkpt lat="44.046951554711455" lon="10.809708049216292"><ele>646.5999999999999</ele><time>2026-04-16T07:44:10Z</time></trkpt><trkpt lat="44.04699453593586" lon="10.809596242936207"><ele>644.8</ele><time>2026-04-16T07:44:11Z</time></trkpt><trkpt lat="44.04702350662427" lon="10.80948626059536"><ele>643.0</ele><time>2026-04-16T07:44:12Z</time></trkpt><trkpt lat="44.047022014424016" lon="10.80937484080293"><ele>642.4</ele><time>2026-04-16T07:44:13Z</time></trkpt><trkpt lat="44.047001012987806" lon="10.80927260555515"><ele>641.8</ele><time>2026-04-16T07:44:14Z</time></trkpt><trkpt lat="44.04696527571588" lon="10.80915575734138"><ele>641.2</ele><time>2026-04-16T07:44:15Z</time></trkpt><trkpt lat="44.0469082337901" lon="10.809010133442095"><ele>640.6</ele><time>2026-04-16T07:44:16Z</time></trkpt><trkpt lat="44.04687425149002" lon="10.808902680961422"><ele>640.0</ele><time>2026-04-16T07:44:17Z</time></trkpt><trkpt lat="44.046848446861034" lon="10.80877955256175"><ele>640.0</ele><time>2026-04-16T07:44:18Z</time></trkpt><trkpt lat="44.046848868251196" lon="10.808662703342804"><ele>640.0</ele><time>2026-04-16T07:44:19Z</time></trkpt><trkpt lat="44.046878622221925" lon="10.808558214904487"><ele>640.0</ele><time>2026-04-16T07:44:20Z</time></trkpt><trkpt lat="44.046934395500394" lon="10.808466838584456"><ele>640.0</ele><time>2026-04-16T07:44:21Z</time></trkpt><trkpt lat="44.047013963196555" lon="10.80840570587864"><ele>640.0</ele><time>2026-04-16T07:44:22Z</time></trkpt><trkpt lat="44.047098340186515" lon="10.808386527822778"><ele>640.0</ele><time>2026-04-16T07:44:23Z</time></trkpt><trkpt lat="44.04719573293994" lon="10.808388115589258"><ele>639.1666666666667</ele><time>2026-04-16T07:44:24Z</time></trkpt><trkpt lat="44.04729057358579" lon="10.808401876970308"><ele>638.3333333333334</ele><time>2026-04-16T07:44:25Z</time></trkpt><trkpt lat="44.04738522389843" lon="10.80838909021811"><ele>637.5</ele><time>2026-04-16T07:44:26Z</time></trkpt><trkpt lat="44.04746936900389" lon="10.808429636991475"><ele>636.6666666666666</ele><time>2026-04-16T07:44:27Z</time></trkpt><trkpt lat="44.04755429895604" lon="10.80843063009074"><ele>635.8333333333333</ele><time>2026-04-16T07:44:28Z</time></trkpt><trkpt lat="44.04762750218662" lon="10.808442050173099"><ele>635.0</ele><time>2026-04-16T07:44:29Z</time></trkpt><trkpt lat="44.04772425937495" lon="10.808442347098424"><ele>633.8333333333333</ele><time>2026-04-16T07:44:30Z</time></trkpt><trkpt lat="44.04782435823583" lon="10.808446755873382"><ele>632.6666666666666</ele><time>2026-04-16T07:44:31Z</time></trkpt><trkpt lat="44.047909351520374" lon="10.80846345849537"><ele>631.5</ele><time>2026-04-16T07:44:32Z</time></trkpt><trkpt lat="44.047993205290226" lon="10.808475844262448"><ele>630.3333333333334</ele><time>2026-04-16T07:44:33Z</time></trkpt><trkpt lat="44.04806481737172" lon="10.808472280863107"><ele>629.1666666666667</ele><time>2026-04-16T07:44:34Z</time></trkpt><trkpt lat="44.048141142477306" lon="10.808461868284795"><ele>628.0</ele><time>2026-04-16T07:44:35Z</time></trkpt><trkpt lat="44.04821522844525" lon="10.808421638444713"><ele>628.0</ele><time>2026-04-16T07:44:36Z</time></trkpt><trkpt lat="44.04828718725681" lon="10.808335274218297"><ele>628.0</ele><time>2026-04-16T07:44:37Z</time></trkpt><trkpt lat="44.048337103096074" lon="10.808211648949875"><ele>628.0</ele><time>2026-04-16T07:44:38Z</time></trkpt><trkpt lat="44.04838465661464" lon="10.808053139008612"><ele>628.0</ele><time>2026-04-16T07:44:39Z</time></trkpt><trkpt lat="44.0484524431752" lon="10.80788450733956"><ele>629.75</ele><time>2026-04-16T07:44:40Z</time></trkpt><trkpt lat="44.04851398972012" lon="10.807708390323308"><ele>631.5</ele><time>2026-04-16T07:44:41Z</time></trkpt><trkpt lat="44.04858233900269" lon="10.807516029485106"><ele>633.25</ele><time>2026-04-16T07:44:42Z</time></trkpt><trkpt lat="44.04863668995614" lon="10.807319387610722"><ele>635.0</ele><time>2026-04-16T07:44:43Z</time></trkpt><trkpt lat="44.04871726667591" lon="10.807188016578118"><ele>635.4</ele><time>2026-04-16T07:44:44Z</time></trkpt><trkpt lat="44.04877535564673" lon="10.807057254708647"><ele>635.8</ele><time>2026-04-16T07:44:45.001Z</time></trkpt><trkpt lat="44.04887081306123" lon="10.807033100589242"><ele>636.2</ele><time>2026-04-16T07:44:46.001Z</time></trkpt><trkpt lat="44.04896523085728" lon="10.807036465244998"><ele>636.6</ele><time>2026-04-16T07:44:47.001Z</time></trkpt><trkpt lat="44.04909473375683" lon="10.807018674785027"><ele>637.0</ele><time>2026-04-16T07:44:48.001Z</time></trkpt><trkpt lat="44.049236868679095" lon="10.807037668266195"><ele>638.0</ele><time>2026-04-16T07:44:49.001Z</time></trkpt><trkpt lat="44.04937953332096" lon="10.807043973662017"><ele>639.0</ele><time>2026-04-16T07:44:50.001Z</time></trkpt><trkpt lat="44.0495309754905" lon="10.807019901853323"><ele>640.0</ele><time>2026-04-16T07:44:51.001Z</time></trkpt><trkpt lat="44.04966695526741" lon="10.806956338612585"><ele>641.0</ele><time>2026-04-16T07:44:52.001Z</time></trkpt><trkpt lat="44.049805843396484" lon="10.806855150073993"><ele>640.25</ele><time>2026-04-16T07:44:53.001Z</time></trkpt><trkpt lat="44.049924085969636" lon="10.80675258181232"><ele>639.5</ele><time>2026-04-16T07:44:54.001Z</time></trkpt><trkpt lat="44.05001991442714" lon="10.806612452386357"><ele>638.75</ele><time>2026-04-16T07:44:55.001Z</time></trkpt><trkpt lat="44.050100649644705" lon="10.806445134469785"><ele>638.0</ele><time>2026-04-16T07:44:56.001Z</time></trkpt><trkpt lat="44.05018544219319" lon="10.806250134911839"><ele>638.3333333333333</ele><time>2026-04-16T07:44:57.001Z</time></trkpt><trkpt lat="44.05026790067784" lon="10.80603942356839"><ele>638.6666666666666</ele><time>2026-04-16T07:44:58.001Z</time></trkpt><trkpt lat="44.05035609075091" lon="10.805840979928343"><ele>639.0</ele><time>2026-04-16T07:44:59.001Z</time></trkpt><trkpt lat="44.05044730555483" lon="10.805638236154088"><ele>639.0</ele><time>2026-04-16T07:45:00.001Z</time></trkpt><trkpt lat="44.050547525083786" lon="10.805466677246274"><ele>639.0</ele><time>2026-04-16T07:45:01.001Z</time></trkpt><trkpt lat="44.050647776453154" lon="10.805323136054849"><ele>639.0</ele><time>2026-04-16T07:45:02.001Z</time></trkpt><trkpt lat="44.05075576806648" lon="10.805212392962774"><ele>639.0</ele><time>2026-04-16T07:45:03.001Z</time></trkpt><trkpt lat="44.050864688652766" lon="10.805134458245966"><ele>640.0</ele><time>2026-04-16T07:45:04.001Z</time></trkpt><trkpt lat="44.0509991078728" lon="10.805115673753193"><ele>641.0</ele><time>2026-04-16T07:45:05.001Z</time></trkpt><trkpt lat="44.05114530010786" lon="10.805120958052838"><ele>642.0</ele><time>2026-04-16T07:45:06.001Z</time></trkpt><trkpt lat="44.05127482544212" lon="10.805134837294858"><ele>643.0</ele><time>2026-04-16T07:45:07.001Z</time></trkpt><trkpt lat="44.05140101885032" lon="10.805103660504143"><ele>643.0</ele><time>2026-04-16T07:45:08.001Z</time></trkpt><trkpt lat="44.05151890041246" lon="10.80502511819833"><ele>643.0</ele><time>2026-04-16T07:45:09.001Z</time></trkpt><trkpt lat="44.05164162563148" lon="10.804912059500975"><ele>643.0</ele><time>2026-04-16T07:45:10.001Z</time></trkpt><trkpt lat="44.051759369755416" lon="10.804784564894083"><ele>643.0</ele><time>2026-04-16T07:45:11.001Z</time></trkpt><trkpt lat="44.05187767573927" lon="10.804666900217025"><ele>644.75</ele><time>2026-04-16T07:45:12.001Z</time></trkpt><trkpt lat="44.05197574617019" lon="10.804538244753235"><ele>646.5</ele><time>2026-04-16T07:45:13.001Z</time></trkpt><trkpt lat="44.052079879873574" lon="10.804391343958747"><ele>648.25</ele><time>2026-04-16T07:45:14.001Z</time></trkpt><trkpt lat="44.052163213343796" lon="10.804212500528973"><ele>650.0</ele><time>2026-04-16T07:45:15.001Z</time></trkpt><trkpt lat="44.052221271872654" lon="10.804019648450256"><ele>645.0</ele><time>2026-04-16T07:45:16.001Z</time></trkpt><trkpt lat="44.052273238638136" lon="10.803796703392008"><ele>640.0</ele><time>2026-04-16T07:45:17.001Z</time></trkpt><trkpt lat="44.052338473793434" lon="10.803569494607586"><ele>635.0</ele><time>2026-04-16T07:45:18.001Z</time></trkpt><trkpt lat="44.052415459786" lon="10.80334718712737"><ele>637.0</ele><time>2026-04-16T07:45:19.001Z</time></trkpt><trkpt lat="44.052506538972274" lon="10.803121429794055"><ele>639.0</ele><time>2026-04-16T07:45:20.001Z</time></trkpt><trkpt lat="44.05260367787071" lon="10.802903306684685"><ele>641.0</ele><time>2026-04-16T07:45:21.001Z</time></trkpt><trkpt lat="44.052703848397584" lon="10.802724796466086"><ele>639.75</ele><time>2026-04-16T07:45:22.001Z</time></trkpt><trkpt lat="44.05280976570963" lon="10.802570667562394"><ele>638.5</ele><time>2026-04-16T07:45:23.001Z</time></trkpt><trkpt lat="44.05291382323323" lon="10.802432911452438"><ele>637.25</ele><time>2026-04-16T07:45:24.001Z</time></trkpt><trkpt lat="44.053021694384114" lon="10.802286788508672"><ele>636.0</ele><time>2026-04-16T07:45:25.001Z</time></trkpt><trkpt lat="44.053128332518874" lon="10.80214472302774"><ele>636.0</ele><time>2026-04-16T07:45:26.001Z</time></trkpt><trkpt lat="44.053227984636976" lon="10.802007629016517"><ele>636.0</ele><time>2026-04-16T07:45:27.001Z</time></trkpt><trkpt lat="44.05333642923391" lon="10.801889564641327"><ele>636.0</ele><time>2026-04-16T07:45:28.001Z</time></trkpt><trkpt lat="44.05344094950786" lon="10.801760771761248"><ele>636.0</ele><time>2026-04-16T07:45:29.001Z</time></trkpt><trkpt lat="44.053546632609255" lon="10.801653064781348"><ele>636.0</ele><time>2026-04-16T07:45:30.001Z</time></trkpt><trkpt lat="44.053640514020124" lon="10.801547537334093"><ele>636.0</ele><time>2026-04-16T07:45:31.001Z</time></trkpt><trkpt lat="44.053713559803924" lon="10.801406669583137"><ele>636.0</ele><time>2026-04-16T07:45:32.001Z</time></trkpt><trkpt lat="44.05378937388108" lon="10.801238700233277"><ele>636.0</ele><time>2026-04-16T07:45:33.001Z</time></trkpt><trkpt lat="44.05385718628381" lon="10.80104979521899"><ele>633.0</ele><time>2026-04-16T07:45:34.001Z</time></trkpt><trkpt lat="44.053919908869126" lon="10.800821637236862"><ele>630.0</ele><time>2026-04-16T07:45:35.001Z</time></trkpt><trkpt lat="44.05399738336687" lon="10.800596296854906"><ele>627.0</ele><time>2026-04-16T07:45:36.001Z</time></trkpt><trkpt lat="44.05407838663388" lon="10.800399317622256"><ele>630.0</ele><time>2026-04-16T07:45:37.001Z</time></trkpt><trkpt lat="44.05414334815119" lon="10.80020620479342"><ele>633.0</ele><time>2026-04-16T07:45:38.001Z</time></trkpt><trkpt lat="44.05422016264988" lon="10.800023329241837"><ele>636.0</ele><time>2026-04-16T07:45:39.001Z</time></trkpt><trkpt lat="44.05431497928217" lon="10.79984625464556"><ele>636.0</ele><time>2026-04-16T07:45:40.001Z</time></trkpt><trkpt lat="44.05439823684173" lon="10.799688808035798"><ele>636.0</ele><time>2026-04-16T07:45:41.001Z</time></trkpt><trkpt lat="44.05450355571647" lon="10.799542613717826"><ele>636.0</ele><time>2026-04-16T07:45:42.001Z</time></trkpt><trkpt lat="44.054620159085395" lon="10.799411716803382"><ele>636.0</ele><time>2026-04-16T07:45:43.001Z</time></trkpt><trkpt lat="44.05475648822587" lon="10.799287232176443"><ele>635.75</ele><time>2026-04-16T07:45:44.001Z</time></trkpt><trkpt lat="44.054874369377636" lon="10.799139932892512"><ele>635.5</ele><time>2026-04-16T07:45:45.001Z</time></trkpt><trkpt lat="44.05498863626458" lon="10.799008375596493"><ele>635.25</ele><time>2026-04-16T07:45:46.001Z</time></trkpt><trkpt lat="44.05509542269227" lon="10.798878448253333"><ele>635.0</ele><time>2026-04-16T07:45:47.001Z</time></trkpt><trkpt lat="44.0552073766939" lon="10.798753339266263"><ele>635.0</ele><time>2026-04-16T07:45:48.001Z</time></trkpt><trkpt lat="44.05529824057338" lon="10.798587858378294"><ele>635.0</ele><time>2026-04-16T07:45:49.001Z</time></trkpt><trkpt lat="44.05539076142371" lon="10.798414684363566"><ele>635.0</ele><time>2026-04-16T07:45:50.001Z</time></trkpt><trkpt lat="44.0554779612594" lon="10.798245545463091"><ele>633.25</ele><time>2026-04-16T07:45:51.001Z</time></trkpt><trkpt lat="44.05555444494292" lon="10.798072465682093"><ele>631.5</ele><time>2026-04-16T07:45:52.001Z</time></trkpt><trkpt lat="44.05561565142921" lon="10.797890599885456"><ele>629.75</ele><time>2026-04-16T07:45:53.001Z</time></trkpt><trkpt lat="44.05566526587543" lon="10.797688349301097"><ele>628.0</ele><time>2026-04-16T07:45:54.001Z</time></trkpt><trkpt lat="44.05570081489929" lon="10.797466120468735"><ele>624.3333333333334</ele><time>2026-04-16T07:45:55.001Z</time></trkpt><trkpt lat="44.05572932537428" lon="10.797234248914725"><ele>620.6666666666666</ele><time>2026-04-16T07:45:56.001Z</time></trkpt><trkpt lat="44.05575246497247" lon="10.79701758108111"><ele>617.0</ele><time>2026-04-16T07:45:57.001Z</time></trkpt><trkpt lat="44.055779447583525" lon="10.79678687380831"><ele>622.3333333333333</ele><time>2026-04-16T07:45:58.001Z</time></trkpt><trkpt lat="44.055806232089544" lon="10.796560120929863"><ele>627.6666666666666</ele><time>2026-04-16T07:45:59.001Z</time></trkpt><trkpt lat="44.055827433955784" lon="10.796310210526768"><ele>633.0</ele><time>2026-04-16T07:46:00Z</time></trkpt><trkpt lat="44.05583806432191" lon="10.796076897684552"><ele>633.25</ele><time>2026-04-16T07:46:01Z</time></trkpt><trkpt lat="44.05584475143456" lon="10.795890372011119"><ele>633.5</ele><time>2026-04-16T07:46:02Z</time></trkpt><trkpt lat="44.05588507014238" lon="10.79569063028767"><ele>633.75</ele><time>2026-04-16T07:46:03Z</time></trkpt><trkpt lat="44.055949703443844" lon="10.795506136649843"><ele>634.0</ele><time>2026-04-16T07:46:04Z</time></trkpt><trkpt lat="44.0559994126555" lon="10.79536978182874"><ele>634.0</ele><time>2026-04-16T07:46:05Z</time></trkpt><trkpt lat="44.05604083476266" lon="10.795272782258637"><ele>634.0</ele><time>2026-04-16T07:46:06Z</time></trkpt><trkpt lat="44.056063931111495" lon="10.795130257348225"><ele>634.0</ele><time>2026-04-16T07:46:07Z</time></trkpt><trkpt lat="44.05609765413984" lon="10.795025467166703"><ele>634.0</ele><time>2026-04-16T07:46:08Z</time></trkpt><trkpt lat="44.05614425838148" lon="10.794903410990896"><ele>634.0</ele><time>2026-04-16T07:46:09Z</time></trkpt><trkpt lat="44.05619438715954" lon="10.794751574220435"><ele>632.0</ele><time>2026-04-16T07:46:10Z</time></trkpt><trkpt lat="44.056236253687224" lon="10.794592567930872"><ele>630.0</ele><time>2026-04-16T07:46:11Z</time></trkpt><trkpt lat="44.05627804029107" lon="10.794435911019697"><ele>628.0</ele><time>2026-04-16T07:46:12Z</time></trkpt><trkpt lat="44.05629789315276" lon="10.79431090075465"><ele>626.0</ele><time>2026-04-16T07:46:13Z</time></trkpt><trkpt lat="44.05631319155461" lon="10.794198996119992"><ele>624.0</ele><time>2026-04-16T07:46:14Z</time></trkpt><trkpt lat="44.05632286955164" lon="10.79406497088091"><ele>622.75</ele><time>2026-04-16T07:46:15Z</time></trkpt><trkpt lat="44.056315466203316" lon="10.79391617329218"><ele>621.5</ele><time>2026-04-16T07:46:16Z</time></trkpt><trkpt lat="44.05626967150716" lon="10.793743623460182"><ele>620.25</ele><time>2026-04-16T07:46:17Z</time></trkpt><trkpt lat="44.05621803809435" lon="10.793592308287062"><ele>619.0</ele><time>2026-04-16T07:46:18Z</time></trkpt><trkpt lat="44.056171646457045" lon="10.79347512150881"><ele>618.8333333333334</ele><time>2026-04-16T07:46:19Z</time></trkpt><trkpt lat="44.05615027104911" lon="10.793344032489513"><ele>618.6666666666667</ele><time>2026-04-16T07:46:20Z</time></trkpt><trkpt lat="44.056116093238956" lon="10.793228272713137"><ele>618.5</ele><time>2026-04-16T07:46:21Z</time></trkpt><trkpt lat="44.056099618795194" lon="10.793126122693756"><ele>618.3333333333334</ele><time>2026-04-16T07:46:22Z</time></trkpt><trkpt lat="44.056073288913865" lon="10.793028889701942"><ele>618.1666666666666</ele><time>2026-04-16T07:46:23Z</time></trkpt><trkpt lat="44.056044783581314" lon="10.792912380371964"><ele>618.0</ele><time>2026-04-16T07:46:24Z</time></trkpt><trkpt lat="44.05601084530415" lon="10.792810324685535"><ele>618.0</ele><time>2026-04-16T07:46:25Z</time></trkpt><trkpt lat="44.05597416293538" lon="10.792698035368662"><ele>618.0</ele><time>2026-04-16T07:46:26Z</time></trkpt><trkpt lat="44.055945112621515" lon="10.792587730803842"><ele>618.0</ele><time>2026-04-16T07:46:27Z</time></trkpt><trkpt lat="44.05591189276936" lon="10.792458334948503"><ele>618.0</ele><time>2026-04-16T07:46:28Z</time></trkpt><trkpt lat="44.05587862585259" lon="10.79234341923012"><ele>618.0</ele><time>2026-04-16T07:46:29Z</time></trkpt><trkpt lat="44.055848992805196" lon="10.792233520455769"><ele>618.0</ele><time>2026-04-16T07:46:30Z</time></trkpt><trkpt lat="44.05581754986581" lon="10.792123151713149"><ele>618.4</ele><time>2026-04-16T07:46:31Z</time></trkpt><trkpt lat="44.055789288167574" lon="10.79202420722875"><ele>618.8</ele><time>2026-04-16T07:46:32Z</time></trkpt><trkpt lat="44.05577678827743" lon="10.791932238001955"><ele>619.2</ele><time>2026-04-16T07:46:33Z</time></trkpt><trkpt lat="44.05574427501963" lon="10.791766380301162"><ele>619.6</ele><time>2026-04-16T07:46:35Z</time></trkpt><trkpt lat="44.055710851912686" lon="10.791591867934187"><ele>620.0</ele><time>2026-04-16T07:46:37Z</time></trkpt><trkpt lat="44.05569144983014" lon="10.791499891176061"><ele>620.5</ele><time>2026-04-16T07:46:38Z</time></trkpt><trkpt lat="44.055666843985904" lon="10.791408335608885"><ele>621.0</ele><time>2026-04-16T07:46:39Z</time></trkpt><trkpt lat="44.05563376605672" lon="10.791316814065036"><ele>621.5</ele><time>2026-04-16T07:46:40Z</time></trkpt><trkpt lat="44.055592348648204" lon="10.791235615212901"><ele>622.0</ele><time>2026-04-16T07:46:41Z</time></trkpt><trkpt lat="44.05553674981982" lon="10.791119301818487"><ele>622.5</ele><time>2026-04-16T07:46:43Z</time></trkpt><trkpt lat="44.05550263685633" lon="10.791043889830812"><ele>623.0</ele><time>2026-04-16T07:46:44Z</time></trkpt><trkpt lat="44.055464488225546" lon="10.790921811399583"><ele>623.0</ele><time>2026-04-16T07:46:46.001Z</time></trkpt><trkpt lat="44.055444515264846" lon="10.790830376444754"><ele>623.0</ele><time>2026-04-16T07:46:48.001Z</time></trkpt><trkpt lat="44.05542451919276" lon="10.79068880965473"><ele>623.0</ele><time>2026-04-16T07:46:51.001Z</time></trkpt><trkpt lat="44.05543552877109" lon="10.790527700666926"><ele>623.0</ele><time>2026-04-16T07:46:53.001Z</time></trkpt><trkpt lat="44.05545309311811" lon="10.7904271019354"><ele>623.0</ele><time>2026-04-16T07:46:54.001Z</time></trkpt><trkpt lat="44.0554688004389" lon="10.790299831033092"><ele>621.5</ele><time>2026-04-16T07:46:55.001Z</time></trkpt><trkpt lat="44.05548448634439" lon="10.790169045314329"><ele>620.0</ele><time>2026-04-16T07:46:56.001Z</time></trkpt><trkpt lat="44.05550322588975" lon="10.790004351880755"><ele>618.5</ele><time>2026-04-16T07:46:57.001Z</time></trkpt><trkpt lat="44.05552403533162" lon="10.789838784619375"><ele>617.0</ele><time>2026-04-16T07:46:58.001Z</time></trkpt><trkpt lat="44.055534076446065" lon="10.789680415322502"><ele>617.0</ele><time>2026-04-16T07:46:59.001Z</time></trkpt><trkpt lat="44.05553385631367" lon="10.78951106964114"><ele>617.0</ele><time>2026-04-16T07:47:00.001Z</time></trkpt><trkpt lat="44.055537044156836" lon="10.789350273637348"><ele>617.0</ele><time>2026-04-16T07:47:01.001Z</time></trkpt><trkpt lat="44.055524569174146" lon="10.7891857883288"><ele>617.0</ele><time>2026-04-16T07:47:02.001Z</time></trkpt><trkpt lat="44.05553816827732" lon="10.789059198284736"><ele>617.0</ele><time>2026-04-16T07:47:03.001Z</time></trkpt><trkpt lat="44.055543515355815" lon="10.78890480489581"><ele>616.25</ele><time>2026-04-16T07:47:04.001Z</time></trkpt><trkpt lat="44.05553312429344" lon="10.788751455848818"><ele>615.5</ele><time>2026-04-16T07:47:05.001Z</time></trkpt><trkpt lat="44.055555055669885" lon="10.78859830430653"><ele>614.75</ele><time>2026-04-16T07:47:06.001Z</time></trkpt><trkpt lat="44.055562658519314" lon="10.788428906199174"><ele>614.0</ele><time>2026-04-16T07:47:07.001Z</time></trkpt><trkpt lat="44.05556755900096" lon="10.788269270821901"><ele>614.0</ele><time>2026-04-16T07:47:08.001Z</time></trkpt><trkpt lat="44.055578263770215" lon="10.78810284793686"><ele>614.0</ele><time>2026-04-16T07:47:09.001Z</time></trkpt><trkpt lat="44.0555898790955" lon="10.787932852692919"><ele>614.0</ele><time>2026-04-16T07:47:10.001Z</time></trkpt><trkpt lat="44.05560044510594" lon="10.78775714835683"><ele>614.0</ele><time>2026-04-16T07:47:11.001Z</time></trkpt><trkpt lat="44.055611569507676" lon="10.787587355870293"><ele>614.25</ele><time>2026-04-16T07:47:12.001Z</time></trkpt><trkpt lat="44.05561326218785" lon="10.787415830353265"><ele>614.5</ele><time>2026-04-16T07:47:13.001Z</time></trkpt><trkpt lat="44.055606916949216" lon="10.787245491974591"><ele>614.75</ele><time>2026-04-16T07:47:14.001Z</time></trkpt><trkpt lat="44.05561060261876" lon="10.787081187413065"><ele>615.0</ele><time>2026-04-16T07:47:15.001Z</time></trkpt><trkpt lat="44.05561778709777" lon="10.786918223993714"><ele>614.75</ele><time>2026-04-16T07:47:16.001Z</time></trkpt><trkpt lat="44.05562290877463" lon="10.786741336943605"><ele>614.5</ele><time>2026-04-16T07:47:17.001Z</time></trkpt><trkpt lat="44.05563885834497" lon="10.786564098963987"><ele>614.25</ele><time>2026-04-16T07:47:18.001Z</time></trkpt><trkpt lat="44.05564540026263" lon="10.786371258729025"><ele>614.0</ele><time>2026-04-16T07:47:19.001Z</time></trkpt><trkpt lat="44.055661408192165" lon="10.786182144030997"><ele>610.75</ele><time>2026-04-16T07:47:20.001Z</time></trkpt><trkpt lat="44.05567960163608" lon="10.785996820050359"><ele>607.5</ele><time>2026-04-16T07:47:21.001Z</time></trkpt><trkpt lat="44.05571568511856" lon="10.785835361198894"><ele>604.25</ele><time>2026-04-16T07:47:22.001Z</time></trkpt><trkpt lat="44.055767809135006" lon="10.785667997881651"><ele>601.0</ele><time>2026-04-16T07:47:23.001Z</time></trkpt><trkpt lat="44.0558567264333" lon="10.785536997534166"><ele>604.25</ele><time>2026-04-16T07:47:24.001Z</time></trkpt><trkpt lat="44.055962714558184" lon="10.785422192119357"><ele>607.5</ele><time>2026-04-16T07:47:25.001Z</time></trkpt><trkpt lat="44.05609266551398" lon="10.785304192773143"><ele>610.75</ele><time>2026-04-16T07:47:26.001Z</time></trkpt><trkpt lat="44.056212939034225" lon="10.785161033733932"><ele>614.0</ele><time>2026-04-16T07:47:27.001Z</time></trkpt><trkpt lat="44.056324700304906" lon="10.784999174106336"><ele>614.0</ele><time>2026-04-16T07:47:28.001Z</time></trkpt><trkpt lat="44.05642743450331" lon="10.7848404284791"><ele>614.0</ele><time>2026-04-16T07:47:29.001Z</time></trkpt><trkpt lat="44.05651561180141" lon="10.784693785406581"><ele>614.0</ele><time>2026-04-16T07:47:30.001Z</time></trkpt><trkpt lat="44.0565910003254" lon="10.784529301790391"><ele>614.0</ele><time>2026-04-16T07:47:31.001Z</time></trkpt><trkpt lat="44.0566528157758" lon="10.784354964662484"><ele>618.0</ele><time>2026-04-16T07:47:32.001Z</time></trkpt><trkpt lat="44.05668164782107" lon="10.784171865370176"><ele>622.0</ele><time>2026-04-16T07:47:33.001Z</time></trkpt><trkpt lat="44.056690224369056" lon="10.783996858702414"><ele>626.0</ele><time>2026-04-16T07:47:34.001Z</time></trkpt><trkpt lat="44.05667717938631" lon="10.78379742650944"><ele>630.0</ele><time>2026-04-16T07:47:35.001Z</time></trkpt><trkpt lat="44.056653574316705" lon="10.783587233072076"><ele>630.3333333333334</ele><time>2026-04-16T07:47:36.001Z</time></trkpt><trkpt lat="44.05662478433174" lon="10.783362005093773"><ele>630.6666666666667</ele><time>2026-04-16T07:47:37.001Z</time></trkpt><trkpt lat="44.056584111853645" lon="10.78312623204853"><ele>631.0</ele><time>2026-04-16T07:47:38.001Z</time></trkpt><trkpt lat="44.056550374996895" lon="10.782888755947013"><ele>624.5</ele><time>2026-04-16T07:47:39.001Z</time></trkpt><trkpt lat="44.05652706530373" lon="10.782690081660528"><ele>618.0</ele><time>2026-04-16T07:47:40.001Z</time></trkpt><trkpt lat="44.05651476824598" lon="10.782512221557177"><ele>611.5</ele><time>2026-04-16T07:47:41.001Z</time></trkpt><trkpt lat="44.05653855591102" lon="10.782335702691887"><ele>605.0</ele><time>2026-04-16T07:47:42.001Z</time></trkpt><trkpt lat="44.05658834418674" lon="10.782163999863041"><ele>608.3333333333333</ele><time>2026-04-16T07:47:43.001Z</time></trkpt><trkpt lat="44.05666821747522" lon="10.781992781979481"><ele>611.6666666666666</ele><time>2026-04-16T07:47:44.001Z</time></trkpt><trkpt lat="44.05678656634217" lon="10.78186874809524"><ele>615.0</ele><time>2026-04-16T07:47:45.001Z</time></trkpt><trkpt lat="44.05691016836253" lon="10.781729471754982"><ele>615.0</ele><time>2026-04-16T07:47:46.001Z</time></trkpt><trkpt lat="44.05703679575643" lon="10.781590526381406"><ele>615.0</ele><time>2026-04-16T07:47:47.001Z</time></trkpt><trkpt lat="44.05716066116945" lon="10.781431608511017"><ele>615.0</ele><time>2026-04-16T07:47:48.001Z</time></trkpt><trkpt lat="44.05726032619929" lon="10.781264978883199"><ele>615.0</ele><time>2026-04-16T07:47:49.001Z</time></trkpt><trkpt lat="44.057357293987884" lon="10.781108297474535"><ele>615.0</ele><time>2026-04-16T07:47:50.001Z</time></trkpt><trkpt lat="44.05743999899578" lon="10.780963272167194"><ele>615.0</ele><time>2026-04-16T07:47:51.001Z</time></trkpt><trkpt lat="44.057513217910035" lon="10.780841544919378"><ele>615.0</ele><time>2026-04-16T07:47:52.001Z</time></trkpt><trkpt lat="44.057566582663235" lon="10.780725093984834"><ele>615.8</ele><time>2026-04-16T07:47:53.001Z</time></trkpt><trkpt lat="44.05760551518902" lon="10.780598952813996"><ele>616.6</ele><time>2026-04-16T07:47:54.001Z</time></trkpt><trkpt lat="44.0576092060296" lon="10.780475264457374"><ele>617.4</ele><time>2026-04-16T07:47:55.001Z</time></trkpt><trkpt lat="44.05757609964164" lon="10.7803407711392"><ele>618.2</ele><time>2026-04-16T07:47:56.001Z</time></trkpt><trkpt lat="44.05750332797556" lon="10.780204043434512"><ele>619.0</ele><time>2026-04-16T07:47:57.001Z</time></trkpt><trkpt lat="44.057398609484146" lon="10.780076498209803"><ele>613.6666666666667</ele><time>2026-04-16T07:47:58.001Z</time></trkpt><trkpt lat="44.057279035350945" lon="10.779932428871966"><ele>608.3333333333334</ele><time>2026-04-16T07:47:59.001Z</time></trkpt><trkpt lat="44.057160795298806" lon="10.77980049826669"><ele>603.0</ele><time>2026-04-16T07:48:00.001Z</time></trkpt><trkpt lat="44.057040384755204" lon="10.77966316835946"><ele>603.0</ele><time>2026-04-16T07:48:01.001Z</time></trkpt><trkpt lat="44.056920293447696" lon="10.779545021651835"><ele>603.0</ele><time>2026-04-16T07:48:02.001Z</time></trkpt><trkpt lat="44.056794846014185" lon="10.779419635262208"><ele>603.0</ele><time>2026-04-16T07:48:03.001Z</time></trkpt><trkpt lat="44.056656246447844" lon="10.779258675052068"><ele>594.6666666666666</ele><time>2026-04-16T07:48:04.001Z</time></trkpt><trkpt lat="44.056551464346086" lon="10.77904603901699"><ele>586.3333333333333</ele><time>2026-04-16T07:48:05.001Z</time></trkpt><trkpt lat="44.05643052123592" lon="10.778846877042962"><ele>578.0</ele><time>2026-04-16T07:48:06Z</time></trkpt><trkpt lat="44.056311723284644" lon="10.778636885911174"><ele>584.3333333333333</ele><time>2026-04-16T07:48:07Z</time></trkpt><trkpt lat="44.056196320614355" lon="10.778413043544365"><ele>590.6666666666666</ele><time>2026-04-16T07:48:08Z</time></trkpt><trkpt lat="44.05608660090515" lon="10.778189868039398"><ele>597.0</ele><time>2026-04-16T07:48:09Z</time></trkpt><trkpt lat="44.05596366135055" lon="10.778000001916633"><ele>597.0</ele><time>2026-04-16T07:48:10Z</time></trkpt><trkpt lat="44.05584918046971" lon="10.77782281533401"><ele>597.0</ele><time>2026-04-16T07:48:11Z</time></trkpt><trkpt lat="44.05571754038863" lon="10.777652318092969"><ele>597.0</ele><time>2026-04-16T07:48:12Z</time></trkpt><trkpt lat="44.055590150841944" lon="10.777483449639107"><ele>589.3333333333334</ele><time>2026-04-16T07:48:13Z</time></trkpt><trkpt lat="44.055464079187736" lon="10.777319505658898"><ele>581.6666666666667</ele><time>2026-04-16T07:48:14Z</time></trkpt><trkpt lat="44.055344269483676" lon="10.77716186169093"><ele>574.0</ele><time>2026-04-16T07:48:15Z</time></trkpt><trkpt lat="44.055241340758826" lon="10.777014083576459"><ele>574.0</ele><time>2026-04-16T07:48:16Z</time></trkpt><trkpt lat="44.05514968905262" lon="10.776860302000806"><ele>574.0</ele><time>2026-04-16T07:48:17Z</time></trkpt><trkpt lat="44.055041145019274" lon="10.776721730476728"><ele>574.0</ele><time>2026-04-16T07:48:18Z</time></trkpt><trkpt lat="44.05497817298207" lon="10.776550169282341"><ele>574.0</ele><time>2026-04-16T07:48:19Z</time></trkpt><trkpt lat="44.05492669937804" lon="10.776370246541076"><ele>570.0</ele><time>2026-04-16T07:48:20Z</time></trkpt><trkpt lat="44.0548683196701" lon="10.77620145808781"><ele>566.0</ele><time>2026-04-16T07:48:21Z</time></trkpt><trkpt lat="44.05480866703696" lon="10.776021577036564"><ele>562.0</ele><time>2026-04-16T07:48:22Z</time></trkpt><trkpt lat="44.05475520823862" lon="10.77587431611441"><ele>558.0</ele><time>2026-04-16T07:48:23Z</time></trkpt><trkpt lat="44.05471400728559" lon="10.775741468458994"><ele>558.0</ele><time>2026-04-16T07:48:24Z</time></trkpt><trkpt lat="44.0546758911519" lon="10.775618494977389"><ele>558.0</ele><time>2026-04-16T07:48:25Z</time></trkpt><trkpt lat="44.05465244253339" lon="10.775500648857065"><ele>558.0</ele><time>2026-04-16T07:48:26Z</time></trkpt><trkpt lat="44.05464085280609" lon="10.77539267938938"><ele>558.0</ele><time>2026-04-16T07:48:27Z</time></trkpt><trkpt lat="44.0546729845388" lon="10.775290050501498"><ele>558.0</ele><time>2026-04-16T07:48:28Z</time></trkpt><trkpt lat="44.05475104346887" lon="10.775224700904246"><ele>558.0</ele><time>2026-04-16T07:48:29Z</time></trkpt><trkpt lat="44.05483230896806" lon="10.775212724027117"><ele>558.0</ele><time>2026-04-16T07:48:30Z</time></trkpt><trkpt lat="44.054940774787546" lon="10.775228179682992"><ele>558.0</ele><time>2026-04-16T07:48:31Z</time></trkpt><trkpt lat="44.05507678610779" lon="10.775262565930818"><ele>558.0</ele><time>2026-04-16T07:48:32Z</time></trkpt><trkpt lat="44.05523836804733" lon="10.775303794293213"><ele>558.0</ele><time>2026-04-16T07:48:33Z</time></trkpt><trkpt lat="44.0554059082487" lon="10.775335779577368"><ele>571.3333333333334</ele><time>2026-04-16T07:48:34Z</time></trkpt><trkpt lat="44.05557340783014" lon="10.775353329854061"><ele>584.6666666666667</ele><time>2026-04-16T07:48:35Z</time></trkpt><trkpt lat="44.055743329866566" lon="10.775370354141424"><ele>598.0</ele><time>2026-04-16T07:48:36Z</time></trkpt><trkpt lat="44.05590026584117" lon="10.775391193763046"><ele>599.75</ele><time>2026-04-16T07:48:37Z</time></trkpt><trkpt lat="44.05604837229176" lon="10.775410037702736"><ele>601.5</ele><time>2026-04-16T07:48:38Z</time></trkpt><trkpt lat="44.05618813314921" lon="10.775425977392848"><ele>603.25</ele><time>2026-04-16T07:48:39Z</time></trkpt><trkpt lat="44.056321748861905" lon="10.775441778431912"><ele>605.0</ele><time>2026-04-16T07:48:40Z</time></trkpt><trkpt lat="44.0564506964711" lon="10.775460597524392"><ele>605.0</ele><time>2026-04-16T07:48:41Z</time></trkpt><trkpt lat="44.05657980176818" lon="10.775477999359572"><ele>605.0</ele><time>2026-04-16T07:48:42Z</time></trkpt><trkpt lat="44.05671466238489" lon="10.775494554637165"><ele>605.0</ele><time>2026-04-16T07:48:43Z</time></trkpt><trkpt lat="44.05683237269922" lon="10.775509004584531"><ele>605.0</ele><time>2026-04-16T07:48:44Z</time></trkpt><trkpt lat="44.05696080355883" lon="10.775524770551897"><ele>602.25</ele><time>2026-04-16T07:48:45Z</time></trkpt><trkpt lat="44.057100496487976" lon="10.775541919036133"><ele>599.5</ele><time>2026-04-16T07:48:46Z</time></trkpt><trkpt lat="44.057227389005575" lon="10.77555749616067"><ele>596.75</ele><time>2026-04-16T07:48:47Z</time></trkpt><trkpt lat="44.05735288111307" lon="10.775578324650093"><ele>594.0</ele><time>2026-04-16T07:48:48Z</time></trkpt><trkpt lat="44.05745823063162" lon="10.775565963976238"><ele>593.2</ele><time>2026-04-16T07:48:49Z</time></trkpt><trkpt lat="44.05755139104091" lon="10.775533442651806"><ele>592.4</ele><time>2026-04-16T07:48:50Z</time></trkpt><trkpt lat="44.05764118328652" lon="10.775491106893925"><ele>591.6</ele><time>2026-04-16T07:48:51Z</time></trkpt><trkpt lat="44.057723420195586" lon="10.775399039124384"><ele>590.8</ele><time>2026-04-16T07:48:52Z</time></trkpt><trkpt lat="44.05778029475113" lon="10.775259236193945"><ele>590.0</ele><time>2026-04-16T07:48:53Z</time></trkpt><trkpt lat="44.05779837303079" lon="10.775118323647417"><ele>583.5</ele><time>2026-04-16T07:48:54Z</time></trkpt><trkpt lat="44.05779257832972" lon="10.774976364355872"><ele>577.0</ele><time>2026-04-16T07:48:55Z</time></trkpt><trkpt lat="44.05773847491025" lon="10.774829495885767"><ele>570.5</ele><time>2026-04-16T07:48:56Z</time></trkpt><trkpt lat="44.05770266065395" lon="10.774665589204403"><ele>564.0</ele><time>2026-04-16T07:48:57Z</time></trkpt><trkpt lat="44.05767797581875" lon="10.77448552408515"><ele>563.0</ele><time>2026-04-16T07:48:58Z</time></trkpt><trkpt lat="44.05765778334749" lon="10.77432825460827"><ele>562.0</ele><time>2026-04-16T07:48:59Z</time></trkpt><trkpt lat="44.05765213944918" lon="10.774174801728234"><ele>561.0</ele><time>2026-04-16T07:49:00Z</time></trkpt><trkpt lat="44.05760469348673" lon="10.77406317860759"><ele>560.0</ele><time>2026-04-16T07:49:01Z</time></trkpt><trkpt lat="44.05751203389145" lon="10.773983295410602"><ele>559.0</ele><time>2026-04-16T07:49:02Z</time></trkpt><trkpt lat="44.057426096986426" lon="10.773936416435301"><ele>557.6</ele><time>2026-04-16T07:49:03Z</time></trkpt><trkpt lat="44.05732614784764" lon="10.773923825971588"><ele>556.2</ele><time>2026-04-16T07:49:04Z</time></trkpt><trkpt lat="44.05723507104453" lon="10.773960654251693"><ele>554.8000000000001</ele><time>2026-04-16T07:49:05Z</time></trkpt><trkpt lat="44.057146527648165" lon="10.774017966298866"><ele>553.4</ele><time>2026-04-16T07:49:06Z</time></trkpt><trkpt lat="44.05706501186706" lon="10.774095304125504"><ele>552.0</ele><time>2026-04-16T07:49:07Z</time></trkpt><trkpt lat="44.05699377357944" lon="10.774173632233198"><ele>552.0</ele><time>2026-04-16T07:49:08Z</time></trkpt><trkpt lat="44.0569196283417" lon="10.774220248845568"><ele>552.0</ele><time>2026-04-16T07:49:09Z</time></trkpt><trkpt lat="44.056834393384015" lon="10.774229258423233"><ele>552.0</ele><time>2026-04-16T07:49:10Z</time></trkpt><trkpt lat="44.05674182449945" lon="10.774209906043476"><ele>552.0</ele><time>2026-04-16T07:49:11Z</time></trkpt><trkpt lat="44.05664893639483" lon="10.774173669173521"><ele>552.0</ele><time>2026-04-16T07:49:12.001Z</time></trkpt><trkpt lat="44.056559331046124" lon="10.774099611285575"><ele>552.2</ele><time>2026-04-16T07:49:13.001Z</time></trkpt><trkpt lat="44.05649172438931" lon="10.773979212433314"><ele>552.4000000000001</ele><time>2026-04-16T07:49:14.001Z</time></trkpt><trkpt lat="44.05641102382449" lon="10.773854392495362"><ele>552.5999999999999</ele><time>2026-04-16T07:49:15.001Z</time></trkpt><trkpt lat="44.05635522614637" lon="10.773721530164103"><ele>552.8</ele><time>2026-04-16T07:49:16.001Z</time></trkpt><trkpt lat="44.05630474520055" lon="10.773590622183967"><ele>553.0</ele><time>2026-04-16T07:49:17.001Z</time></trkpt><trkpt lat="44.056259063459294" lon="10.773473343588863"><ele>550.6666666666667</ele><time>2026-04-16T07:49:18.001Z</time></trkpt><trkpt lat="44.056222083439316" lon="10.773348436017228"><ele>548.3333333333334</ele><time>2026-04-16T07:49:19.001Z</time></trkpt><trkpt lat="44.05621663143523" lon="10.773221090621073"><ele>546.0</ele><time>2026-04-16T07:49:20.001Z</time></trkpt><trkpt lat="44.056270817597685" lon="10.77313182593946"><ele>543.6666666666666</ele><time>2026-04-16T07:49:21.001Z</time></trkpt><trkpt lat="44.056332957065514" lon="10.773078570923275"><ele>541.3333333333333</ele><time>2026-04-16T07:49:22.001Z</time></trkpt><trkpt lat="44.05641197404769" lon="10.77304669517314"><ele>539.0</ele><time>2026-04-16T07:49:23.001Z</time></trkpt><trkpt lat="44.056510617287515" lon="10.773005203721059"><ele>539.5</ele><time>2026-04-16T07:49:24.001Z</time></trkpt><trkpt lat="44.05661956339837" lon="10.772956183103945"><ele>540.0</ele><time>2026-04-16T07:49:25.001Z</time></trkpt><trkpt lat="44.05672322903965" lon="10.77290141432862"><ele>540.5</ele><time>2026-04-16T07:49:26.001Z</time></trkpt><trkpt lat="44.05682766462414" lon="10.772830426935272"><ele>541.0</ele><time>2026-04-16T07:49:27.001Z</time></trkpt><trkpt lat="44.05690450166464" lon="10.772724376778811"><ele>537.75</ele><time>2026-04-16T07:49:28.001Z</time></trkpt><trkpt lat="44.05696039419975" lon="10.772581879227927"><ele>534.5</ele><time>2026-04-16T07:49:29.001Z</time></trkpt><trkpt lat="44.0570163899456" lon="10.772433621696827"><ele>531.25</ele><time>2026-04-16T07:49:30.001Z</time></trkpt><trkpt lat="44.05705793482832" lon="10.772271007954323"><ele>528.0</ele><time>2026-04-16T07:49:31.001Z</time></trkpt><trkpt lat="44.05712278082021" lon="10.77211482687223"><ele>528.0</ele><time>2026-04-16T07:49:32.001Z</time></trkpt><trkpt lat="44.057195925939766" lon="10.7719703839846"><ele>528.0</ele><time>2026-04-16T07:49:33.001Z</time></trkpt><trkpt lat="44.05727083982642" lon="10.771834237376948"><ele>528.0</ele><time>2026-04-16T07:49:34.001Z</time></trkpt><trkpt lat="44.05737126135915" lon="10.771726152382763"><ele>528.0</ele><time>2026-04-16T07:49:35.001Z</time></trkpt><trkpt lat="44.05745053210144" lon="10.771607604709837"><ele>527.1999999999999</ele><time>2026-04-16T07:49:36.001Z</time></trkpt><trkpt lat="44.05751596037255" lon="10.771509910006337"><ele>526.4</ele><time>2026-04-16T07:49:37.001Z</time></trkpt><trkpt lat="44.057575910840356" lon="10.771402776836746"><ele>525.5999999999999</ele><time>2026-04-16T07:49:38.001Z</time></trkpt><trkpt lat="44.05761446644499" lon="10.771287078155003"><ele>524.8</ele><time>2026-04-16T07:49:39.001Z</time></trkpt><trkpt lat="44.05762977484288" lon="10.771127304147535"><ele>524.0</ele><time>2026-04-16T07:49:40.001Z</time></trkpt><trkpt lat="44.05763072713998" lon="10.77096842736639"><ele>522.0</ele><time>2026-04-16T07:49:41.001Z</time></trkpt><trkpt lat="44.05763768260813" lon="10.770820610826567"><ele>520.0</ele><time>2026-04-16T07:49:42.001Z</time></trkpt><trkpt lat="44.05766315048512" lon="10.770692602562022"><ele>518.0</ele><time>2026-04-16T07:49:43.001Z</time></trkpt><trkpt lat="44.057715203933476" lon="10.77059512810424"><ele>516.0</ele><time>2026-04-16T07:49:44.001Z</time></trkpt><trkpt lat="44.05778942118613" lon="10.770514630634661"><ele>514.0</ele><time>2026-04-16T07:49:45.001Z</time></trkpt><trkpt lat="44.05786964090349" lon="10.77046185530098"><ele>514.0</ele><time>2026-04-16T07:49:46.001Z</time></trkpt><trkpt lat="44.05795266585804" lon="10.770423513682122"><ele>514.0</ele><time>2026-04-16T07:49:47.001Z</time></trkpt><trkpt lat="44.05802968251664" lon="10.770362422635209"><ele>514.0</ele><time>2026-04-16T07:49:48.001Z</time></trkpt><trkpt lat="44.05808265782174" lon="10.770252177223407"><ele>514.0</ele><time>2026-04-16T07:49:49.001Z</time></trkpt><trkpt lat="44.058105471416326" lon="10.770108445188525"><ele>514.0</ele><time>2026-04-16T07:49:50.001Z</time></trkpt><trkpt lat="44.05809986240827" lon="10.769947415955025"><ele>511.0</ele><time>2026-04-16T07:49:51.001Z</time></trkpt><trkpt lat="44.05806407286349" lon="10.769786193175271"><ele>508.0</ele><time>2026-04-16T07:49:52.001Z</time></trkpt><trkpt lat="44.05802937875699" lon="10.76961358274325"><ele>505.0</ele><time>2026-04-16T07:49:53.001Z</time></trkpt><trkpt lat="44.058013095388496" lon="10.769443003830808"><ele>502.0</ele><time>2026-04-16T07:49:54.001Z</time></trkpt><trkpt lat="44.05803490796998" lon="10.769286443304305"><ele>503.5</ele><time>2026-04-16T07:49:55.001Z</time></trkpt><trkpt lat="44.05808899182797" lon="10.769154314412441"><ele>505.0</ele><time>2026-04-16T07:49:56.001Z</time></trkpt><trkpt lat="44.05817486308772" lon="10.769024864520045"><ele>506.5</ele><time>2026-04-16T07:49:57.001Z</time></trkpt><trkpt lat="44.058282658020026" lon="10.768911421983894"><ele>508.0</ele><time>2026-04-16T07:49:58.001Z</time></trkpt><trkpt lat="44.058421886281515" lon="10.768847999026129"><ele>508.0</ele><time>2026-04-16T07:49:59.001Z</time></trkpt><trkpt lat="44.05857179633742" lon="10.768743534890872"><ele>508.0</ele><time>2026-04-16T07:50:00.001Z</time></trkpt><trkpt lat="44.05872544152201" lon="10.7686045295902"><ele>508.0</ele><time>2026-04-16T07:50:01.001Z</time></trkpt><trkpt lat="44.05887703717246" lon="10.768447433620848"><ele>506.33333333333337</ele><time>2026-04-16T07:50:02.001Z</time></trkpt><trkpt lat="44.05901157115999" lon="10.768277015969886"><ele>504.66666666666663</ele><time>2026-04-16T07:50:03.001Z</time></trkpt><trkpt lat="44.0591464228455" lon="10.76814186770164"><ele>503.0</ele><time>2026-04-16T07:50:04.001Z</time></trkpt><trkpt lat="44.05925795540327" lon="10.768021673424798"><ele>503.0</ele><time>2026-04-16T07:50:05.001Z</time></trkpt><trkpt lat="44.05937188163692" lon="10.76793329637091"><ele>503.0</ele><time>2026-04-16T07:50:06.001Z</time></trkpt><trkpt lat="44.05949431846908" lon="10.76789337894224"><ele>503.0</ele><time>2026-04-16T07:50:07.001Z</time></trkpt><trkpt lat="44.05962314995206" lon="10.767890150240307"><ele>503.0</ele><time>2026-04-16T07:50:08.001Z</time></trkpt><trkpt lat="44.05977573115245" lon="10.767938235208556"><ele>503.0</ele><time>2026-04-16T07:50:09.001Z</time></trkpt><trkpt lat="44.05992305057774" lon="10.767980696090445"><ele>503.0</ele><time>2026-04-16T07:50:10.001Z</time></trkpt><trkpt lat="44.06008242508414" lon="10.768027563908747"><ele>503.0</ele><time>2026-04-16T07:50:11.001Z</time></trkpt><trkpt lat="44.06026992263882" lon="10.768086870506517"><ele>503.66666666666663</ele><time>2026-04-16T07:50:12Z</time></trkpt><trkpt lat="44.060440698579896" lon="10.768142639547172"><ele>504.33333333333337</ele><time>2026-04-16T07:50:13Z</time></trkpt><trkpt lat="44.06060284117337" lon="10.768179025870195"><ele>505.0</ele><time>2026-04-16T07:50:14Z</time></trkpt><trkpt lat="44.06074356959221" lon="10.768240109361484"><ele>501.0</ele><time>2026-04-16T07:50:15Z</time></trkpt><trkpt lat="44.06087315639419" lon="10.76829784657188"><ele>497.0</ele><time>2026-04-16T07:50:16Z</time></trkpt><trkpt lat="44.06099721118693" lon="10.768327762398133"><ele>493.0</ele><time>2026-04-16T07:50:17Z</time></trkpt><trkpt lat="44.061096012123244" lon="10.7683008699893"><ele>489.0</ele><time>2026-04-16T07:50:18Z</time></trkpt><trkpt lat="44.06118859755549" lon="10.768214845670352"><ele>489.0</ele><time>2026-04-16T07:50:19Z</time></trkpt><trkpt lat="44.06128963584538" lon="10.768076530013603"><ele>489.0</ele><time>2026-04-16T07:50:20Z</time></trkpt><trkpt lat="44.061398742060916" lon="10.767903511665619"><ele>489.0</ele><time>2026-04-16T07:50:21Z</time></trkpt><trkpt lat="44.061502241117665" lon="10.7677329218579"><ele>484.33333333333337</ele><time>2026-04-16T07:50:22Z</time></trkpt><trkpt lat="44.061593448543796" lon="10.767596664588625"><ele>479.6666666666667</ele><time>2026-04-16T07:50:23Z</time></trkpt><trkpt lat="44.061706387850805" lon="10.767451232193508"><ele>475.0</ele><time>2026-04-16T07:50:24Z</time></trkpt><trkpt lat="44.061803956142114" lon="10.767266752248577"><ele>475.0</ele><time>2026-04-16T07:50:25Z</time></trkpt><trkpt lat="44.06186623197593" lon="10.767039733408499"><ele>475.0</ele><time>2026-04-16T07:50:26Z</time></trkpt><trkpt lat="44.061957110066125" lon="10.766843400822513"><ele>475.0</ele><time>2026-04-16T07:50:27Z</time></trkpt><trkpt lat="44.06205030417427" lon="10.766648465595122"><ele>471.0</ele><time>2026-04-16T07:50:28Z</time></trkpt><trkpt lat="44.062143747798444" lon="10.766474783478374"><ele>467.0</ele><time>2026-04-16T07:50:29Z</time></trkpt><trkpt lat="44.06222775388289" lon="10.766333076092405"><ele>463.0</ele><time>2026-04-16T07:50:30Z</time></trkpt><trkpt lat="44.062306211001285" lon="10.76621397575135"><ele>459.0</ele><time>2026-04-16T07:50:31Z</time></trkpt><trkpt lat="44.062391857683345" lon="10.766125371893843"><ele>462.2</ele><time>2026-04-16T07:50:32Z</time></trkpt><trkpt lat="44.06248277285965" lon="10.766069805768986"><ele>465.4</ele><time>2026-04-16T07:50:33Z</time></trkpt><trkpt lat="44.06259403187845" lon="10.7660867519062"><ele>468.6</ele><time>2026-04-16T07:50:34Z</time></trkpt><trkpt lat="44.062700904860804" lon="10.766140337873193"><ele>471.8</ele><time>2026-04-16T07:50:35Z</time></trkpt><trkpt lat="44.062790902010505" lon="10.766238505198094"><ele>475.0</ele><time>2026-04-16T07:50:36Z</time></trkpt><trkpt lat="44.06286026885793" lon="10.766418840494051"><ele>475.0</ele><time>2026-04-16T07:50:37Z</time></trkpt><trkpt lat="44.062942363839525" lon="10.766595508762778"><ele>475.0</ele><time>2026-04-16T07:50:38Z</time></trkpt><trkpt lat="44.06302655341257" lon="10.766783677511702"><ele>475.0</ele><time>2026-04-16T07:50:39Z</time></trkpt><trkpt lat="44.063118295830655" lon="10.766940129474353"><ele>475.5</ele><time>2026-04-16T07:50:40Z</time></trkpt><trkpt lat="44.06319538206197" lon="10.767071277010043"><ele>476.0</ele><time>2026-04-16T07:50:41Z</time></trkpt><trkpt lat="44.063271208803634" lon="10.76719251421137"><ele>476.5</ele><time>2026-04-16T07:50:42Z</time></trkpt><trkpt lat="44.063362689479185" lon="10.76729467168917"><ele>477.0</ele><time>2026-04-16T07:50:43Z</time></trkpt><trkpt lat="44.06346486181335" lon="10.767364561985538"><ele>477.0</ele><time>2026-04-16T07:50:44Z</time></trkpt><trkpt lat="44.06354686135817" lon="10.767415697940555"><ele>477.0</ele><time>2026-04-16T07:50:45Z</time></trkpt><trkpt lat="44.06367646234235" lon="10.767405442444394"><ele>477.0</ele><time>2026-04-16T07:50:46Z</time></trkpt><trkpt lat="44.06380083194014" lon="10.767353335039887"><ele>477.0</ele><time>2026-04-16T07:50:47Z</time></trkpt><trkpt lat="44.06391970533394" lon="10.767265854177769"><ele>477.0</ele><time>2026-04-16T07:50:48Z</time></trkpt><trkpt lat="44.06402585191657" lon="10.76714779481638"><ele>477.0</ele><time>2026-04-16T07:50:49Z</time></trkpt><trkpt lat="44.06411127981083" lon="10.76701314503293"><ele>477.0</ele><time>2026-04-16T07:50:50Z</time></trkpt><trkpt lat="44.064164645165405" lon="10.766886012377537"><ele>477.0</ele><time>2026-04-16T07:50:51Z</time></trkpt><trkpt lat="44.06422093816709" lon="10.766789126973311"><ele>472.8</ele><time>2026-04-16T07:50:52Z</time></trkpt><trkpt lat="44.06426842659122" lon="10.766716011845302"><ele>468.6</ele><time>2026-04-16T07:50:53.001Z</time></trkpt><trkpt lat="44.06432979426579" lon="10.766663953017792"><ele>464.40000000000003</ele><time>2026-04-16T07:50:54.001Z</time></trkpt><trkpt lat="44.064418326479796" lon="10.76663148649838"><ele>460.20000000000005</ele><time>2026-04-16T07:50:55.001Z</time></trkpt><trkpt lat="44.06453355753369" lon="10.76661849604431"><ele>456.0</ele><time>2026-04-16T07:50:56.001Z</time></trkpt><trkpt lat="44.06465751427665" lon="10.766611514698527"><ele>456.0</ele><time>2026-04-16T07:50:57.001Z</time></trkpt><trkpt lat="44.06477710655987" lon="10.766603423371542"><ele>456.0</ele><time>2026-04-16T07:50:58.001Z</time></trkpt><trkpt lat="44.06489113216285" lon="10.766603436765436"><ele>456.0</ele><time>2026-04-16T07:50:59.001Z</time></trkpt><trkpt lat="44.064984060684445" lon="10.766592205954108"><ele>456.0</ele><time>2026-04-16T07:51:00.001Z</time></trkpt><trkpt lat="44.065062705671075" lon="10.76659277381766"><ele>456.0</ele><time>2026-04-16T07:51:01.001Z</time></trkpt><trkpt lat="44.06516628221245" lon="10.766531480779129"><ele>456.75</ele><time>2026-04-16T07:51:02.001Z</time></trkpt><trkpt lat="44.06524604654884" lon="10.766381868897033"><ele>457.5</ele><time>2026-04-16T07:51:03.001Z</time></trkpt><trkpt lat="44.0652713922279" lon="10.766210131505742"><ele>458.25</ele><time>2026-04-16T07:51:04.001Z</time></trkpt><trkpt lat="44.065294860979385" lon="10.766046378776203"><ele>459.0</ele><time>2026-04-16T07:51:05.001Z</time></trkpt><trkpt lat="44.0653224555416" lon="10.765875545323546"><ele>466.0</ele><time>2026-04-16T07:51:06.001Z</time></trkpt><trkpt lat="44.0653923875654" lon="10.765705851978616"><ele>473.0</ele><time>2026-04-16T07:51:07.001Z</time></trkpt><trkpt lat="44.06548659098193" lon="10.765560703099814"><ele>480.0</ele><time>2026-04-16T07:51:08.001Z</time></trkpt><trkpt lat="44.065597020761366" lon="10.765429590535108"><ele>487.0</ele><time>2026-04-16T07:51:09.001Z</time></trkpt><trkpt lat="44.06571547308078" lon="10.765341264464888"><ele>490.5</ele><time>2026-04-16T07:51:10.001Z</time></trkpt><trkpt lat="44.06582989146405" lon="10.765270313306768"><ele>494.0</ele><time>2026-04-16T07:51:11.001Z</time></trkpt><trkpt lat="44.06594906623315" lon="10.765195433855691"><ele>497.5</ele><time>2026-04-16T07:51:12.001Z</time></trkpt><trkpt lat="44.06606796006095" lon="10.765144169918479"><ele>501.0</ele><time>2026-04-16T07:51:13.001Z</time></trkpt><trkpt lat="44.06618576360809" lon="10.765081175378896"><ele>501.0</ele><time>2026-04-16T07:51:14.001Z</time></trkpt><trkpt lat="44.066310304602425" lon="10.765019174339384"><ele>501.0</ele><time>2026-04-16T07:51:15.001Z</time></trkpt><trkpt lat="44.06644902204778" lon="10.765021140287883"><ele>501.0</ele><time>2026-04-16T07:51:16.001Z</time></trkpt><trkpt lat="44.06659048425294" lon="10.7650202579988"><ele>501.0</ele><time>2026-04-16T07:51:17.001Z</time></trkpt><trkpt lat="44.06675339191614" lon="10.765019662440272"><ele>495.33333333333337</ele><time>2026-04-16T07:51:18.001Z</time></trkpt><trkpt lat="44.06693095774364" lon="10.765019013292306"><ele>489.6666666666667</ele><time>2026-04-16T07:51:19.001Z</time></trkpt><trkpt lat="44.067087590553" lon="10.764985564437492"><ele>484.0</ele><time>2026-04-16T07:51:20.001Z</time></trkpt><trkpt lat="44.06725096501515" lon="10.764979279840052"><ele>484.0</ele><time>2026-04-16T07:51:21.001Z</time></trkpt><trkpt lat="44.06743318851631" lon="10.764977146554644"><ele>484.0</ele><time>2026-04-16T07:51:22.001Z</time></trkpt><trkpt lat="44.06762153073201" lon="10.764984282240572"><ele>484.0</ele><time>2026-04-16T07:51:23.001Z</time></trkpt><trkpt lat="44.067784096125585" lon="10.765033220755235"><ele>482.6666666666667</ele><time>2026-04-16T07:51:24.001Z</time></trkpt><trkpt lat="44.06794793073097" lon="10.76507753108255"><ele>481.33333333333337</ele><time>2026-04-16T07:51:25.001Z</time></trkpt><trkpt lat="44.068118489232" lon="10.765121039875904"><ele>480.0</ele><time>2026-04-16T07:51:26.001Z</time></trkpt><trkpt lat="44.06828354598728" lon="10.765144958244344"><ele>484.33333333333337</ele><time>2026-04-16T07:51:27.001Z</time></trkpt><trkpt lat="44.068444041998745" lon="10.765138115553874"><ele>488.6666666666667</ele><time>2026-04-16T07:51:28.001Z</time></trkpt><trkpt lat="44.068611364481484" lon="10.765109535066905"><ele>493.0</ele><time>2026-04-16T07:51:29.001Z</time></trkpt><trkpt lat="44.06879748272746" lon="10.765065967547491"><ele>493.0</ele><time>2026-04-16T07:51:30.001Z</time></trkpt><trkpt lat="44.06895387652911" lon="10.765065772463112"><ele>493.0</ele><time>2026-04-16T07:51:31.001Z</time></trkpt><trkpt lat="44.06911088756022" lon="10.765102392296058"><ele>493.0</ele><time>2026-04-16T07:51:32.001Z</time></trkpt><trkpt lat="44.06925629384273" lon="10.765181377245408"><ele>487.6666666666667</ele><time>2026-04-16T07:51:33.001Z</time></trkpt><trkpt lat="44.06941488537557" lon="10.7652804322216"><ele>482.33333333333337</ele><time>2026-04-16T07:51:34.001Z</time></trkpt><trkpt lat="44.069573500915084" lon="10.765366444168967"><ele>477.0</ele><time>2026-04-16T07:51:35.001Z</time></trkpt><trkpt lat="44.069746990434695" lon="10.765429662876675"><ele>477.0</ele><time>2026-04-16T07:51:36.001Z</time></trkpt><trkpt lat="44.069921311708505" lon="10.76548104249336"><ele>477.0</ele><time>2026-04-16T07:51:37.001Z</time></trkpt><trkpt lat="44.07005963425431" lon="10.765540187080992"><ele>477.0</ele><time>2026-04-16T07:51:38.001Z</time></trkpt><trkpt lat="44.070183604423825" lon="10.765600842092407"><ele>477.8</ele><time>2026-04-16T07:51:39.001Z</time></trkpt><trkpt lat="44.07029599463459" lon="10.765654749916642"><ele>478.6</ele><time>2026-04-16T07:51:40.001Z</time></trkpt><trkpt lat="44.070393325787904" lon="10.76570588766646"><ele>479.40000000000003</ele><time>2026-04-16T07:51:41.001Z</time></trkpt><trkpt lat="44.070492786599345" lon="10.765719654205064"><ele>480.20000000000005</ele><time>2026-04-16T07:51:42.001Z</time></trkpt><trkpt lat="44.07057677595364" lon="10.765680805559535"><ele>481.0</ele><time>2026-04-16T07:51:43.001Z</time></trkpt><trkpt lat="44.070662807427894" lon="10.76559478516747"><ele>481.0</ele><time>2026-04-16T07:51:44.001Z</time></trkpt><trkpt lat="44.0707275910091" lon="10.765455534216297"><ele>481.0</ele><time>2026-04-16T07:51:45.001Z</time></trkpt><trkpt lat="44.07080258779716" lon="10.765297555301542"><ele>481.0</ele><time>2026-04-16T07:51:46.001Z</time></trkpt><trkpt lat="44.0708995487741" lon="10.76511634951536"><ele>481.0</ele><time>2026-04-16T07:51:47.001Z</time></trkpt><trkpt lat="44.07099445148771" lon="10.764966111244679"><ele>482.0</ele><time>2026-04-16T07:51:48.001Z</time></trkpt><trkpt lat="44.071123238090685" lon="10.764883625916301"><ele>483.0</ele><time>2026-04-16T07:51:49.001Z</time></trkpt><trkpt lat="44.071240294128174" lon="10.764817192494585"><ele>484.0</ele><time>2026-04-16T07:51:50.001Z</time></trkpt><trkpt lat="44.07139153849701" lon="10.764786811954906"><ele>485.0</ele><time>2026-04-16T07:51:51.001Z</time></trkpt><trkpt lat="44.07155089313589" lon="10.764754818011184"><ele>485.5</ele><time>2026-04-16T07:51:52.001Z</time></trkpt><trkpt lat="44.07169737116692" lon="10.764727901322681"><ele>486.0</ele><time>2026-04-16T07:51:53.001Z</time></trkpt><trkpt lat="44.071830992309195" lon="10.76470668691306"><ele>486.5</ele><time>2026-04-16T07:51:54.001Z</time></trkpt><trkpt lat="44.07196081570558" lon="10.764693305804123"><ele>487.0</ele><time>2026-04-16T07:51:55.001Z</time></trkpt><trkpt lat="44.072075290601965" lon="10.764733861426553"><ele>487.0</ele><time>2026-04-16T07:51:56.001Z</time></trkpt><trkpt lat="44.07215694698713" lon="10.764863294645053"><ele>487.0</ele><time>2026-04-16T07:51:57.001Z</time></trkpt><trkpt lat="44.072240850133774" lon="10.765014036731921"><ele>487.0</ele><time>2026-04-16T07:51:58.001Z</time></trkpt><trkpt lat="44.07234177233342" lon="10.765194860380296"><ele>487.0</ele><time>2026-04-16T07:51:59.001Z</time></trkpt><trkpt lat="44.072433276912605" lon="10.76535852594421"><ele>489.0</ele><time>2026-04-16T07:52:00.001Z</time></trkpt><trkpt lat="44.07252732963747" lon="10.765527041489097"><ele>491.0</ele><time>2026-04-16T07:52:01.001Z</time></trkpt><trkpt lat="44.07263226670476" lon="10.765716006103846"><ele>493.0</ele><time>2026-04-16T07:52:02.001Z</time></trkpt><trkpt lat="44.07272882231494" lon="10.765905482837532"><ele>494.33333333333337</ele><time>2026-04-16T07:52:03.001Z</time></trkpt><trkpt lat="44.07282098926938" lon="10.766115455314937"><ele>495.66666666666663</ele><time>2026-04-16T07:52:04.001Z</time></trkpt><trkpt lat="44.07289971048038" lon="10.766320390193366"><ele>497.0</ele><time>2026-04-16T07:52:05.001Z</time></trkpt><trkpt lat="44.07298774544521" lon="10.76650836069378"><ele>497.0</ele><time>2026-04-16T07:52:06.001Z</time></trkpt><trkpt lat="44.07311133148852" lon="10.766615202548632"><ele>497.0</ele><time>2026-04-16T07:52:07.001Z</time></trkpt><trkpt lat="44.07323504886216" lon="10.766669068566484"><ele>497.0</ele><time>2026-04-16T07:52:08.002Z</time></trkpt><trkpt lat="44.073373961297186" lon="10.766733269738907"><ele>497.0</ele><time>2026-04-16T07:52:09.002Z</time></trkpt><trkpt lat="44.07353861353846" lon="10.766784931888083"><ele>497.66666666666663</ele><time>2026-04-16T07:52:10.002Z</time></trkpt><trkpt lat="44.07371478177797" lon="10.766829837520813"><ele>498.33333333333337</ele><time>2026-04-16T07:52:11.002Z</time></trkpt><trkpt lat="44.07385546591087" lon="10.766873520406806"><ele>499.0</ele><time>2026-04-16T07:52:12.002Z</time></trkpt><trkpt lat="44.07399987884161" lon="10.766951858181283"><ele>500.33333333333337</ele><time>2026-04-16T07:52:13.002Z</time></trkpt><trkpt lat="44.07415325081816" lon="10.767077746688255"><ele>501.66666666666663</ele><time>2026-04-16T07:52:14.002Z</time></trkpt><trkpt lat="44.07432290515352" lon="10.767193461095916"><ele>503.0</ele><time>2026-04-16T07:52:15.002Z</time></trkpt><trkpt lat="44.07451107353813" lon="10.767228217662836"><ele>503.0</ele><time>2026-04-16T07:52:16.002Z</time></trkpt><trkpt lat="44.07468020740211" lon="10.767276483366556"><ele>503.0</ele><time>2026-04-16T07:52:17.002Z</time></trkpt><trkpt lat="44.074854664717506" lon="10.76732974023542"><ele>503.0</ele><time>2026-04-16T07:52:18Z</time></trkpt><trkpt lat="44.07502511223858" lon="10.767385255517008"><ele>505.3333333333333</ele><time>2026-04-16T07:52:19Z</time></trkpt><trkpt lat="44.07519742173471" lon="10.767451649765986"><ele>507.66666666666663</ele><time>2026-04-16T07:52:20Z</time></trkpt><trkpt lat="44.07535851172997" lon="10.767523271178083"><ele>510.0</ele><time>2026-04-16T07:52:21Z</time></trkpt><trkpt lat="44.07553395018332" lon="10.76760029657338"><ele>510.0</ele><time>2026-04-16T07:52:22Z</time></trkpt><trkpt lat="44.075720440572844" lon="10.767651769897224"><ele>510.0</ele><time>2026-04-16T07:52:23Z</time></trkpt><trkpt lat="44.07592068174345" lon="10.767642952135771"><ele>510.0</ele><time>2026-04-16T07:52:24Z</time></trkpt><trkpt lat="44.07609171318307" lon="10.767626118661658"><ele>515.3333333333334</ele><time>2026-04-16T07:52:25Z</time></trkpt><trkpt lat="44.076258479073516" lon="10.767609954897225"><ele>520.6666666666667</ele><time>2026-04-16T07:52:26Z</time></trkpt><trkpt lat="44.076439372775134" lon="10.767595338857545"><ele>526.0</ele><time>2026-04-16T07:52:27Z</time></trkpt><trkpt lat="44.07663359101142" lon="10.767576642117504"><ele>529.3333333333334</ele><time>2026-04-16T07:52:28Z</time></trkpt><trkpt lat="44.07680319468347" lon="10.76754383635457"><ele>532.6666666666666</ele><time>2026-04-16T07:52:29Z</time></trkpt><trkpt lat="44.07699033768686" lon="10.7674965171185"><ele>536.0</ele><time>2026-04-16T07:52:30Z</time></trkpt><trkpt lat="44.07718514924044" lon="10.767446190698573"><ele>536.0</ele><time>2026-04-16T07:52:31Z</time></trkpt><trkpt lat="44.07738277785694" lon="10.767394935330609"><ele>536.0</ele><time>2026-04-16T07:52:32Z</time></trkpt><trkpt lat="44.07755566358757" lon="10.767351163291265"><ele>536.0</ele><time>2026-04-16T07:52:33Z</time></trkpt><trkpt lat="44.077716544096184" lon="10.767323014688415"><ele>530.3333333333333</ele><time>2026-04-16T07:52:34Z</time></trkpt><trkpt lat="44.07785984651841" lon="10.767336796116055"><ele>524.6666666666666</ele><time>2026-04-16T07:52:35Z</time></trkpt><trkpt lat="44.07802264179435" lon="10.767373170277256"><ele>519.0</ele><time>2026-04-16T07:52:36Z</time></trkpt><trkpt lat="44.07819229651873" lon="10.767413376494755"><ele>519.3333333333334</ele><time>2026-04-16T07:52:37Z</time></trkpt><trkpt lat="44.078354601813615" lon="10.767454299799233"><ele>519.6666666666667</ele><time>2026-04-16T07:52:38Z</time></trkpt><trkpt lat="44.07852636746913" lon="10.767512279122757"><ele>520.0</ele><time>2026-04-16T07:52:39Z</time></trkpt><trkpt lat="44.07870588284985" lon="10.767588205913643"><ele>520.0</ele><time>2026-04-16T07:52:40Z</time></trkpt><trkpt lat="44.078871906635015" lon="10.76765592592206"><ele>520.0</ele><time>2026-04-16T07:52:41Z</time></trkpt><trkpt lat="44.079028058378675" lon="10.767692413001676"><ele>520.0</ele><time>2026-04-16T07:52:42Z</time></trkpt><trkpt lat="44.07916318881612" lon="10.76766566999031"><ele>520.25</ele><time>2026-04-16T07:52:43Z</time></trkpt><trkpt lat="44.07925102350871" lon="10.767560513139392"><ele>520.5</ele><time>2026-04-16T07:52:44Z</time></trkpt><trkpt lat="44.07935756288368" lon="10.76745826592356"><ele>520.75</ele><time>2026-04-16T07:52:45Z</time></trkpt><trkpt lat="44.079458295481146" lon="10.767372187163366"><ele>521.0</ele><time>2026-04-16T07:52:46Z</time></trkpt><trkpt lat="44.079570124414694" lon="10.767308661896523"><ele>521.0</ele><time>2026-04-16T07:52:47Z</time></trkpt><trkpt lat="44.07968000859073" lon="10.767217789412985"><ele>521.0</ele><time>2026-04-16T07:52:48Z</time></trkpt><trkpt lat="44.07981431812844" lon="10.767102617557995"><ele>521.0</ele><time>2026-04-16T07:52:49Z</time></trkpt><trkpt lat="44.07992282951015" lon="10.767015662804562"><ele>521.0</ele><time>2026-04-16T07:52:50Z</time></trkpt><trkpt lat="44.0800267314608" lon="10.766915790103821"><ele>530.0</ele><time>2026-04-16T07:52:51Z</time></trkpt><trkpt lat="44.08013773363974" lon="10.766820761505656"><ele>539.0</ele><time>2026-04-16T07:52:52Z</time></trkpt><trkpt lat="44.08022312653579" lon="10.766730507183414"><ele>548.0</ele><time>2026-04-16T07:52:53Z</time></trkpt><trkpt lat="44.080310221378426" lon="10.766623567628706"><ele>557.0</ele><time>2026-04-16T07:52:54Z</time></trkpt><trkpt lat="44.08039871572033" lon="10.766522280063798"><ele>557.0</ele><time>2026-04-16T07:52:55Z</time></trkpt><trkpt lat="44.08048932069015" lon="10.766412744029843"><ele>557.0</ele><time>2026-04-16T07:52:56Z</time></trkpt><trkpt lat="44.08057774648788" lon="10.766315711436718"><ele>557.0</ele><time>2026-04-16T07:52:57Z</time></trkpt><trkpt lat="44.08066349346342" lon="10.766227070556505"><ele>557.0</ele><time>2026-04-16T07:52:58Z</time></trkpt><trkpt lat="44.0807617122259" lon="10.766130347160544"><ele>558.4</ele><time>2026-04-16T07:52:59Z</time></trkpt><trkpt lat="44.080844693369926" lon="10.766030251434593"><ele>559.8000000000001</ele><time>2026-04-16T07:53:00.001Z</time></trkpt><trkpt lat="44.08092925284747" lon="10.765936573979813"><ele>561.2</ele><time>2026-04-16T07:53:01.001Z</time></trkpt><trkpt lat="44.081017827278785" lon="10.765851673025566"><ele>562.6</ele><time>2026-04-16T07:53:02.001Z</time></trkpt><trkpt lat="44.081123363667835" lon="10.765770716631733"><ele>564.0</ele><time>2026-04-16T07:53:03.001Z</time></trkpt><trkpt lat="44.081236685721926" lon="10.76574904759902"><ele>564.0</ele><time>2026-04-16T07:53:04.001Z</time></trkpt><trkpt lat="44.08135124113203" lon="10.765714727398915"><ele>564.0</ele><time>2026-04-16T07:53:05.001Z</time></trkpt><trkpt lat="44.08147000670791" lon="10.76568329950004"><ele>564.0</ele><time>2026-04-16T07:53:06.001Z</time></trkpt><trkpt lat="44.081575000104195" lon="10.765665413415356"><ele>564.0</ele><time>2026-04-16T07:53:07.001Z</time></trkpt><trkpt lat="44.08167407196375" lon="10.765654211353752"><ele>564.0</ele><time>2026-04-16T07:53:08.001Z</time></trkpt><trkpt lat="44.08177323300846" lon="10.765648628775205"><ele>561.6</ele><time>2026-04-16T07:53:09.001Z</time></trkpt><trkpt lat="44.08187340844791" lon="10.765656217646633"><ele>559.2</ele><time>2026-04-16T07:53:10.001Z</time></trkpt><trkpt lat="44.08195685383904" lon="10.765703823244104"><ele>556.8000000000001</ele><time>2026-04-16T07:53:11.001Z</time></trkpt><trkpt lat="44.08205817778811" lon="10.76574058155761"><ele>554.4</ele><time>2026-04-16T07:53:12.001Z</time></trkpt><trkpt lat="44.082177925051624" lon="10.765751191962273"><ele>552.0</ele><time>2026-04-16T07:53:13.001Z</time></trkpt><trkpt lat="44.08227436096804" lon="10.765729972009803"><ele>552.0</ele><time>2026-04-16T07:53:14.001Z</time></trkpt><trkpt lat="44.0823740895147" lon="10.765697644689638"><ele>552.0</ele><time>2026-04-16T07:53:15.001Z</time></trkpt><trkpt lat="44.08246584391673" lon="10.765656487348515"><ele>552.0</ele><time>2026-04-16T07:53:16.001Z</time></trkpt><trkpt lat="44.08255411824621" lon="10.765601295081206"><ele>552.0</ele><time>2026-04-16T07:53:17.001Z</time></trkpt><trkpt lat="44.082631985588705" lon="10.76553902805249"><ele>552.0</ele><time>2026-04-16T07:53:18.001Z</time></trkpt><trkpt lat="44.082703605396205" lon="10.765473696569583"><ele>551.6</ele><time>2026-04-16T07:53:19.001Z</time></trkpt><trkpt lat="44.08278037707296" lon="10.765397687738545"><ele>551.2</ele><time>2026-04-16T07:53:20.001Z</time></trkpt><trkpt lat="44.082860167822815" lon="10.765307806080108"><ele>550.8</ele><time>2026-04-16T07:53:21.001Z</time></trkpt><trkpt lat="44.082943724333255" lon="10.765195069140074"><ele>550.4</ele><time>2026-04-16T07:53:22.001Z</time></trkpt><trkpt lat="44.083024067073566" lon="10.765056894997464"><ele>550.0</ele><time>2026-04-16T07:53:23.001Z</time></trkpt><trkpt lat="44.08309887485667" lon="10.764909419129093"><ele>549.0</ele><time>2026-04-16T07:53:24.001Z</time></trkpt><trkpt lat="44.08317198309149" lon="10.7647803697179"><ele>548.0</ele><time>2026-04-16T07:53:25.001Z</time></trkpt><trkpt lat="44.083234654671074" lon="10.764645014999816"><ele>547.0</ele><time>2026-04-16T07:53:26.001Z</time></trkpt><trkpt lat="44.08329027581608" lon="10.764516462051343"><ele>546.0</ele><time>2026-04-16T07:53:27.001Z</time></trkpt><trkpt lat="44.08334704037293" lon="10.764395736228403"><ele>545.0</ele><time>2026-04-16T07:53:28.001Z</time></trkpt><trkpt lat="44.08339829181976" lon="10.764290220408528"><ele>549.2</ele><time>2026-04-16T07:53:29.001Z</time></trkpt><trkpt lat="44.08345300106656" lon="10.764179367434684"><ele>553.4</ele><time>2026-04-16T07:53:30.001Z</time></trkpt><trkpt lat="44.08351677447421" lon="10.764077093143433"><ele>557.6</ele><time>2026-04-16T07:53:31.001Z</time></trkpt><trkpt lat="44.08358021744867" lon="10.763984586656282"><ele>561.8</ele><time>2026-04-16T07:53:32.001Z</time></trkpt><trkpt lat="44.08363716250616" lon="10.763896397201904"><ele>566.0</ele><time>2026-04-16T07:53:33.001Z</time></trkpt><trkpt lat="44.083707295543576" lon="10.763803432750189"><ele>566.0</ele><time>2026-04-16T07:53:34.001Z</time></trkpt><trkpt lat="44.0837911608567" lon="10.76371579300777"><ele>566.0</ele><time>2026-04-16T07:53:35.001Z</time></trkpt><trkpt lat="44.083885182548634" lon="10.763636561980896"><ele>566.0</ele><time>2026-04-16T07:53:36.001Z</time></trkpt><trkpt lat="44.08399494313104" lon="10.763574718673953"><ele>566.0</ele><time>2026-04-16T07:53:37.001Z</time></trkpt><trkpt lat="44.08411146584726" lon="10.763560014225876"><ele>568.2</ele><time>2026-04-16T07:53:38.001Z</time></trkpt><trkpt lat="44.08421605403492" lon="10.7635112107627"><ele>570.4000000000001</ele><time>2026-04-16T07:53:39.001Z</time></trkpt><trkpt lat="44.084337751842384" lon="10.763496477701379"><ele>572.6</ele><time>2026-04-16T07:53:40.001Z</time></trkpt><trkpt lat="44.08443985338991" lon="10.763470473981707"><ele>574.8000000000001</ele><time>2026-04-16T07:53:41.001Z</time></trkpt><trkpt lat="44.08454883697676" lon="10.763435571787822"><ele>577.0</ele><time>2026-04-16T07:53:42.001Z</time></trkpt><trkpt lat="44.08465490486829" lon="10.763412939493328"><ele>577.0</ele><time>2026-04-16T07:53:43.001Z</time></trkpt><trkpt lat="44.08478692550342" lon="10.76337212769359"><ele>577.0</ele><time>2026-04-16T07:53:44.001Z</time></trkpt><trkpt lat="44.084908680922275" lon="10.763337201573766"><ele>577.0</ele><time>2026-04-16T07:53:45.001Z</time></trkpt><trkpt lat="44.08504144328091" lon="10.763347558946846"><ele>577.0</ele><time>2026-04-16T07:53:46.001Z</time></trkpt><trkpt lat="44.08515953272842" lon="10.763337262098863"><ele>574.25</ele><time>2026-04-16T07:53:47.001Z</time></trkpt><trkpt lat="44.085256464228266" lon="10.763319152861882"><ele>571.5</ele><time>2026-04-16T07:53:48.001Z</time></trkpt><trkpt lat="44.08537255784822" lon="10.763295514354141"><ele>568.75</ele><time>2026-04-16T07:53:49.001Z</time></trkpt><trkpt lat="44.08550227498437" lon="10.76326610219087"><ele>566.0</ele><time>2026-04-16T07:53:50.001Z</time></trkpt><trkpt lat="44.085628519787434" lon="10.763231298845817"><ele>560.0</ele><time>2026-04-16T07:53:51.001Z</time></trkpt><trkpt lat="44.085764642717024" lon="10.763160510433531"><ele>554.0</ele><time>2026-04-16T07:53:52.001Z</time></trkpt><trkpt lat="44.08590424155661" lon="10.763079608395325"><ele>548.0</ele><time>2026-04-16T07:53:53.001Z</time></trkpt><trkpt lat="44.08604768626702" lon="10.762973848579295"><ele>548.0</ele><time>2026-04-16T07:53:54.001Z</time></trkpt><trkpt lat="44.08621233713322" lon="10.762899613267289"><ele>548.0</ele><time>2026-04-16T07:53:55.001Z</time></trkpt><trkpt lat="44.08638530985726" lon="10.762795334190283"><ele>548.0</ele><time>2026-04-16T07:53:56.001Z</time></trkpt><trkpt lat="44.0865470205222" lon="10.762697844631353"><ele>552.3333333333333</ele><time>2026-04-16T07:53:57.001Z</time></trkpt><trkpt lat="44.08671974863282" lon="10.7625937131741"><ele>556.6666666666666</ele><time>2026-04-16T07:53:58.001Z</time></trkpt><trkpt lat="44.086894829380476" lon="10.762487673709717"><ele>561.0</ele><time>2026-04-16T07:53:59.001Z</time></trkpt><trkpt lat="44.08705943800436" lon="10.762374744082859"><ele>561.0</ele><time>2026-04-16T07:54:00.001Z</time></trkpt><trkpt lat="44.08720812487274" lon="10.76222445030568"><ele>561.0</ele><time>2026-04-16T07:54:01.001Z</time></trkpt><trkpt lat="44.087373100716675" lon="10.762071873620437"><ele>561.0</ele><time>2026-04-16T07:54:02.001Z</time></trkpt><trkpt lat="44.08754297298654" lon="10.761907925947487"><ele>563.3333333333334</ele><time>2026-04-16T07:54:03.001Z</time></trkpt><trkpt lat="44.08770048656702" lon="10.761723698398695"><ele>565.6666666666667</ele><time>2026-04-16T07:54:04.001Z</time></trkpt><trkpt lat="44.087897924434714" lon="10.761569068582673"><ele>568.0</ele><time>2026-04-16T07:54:05.001Z</time></trkpt><trkpt lat="44.08805752585045" lon="10.761411118447452"><ele>568.0</ele><time>2026-04-16T07:54:06.001Z</time></trkpt><trkpt lat="44.08821506034815" lon="10.761224368234094"><ele>568.0</ele><time>2026-04-16T07:54:07.001Z</time></trkpt><trkpt lat="44.08836225769392" lon="10.761028465973325"><ele>568.0</ele><time>2026-04-16T07:54:08.001Z</time></trkpt><trkpt lat="44.08849586919132" lon="10.7608433171912"><ele>566.0</ele><time>2026-04-16T07:54:09.001Z</time></trkpt><trkpt lat="44.088626060587906" lon="10.76062899046439"><ele>564.0</ele><time>2026-04-16T07:54:10.001Z</time></trkpt><trkpt lat="44.08876097888661" lon="10.760412004959282"><ele>562.0</ele><time>2026-04-16T07:54:11.001Z</time></trkpt><trkpt lat="44.08888613399228" lon="10.760194233163727"><ele>560.3333333333334</ele><time>2026-04-16T07:54:12.002Z</time></trkpt><trkpt lat="44.08901562281339" lon="10.759971058132349"><ele>558.6666666666666</ele><time>2026-04-16T07:54:13.002Z</time></trkpt><trkpt lat="44.089150857932935" lon="10.759768240547517"><ele>557.0</ele><time>2026-04-16T07:54:14.002Z</time></trkpt><trkpt lat="44.08928955600393" lon="10.759582617649325"><ele>557.0</ele><time>2026-04-16T07:54:15.002Z</time></trkpt><trkpt lat="44.08941724055639" lon="10.759415623974649"><ele>557.0</ele><time>2026-04-16T07:54:16.002Z</time></trkpt><trkpt lat="44.08955321341973" lon="10.759264634919141"><ele>557.0</ele><time>2026-04-16T07:54:17.002Z</time></trkpt><trkpt lat="44.08971367290256" lon="10.75914555959416"><ele>558.3333333333333</ele><time>2026-04-16T07:54:18.002Z</time></trkpt><trkpt lat="44.08986512315673" lon="10.759051171656253"><ele>559.6666666666666</ele><time>2026-04-16T07:54:19.002Z</time></trkpt><trkpt lat="44.090008067383025" lon="10.758953952369653"><ele>561.0</ele><time>2026-04-16T07:54:20.002Z</time></trkpt><trkpt lat="44.09016670494532" lon="10.758857839095212"><ele>561.0</ele><time>2026-04-16T07:54:21.002Z</time></trkpt><trkpt lat="44.09031752091916" lon="10.758762265004929"><ele>561.0</ele><time>2026-04-16T07:54:22.002Z</time></trkpt><trkpt lat="44.090442961713904" lon="10.758647964225156"><ele>561.0</ele><time>2026-04-16T07:54:23Z</time></trkpt><trkpt lat="44.09055088849461" lon="10.758489187679752"><ele>564.0</ele><time>2026-04-16T07:54:24Z</time></trkpt><trkpt lat="44.09064899890443" lon="10.758326798895927"><ele>567.0</ele><time>2026-04-16T07:54:25Z</time></trkpt><trkpt lat="44.0907445640828" lon="10.758129643950044"><ele>570.0</ele><time>2026-04-16T07:54:26Z</time></trkpt><trkpt lat="44.09090275093802" lon="10.75804825505645"><ele>570.0</ele><time>2026-04-16T07:54:27Z</time></trkpt><trkpt lat="44.09106000471705" lon="10.757962752260793"><ele>570.0</ele><time>2026-04-16T07:54:28Z</time></trkpt><trkpt lat="44.09122258717702" lon="10.757864029584946"><ele>570.0</ele><time>2026-04-16T07:54:29Z</time></trkpt><trkpt lat="44.0913861182234" lon="10.757769565621352"><ele>574.6666666666666</ele><time>2026-04-16T07:54:30Z</time></trkpt><trkpt lat="44.09156367009467" lon="10.757670046290354"><ele>579.3333333333333</ele><time>2026-04-16T07:54:31Z</time></trkpt><trkpt lat="44.091735536971186" lon="10.757584364816275"><ele>584.0</ele><time>2026-04-16T07:54:32Z</time></trkpt><trkpt lat="44.091923402089634" lon="10.757516336762293"><ele>584.0</ele><time>2026-04-16T07:54:33Z</time></trkpt><trkpt lat="44.092101216647336" lon="10.757485263342044"><ele>584.0</ele><time>2026-04-16T07:54:34Z</time></trkpt><trkpt lat="44.09227184681711" lon="10.757479660267684"><ele>584.0</ele><time>2026-04-16T07:54:35Z</time></trkpt><trkpt lat="44.092443378081306" lon="10.757517089305974"><ele>582.0</ele><time>2026-04-16T07:54:36Z</time></trkpt><trkpt lat="44.09261316714053" lon="10.75755863040787"><ele>580.0</ele><time>2026-04-16T07:54:37Z</time></trkpt><trkpt lat="44.092782159008614" lon="10.757585326388975"><ele>578.0</ele><time>2026-04-16T07:54:38Z</time></trkpt><trkpt lat="44.092972577883415" lon="10.757570108387247"><ele>578.0</ele><time>2026-04-16T07:54:39Z</time></trkpt><trkpt lat="44.09315597058865" lon="10.757545385097734"><ele>578.0</ele><time>2026-04-16T07:54:40Z</time></trkpt><trkpt lat="44.09330932972156" lon="10.757487382343493"><ele>578.0</ele><time>2026-04-16T07:54:41Z</time></trkpt><trkpt lat="44.09346689075425" lon="10.7574253941957"><ele>579.3333333333333</ele><time>2026-04-16T07:54:42Z</time></trkpt><trkpt lat="44.09365477109843" lon="10.757368741409937"><ele>580.6666666666666</ele><time>2026-04-16T07:54:43Z</time></trkpt><trkpt lat="44.093844851400355" lon="10.757320168031498"><ele>582.0</ele><time>2026-04-16T07:54:44Z</time></trkpt><trkpt lat="44.094034139455374" lon="10.757266627620307"><ele>581.6666666666666</ele><time>2026-04-16T07:54:45Z</time></trkpt><trkpt lat="44.09420691419446" lon="10.757214567627425"><ele>581.3333333333333</ele><time>2026-04-16T07:54:46Z</time></trkpt><trkpt lat="44.09437307736199" lon="10.75716815039661"><ele>581.0</ele><time>2026-04-16T07:54:47Z</time></trkpt><trkpt lat="44.09452165115357" lon="10.75711032777185"><ele>581.0</ele><time>2026-04-16T07:54:48Z</time></trkpt><trkpt lat="44.09467660095198" lon="10.757015478012544"><ele>581.0</ele><time>2026-04-16T07:54:49Z</time></trkpt><trkpt lat="44.09478212428525" lon="10.75690455152636"><ele>581.0</ele><time>2026-04-16T07:54:50Z</time></trkpt><trkpt lat="44.094876113076445" lon="10.756776548366897"><ele>581.0</ele><time>2026-04-16T07:54:51Z</time></trkpt><trkpt lat="44.094929318157114" lon="10.756627114363978"><ele>582.5</ele><time>2026-04-16T07:54:52Z</time></trkpt><trkpt lat="44.09496318620979" lon="10.756451835830969"><ele>584.0</ele><time>2026-04-16T07:54:53Z</time></trkpt><trkpt lat="44.09497652514762" lon="10.75624452032159"><ele>585.5</ele><time>2026-04-16T07:54:54Z</time></trkpt><trkpt lat="44.09498069814195" lon="10.756028010473498"><ele>587.0</ele><time>2026-04-16T07:54:55Z</time></trkpt><trkpt lat="44.094999456475605" lon="10.755798246081913"><ele>593.0</ele><time>2026-04-16T07:54:56Z</time></trkpt><trkpt lat="44.09503601921399" lon="10.75556655944058"><ele>599.0</ele><time>2026-04-16T07:54:57Z</time></trkpt><trkpt lat="44.09509868396524" lon="10.755314183091432"><ele>605.0</ele><time>2026-04-16T07:54:58Z</time></trkpt><trkpt lat="44.09519056539436" lon="10.755085546981912"><ele>608.25</ele><time>2026-04-16T07:54:59Z</time></trkpt><trkpt lat="44.095264802770956" lon="10.754920255280288"><ele>611.5</ele><time>2026-04-16T07:55:00Z</time></trkpt><trkpt lat="44.09533962392731" lon="10.754713020199986"><ele>614.75</ele><time>2026-04-16T07:55:01.001Z</time></trkpt><trkpt lat="44.09543086631632" lon="10.754564777962974"><ele>618.0</ele><time>2026-04-16T07:55:02.001Z</time></trkpt><trkpt lat="44.09547884996761" lon="10.754447221380525"><ele>620.5</ele><time>2026-04-16T07:55:03.001Z</time></trkpt><trkpt lat="44.09551416692951" lon="10.754279770894398"><ele>623.0</ele><time>2026-04-16T07:55:04.001Z</time></trkpt><trkpt lat="44.09551439315588" lon="10.75406536803777"><ele>625.5</ele><time>2026-04-16T07:55:05.001Z</time></trkpt><trkpt lat="44.0955075422543" lon="10.753846127610572"><ele>628.0</ele><time>2026-04-16T07:55:06.001Z</time></trkpt><trkpt lat="44.0955409741242" lon="10.753649614181132"><ele>626.0</ele><time>2026-04-16T07:55:07.001Z</time></trkpt><trkpt lat="44.09559476306679" lon="10.75348351214919"><ele>624.0</ele><time>2026-04-16T07:55:08.001Z</time></trkpt><trkpt lat="44.09567860376301" lon="10.75334678160789"><ele>622.0</ele><time>2026-04-16T07:55:09.001Z</time></trkpt><trkpt lat="44.09581047128639" lon="10.75330333381397"><ele>620.0</ele><time>2026-04-16T07:55:10.001Z</time></trkpt><trkpt lat="44.09594501094218" lon="10.753237251822044"><ele>608.3333333333333</ele><time>2026-04-16T07:55:11.001Z</time></trkpt><trkpt lat="44.09609739562006" lon="10.753182900479025"><ele>596.6666666666666</ele><time>2026-04-16T07:55:12.001Z</time></trkpt><trkpt lat="44.096250262892795" lon="10.753122287357133"><ele>585.0</ele><time>2026-04-16T07:55:13.001Z</time></trkpt><trkpt lat="44.09641970554727" lon="10.753049186412365"><ele>585.0</ele><time>2026-04-16T07:55:14.001Z</time></trkpt><trkpt lat="44.09656216478116" lon="10.752984160671115"><ele>585.0</ele><time>2026-04-16T07:55:15.001Z</time></trkpt><trkpt lat="44.09671262352163" lon="10.752941324596897"><ele>585.0</ele><time>2026-04-16T07:55:16.001Z</time></trkpt><trkpt lat="44.0968430096017" lon="10.752910626596293"><ele>585.0</ele><time>2026-04-16T07:55:17.001Z</time></trkpt><trkpt lat="44.09693957005388" lon="10.752870035535212"><ele>583.6</ele><time>2026-04-16T07:55:18.001Z</time></trkpt><trkpt lat="44.09700960455632" lon="10.752811744022452"><ele>582.2</ele><time>2026-04-16T07:55:19.001Z</time></trkpt><trkpt lat="44.09705653647323" lon="10.752688272961342"><ele>580.8</ele><time>2026-04-16T07:55:20.001Z</time></trkpt><trkpt lat="44.097080321602604" lon="10.752540055580564"><ele>579.4</ele><time>2026-04-16T07:55:21.001Z</time></trkpt><trkpt lat="44.097070230426574" lon="10.75237728931635"><ele>578.0</ele><time>2026-04-16T07:55:22.001Z</time></trkpt><trkpt lat="44.09706894004168" lon="10.752200946735101"><ele>589.0</ele><time>2026-04-16T07:55:23.001Z</time></trkpt><trkpt lat="44.09709414955677" lon="10.751995591954518"><ele>600.0</ele><time>2026-04-16T07:55:24.001Z</time></trkpt><trkpt lat="44.097176164868195" lon="10.75182390300607"><ele>611.0</ele><time>2026-04-16T07:55:25.001Z</time></trkpt><trkpt lat="44.097266367514635" lon="10.751647057748736"><ele>617.3333333333333</ele><time>2026-04-16T07:55:26.001Z</time></trkpt><trkpt lat="44.097371653750834" lon="10.751467965458126"><ele>623.6666666666666</ele><time>2026-04-16T07:55:27.001Z</time></trkpt><trkpt lat="44.09750929780208" lon="10.75132953103019"><ele>630.0</ele><time>2026-04-16T07:55:28.001Z</time></trkpt><trkpt lat="44.0976633702433" lon="10.751213204358143"><ele>625.0</ele><time>2026-04-16T07:55:29.001Z</time></trkpt><trkpt lat="44.09781707947441" lon="10.751091755964113"><ele>620.0</ele><time>2026-04-16T07:55:30.001Z</time></trkpt><trkpt lat="44.097959876579175" lon="10.751008802544943"><ele>615.0</ele><time>2026-04-16T07:55:31.001Z</time></trkpt><trkpt lat="44.098101614552036" lon="10.750965189487202"><ele>615.0</ele><time>2026-04-16T07:55:32.001Z</time></trkpt><trkpt lat="44.098242718304654" lon="10.75097318262039"><ele>615.0</ele><time>2026-04-16T07:55:33.001Z</time></trkpt><trkpt lat="44.0984038066052" lon="10.75099858239062"><ele>615.0</ele><time>2026-04-16T07:55:34.001Z</time></trkpt><trkpt lat="44.09855110789159" lon="10.751004683579463"><ele>609.5</ele><time>2026-04-16T07:55:35.001Z</time></trkpt><trkpt lat="44.09867888550164" lon="10.750994392502854"><ele>604.0</ele><time>2026-04-16T07:55:36.001Z</time></trkpt><trkpt lat="44.09881097013268" lon="10.750949795765345"><ele>598.5</ele><time>2026-04-16T07:55:37.001Z</time></trkpt><trkpt lat="44.09895119674125" lon="10.75089865394086"><ele>593.0</ele><time>2026-04-16T07:55:38.001Z</time></trkpt><trkpt lat="44.09907736211302" lon="10.750833183594482"><ele>594.0</ele><time>2026-04-16T07:55:39.001Z</time></trkpt><trkpt lat="44.099198330756494" lon="10.750765845793902"><ele>595.0</ele><time>2026-04-16T07:55:40.001Z</time></trkpt><trkpt lat="44.09931906958676" lon="10.750744873073312"><ele>596.0</ele><time>2026-04-16T07:55:41.001Z</time></trkpt><trkpt lat="44.09944654432101" lon="10.75076703319935"><ele>597.0</ele><time>2026-04-16T07:55:42.001Z</time></trkpt><trkpt lat="44.0995711573752" lon="10.750784033544699"><ele>597.0</ele><time>2026-04-16T07:55:43.001Z</time></trkpt><trkpt lat="44.099719438666185" lon="10.750728093931395"><ele>597.0</ele><time>2026-04-16T07:55:44.001Z</time></trkpt><trkpt lat="44.09983704520141" lon="10.750658399237999"><ele>597.0</ele><time>2026-04-16T07:55:45.001Z</time></trkpt><trkpt lat="44.09996037711305" lon="10.750554368250777"><ele>597.0</ele><time>2026-04-16T07:55:46.001Z</time></trkpt><trkpt lat="44.10003866357552" lon="10.750369629956257"><ele>596.25</ele><time>2026-04-16T07:55:47.001Z</time></trkpt><trkpt lat="44.10014410517296" lon="10.75022958583919"><ele>595.5</ele><time>2026-04-16T07:55:48.001Z</time></trkpt><trkpt lat="44.10022766502802" lon="10.750071101023392"><ele>594.75</ele><time>2026-04-16T07:55:49.001Z</time></trkpt><trkpt lat="44.10029659693903" lon="10.749922290735968"><ele>594.0</ele><time>2026-04-16T07:55:50.001Z</time></trkpt><trkpt lat="44.10033902943493" lon="10.749794890256286"><ele>596.4</ele><time>2026-04-16T07:55:51.001Z</time></trkpt><trkpt lat="44.10035059590765" lon="10.74965927947024"><ele>598.8</ele><time>2026-04-16T07:55:52.001Z</time></trkpt><trkpt lat="44.10034100459272" lon="10.749529245880103"><ele>601.2</ele><time>2026-04-16T07:55:53.001Z</time></trkpt><trkpt lat="44.10032504491518" lon="10.74939134737415"><ele>603.6</ele><time>2026-04-16T07:55:54.001Z</time></trkpt><trkpt lat="44.10032802282563" lon="10.749253371479286"><ele>606.0</ele><time>2026-04-16T07:55:55.001Z</time></trkpt><trkpt lat="44.100372217472895" lon="10.749126177556693"><ele>605.75</ele><time>2026-04-16T07:55:56.001Z</time></trkpt><trkpt lat="44.10045792964613" lon="10.749007501382685"><ele>605.5</ele><time>2026-04-16T07:55:57.001Z</time></trkpt><trkpt lat="44.10055470661436" lon="10.748885325691306"><ele>605.25</ele><time>2026-04-16T07:55:58.001Z</time></trkpt><trkpt lat="44.100651755213086" lon="10.748752628347361"><ele>605.0</ele><time>2026-04-16T07:55:59.001Z</time></trkpt><trkpt lat="44.10076113291501" lon="10.748617053653579"><ele>609.3333333333333</ele><time>2026-04-16T07:56:00.001Z</time></trkpt><trkpt lat="44.100879577592075" lon="10.748469361234884"><ele>613.6666666666666</ele><time>2026-04-16T07:56:01.001Z</time></trkpt><trkpt lat="44.10099827526005" lon="10.748306232465533"><ele>618.0</ele><time>2026-04-16T07:56:02.001Z</time></trkpt><trkpt lat="44.10112587819259" lon="10.748133569403306"><ele>618.0</ele><time>2026-04-16T07:56:03.001Z</time></trkpt><trkpt lat="44.101246909681734" lon="10.74797446955744"><ele>618.0</ele><time>2026-04-16T07:56:04.001Z</time></trkpt><trkpt lat="44.1013570282517" lon="10.747827300916038"><ele>618.0</ele><time>2026-04-16T07:56:05.001Z</time></trkpt><trkpt lat="44.10144791449589" lon="10.747680654399577"><ele>618.75</ele><time>2026-04-16T07:56:06.001Z</time></trkpt><trkpt lat="44.101522921887955" lon="10.747505017405961"><ele>619.5</ele><time>2026-04-16T07:56:07.001Z</time></trkpt><trkpt lat="44.10156678843487" lon="10.747307758428173"><ele>620.25</ele><time>2026-04-16T07:56:08.002Z</time></trkpt><trkpt lat="44.101600176624466" lon="10.747101754925346"><ele>621.0</ele><time>2026-04-16T07:56:09.002Z</time></trkpt><trkpt lat="44.10161995280888" lon="10.746877400523301"><ele>622.3333333333334</ele><time>2026-04-16T07:56:10.002Z</time></trkpt><trkpt lat="44.10163808375677" lon="10.746644429022128"><ele>623.6666666666667</ele><time>2026-04-16T07:56:11.002Z</time></trkpt><trkpt lat="44.101651624145" lon="10.746416859630418"><ele>625.0</ele><time>2026-04-16T07:56:12.002Z</time></trkpt><trkpt lat="44.1016680488443" lon="10.746186546020693"><ele>627.0</ele><time>2026-04-16T07:56:13.002Z</time></trkpt><trkpt lat="44.10168895942897" lon="10.745971642611366"><ele>629.0</ele><time>2026-04-16T07:56:14.002Z</time></trkpt><trkpt lat="44.10170786850498" lon="10.745781963671277"><ele>631.0</ele><time>2026-04-16T07:56:15.002Z</time></trkpt><trkpt lat="44.101732531396706" lon="10.745607469997207"><ele>633.0</ele><time>2026-04-16T07:56:16.002Z</time></trkpt><trkpt lat="44.101788710509496" lon="10.745464177655085"><ele>633.0</ele><time>2026-04-16T07:56:17.002Z</time></trkpt><trkpt lat="44.10188198936061" lon="10.745357189066866"><ele>633.0</ele><time>2026-04-16T07:56:18.002Z</time></trkpt><trkpt lat="44.10198855411739" lon="10.745252805930724"><ele>633.0</ele><time>2026-04-16T07:56:19.002Z</time></trkpt><trkpt lat="44.102120677776604" lon="10.745145864193173"><ele>633.0</ele><time>2026-04-16T07:56:20.002Z</time></trkpt><trkpt lat="44.10225456330097" lon="10.74501534308918"><ele>634.0</ele><time>2026-04-16T07:56:21.002Z</time></trkpt><trkpt lat="44.102388335336805" lon="10.74490406421134"><ele>635.0</ele><time>2026-04-16T07:56:22.002Z</time></trkpt><trkpt lat="44.10251038366114" lon="10.744785526089142"><ele>636.0</ele><time>2026-04-16T07:56:23.002Z</time></trkpt><trkpt lat="44.10263357739168" lon="10.744708551227538"><ele>637.0</ele><time>2026-04-16T07:56:24.002Z</time></trkpt><trkpt lat="44.10276791302711" lon="10.744660298721335"><ele>636.0</ele><time>2026-04-16T07:56:25.002Z</time></trkpt><trkpt lat="44.10289631275789" lon="10.74463705720209"><ele>635.0</ele><time>2026-04-16T07:56:26.002Z</time></trkpt><trkpt lat="44.103034782185944" lon="10.74465009990359"><ele>634.0</ele><time>2026-04-16T07:56:27.002Z</time></trkpt><trkpt lat="44.10317320662443" lon="10.74468088670067"><ele>633.0</ele><time>2026-04-16T07:56:28.002Z</time></trkpt><trkpt lat="44.103292396514426" lon="10.744713293241752"><ele>633.0</ele><time>2026-04-16T07:56:29Z</time></trkpt><trkpt lat="44.103400488823034" lon="10.744746652204796"><ele>633.0</ele><time>2026-04-16T07:56:30Z</time></trkpt><trkpt lat="44.10349245616201" lon="10.744741543504738"><ele>633.0</ele><time>2026-04-16T07:56:31Z</time></trkpt><trkpt lat="44.10356791329333" lon="10.744667210063886"><ele>633.0</ele><time>2026-04-16T07:56:32Z</time></trkpt><trkpt lat="44.10359334068806" lon="10.744586224815613"><ele>633.0</ele><time>2026-04-16T07:56:33Z</time></trkpt><trkpt lat="44.10358374364383" lon="10.744482502825374"><ele>633.0</ele><time>2026-04-16T07:56:34Z</time></trkpt><trkpt lat="44.10354552421679" lon="10.74439366263276"><ele>631.6</ele><time>2026-04-16T07:56:35Z</time></trkpt><trkpt lat="44.10344065423897" lon="10.744348585209426"><ele>630.1999999999999</ele><time>2026-04-16T07:56:36Z</time></trkpt><trkpt lat="44.10334344642526" lon="10.744348369096834"><ele>628.8</ele><time>2026-04-16T07:56:37Z</time></trkpt><trkpt lat="44.10322808975749" lon="10.74435508419029"><ele>627.4</ele><time>2026-04-16T07:56:38Z</time></trkpt><trkpt lat="44.10312555653855" lon="10.744341773841496"><ele>626.0</ele><time>2026-04-16T07:56:39Z</time></trkpt><trkpt lat="44.10305430229173" lon="10.744277725511324"><ele>626.0</ele><time>2026-04-16T07:56:40Z</time></trkpt><trkpt lat="44.10304502690167" lon="10.744190066910011"><ele>626.0</ele><time>2026-04-16T07:56:41Z</time></trkpt><trkpt lat="44.10311335286768" lon="10.744035243125806"><ele>626.0</ele><time>2026-04-16T07:56:43Z</time></trkpt><trkpt lat="44.103204704842575" lon="10.744016242965197"><ele>626.0</ele><time>2026-04-16T07:56:44Z</time></trkpt><trkpt lat="44.1033109252131" lon="10.74403689102292"><ele>626.0</ele><time>2026-04-16T07:56:45Z</time></trkpt><trkpt lat="44.103414946440694" lon="10.74404029800407"><ele>630.2</ele><time>2026-04-16T07:56:46Z</time></trkpt><trkpt lat="44.10349065673057" lon="10.744004254196625"><ele>634.4000000000001</ele><time>2026-04-16T07:56:47Z</time></trkpt><trkpt lat="44.10354120766044" lon="10.743929350054453"><ele>638.6</ele><time>2026-04-16T07:56:48Z</time></trkpt><trkpt lat="44.10356610707365" lon="10.743814339392662"><ele>642.8000000000001</ele><time>2026-04-16T07:56:49Z</time></trkpt><trkpt lat="44.10355603196934" lon="10.743651095320077"><ele>647.0</ele><time>2026-04-16T07:56:50Z</time></trkpt><trkpt lat="44.10355404760006" lon="10.743463235529598"><ele>648.5</ele><time>2026-04-16T07:56:51Z</time></trkpt><trkpt lat="44.103582376022565" lon="10.743274675360595"><ele>650.0</ele><time>2026-04-16T07:56:52Z</time></trkpt><trkpt lat="44.103630911119716" lon="10.743100632816487"><ele>651.5</ele><time>2026-04-16T07:56:53Z</time></trkpt><trkpt lat="44.103698104905924" lon="10.742931862057494"><ele>653.0</ele><time>2026-04-16T07:56:54Z</time></trkpt><trkpt lat="44.103780576840485" lon="10.742780119950876"><ele>656.75</ele><time>2026-04-16T07:56:55Z</time></trkpt><trkpt lat="44.10388360107565" lon="10.742658753881264"><ele>660.5</ele><time>2026-04-16T07:56:56Z</time></trkpt><trkpt lat="44.104005738014116" lon="10.742615595623679"><ele>664.25</ele><time>2026-04-16T07:56:57Z</time></trkpt><trkpt lat="44.10413034633949" lon="10.74262058961356"><ele>668.0</ele><time>2026-04-16T07:56:58Z</time></trkpt><trkpt lat="44.10428128110349" lon="10.74263626043318"><ele>671.3333333333333</ele><time>2026-04-16T07:56:59Z</time></trkpt><trkpt lat="44.10442730130822" lon="10.742655472001735"><ele>674.6666666666666</ele><time>2026-04-16T07:57:00Z</time></trkpt><trkpt lat="44.10457510523411" lon="10.742675215964333"><ele>678.0</ele><time>2026-04-16T07:57:01Z</time></trkpt><trkpt lat="44.104751288940435" lon="10.742677102387873"><ele>677.75</ele><time>2026-04-16T07:57:02Z</time></trkpt><trkpt lat="44.104883611763185" lon="10.742717592796962"><ele>677.5</ele><time>2026-04-16T07:57:03Z</time></trkpt><trkpt lat="44.105004126146916" lon="10.74272073728222"><ele>677.25</ele><time>2026-04-16T07:57:04Z</time></trkpt><trkpt lat="44.10509926925328" lon="10.742679948033246"><ele>677.0</ele><time>2026-04-16T07:57:05Z</time></trkpt><trkpt lat="44.105172902824314" lon="10.742598555913279"><ele>677.0</ele><time>2026-04-16T07:57:06Z</time></trkpt><trkpt lat="44.10523699845588" lon="10.74246274380309"><ele>677.0</ele><time>2026-04-16T07:57:07Z</time></trkpt><trkpt lat="44.10532388152347" lon="10.742330595412957"><ele>677.0</ele><time>2026-04-16T07:57:08.001Z</time></trkpt><trkpt lat="44.105420888669784" lon="10.742251759497037"><ele>677.0</ele><time>2026-04-16T07:57:09.001Z</time></trkpt><trkpt lat="44.105533773621616" lon="10.742214092461998"><ele>677.0</ele><time>2026-04-16T07:57:10.001Z</time></trkpt><trkpt lat="44.10567495513723" lon="10.742191883783557"><ele>677.0</ele><time>2026-04-16T07:57:11.001Z</time></trkpt><trkpt lat="44.10583023287183" lon="10.742201231655827"><ele>677.0</ele><time>2026-04-16T07:57:12.001Z</time></trkpt><trkpt lat="44.105957732300574" lon="10.742177251144907"><ele>677.0</ele><time>2026-04-16T07:57:13.001Z</time></trkpt><trkpt lat="44.106051889294505" lon="10.74216461850507"><ele>675.3333333333333</ele><time>2026-04-16T07:57:14.001Z</time></trkpt><trkpt lat="44.106113781054546" lon="10.74211982487011"><ele>673.6666666666666</ele><time>2026-04-16T07:57:15.001Z</time></trkpt><trkpt lat="44.106205443369525" lon="10.742069217105968"><ele>672.0</ele><time>2026-04-16T07:57:16.001Z</time></trkpt><trkpt lat="44.106240128665874" lon="10.741942439031362"><ele>670.3333333333334</ele><time>2026-04-16T07:57:17.001Z</time></trkpt><trkpt lat="44.10621716013832" lon="10.741824734845952"><ele>668.6666666666667</ele><time>2026-04-16T07:57:18.001Z</time></trkpt><trkpt lat="44.10615038077068" lon="10.741753797621623"><ele>667.0</ele><time>2026-04-16T07:57:19.001Z</time></trkpt><trkpt lat="44.10606608329312" lon="10.741759570006002"><ele>667.0</ele><time>2026-04-16T07:57:20.001Z</time></trkpt><trkpt lat="44.105971131015025" lon="10.741820220251949"><ele>667.0</ele><time>2026-04-16T07:57:21.001Z</time></trkpt><trkpt lat="44.10585901728329" lon="10.74189446046661"><ele>667.0</ele><time>2026-04-16T07:57:22.001Z</time></trkpt><trkpt lat="44.10574002200244" lon="10.74192762418823"><ele>667.0</ele><time>2026-04-16T07:57:23.001Z</time></trkpt><trkpt lat="44.10560659964506" lon="10.741909174446151"><ele>675.5</ele><time>2026-04-16T07:57:24.001Z</time></trkpt><trkpt lat="44.10548102083642" lon="10.741825129440404"><ele>684.0</ele><time>2026-04-16T07:57:25.001Z</time></trkpt><trkpt lat="44.105360221163615" lon="10.741729921528957"><ele>692.5</ele><time>2026-04-16T07:57:26.001Z</time></trkpt><trkpt lat="44.10523404525111" lon="10.741632623186902"><ele>701.0</ele><time>2026-04-16T07:57:27.001Z</time></trkpt><trkpt lat="44.10512640738893" lon="10.741566572198032"><ele>701.0</ele><time>2026-04-16T07:57:28.001Z</time></trkpt><trkpt lat="44.105026989372256" lon="10.74155470092022"><ele>701.0</ele><time>2026-04-16T07:57:29.001Z</time></trkpt><trkpt lat="44.10495413599471" lon="10.741590958568677"><ele>701.0</ele><time>2026-04-16T07:57:30.001Z</time></trkpt><trkpt lat="44.10489387469173" lon="10.741693921497314"><ele>701.0</ele><time>2026-04-16T07:57:31.001Z</time></trkpt><trkpt lat="44.10484511149117" lon="10.741813574557098"><ele>701.0</ele><time>2026-04-16T07:57:32.001Z</time></trkpt><trkpt lat="44.10475930492093" lon="10.741916703571798"><ele>701.6666666666666</ele><time>2026-04-16T07:57:33.001Z</time></trkpt><trkpt lat="44.10466483589839" lon="10.741972349661726"><ele>702.3333333333333</ele><time>2026-04-16T07:57:34.001Z</time></trkpt><trkpt lat="44.10458508407059" lon="10.741996551424732"><ele>703.0</ele><time>2026-04-16T07:57:35.001Z</time></trkpt><trkpt lat="44.10450853710809" lon="10.74201470913694"><ele>703.6666666666666</ele><time>2026-04-16T07:57:36.001Z</time></trkpt><trkpt lat="44.10444909752681" lon="10.741976944019127"><ele>704.3333333333334</ele><time>2026-04-16T07:57:37.001Z</time></trkpt><trkpt lat="44.104401322637344" lon="10.741906971095434"><ele>705.0</ele><time>2026-04-16T07:57:38.001Z</time></trkpt><trkpt lat="44.104393786284945" lon="10.741813021356474"><ele>705.0</ele><time>2026-04-16T07:57:39.001Z</time></trkpt><trkpt lat="44.10445212007032" lon="10.741751565894738"><ele>705.0</ele><time>2026-04-16T07:57:40.001Z</time></trkpt><trkpt lat="44.104521354916116" lon="10.7416480958543"><ele>705.0</ele><time>2026-04-16T07:57:41.001Z</time></trkpt><trkpt lat="44.10460639037886" lon="10.741522282523706"><ele>705.0</ele><time>2026-04-16T07:57:42.001Z</time></trkpt><trkpt lat="44.10468849901557" lon="10.741407208972094"><ele>705.0</ele><time>2026-04-16T07:57:43.001Z</time></trkpt><trkpt lat="44.10477980257233" lon="10.741291066354806"><ele>705.0</ele><time>2026-04-16T07:57:44.001Z</time></trkpt><trkpt lat="44.10487113343466" lon="10.741223381623232"><ele>705.0</ele><time>2026-04-16T07:57:45.001Z</time></trkpt><trkpt lat="44.10497345522974" lon="10.741205803990578"><ele>705.0</ele><time>2026-04-16T07:57:46.001Z</time></trkpt><trkpt lat="44.10507675578424" lon="10.741235798034376"><ele>705.0</ele><time>2026-04-16T07:57:47.001Z</time></trkpt><trkpt lat="44.1051954006311" lon="10.741302286755579"><ele>705.0</ele><time>2026-04-16T07:57:48.001Z</time></trkpt><trkpt lat="44.105323676882556" lon="10.741357110312498"><ele>704.2</ele><time>2026-04-16T07:57:49.001Z</time></trkpt><trkpt lat="44.10541878351705" lon="10.741416014075039"><ele>703.4</ele><time>2026-04-16T07:57:50.001Z</time></trkpt><trkpt lat="44.105509042616035" lon="10.741453749255577"><ele>702.5999999999999</ele><time>2026-04-16T07:57:51.001Z</time></trkpt><trkpt lat="44.10560512398782" lon="10.741398560457684"><ele>701.8</ele><time>2026-04-16T07:57:52.001Z</time></trkpt><trkpt lat="44.105686147734325" lon="10.741305430728586"><ele>701.0</ele><time>2026-04-16T07:57:53.001Z</time></trkpt><trkpt lat="44.105784153336565" lon="10.741182273133946"><ele>700.5</ele><time>2026-04-16T07:57:54.001Z</time></trkpt><trkpt lat="44.10587234858942" lon="10.741065265081202"><ele>700.0</ele><time>2026-04-16T07:57:55.001Z</time></trkpt><trkpt lat="44.10599077189209" lon="10.741039394869423"><ele>699.5</ele><time>2026-04-16T07:57:56.001Z</time></trkpt><trkpt lat="44.10611130151096" lon="10.741067221860042"><ele>699.0</ele><time>2026-04-16T07:57:57.001Z</time></trkpt><trkpt lat="44.106250595989415" lon="10.741109241698439"><ele>699.0</ele><time>2026-04-16T07:57:58.001Z</time></trkpt><trkpt lat="44.106399678104786" lon="10.741129803968414"><ele>699.0</ele><time>2026-04-16T07:57:59.001Z</time></trkpt><trkpt lat="44.106544423013226" lon="10.7410879902318"><ele>699.0</ele><time>2026-04-16T07:58:00.001Z</time></trkpt><trkpt lat="44.106671480702936" lon="10.740957435409728"><ele>705.75</ele><time>2026-04-16T07:58:01.001Z</time></trkpt><trkpt lat="44.10680344296421" lon="10.740859617968109"><ele>712.5</ele><time>2026-04-16T07:58:02.001Z</time></trkpt><trkpt lat="44.10693145340989" lon="10.740739097110735"><ele>719.25</ele><time>2026-04-16T07:58:03.001Z</time></trkpt><trkpt lat="44.1070376716302" lon="10.74064550095407"><ele>726.0</ele><time>2026-04-16T07:58:04.001Z</time></trkpt><trkpt lat="44.10711791970601" lon="10.74056507210164"><ele>726.0</ele><time>2026-04-16T07:58:05.001Z</time></trkpt><trkpt lat="44.107181419263995" lon="10.740467170581493"><ele>726.0</ele><time>2026-04-16T07:58:06.001Z</time></trkpt><trkpt lat="44.10722465014083" lon="10.74032923177032"><ele>726.0</ele><time>2026-04-16T07:58:07.001Z</time></trkpt><trkpt lat="44.10721194929459" lon="10.740185054068874"><ele>726.0</ele><time>2026-04-16T07:58:08.001Z</time></trkpt><trkpt lat="44.107195961009026" lon="10.740028445526567"><ele>726.0</ele><time>2026-04-16T07:58:09.001Z</time></trkpt><trkpt lat="44.10716791125882" lon="10.73988105225671"><ele>731.4</ele><time>2026-04-16T07:58:10.001Z</time></trkpt><trkpt lat="44.10713732785621" lon="10.739729319847031"><ele>736.8</ele><time>2026-04-16T07:58:11.001Z</time></trkpt><trkpt lat="44.10711738085359" lon="10.739603134881328"><ele>742.1999999999999</ele><time>2026-04-16T07:58:12.002Z</time></trkpt><trkpt lat="44.10710497953163" lon="10.73949167603803"><ele>747.5999999999999</ele><time>2026-04-16T07:58:13.002Z</time></trkpt><trkpt lat="44.107117103370506" lon="10.739382645531254"><ele>753.0</ele><time>2026-04-16T07:58:14.002Z</time></trkpt><trkpt lat="44.1071635598197" lon="10.739276613090597"><ele>754.8</ele><time>2026-04-16T07:58:15.002Z</time></trkpt><trkpt lat="44.10724083567261" lon="10.7392140096159"><ele>756.5999999999999</ele><time>2026-04-16T07:58:16.002Z</time></trkpt><trkpt lat="44.107345197989034" lon="10.739152554242105"><ele>758.4000000000001</ele><time>2026-04-16T07:58:17.002Z</time></trkpt><trkpt lat="44.10745333356573" lon="10.739073540591022"><ele>760.2</ele><time>2026-04-16T07:58:18.002Z</time></trkpt><trkpt lat="44.10754906235104" lon="10.738982791079795"><ele>762.0</ele><time>2026-04-16T07:58:19.002Z</time></trkpt><trkpt lat="44.107627745861016" lon="10.738871812057193"><ele>761.8</ele><time>2026-04-16T07:58:20.002Z</time></trkpt><trkpt lat="44.10769394879951" lon="10.738756526036838"><ele>761.6</ele><time>2026-04-16T07:58:21.002Z</time></trkpt><trkpt lat="44.107752719382795" lon="10.73862008882505"><ele>761.4</ele><time>2026-04-16T07:58:22.002Z</time></trkpt><trkpt lat="44.10782674994535" lon="10.738522674953597"><ele>761.1999999999999</ele><time>2026-04-16T07:58:23.002Z</time></trkpt><trkpt lat="44.10793981998849" lon="10.738445832006605"><ele>761.0</ele><time>2026-04-16T07:58:24.002Z</time></trkpt><trkpt lat="44.10806968666085" lon="10.738389566080059"><ele>761.0</ele><time>2026-04-16T07:58:25.002Z</time></trkpt><trkpt lat="44.10817407456714" lon="10.738334469939092"><ele>761.0</ele><time>2026-04-16T07:58:26.002Z</time></trkpt><trkpt lat="44.10827211339244" lon="10.738251207459912"><ele>761.0</ele><time>2026-04-16T07:58:27.002Z</time></trkpt><trkpt lat="44.10836132086478" lon="10.738141712902385"><ele>761.0</ele><time>2026-04-16T07:58:28.002Z</time></trkpt><trkpt lat="44.10841987491519" lon="10.738013525643991"><ele>763.75</ele><time>2026-04-16T07:58:29.002Z</time></trkpt><trkpt lat="44.10847981902933" lon="10.737859787717502"><ele>766.5</ele><time>2026-04-16T07:58:30.002Z</time></trkpt><trkpt lat="44.10854569015591" lon="10.737700305258455"><ele>769.25</ele><time>2026-04-16T07:58:31.002Z</time></trkpt><trkpt lat="44.108611939239324" lon="10.73755566188842"><ele>772.0</ele><time>2026-04-16T07:58:32.002Z</time></trkpt><trkpt lat="44.10868942346997" lon="10.737457182156552"><ele>772.0</ele><time>2026-04-16T07:58:33.002Z</time></trkpt><trkpt lat="44.10878703136223" lon="10.737414711391239"><ele>772.0</ele><time>2026-04-16T07:58:34.002Z</time></trkpt><trkpt lat="44.108872731407345" lon="10.737429813839562"><ele>772.0</ele><time>2026-04-16T07:58:35Z</time></trkpt><trkpt lat="44.10897239105629" lon="10.737488246339877"><ele>772.0</ele><time>2026-04-16T07:58:36Z</time></trkpt><trkpt lat="44.10906035605039" lon="10.737533660752966"><ele>772.0</ele><time>2026-04-16T07:58:37Z</time></trkpt><trkpt lat="44.10916551952443" lon="10.737527933605904"><ele>769.0</ele><time>2026-04-16T07:58:38Z</time></trkpt><trkpt lat="44.10924286617703" lon="10.737492101467735"><ele>766.0</ele><time>2026-04-16T07:58:39Z</time></trkpt><trkpt lat="44.109304498267335" lon="10.737411584465876"><ele>763.0</ele><time>2026-04-16T07:58:40Z</time></trkpt><trkpt lat="44.10937788443241" lon="10.737286263903476"><ele>760.0</ele><time>2026-04-16T07:58:41Z</time></trkpt><trkpt lat="44.109460893628096" lon="10.737158955711958"><ele>757.0</ele><time>2026-04-16T07:58:42Z</time></trkpt><trkpt lat="44.109530999286264" lon="10.73703175018661"><ele>757.0</ele><time>2026-04-16T07:58:43Z</time></trkpt><trkpt lat="44.109610091626315" lon="10.736919472915172"><ele>757.0</ele><time>2026-04-16T07:58:44Z</time></trkpt><trkpt lat="44.10967839410933" lon="10.736812752170835"><ele>757.0</ele><time>2026-04-16T07:58:45Z</time></trkpt><trkpt lat="44.10973520607288" lon="10.736703997384643"><ele>757.0</ele><time>2026-04-16T07:58:46Z</time></trkpt><trkpt lat="44.10977247119063" lon="10.736605525098337"><ele>757.0</ele><time>2026-04-16T07:58:47Z</time></trkpt><trkpt lat="44.10978474657381" lon="10.736514573239347"><ele>761.0</ele><time>2026-04-16T07:58:48Z</time></trkpt><trkpt lat="44.10975361458666" lon="10.736422624673112"><ele>765.0</ele><time>2026-04-16T07:58:49Z</time></trkpt><trkpt lat="44.10969962465942" lon="10.736329481834362"><ele>769.0</ele><time>2026-04-16T07:58:50Z</time></trkpt><trkpt lat="44.10962362991572" lon="10.736224494421524"><ele>773.0</ele><time>2026-04-16T07:58:51Z</time></trkpt><trkpt lat="44.10949052342313" lon="10.73620974217384"><ele>777.0</ele><time>2026-04-16T07:58:52Z</time></trkpt><trkpt lat="44.10936902167128" lon="10.736290034135552"><ele>777.0</ele><time>2026-04-16T07:58:53Z</time></trkpt><trkpt lat="44.1092526667059" lon="10.73640089489946"><ele>777.0</ele><time>2026-04-16T07:58:54Z</time></trkpt><trkpt lat="44.109123857721244" lon="10.736516034436342"><ele>777.0</ele><time>2026-04-16T07:58:55Z</time></trkpt><trkpt lat="44.108990366893764" lon="10.73663452048639"><ele>775.3333333333333</ele><time>2026-04-16T07:58:56Z</time></trkpt><trkpt lat="44.10887274883781" lon="10.736765214104167"><ele>773.6666666666666</ele><time>2026-04-16T07:58:57Z</time></trkpt><trkpt lat="44.10872533943597" lon="10.736878333406144"><ele>772.0</ele><time>2026-04-16T07:58:58Z</time></trkpt><trkpt lat="44.10858145228078" lon="10.736988296676454"><ele>772.0</ele><time>2026-04-16T07:58:59Z</time></trkpt><trkpt lat="44.10844957088486" lon="10.737090963360927"><ele>772.0</ele><time>2026-04-16T07:59:00Z</time></trkpt><trkpt lat="44.108337726901674" lon="10.737187881713623"><ele>772.0</ele><time>2026-04-16T07:59:01Z</time></trkpt><trkpt lat="44.10824297701596" lon="10.7372829821389"><ele>772.0</ele><time>2026-04-16T07:59:02Z</time></trkpt><trkpt lat="44.10814518727043" lon="10.73736272117787"><ele>774.8333333333333</ele><time>2026-04-16T07:59:03Z</time></trkpt><trkpt lat="44.108052975497216" lon="10.737415165854475"><ele>777.6666666666666</ele><time>2026-04-16T07:59:04Z</time></trkpt><trkpt lat="44.10797302548644" lon="10.73739942316552"><ele>780.5</ele><time>2026-04-16T07:59:05Z</time></trkpt><trkpt lat="44.107916826130925" lon="10.737306833459293"><ele>783.3333333333333</ele><time>2026-04-16T07:59:06Z</time></trkpt><trkpt lat="44.10789413624684" lon="10.737188299464355"><ele>786.1666666666666</ele><time>2026-04-16T07:59:07.001Z</time></trkpt><trkpt lat="44.10790976119205" lon="10.737068093284114"><ele>789.0</ele><time>2026-04-16T07:59:08.001Z</time></trkpt><trkpt lat="44.10797085844502" lon="10.736973260310604"><ele>790.5</ele><time>2026-04-16T07:59:09.001Z</time></trkpt><trkpt lat="44.108059828790104" lon="10.73687262454412"><ele>792.0</ele><time>2026-04-16T07:59:10.001Z</time></trkpt><trkpt lat="44.10815705900989" lon="10.736744602929143"><ele>793.5</ele><time>2026-04-16T07:59:11.001Z</time></trkpt><trkpt lat="44.10830170941777" lon="10.736641543966714"><ele>795.0</ele><time>2026-04-16T07:59:12.001Z</time></trkpt><trkpt lat="44.1084265186197" lon="10.736512023112132"><ele>795.0</ele><time>2026-04-16T07:59:13.001Z</time></trkpt><trkpt lat="44.108561281969834" lon="10.736371193962011"><ele>795.0</ele><time>2026-04-16T07:59:14.001Z</time></trkpt><trkpt lat="44.108696122138575" lon="10.736228378732395"><ele>795.0</ele><time>2026-04-16T07:59:15.001Z</time></trkpt><trkpt lat="44.10882709633582" lon="10.736079921778101"><ele>795.3333333333333</ele><time>2026-04-16T07:59:16.001Z</time></trkpt><trkpt lat="44.10896697496391" lon="10.735932917724616"><ele>795.6666666666666</ele><time>2026-04-16T07:59:17.001Z</time></trkpt><trkpt lat="44.10910250728655" lon="10.735790534185046"><ele>796.0</ele><time>2026-04-16T07:59:18.001Z</time></trkpt><trkpt lat="44.10923974879374" lon="10.735640166050652"><ele>796.0</ele><time>2026-04-16T07:59:19.001Z</time></trkpt><trkpt lat="44.10938015169436" lon="10.735506765720396"><ele>796.0</ele><time>2026-04-16T07:59:20.001Z</time></trkpt><trkpt lat="44.10950420047411" lon="10.735359517737027"><ele>796.0</ele><time>2026-04-16T07:59:21.001Z</time></trkpt><trkpt lat="44.109616784415905" lon="10.735207014547147"><ele>800.5999999999999</ele><time>2026-04-16T07:59:22.001Z</time></trkpt><trkpt lat="44.10970744342089" lon="10.735073875733345"><ele>805.2</ele><time>2026-04-16T07:59:23.001Z</time></trkpt><trkpt lat="44.10979158171614" lon="10.73495274304331"><ele>809.8</ele><time>2026-04-16T07:59:24.001Z</time></trkpt><trkpt lat="44.109867800854104" lon="10.734898975409857"><ele>814.4000000000001</ele><time>2026-04-16T07:59:25.001Z</time></trkpt><trkpt lat="44.1099380567193" lon="10.73486949077176"><ele>819.0</ele><time>2026-04-16T07:59:26.001Z</time></trkpt><trkpt lat="44.11003884735961" lon="10.734881995957288"><ele>819.0</ele><time>2026-04-16T07:59:27.001Z</time></trkpt><trkpt lat="44.11013573108141" lon="10.734926158313812"><ele>819.0</ele><time>2026-04-16T07:59:28.001Z</time></trkpt><trkpt lat="44.11019108709631" lon="10.735030775298755"><ele>819.0</ele><time>2026-04-16T07:59:29.001Z</time></trkpt><trkpt lat="44.110251199536485" lon="10.73517913484281"><ele>819.0</ele><time>2026-04-16T07:59:30.001Z</time></trkpt><trkpt lat="44.11034886541134" lon="10.735299649797055"><ele>819.0</ele><time>2026-04-16T07:59:31.001Z</time></trkpt><trkpt lat="44.11047558564098" lon="10.735388623593376"><ele>817.5</ele><time>2026-04-16T07:59:32.001Z</time></trkpt><trkpt lat="44.11060197062964" lon="10.735471982877245"><ele>816.0</ele><time>2026-04-16T07:59:33.001Z</time></trkpt><trkpt lat="44.11072584670905" lon="10.73556385343759"><ele>814.5</ele><time>2026-04-16T07:59:34.001Z</time></trkpt><trkpt lat="44.110849714967145" lon="10.735657056472911"><ele>813.0</ele><time>2026-04-16T07:59:35.001Z</time></trkpt><trkpt lat="44.11095098805814" lon="10.735703072332802"><ele>813.0</ele><time>2026-04-16T07:59:36.001Z</time></trkpt><trkpt lat="44.111049413950944" lon="10.735812328302593"><ele>813.0</ele><time>2026-04-16T07:59:37.001Z</time></trkpt><trkpt lat="44.11114702598677" lon="10.735656004106538"><ele>813.0</ele><time>2026-04-16T07:59:38.001Z</time></trkpt><trkpt lat="44.111242710281914" lon="10.735566522176441"><ele>813.0</ele><time>2026-04-16T07:59:39.001Z</time></trkpt><trkpt lat="44.11137871895184" lon="10.735556931564089"><ele>813.0</ele><time>2026-04-16T07:59:40.001Z</time></trkpt><trkpt lat="44.111530914031086" lon="10.735579964694619"><ele>813.0</ele><time>2026-04-16T07:59:41.001Z</time></trkpt><trkpt lat="44.11168018344682" lon="10.735596484120359"><ele>813.0</ele><time>2026-04-16T07:59:42.001Z</time></trkpt><trkpt lat="44.11182258227052" lon="10.735612243183793"><ele>813.0</ele><time>2026-04-16T07:59:43.001Z</time></trkpt><trkpt lat="44.11197859401659" lon="10.735629508774261"><ele>814.75</ele><time>2026-04-16T07:59:44.001Z</time></trkpt><trkpt lat="44.11213151161053" lon="10.735647263224037"><ele>816.5</ele><time>2026-04-16T07:59:45.001Z</time></trkpt><trkpt lat="44.11228503789039" lon="10.735663379114694"><ele>818.25</ele><time>2026-04-16T07:59:46.001Z</time></trkpt><trkpt lat="44.112402320086495" lon="10.73566720551823"><ele>820.0</ele><time>2026-04-16T07:59:47.001Z</time></trkpt><trkpt lat="44.11252006400223" lon="10.73563578505068"><ele>820.0</ele><time>2026-04-16T07:59:48.001Z</time></trkpt><trkpt lat="44.112618014221255" lon="10.735560437019872"><ele>820.0</ele><time>2026-04-16T07:59:49.001Z</time></trkpt><trkpt lat="44.112720163018416" lon="10.7354077967277"><ele>820.0</ele><time>2026-04-16T07:59:50.001Z</time></trkpt><trkpt lat="44.11283647000669" lon="10.735302448818778"><ele>820.0</ele><time>2026-04-16T07:59:51.001Z</time></trkpt><trkpt lat="44.11295314850872" lon="10.735177107643112"><ele>826.3333333333333</ele><time>2026-04-16T07:59:52.001Z</time></trkpt><trkpt lat="44.11308900286893" lon="10.735052556853125"><ele>832.6666666666667</ele><time>2026-04-16T07:59:53.001Z</time></trkpt><trkpt lat="44.11323578202703" lon="10.734980068976745"><ele>839.0</ele><time>2026-04-16T07:59:54.001Z</time></trkpt><trkpt lat="44.11336758996428" lon="10.734925732799914"><ele>839.0000000000001</ele><time>2026-04-16T07:59:55.001Z</time></trkpt><trkpt lat="44.113465821662096" lon="10.734870630253146"><ele>839.0</ele><time>2026-04-16T07:59:56.001Z</time></trkpt><trkpt lat="44.11353346654001" lon="10.734813040534865"><ele>839.0</ele><time>2026-04-16T07:59:57.001Z</time></trkpt><trkpt lat="44.11359664135855" lon="10.734738365905603"><ele>839.0</ele><time>2026-04-16T07:59:58.001Z</time></trkpt><trkpt lat="44.11361782556248" lon="10.734655019263618"><ele>839.0000000000001</ele><time>2026-04-16T07:59:59.001Z</time></trkpt><trkpt lat="44.113597303034375" lon="10.73455569840252"><ele>839.0</ele><time>2026-04-16T08:00:00.001Z</time></trkpt><trkpt lat="44.11355163304944" lon="10.73444417414075"><ele>839.0</ele><time>2026-04-16T08:00:01.001Z</time></trkpt><trkpt lat="44.11344918672474" lon="10.734392298918102"><ele>839.0</ele><time>2026-04-16T08:00:02.001Z</time></trkpt><trkpt lat="44.113322357943254" lon="10.734455104384487"><ele>839.0</ele><time>2026-04-16T08:00:03.001Z</time></trkpt><trkpt lat="44.11321188270537" lon="10.734526794996093"><ele>839.0</ele><time>2026-04-16T08:00:04.001Z</time></trkpt><trkpt lat="44.113118922830466" lon="10.734641353299043"><ele>840.3333333333334</ele><time>2026-04-16T08:00:05.001Z</time></trkpt><trkpt lat="44.11302540850653" lon="10.734733938798165"><ele>841.6666666666667</ele><time>2026-04-16T08:00:06.002Z</time></trkpt><trkpt lat="44.11294610390058" lon="10.73476316553627"><ele>843.0</ele><time>2026-04-16T08:00:07.002Z</time></trkpt><trkpt lat="44.112883486142834" lon="10.734732725158926"><ele>844.3333333333333</ele><time>2026-04-16T08:00:08.002Z</time></trkpt><trkpt lat="44.11284931677042" lon="10.73463706594621"><ele>845.6666666666666</ele><time>2026-04-16T08:00:09.002Z</time></trkpt><trkpt lat="44.112876213655284" lon="10.734517237492865"><ele>847.0</ele><time>2026-04-16T08:00:10.002Z</time></trkpt><trkpt lat="44.11292963864091" lon="10.734444641978095"><ele>847.0</ele><time>2026-04-16T08:00:11.002Z</time></trkpt><trkpt lat="44.11302198384086" lon="10.734389906161196"><ele>847.0</ele><time>2026-04-16T08:00:12.002Z</time></trkpt><trkpt lat="44.11312722280373" lon="10.734362963647115"><ele>847.0</ele><time>2026-04-16T08:00:13.002Z</time></trkpt><trkpt lat="44.11325950879145" lon="10.734322783555001"><ele>847.0</ele><time>2026-04-16T08:00:14.002Z</time></trkpt><trkpt lat="44.113386149005926" lon="10.734271894964612"><ele>851.25</ele><time>2026-04-16T08:00:15.002Z</time></trkpt><trkpt lat="44.11349925026929" lon="10.734210466028037"><ele>855.5</ele><time>2026-04-16T08:00:16.002Z</time></trkpt><trkpt lat="44.113609997972546" lon="10.734106934948402"><ele>859.75</ele><time>2026-04-16T08:00:17.002Z</time></trkpt><trkpt lat="44.11370776688572" lon="10.733977918471847"><ele>864.0</ele><time>2026-04-16T08:00:18.002Z</time></trkpt><trkpt lat="44.113802290637146" lon="10.733829730926848"><ele>864.0</ele><time>2026-04-16T08:00:19.002Z</time></trkpt><trkpt lat="44.1138983023" lon="10.733680951751449"><ele>864.0</ele><time>2026-04-16T08:00:20.002Z</time></trkpt><trkpt lat="44.114019294913355" lon="10.73356822668962"><ele>864.0</ele><time>2026-04-16T08:00:21.002Z</time></trkpt><trkpt lat="44.11415263743694" lon="10.733475329939326"><ele>864.0</ele><time>2026-04-16T08:00:22.002Z</time></trkpt><trkpt lat="44.11428859658998" lon="10.733389205492479"><ele>865.8000000000001</ele><time>2026-04-16T08:00:23.002Z</time></trkpt><trkpt lat="44.11440692894815" lon="10.733318906897965"><ele>867.6000000000001</ele><time>2026-04-16T08:00:24.002Z</time></trkpt><trkpt lat="44.11450671895068" lon="10.73328139416939"><ele>869.4</ele><time>2026-04-16T08:00:25.002Z</time></trkpt><trkpt lat="44.11460123225976" lon="10.733297651186755"><ele>871.2</ele><time>2026-04-16T08:00:26.002Z</time></trkpt><trkpt lat="44.11468138836224" lon="10.73338573752524"><ele>873.0</ele><time>2026-04-16T08:00:27.002Z</time></trkpt><trkpt lat="44.11478318154007" lon="10.733430387085626"><ele>873.0</ele><time>2026-04-16T08:00:28.002Z</time></trkpt><trkpt lat="44.11490012104742" lon="10.73343315775852"><ele>873.0</ele><time>2026-04-16T08:00:29.002Z</time></trkpt><trkpt lat="44.11505013190604" lon="10.733391875744662"><ele>873.0</ele><time>2026-04-16T08:00:30.002Z</time></trkpt><trkpt lat="44.11520172905465" lon="10.733333371488063"><ele>873.0</ele><time>2026-04-16T08:00:31.002Z</time></trkpt><trkpt lat="44.115359494808104" lon="10.733262618013224"><ele>872.0</ele><time>2026-04-16T08:00:32.002Z</time></trkpt><trkpt lat="44.11550456678542" lon="10.733184926117518"><ele>871.0</ele><time>2026-04-16T08:00:33.002Z</time></trkpt><trkpt lat="44.11565733809927" lon="10.733093140947073"><ele>870.0</ele><time>2026-04-16T08:00:34.002Z</time></trkpt><trkpt lat="44.11579645548216" lon="10.732981008856164"><ele>870.0</ele><time>2026-04-16T08:00:35.002Z</time></trkpt><trkpt lat="44.1159392126611" lon="10.732851757712549"><ele>870.0</ele><time>2026-04-16T08:00:36.002Z</time></trkpt><trkpt lat="44.11607013776075" lon="10.732728478903335"><ele>870.0</ele><time>2026-04-16T08:00:37.002Z</time></trkpt><trkpt lat="44.116183366202556" lon="10.732609538550493"><ele>872.0</ele><time>2026-04-16T08:00:38.002Z</time></trkpt><trkpt lat="44.11629413276166" lon="10.732515325930335"><ele>874.0</ele><time>2026-04-16T08:00:39.002Z</time></trkpt><trkpt lat="44.11640129199358" lon="10.73242475357401"><ele>876.0</ele><time>2026-04-16T08:00:40.002Z</time></trkpt><trkpt lat="44.116468643702206" lon="10.732345229806663"><ele>878.0</ele><time>2026-04-16T08:00:41Z</time></trkpt><trkpt lat="44.1165140551754" lon="10.7322590157941"><ele>880.0</ele><time>2026-04-16T08:00:42Z</time></trkpt><trkpt lat="44.11653468931989" lon="10.732163140100278"><ele>880.0</ele><time>2026-04-16T08:00:43Z</time></trkpt><trkpt lat="44.116513935231545" lon="10.732064570949696"><ele>880.0</ele><time>2026-04-16T08:00:44Z</time></trkpt><trkpt lat="44.116456085474056" lon="10.7319816973177"><ele>880.0</ele><time>2026-04-16T08:00:45Z</time></trkpt><trkpt lat="44.11636670524836" lon="10.731944304371034"><ele>880.0</ele><time>2026-04-16T08:00:46Z</time></trkpt><trkpt lat="44.116270868231204" lon="10.73193800431558"><ele>880.0</ele><time>2026-04-16T08:00:47Z</time></trkpt><trkpt lat="44.11618036877755" lon="10.732045050221984"><ele>880.0</ele><time>2026-04-16T08:00:48Z</time></trkpt><trkpt lat="44.116100481698325" lon="10.732181326625344"><ele>880.0</ele><time>2026-04-16T08:00:49Z</time></trkpt><trkpt lat="44.1160179809602" lon="10.732318175755706"><ele>880.0</ele><time>2026-04-16T08:00:50Z</time></trkpt><trkpt lat="44.11595531525132" lon="10.732411419157028"><ele>880.0</ele><time>2026-04-16T08:00:51Z</time></trkpt><trkpt lat="44.115875473813595" lon="10.732490279074128"><ele>880.0</ele><time>2026-04-16T08:00:52Z</time></trkpt><trkpt lat="44.11576307850836" lon="10.732524844909557"><ele>884.6666666666666</ele><time>2026-04-16T08:00:53Z</time></trkpt><trkpt lat="44.115619447964576" lon="10.73255627186584"><ele>889.3333333333333</ele><time>2026-04-16T08:00:54Z</time></trkpt><trkpt lat="44.115468304805376" lon="10.732593660158239"><ele>894.0</ele><time>2026-04-16T08:00:55Z</time></trkpt><trkpt lat="44.11530767786177" lon="10.732619917070208"><ele>894.0</ele><time>2026-04-16T08:00:56Z</time></trkpt><trkpt lat="44.11515392651438" lon="10.732638885075376"><ele>894.0</ele><time>2026-04-16T08:00:57Z</time></trkpt><trkpt lat="44.11503025985675" lon="10.732660914901684"><ele>894.0</ele><time>2026-04-16T08:00:58Z</time></trkpt><trkpt lat="44.11490962214751" lon="10.732679943300745"><ele>894.0</ele><time>2026-04-16T08:00:59Z</time></trkpt><trkpt lat="44.114820154819874" lon="10.732691361032254"><ele>894.0</ele><time>2026-04-16T08:01:00Z</time></trkpt><trkpt lat="44.11473066006687" lon="10.732613573394582"><ele>894.0000000000001</ele><time>2026-04-16T08:01:02Z</time></trkpt><trkpt lat="44.114763580654305" lon="10.73248026718252"><ele>894.0000000000001</ele><time>2026-04-16T08:01:04Z</time></trkpt><trkpt lat="44.11482812535361" lon="10.732454904775219"><ele>894.0</ele><time>2026-04-16T08:01:05Z</time></trkpt><trkpt lat="44.11491211900378" lon="10.732469670515187"><ele>894.0</ele><time>2026-04-16T08:01:06Z</time></trkpt><trkpt lat="44.11502032397134" lon="10.732466000254512"><ele>894.0</ele><time>2026-04-16T08:01:07Z</time></trkpt><trkpt lat="44.11512546234879" lon="10.732458397933042"><ele>894.0000000000001</ele><time>2026-04-16T08:01:08Z</time></trkpt><trkpt lat="44.11523923265649" lon="10.732435068692133"><ele>894.0000000000001</ele><time>2026-04-16T08:01:09Z</time></trkpt><trkpt lat="44.11533911112816" lon="10.732359670133938"><ele>894.0</ele><time>2026-04-16T08:01:10Z</time></trkpt><trkpt lat="44.115397128889455" lon="10.732263145994363"><ele>894.0</ele><time>2026-04-16T08:01:11Z</time></trkpt><trkpt lat="44.11542787563658" lon="10.732136773040171"><ele>894.0</ele><time>2026-04-16T08:01:12Z</time></trkpt><trkpt lat="44.11546813266295" lon="10.731998214022473"><ele>894.0</ele><time>2026-04-16T08:01:13Z</time></trkpt><trkpt lat="44.115559692779286" lon="10.731880727972516"><ele>894.0</ele><time>2026-04-16T08:01:14Z</time></trkpt><trkpt lat="44.11566742738481" lon="10.731812634421834"><ele>894.0</ele><time>2026-04-16T08:01:15Z</time></trkpt><trkpt lat="44.11578622904334" lon="10.731763203064268"><ele>897.2</ele><time>2026-04-16T08:01:16Z</time></trkpt><trkpt lat="44.11589507440479" lon="10.73171116370874"><ele>900.4000000000001</ele><time>2026-04-16T08:01:17Z</time></trkpt><trkpt lat="44.115968383971705" lon="10.731568231881965"><ele>903.6</ele><time>2026-04-16T08:01:18Z</time></trkpt><trkpt lat="44.11604340049547" lon="10.731473827109694"><ele>906.8</ele><time>2026-04-16T08:01:19Z</time></trkpt><trkpt lat="44.11613106261332" lon="10.731400555179826"><ele>910.0</ele><time>2026-04-16T08:01:20Z</time></trkpt><trkpt lat="44.1162425456196" lon="10.731360614281074"><ele>910.0</ele><time>2026-04-16T08:01:21Z</time></trkpt><trkpt lat="44.116372336450546" lon="10.731360718038482"><ele>910.0</ele><time>2026-04-16T08:01:22Z</time></trkpt><trkpt lat="44.11650254367264" lon="10.731329837905157"><ele>910.0</ele><time>2026-04-16T08:01:23Z</time></trkpt><trkpt lat="44.11663729356905" lon="10.731279725257634"><ele>910.0</ele><time>2026-04-16T08:01:24Z</time></trkpt><trkpt lat="44.11675077991141" lon="10.731213547429904"><ele>905.75</ele><time>2026-04-16T08:01:25Z</time></trkpt><trkpt lat="44.11684118447757" lon="10.73114013920283"><ele>901.5</ele><time>2026-04-16T08:01:26.001Z</time></trkpt><trkpt lat="44.116945794032866" lon="10.731081162988923"><ele>897.25</ele><time>2026-04-16T08:01:27.001Z</time></trkpt><trkpt lat="44.11705141160136" lon="10.7309598427909"><ele>893.0</ele><time>2026-04-16T08:01:28.001Z</time></trkpt><trkpt lat="44.11712990069611" lon="10.730781475294778"><ele>897.0</ele><time>2026-04-16T08:01:29.001Z</time></trkpt><trkpt lat="44.11720876586088" lon="10.730653567898104"><ele>901.0</ele><time>2026-04-16T08:01:30.001Z</time></trkpt><trkpt lat="44.11732637464777" lon="10.73058733851477"><ele>905.0</ele><time>2026-04-16T08:01:31.001Z</time></trkpt><trkpt lat="44.117468639597895" lon="10.73050882912283"><ele>909.0</ele><time>2026-04-16T08:01:32.001Z</time></trkpt><trkpt lat="44.1175972952406" lon="10.730366323673927"><ele>909.0</ele><time>2026-04-16T08:01:33.001Z</time></trkpt><trkpt lat="44.117718390859736" lon="10.73022880855622"><ele>909.0</ele><time>2026-04-16T08:01:34.001Z</time></trkpt><trkpt lat="44.11783889713656" lon="10.730081530990004"><ele>909.0</ele><time>2026-04-16T08:01:35.001Z</time></trkpt><trkpt lat="44.11797998991487" lon="10.730012124136833"><ele>914.0</ele><time>2026-04-16T08:01:36.001Z</time></trkpt><trkpt lat="44.118102522754675" lon="10.729961381412624"><ele>919.0</ele><time>2026-04-16T08:01:37.001Z</time></trkpt><trkpt lat="44.118251157984744" lon="10.729912223238419"><ele>924.0</ele><time>2026-04-16T08:01:38.001Z</time></trkpt><trkpt lat="44.118397440802525" lon="10.729873392954053"><ele>929.0</ele><time>2026-04-16T08:01:39.001Z</time></trkpt><trkpt lat="44.11852401760653" lon="10.729867013319287"><ele>929.0</ele><time>2026-04-16T08:01:40.001Z</time></trkpt><trkpt lat="44.11863402682162" lon="10.729880156919926"><ele>929.0000000000001</ele><time>2026-04-16T08:01:41.001Z</time></trkpt><trkpt lat="44.118724720555754" lon="10.729929001403333"><ele>929.0000000000001</ele><time>2026-04-16T08:01:42.001Z</time></trkpt><trkpt lat="44.11881776317427" lon="10.729993422483885"><ele>929.0</ele><time>2026-04-16T08:01:43.001Z</time></trkpt><trkpt lat="44.118898405283424" lon="10.730062001277961"><ele>929.0</ele><time>2026-04-16T08:01:44.001Z</time></trkpt><trkpt lat="44.11897692695379" lon="10.730084448915187"><ele>929.0</ele><time>2026-04-16T08:01:45.001Z</time></trkpt><trkpt lat="44.11906582989641" lon="10.730065622106432"><ele>929.0</ele><time>2026-04-16T08:01:46.001Z</time></trkpt><trkpt lat="44.119163418087595" lon="10.730013822948184"><ele>929.0</ele><time>2026-04-16T08:01:47.001Z</time></trkpt><trkpt lat="44.119265605475256" lon="10.729834436510025"><ele>929.0</ele><time>2026-04-16T08:01:48.001Z</time></trkpt><trkpt lat="44.11938779909917" lon="10.729676922370361"><ele>928.75</ele><time>2026-04-16T08:01:49.001Z</time></trkpt><trkpt lat="44.11948959462278" lon="10.729533145294324"><ele>928.5</ele><time>2026-04-16T08:01:50.001Z</time></trkpt><trkpt lat="44.11959208350378" lon="10.729381257858941"><ele>928.25</ele><time>2026-04-16T08:01:51.001Z</time></trkpt><trkpt lat="44.11967603496612" lon="10.729203953716862"><ele>928.0</ele><time>2026-04-16T08:01:52.001Z</time></trkpt><trkpt lat="44.119749095802284" lon="10.729025574646192"><ele>932.25</ele><time>2026-04-16T08:01:53.001Z</time></trkpt><trkpt lat="44.1198240209621" lon="10.728862016697358"><ele>936.5</ele><time>2026-04-16T08:01:54.001Z</time></trkpt><trkpt lat="44.119889618939396" lon="10.728698724047517"><ele>940.75</ele><time>2026-04-16T08:01:55.001Z</time></trkpt><trkpt lat="44.11994665241583" lon="10.728510713690724"><ele>945.0</ele><time>2026-04-16T08:01:56.001Z</time></trkpt><trkpt lat="44.11998116192432" lon="10.72831789358771"><ele>945.0</ele><time>2026-04-16T08:01:57.001Z</time></trkpt><trkpt lat="44.120001647526536" lon="10.728112800766334"><ele>945.0</ele><time>2026-04-16T08:01:58.001Z</time></trkpt><trkpt lat="44.120011714188294" lon="10.727909177771172"><ele>945.0</ele><time>2026-04-16T08:01:59.001Z</time></trkpt><trkpt lat="44.12003910762422" lon="10.727727073246125"><ele>945.0</ele><time>2026-04-16T08:02:00.001Z</time></trkpt><trkpt lat="44.12008139360608" lon="10.727588058061162"><ele>947.4</ele><time>2026-04-16T08:02:01.001Z</time></trkpt><trkpt lat="44.12013094232857" lon="10.727470285461777"><ele>949.8</ele><time>2026-04-16T08:02:02.001Z</time></trkpt><trkpt lat="44.12017993055448" lon="10.727386760859071"><ele>952.2</ele><time>2026-04-16T08:02:03.001Z</time></trkpt><trkpt lat="44.1202182197771" lon="10.72730418678592"><ele>954.6</ele><time>2026-04-16T08:02:04.001Z</time></trkpt><trkpt lat="44.12025843650655" lon="10.727154951090071"><ele>957.0</ele><time>2026-04-16T08:02:06.001Z</time></trkpt><trkpt lat="44.12015889651732" lon="10.72706930769481"><ele>957.0</ele><time>2026-04-16T08:02:08.001Z</time></trkpt><trkpt lat="44.12007473933846" lon="10.727101498888164"><ele>957.0</ele><time>2026-04-16T08:02:09.001Z</time></trkpt><trkpt lat="44.11998256490196" lon="10.727135058875268"><ele>957.0</ele><time>2026-04-16T08:02:10.001Z</time></trkpt><trkpt lat="44.11990001606619" lon="10.727195660587062"><ele>957.0</ele><time>2026-04-16T08:02:11.001Z</time></trkpt><trkpt lat="44.119812281497836" lon="10.72727617443531"><ele>957.0</ele><time>2026-04-16T08:02:12.001Z</time></trkpt><trkpt lat="44.11974933897569" lon="10.727395718208976"><ele>961.2</ele><time>2026-04-16T08:02:13.001Z</time></trkpt><trkpt lat="44.11969753201152" lon="10.727531498620582"><ele>965.4000000000001</ele><time>2026-04-16T08:02:14.001Z</time></trkpt><trkpt lat="44.11965131808197" lon="10.72766042012361"><ele>969.5999999999999</ele><time>2026-04-16T08:02:15.001Z</time></trkpt><trkpt lat="44.119636021648965" lon="10.727775622125113"><ele>973.8</ele><time>2026-04-16T08:02:16.001Z</time></trkpt><trkpt lat="44.11964848393574" lon="10.727908448967174"><ele>978.0</ele><time>2026-04-16T08:02:17.001Z</time></trkpt><trkpt lat="44.1196548641168" lon="10.728029104509266"><ele>978.0</ele><time>2026-04-16T08:02:18.001Z</time></trkpt><trkpt lat="44.11965758997081" lon="10.72814701416315"><ele>978.0</ele><time>2026-04-16T08:02:19.001Z</time></trkpt><trkpt lat="44.1196343357694" lon="10.728254806768032"><ele>978.0</ele><time>2026-04-16T08:02:20.001Z</time></trkpt><trkpt lat="44.11958655824012" lon="10.728341257395261"><ele>978.0</ele><time>2026-04-16T08:02:21.001Z</time></trkpt><trkpt lat="44.11951383655088" lon="10.728432141502482"><ele>978.0</ele><time>2026-04-16T08:02:23.001Z</time></trkpt><trkpt lat="44.11943538705126" lon="10.728393919995264"><ele>978.0</ele><time>2026-04-16T08:02:25.001Z</time></trkpt><trkpt lat="44.119471749449005" lon="10.728213657830903"><ele>978.0</ele><time>2026-04-16T08:02:27.002Z</time></trkpt><trkpt lat="44.11949310929613" lon="10.728083414994657"><ele>978.0</ele><time>2026-04-16T08:02:28.002Z</time></trkpt><trkpt lat="44.11951011891116" lon="10.727942086561987"><ele>978.0</ele><time>2026-04-16T08:02:29.002Z</time></trkpt><trkpt lat="44.119526829409736" lon="10.727778260898475"><ele>978.0</ele><time>2026-04-16T08:02:30.002Z</time></trkpt><trkpt lat="44.119548755194984" lon="10.727609167345344"><ele>978.0</ele><time>2026-04-16T08:02:31.002Z</time></trkpt><trkpt lat="44.119568492756834" lon="10.727443034990618"><ele>983.25</ele><time>2026-04-16T08:02:32.002Z</time></trkpt><trkpt lat="44.11959969358214" lon="10.727268324697505"><ele>988.5</ele><time>2026-04-16T08:02:33.002Z</time></trkpt><trkpt lat="44.119660378091915" lon="10.727100065827695"><ele>993.75</ele><time>2026-04-16T08:02:34.002Z</time></trkpt><trkpt lat="44.11973253984146" lon="10.726916929607661"><ele>999.0</ele><time>2026-04-16T08:02:35.002Z</time></trkpt><trkpt lat="44.11980557547885" lon="10.726732867411346"><ele>994.25</ele><time>2026-04-16T08:02:36.002Z</time></trkpt><trkpt lat="44.119891770342775" lon="10.726557313733377"><ele>989.5</ele><time>2026-04-16T08:02:37.002Z</time></trkpt><trkpt lat="44.119997362367315" lon="10.726414668578963"><ele>984.75</ele><time>2026-04-16T08:02:38.002Z</time></trkpt><trkpt lat="44.12007828753569" lon="10.726291495099977"><ele>980.0</ele><time>2026-04-16T08:02:39.002Z</time></trkpt><trkpt lat="44.120159787236226" lon="10.72620723511898"><ele>980.0</ele><time>2026-04-16T08:02:40.002Z</time></trkpt><trkpt lat="44.12024367012081" lon="10.726212585212986"><ele>980.0</ele><time>2026-04-16T08:02:41.002Z</time></trkpt><trkpt lat="44.120311259319536" lon="10.726303082339129"><ele>980.0</ele><time>2026-04-16T08:02:42.002Z</time></trkpt><trkpt lat="44.12043201269687" lon="10.726332600221689"><ele>980.0</ele><time>2026-04-16T08:02:43.002Z</time></trkpt><trkpt lat="44.12054903247249" lon="10.72628016135127"><ele>980.0</ele><time>2026-04-16T08:02:44.002Z</time></trkpt><trkpt lat="44.12067262176556" lon="10.726210876177715"><ele>979.25</ele><time>2026-04-16T08:02:45.002Z</time></trkpt><trkpt lat="44.12080376712416" lon="10.726186814903345"><ele>978.5</ele><time>2026-04-16T08:02:46.002Z</time></trkpt><trkpt lat="44.12091350570669" lon="10.726227120974833"><ele>977.75</ele><time>2026-04-16T08:02:47Z</time></trkpt><trkpt lat="44.12104030912574" lon="10.726278705383406"><ele>977.0</ele><time>2026-04-16T08:02:48Z</time></trkpt><trkpt lat="44.12116945254723" lon="10.726342584940731"><ele>977.0</ele><time>2026-04-16T08:02:49Z</time></trkpt><trkpt lat="44.121274025655595" lon="10.726431377455695"><ele>977.0</ele><time>2026-04-16T08:02:50Z</time></trkpt><trkpt lat="44.12135766161249" lon="10.726566544549895"><ele>977.0</ele><time>2026-04-16T08:02:51Z</time></trkpt><trkpt lat="44.121454743657125" lon="10.726679185808994"><ele>977.0</ele><time>2026-04-16T08:02:52Z</time></trkpt><trkpt lat="44.12154560909014" lon="10.726752513657367"><ele>979.2</ele><time>2026-04-16T08:02:53Z</time></trkpt><trkpt lat="44.12163129181495" lon="10.726778150578973"><ele>981.4000000000001</ele><time>2026-04-16T08:02:54Z</time></trkpt><trkpt lat="44.12170944018433" lon="10.726755782434662"><ele>983.5999999999999</ele><time>2026-04-16T08:02:55Z</time></trkpt><trkpt lat="44.121799259095546" lon="10.726679066833945"><ele>985.8</ele><time>2026-04-16T08:02:56Z</time></trkpt><trkpt lat="44.12186550284454" lon="10.726560894067802"><ele>988.0</ele><time>2026-04-16T08:02:57Z</time></trkpt><trkpt lat="44.12190947941382" lon="10.72642424698682"><ele>988.0</ele><time>2026-04-16T08:02:58Z</time></trkpt><trkpt lat="44.121925224565906" lon="10.72626785327384"><ele>988.0</ele><time>2026-04-16T08:02:59Z</time></trkpt><trkpt lat="44.1219099981574" lon="10.726098515543898"><ele>988.0</ele><time>2026-04-16T08:03:00Z</time></trkpt><trkpt lat="44.12186406262364" lon="10.725925055815484"><ele>988.0</ele><time>2026-04-16T08:03:01Z</time></trkpt><trkpt lat="44.1218114314076" lon="10.72574559088227"><ele>991.5999999999999</ele><time>2026-04-16T08:03:02Z</time></trkpt><trkpt lat="44.12178064464587" lon="10.725591537544263"><ele>995.1999999999999</ele><time>2026-04-16T08:03:03Z</time></trkpt><trkpt lat="44.12177671609271" lon="10.725480459840286"><ele>998.8</ele><time>2026-04-16T08:03:04Z</time></trkpt><trkpt lat="44.12180126184089" lon="10.72537181966618"><ele>1002.4</ele><time>2026-04-16T08:03:05Z</time></trkpt><trkpt lat="44.121857534008626" lon="10.725261873681701"><ele>1006.0</ele><time>2026-04-16T08:03:06Z</time></trkpt><trkpt lat="44.12194596295839" lon="10.72513748078597"><ele>1011.5</ele><time>2026-04-16T08:03:07Z</time></trkpt><trkpt lat="44.12204713377828" lon="10.725011616118849"><ele>1017.0</ele><time>2026-04-16T08:03:08Z</time></trkpt><trkpt lat="44.122153469490634" lon="10.724855472806173"><ele>1022.5</ele><time>2026-04-16T08:03:09Z</time></trkpt><trkpt lat="44.12224679037879" lon="10.72477787019838"><ele>1028.0</ele><time>2026-04-16T08:03:10Z</time></trkpt><trkpt lat="44.12229715077068" lon="10.724668296882095"><ele>1028.0</ele><time>2026-04-16T08:03:11Z</time></trkpt><trkpt lat="44.12232404685724" lon="10.724509380535292"><ele>1028.0</ele><time>2026-04-16T08:03:12Z</time></trkpt><trkpt lat="44.12231281415957" lon="10.724355339133421"><ele>1028.0</ele><time>2026-04-16T08:03:13Z</time></trkpt><trkpt lat="44.12230882195201" lon="10.72421820477234"><ele>1028.0</ele><time>2026-04-16T08:03:14Z</time></trkpt><trkpt lat="44.12233313104778" lon="10.724081119118944"><ele>1028.0</ele><time>2026-04-16T08:03:15Z</time></trkpt><trkpt lat="44.122408275618795" lon="10.72395086714512"><ele>1025.25</ele><time>2026-04-16T08:03:16Z</time></trkpt><trkpt lat="44.1225141151364" lon="10.723817581220722"><ele>1022.5</ele><time>2026-04-16T08:03:17Z</time></trkpt><trkpt lat="44.12260996870309" lon="10.723693778945877"><ele>1019.75</ele><time>2026-04-16T08:03:18.001Z</time></trkpt><trkpt lat="44.12270198004526" lon="10.723541023621047"><ele>1017.0</ele><time>2026-04-16T08:03:19.001Z</time></trkpt><trkpt lat="44.12276525051707" lon="10.72336689777238"><ele>1022.0</ele><time>2026-04-16T08:03:20.001Z</time></trkpt><trkpt lat="44.122809130562075" lon="10.723227529202202"><ele>1027.0</ele><time>2026-04-16T08:03:21.001Z</time></trkpt><trkpt lat="44.12290786960613" lon="10.723127328853272"><ele>1032.0</ele><time>2026-04-16T08:03:22.001Z</time></trkpt><trkpt lat="44.12299481445187" lon="10.723060496973734"><ele>1037.0</ele><time>2026-04-16T08:03:23.001Z</time></trkpt><trkpt lat="44.123048044243795" lon="10.722976180852871"><ele>1042.0</ele><time>2026-04-16T08:03:24.001Z</time></trkpt><trkpt lat="44.12311778969562" lon="10.722887826717765"><ele>1042.0</ele><time>2026-04-16T08:03:25.001Z</time></trkpt><trkpt lat="44.12318094682974" lon="10.722764081342017"><ele>1042.0</ele><time>2026-04-16T08:03:26.001Z</time></trkpt><trkpt lat="44.123178717821936" lon="10.722570273249339"><ele>1042.0</ele><time>2026-04-16T08:03:27.001Z</time></trkpt><trkpt lat="44.1230871850379" lon="10.722362585811311"><ele>1042.0</ele><time>2026-04-16T08:03:28.001Z</time></trkpt><trkpt lat="44.122992072556954" lon="10.722204166101035"><ele>1045.3333333333333</ele><time>2026-04-16T08:03:29.001Z</time></trkpt><trkpt lat="44.12290204863991" lon="10.72204725086447"><ele>1048.6666666666667</ele><time>2026-04-16T08:03:30.001Z</time></trkpt><trkpt lat="44.12281010934457" lon="10.721886510017779"><ele>1052.0</ele><time>2026-04-16T08:03:31.001Z</time></trkpt><trkpt lat="44.12270935620131" lon="10.721708020684792"><ele>1052.0</ele><time>2026-04-16T08:03:32.001Z</time></trkpt><trkpt lat="44.12260058915367" lon="10.721518005967525"><ele>1052.0</ele><time>2026-04-16T08:03:33.001Z</time></trkpt><trkpt lat="44.12250194173919" lon="10.721344497117514"><ele>1052.0</ele><time>2026-04-16T08:03:34.001Z</time></trkpt><trkpt lat="44.12238493377976" lon="10.721141209164943"><ele>1062.5</ele><time>2026-04-16T08:03:35.001Z</time></trkpt><trkpt lat="44.122295683570066" lon="10.720986551512318"><ele>1073.0</ele><time>2026-04-16T08:03:36.001Z</time></trkpt><trkpt lat="44.122214886888514" lon="10.72085127844548"><ele>1083.5</ele><time>2026-04-16T08:03:37.001Z</time></trkpt><trkpt lat="44.12214721226542" lon="10.720683147157585"><ele>1094.0</ele><time>2026-04-16T08:03:38.001Z</time></trkpt><trkpt lat="44.12210281342102" lon="10.72044864294903"><ele>1089.0</ele><time>2026-04-16T08:03:39.001Z</time></trkpt><trkpt lat="44.12205965049822" lon="10.720215903725615"><ele>1084.0</ele><time>2026-04-16T08:03:40.001Z</time></trkpt><trkpt lat="44.12202151600902" lon="10.720010821209218"><ele>1079.0</ele><time>2026-04-16T08:03:41.001Z</time></trkpt><trkpt lat="44.12200593838799" lon="10.71982672980951"><ele>1079.0</ele><time>2026-04-16T08:03:42.001Z</time></trkpt><trkpt lat="44.12198205689506" lon="10.71964390002049"><ele>1079.0</ele><time>2026-04-16T08:03:43.001Z</time></trkpt><trkpt lat="44.12197608992284" lon="10.719483962396742"><ele>1079.0</ele><time>2026-04-16T08:03:44.001Z</time></trkpt><trkpt lat="44.12199127729226" lon="10.719336617668903"><ele>1079.0</ele><time>2026-04-16T08:03:45.001Z</time></trkpt><trkpt lat="44.12205027880476" lon="10.719190944361598"><ele>1078.6666666666667</ele><time>2026-04-16T08:03:46.001Z</time></trkpt><trkpt lat="44.12213805639014" lon="10.71903427878704"><ele>1078.3333333333333</ele><time>2026-04-16T08:03:47.001Z</time></trkpt><trkpt lat="44.1222415029259" lon="10.718854158233167"><ele>1078.0</ele><time>2026-04-16T08:03:48.001Z</time></trkpt><trkpt lat="44.122338434209304" lon="10.718671079271923"><ele>1072.6666666666665</ele><time>2026-04-16T08:03:49.001Z</time></trkpt><trkpt lat="44.122438295475696" lon="10.718463341892356"><ele>1067.3333333333333</ele><time>2026-04-16T08:03:50.001Z</time></trkpt><trkpt lat="44.122530019675715" lon="10.718252741828715"><ele>1062.0</ele><time>2026-04-16T08:03:51.001Z</time></trkpt><trkpt lat="44.122623241529276" lon="10.718028119819751"><ele>1062.0</ele><time>2026-04-16T08:03:52.001Z</time></trkpt><trkpt lat="44.122715770791274" lon="10.71783145061289"><ele>1062.0</ele><time>2026-04-16T08:03:53.001Z</time></trkpt><trkpt lat="44.1228262124388" lon="10.717635268805267"><ele>1062.0</ele><time>2026-04-16T08:03:54.001Z</time></trkpt><trkpt lat="44.12292834447842" lon="10.717435090541397"><ele>1065.6666666666667</ele><time>2026-04-16T08:03:55.001Z</time></trkpt><trkpt lat="44.12304956774511" lon="10.717258539851686"><ele>1069.3333333333335</ele><time>2026-04-16T08:03:56.001Z</time></trkpt><trkpt lat="44.12316278305292" lon="10.71707240551732"><ele>1073.0</ele><time>2026-04-16T08:03:57.001Z</time></trkpt><trkpt lat="44.1232794926559" lon="10.716883872143955"><ele>1073.0</ele><time>2026-04-16T08:03:58.001Z</time></trkpt><trkpt lat="44.12339189574423" lon="10.716694081283066"><ele>1073.0</ele><time>2026-04-16T08:03:59.001Z</time></trkpt><trkpt lat="44.12348586194443" lon="10.716496573879395"><ele>1073.0</ele><time>2026-04-16T08:04:00.001Z</time></trkpt><trkpt lat="44.12355371942461" lon="10.716289704204192"><ele>1073.0</ele><time>2026-04-16T08:04:01.001Z</time></trkpt><trkpt lat="44.123630313407254" lon="10.71613289065066"><ele>1073.0</ele><time>2026-04-16T08:04:02.001Z</time></trkpt><trkpt lat="44.12371911801011" lon="10.715998363162267"><ele>1073.0</ele><time>2026-04-16T08:04:03.001Z</time></trkpt><trkpt lat="44.12382717817284" lon="10.715892528129814"><ele>1073.0</ele><time>2026-04-16T08:04:04.001Z</time></trkpt><trkpt lat="44.12389437287404" lon="10.715816118710764"><ele>1076.4</ele><time>2026-04-16T08:04:05.001Z</time></trkpt><trkpt lat="44.12395823885218" lon="10.71573052818049"><ele>1079.8</ele><time>2026-04-16T08:04:06.001Z</time></trkpt><trkpt lat="44.123974606884204" lon="10.715641839601286"><ele>1083.2</ele><time>2026-04-16T08:04:07.001Z</time></trkpt><trkpt lat="44.12397610145433" lon="10.715529912017814"><ele>1086.6</ele><time>2026-04-16T08:04:08.001Z</time></trkpt><trkpt lat="44.12391330095604" lon="10.715409401138356"><ele>1090.0</ele><time>2026-04-16T08:04:09.001Z</time></trkpt><trkpt lat="44.12379318569933" lon="10.715373166971732"><ele>1090.0</ele><time>2026-04-16T08:04:10.001Z</time></trkpt><trkpt lat="44.123668198464856" lon="10.715465195033765"><ele>1090.0</ele><time>2026-04-16T08:04:11.001Z</time></trkpt><trkpt lat="44.123594539384456" lon="10.715595246378491"><ele>1090.0</ele><time>2026-04-16T08:04:12.001Z</time></trkpt><trkpt lat="44.12352289274029" lon="10.715721506224819"><ele>1090.0</ele><time>2026-04-16T08:04:13.001Z</time></trkpt><trkpt lat="44.123437811669106" lon="10.715868820198304"><ele>1090.0</ele><time>2026-04-16T08:04:14.001Z</time></trkpt><trkpt lat="44.12334783977219" lon="10.716024602412453"><ele>1090.0</ele><time>2026-04-16T08:04:15.001Z</time></trkpt><trkpt lat="44.12325203600595" lon="10.716188736268613"><ele>1090.0</ele><time>2026-04-16T08:04:16.001Z</time></trkpt><trkpt lat="44.12316441595442" lon="10.716338669687719"><ele>1090.0</ele><time>2026-04-16T08:04:17.002Z</time></trkpt><trkpt lat="44.12307667507978" lon="10.716491591377977"><ele>1093.4</ele><time>2026-04-16T08:04:18.002Z</time></trkpt><trkpt lat="44.123003467133614" lon="10.71660835394506"><ele>1096.8</ele><time>2026-04-16T08:04:19.002Z</time></trkpt><trkpt lat="44.12291937030952" lon="10.716665628416676"><ele>1100.2</ele><time>2026-04-16T08:04:20.002Z</time></trkpt><trkpt lat="44.12282657364618" lon="10.716658744750601"><ele>1103.6</ele><time>2026-04-16T08:04:21.002Z</time></trkpt><trkpt lat="44.12276541753928" lon="10.716623825340308"><ele>1107.0</ele><time>2026-04-16T08:04:22.002Z</time></trkpt><trkpt lat="44.12273124482279" lon="10.716495640711448"><ele>1107.0</ele><time>2026-04-16T08:04:24.002Z</time></trkpt><trkpt lat="44.122767567610666" lon="10.716399157600838"><ele>1107.0</ele><time>2026-04-16T08:04:25.002Z</time></trkpt><trkpt lat="44.12284439689098" lon="10.716276566455464"><ele>1107.0</ele><time>2026-04-16T08:04:26.002Z</time></trkpt><trkpt lat="44.12293039273652" lon="10.716142301503153"><ele>1107.0</ele><time>2026-04-16T08:04:27.002Z</time></trkpt><trkpt lat="44.12301244839246" lon="10.715996465075957"><ele>1102.75</ele><time>2026-04-16T08:04:28.002Z</time></trkpt><trkpt lat="44.12309239890875" lon="10.71583099769378"><ele>1098.5</ele><time>2026-04-16T08:04:29.002Z</time></trkpt><trkpt lat="44.123173550238846" lon="10.715664518267927"><ele>1094.25</ele><time>2026-04-16T08:04:30.002Z</time></trkpt><trkpt lat="44.1232399980044" lon="10.71549388836338"><ele>1090.0</ele><time>2026-04-16T08:04:31.002Z</time></trkpt><trkpt lat="44.12328027584276" lon="10.715292465512182"><ele>1096.5</ele><time>2026-04-16T08:04:32.002Z</time></trkpt><trkpt lat="44.12333232963891" lon="10.715104164634546"><ele>1103.0</ele><time>2026-04-16T08:04:33.002Z</time></trkpt><trkpt lat="44.123398590266305" lon="10.714950091933765"><ele>1109.5</ele><time>2026-04-16T08:04:34.002Z</time></trkpt><trkpt lat="44.12348945057645" lon="10.714853201120896"><ele>1116.0</ele><time>2026-04-16T08:04:35.002Z</time></trkpt><trkpt lat="44.12359804915265" lon="10.714769716981284"><ele>1116.0</ele><time>2026-04-16T08:04:36.002Z</time></trkpt><trkpt lat="44.12369310851" lon="10.71468142688305"><ele>1116.0</ele><time>2026-04-16T08:04:37.002Z</time></trkpt><trkpt lat="44.123757190279555" lon="10.714605574358002"><ele>1116.0</ele><time>2026-04-16T08:04:38.002Z</time></trkpt><trkpt lat="44.12380539146078" lon="10.71454724044828"><ele>1116.0</ele><time>2026-04-16T08:04:39.002Z</time></trkpt><trkpt lat="44.123813592357564" lon="10.7144274592318"><ele>1116.0</ele><time>2026-04-16T08:04:40.002Z</time></trkpt><trkpt lat="44.123788198841936" lon="10.714273541661159"><ele>1121.0</ele><time>2026-04-16T08:04:41.002Z</time></trkpt><trkpt lat="44.12375474137611" lon="10.714120975752852"><ele>1126.0</ele><time>2026-04-16T08:04:42.002Z</time></trkpt><trkpt lat="44.12370460236661" lon="10.713973622824833"><ele>1131.0</ele><time>2026-04-16T08:04:43.002Z</time></trkpt><trkpt lat="44.12371786950703" lon="10.713802106599456"><ele>1136.0</ele><time>2026-04-16T08:04:44.002Z</time></trkpt><trkpt lat="44.12377435847764" lon="10.713629936623786"><ele>1139.75</ele><time>2026-04-16T08:04:45.002Z</time></trkpt><trkpt lat="44.12384695954608" lon="10.713472163845422"><ele>1143.5</ele><time>2026-04-16T08:04:46.002Z</time></trkpt><trkpt lat="44.1239276899542" lon="10.713326102800321"><ele>1147.25</ele><time>2026-04-16T08:04:47.002Z</time></trkpt><trkpt lat="44.12400985552434" lon="10.713227850235194"><ele>1151.0</ele><time>2026-04-16T08:04:48.002Z</time></trkpt><trkpt lat="44.12409577940134" lon="10.713154018019411"><ele>1148.5</ele><time>2026-04-16T08:04:49.002Z</time></trkpt><trkpt lat="44.124149607890324" lon="10.713045803618716"><ele>1146.0</ele><time>2026-04-16T08:04:50.002Z</time></trkpt><trkpt lat="44.124195933639136" lon="10.71290312253524"><ele>1143.5</ele><time>2026-04-16T08:04:51.002Z</time></trkpt><trkpt lat="44.124244733843305" lon="10.712731549984605"><ele>1141.0</ele><time>2026-04-16T08:04:52.002Z</time></trkpt><trkpt lat="44.12426589908691" lon="10.71256968865729"><ele>1141.0</ele><time>2026-04-16T08:04:53Z</time></trkpt><trkpt lat="44.124288172450186" lon="10.712374684418668"><ele>1141.0</ele><time>2026-04-16T08:04:54Z</time></trkpt><trkpt lat="44.124339283371754" lon="10.712250090058584"><ele>1141.0</ele><time>2026-04-16T08:04:55Z</time></trkpt><trkpt lat="44.12440058104731" lon="10.712125746307533"><ele>1141.0</ele><time>2026-04-16T08:04:56Z</time></trkpt><trkpt lat="44.12443356651453" lon="10.711887867565558"><ele>1144.8</ele><time>2026-04-16T08:04:57Z</time></trkpt><trkpt lat="44.1244073792406" lon="10.711744560905966"><ele>1148.6</ele><time>2026-04-16T08:04:58Z</time></trkpt><trkpt lat="44.12438230416007" lon="10.711605002816066"><ele>1152.4</ele><time>2026-04-16T08:05:00Z</time></trkpt><trkpt lat="44.12448647753351" lon="10.711561619509405"><ele>1156.2</ele><time>2026-04-16T08:05:02Z</time></trkpt><trkpt lat="44.1245659124278" lon="10.711565936449183"><ele>1160.0</ele><time>2026-04-16T08:05:03Z</time></trkpt><trkpt lat="44.12467613358604" lon="10.711561107335712"><ele>1160.0</ele><time>2026-04-16T08:05:04Z</time></trkpt><trkpt lat="44.12477723322976" lon="10.711483436046388"><ele>1160.0</ele><time>2026-04-16T08:05:05Z</time></trkpt><trkpt lat="44.124914231954946" lon="10.711433101598082"><ele>1160.0</ele><time>2026-04-16T08:05:06Z</time></trkpt><trkpt lat="44.125042354828246" lon="10.711254511083725"><ele>1160.0</ele><time>2026-04-16T08:05:07Z</time></trkpt><trkpt lat="44.12512732415312" lon="10.711077339024486"><ele>1161.25</ele><time>2026-04-16T08:05:08Z</time></trkpt><trkpt lat="44.12520380144442" lon="10.710914093844773"><ele>1162.5</ele><time>2026-04-16T08:05:09Z</time></trkpt><trkpt lat="44.12531849406519" lon="10.710783897787486"><ele>1163.75</ele><time>2026-04-16T08:05:10Z</time></trkpt><trkpt lat="44.125465389501144" lon="10.710696481857411"><ele>1165.0</ele><time>2026-04-16T08:05:11Z</time></trkpt><trkpt lat="44.125580894123146" lon="10.710523051742863"><ele>1165.0</ele><time>2026-04-16T08:05:12Z</time></trkpt><trkpt lat="44.12567049172449" lon="10.71032217844494"><ele>1165.0</ele><time>2026-04-16T08:05:13Z</time></trkpt><trkpt lat="44.12576722346758" lon="10.7102007607654"><ele>1165.0</ele><time>2026-04-16T08:05:14Z</time></trkpt><trkpt lat="44.12584356772967" lon="10.710088187763365"><ele>1165.0</ele><time>2026-04-16T08:05:15Z</time></trkpt><trkpt lat="44.12589674737641" lon="10.709984663312504"><ele>1164.5</ele><time>2026-04-16T08:05:16Z</time></trkpt><trkpt lat="44.12592991595921" lon="10.709847995642997"><ele>1164.0</ele><time>2026-04-16T08:05:17Z</time></trkpt><trkpt lat="44.125935803960964" lon="10.709720294401272"><ele>1163.5</ele><time>2026-04-16T08:05:18Z</time></trkpt><trkpt lat="44.12590959476395" lon="10.709609523223213"><ele>1163.0</ele><time>2026-04-16T08:05:19Z</time></trkpt><trkpt lat="44.125898671436204" lon="10.70952170098933"><ele>1162.5</ele><time>2026-04-16T08:05:20Z</time></trkpt><trkpt lat="44.125836213929254" lon="10.709405494677135"><ele>1162.0</ele><time>2026-04-16T08:05:21Z</time></trkpt><trkpt lat="44.12574822187574" lon="10.709325885046708"><ele>1168.5</ele><time>2026-04-16T08:05:22Z</time></trkpt><trkpt lat="44.12562949975966" lon="10.709260253589026"><ele>1175.0</ele><time>2026-04-16T08:05:23Z</time></trkpt><trkpt lat="44.125517998560035" lon="10.709176546885798"><ele>1181.5</ele><time>2026-04-16T08:05:24Z</time></trkpt><trkpt lat="44.12542889716684" lon="10.7090706814735"><ele>1188.0</ele><time>2026-04-16T08:05:25Z</time></trkpt><trkpt lat="44.12535150532383" lon="10.708917681417981"><ele>1188.0</ele><time>2026-04-16T08:05:26Z</time></trkpt><trkpt lat="44.125283222716064" lon="10.708729261588553"><ele>1188.0</ele><time>2026-04-16T08:05:27.001Z</time></trkpt><trkpt lat="44.125209208957266" lon="10.70857430461435"><ele>1188.0</ele><time>2026-04-16T08:05:28.001Z</time></trkpt><trkpt lat="44.125145877772184" lon="10.708407108427341"><ele>1188.0</ele><time>2026-04-16T08:05:29.001Z</time></trkpt><trkpt lat="44.125117986380076" lon="10.70824429109035"><ele>1187.5</ele><time>2026-04-16T08:05:30.001Z</time></trkpt><trkpt lat="44.125110601852136" lon="10.708073250150328"><ele>1187.0</ele><time>2026-04-16T08:05:31.001Z</time></trkpt><trkpt lat="44.12513505608047" lon="10.707884016806867"><ele>1186.5</ele><time>2026-04-16T08:05:32.001Z</time></trkpt><trkpt lat="44.12521761599325" lon="10.707723046620515"><ele>1186.0</ele><time>2026-04-16T08:05:33.001Z</time></trkpt><trkpt lat="44.12531225901082" lon="10.707545853263806"><ele>1190.25</ele><time>2026-04-16T08:05:34.001Z</time></trkpt><trkpt lat="44.12540644873491" lon="10.70736961976546"><ele>1194.5</ele><time>2026-04-16T08:05:35.001Z</time></trkpt><trkpt lat="44.12550178804951" lon="10.707198354176949"><ele>1198.75</ele><time>2026-04-16T08:05:36.001Z</time></trkpt><trkpt lat="44.12559054866159" lon="10.707060585780535"><ele>1203.0</ele><time>2026-04-16T08:05:37.001Z</time></trkpt><trkpt lat="44.125682838295376" lon="10.70695613323707"><ele>1199.0</ele><time>2026-04-16T08:05:38.001Z</time></trkpt><trkpt lat="44.12579503306812" lon="10.706864858840724"><ele>1195.0</ele><time>2026-04-16T08:05:39.001Z</time></trkpt><trkpt lat="44.12592717609547" lon="10.706773421699113"><ele>1191.0</ele><time>2026-04-16T08:05:40.001Z</time></trkpt><trkpt lat="44.126056556263194" lon="10.70667469451265"><ele>1187.0</ele><time>2026-04-16T08:05:41.001Z</time></trkpt><trkpt lat="44.12616078733711" lon="10.706536654520741"><ele>1187.0</ele><time>2026-04-16T08:05:42.001Z</time></trkpt><trkpt lat="44.12624424057304" lon="10.706396732499377"><ele>1187.0</ele><time>2026-04-16T08:05:43.001Z</time></trkpt><trkpt lat="44.126297935774474" lon="10.706219758661597"><ele>1187.0</ele><time>2026-04-16T08:05:44.001Z</time></trkpt><trkpt lat="44.126376834602894" lon="10.706049506484087"><ele>1187.0</ele><time>2026-04-16T08:05:45.001Z</time></trkpt><trkpt lat="44.12641712536293" lon="10.705860976356322"><ele>1195.0</ele><time>2026-04-16T08:05:46.001Z</time></trkpt><trkpt lat="44.126442834902214" lon="10.705649342004241"><ele>1203.0</ele><time>2026-04-16T08:05:47.001Z</time></trkpt><trkpt lat="44.12646444603805" lon="10.7054336342882"><ele>1211.0</ele><time>2026-04-16T08:05:48.001Z</time></trkpt><trkpt lat="44.126460259621844" lon="10.705207206808252"><ele>1213.5</ele><time>2026-04-16T08:05:49.001Z</time></trkpt><trkpt lat="44.126441426241804" lon="10.704962561699228"><ele>1216.0</ele><time>2026-04-16T08:05:50.001Z</time></trkpt><trkpt lat="44.12642797643784" lon="10.704776220524213"><ele>1218.5</ele><time>2026-04-16T08:05:51.001Z</time></trkpt><trkpt lat="44.12641713790641" lon="10.704613125681314"><ele>1221.0</ele><time>2026-04-16T08:05:52.001Z</time></trkpt><trkpt lat="44.126402069913425" lon="10.704465482353383"><ele>1219.8</ele><time>2026-04-16T08:05:53.001Z</time></trkpt><trkpt lat="44.126405276012584" lon="10.704354493108452"><ele>1218.6</ele><time>2026-04-16T08:05:54.001Z</time></trkpt><trkpt lat="44.126370671931774" lon="10.704264812778986"><ele>1217.4</ele><time>2026-04-16T08:05:55.001Z</time></trkpt><trkpt lat="44.1262978076862" lon="10.704191687027556"><ele>1216.2</ele><time>2026-04-16T08:05:56.001Z</time></trkpt><trkpt lat="44.12615307808491" lon="10.704137589430102"><ele>1215.0</ele><time>2026-04-16T08:05:57.001Z</time></trkpt><trkpt lat="44.12602025818369" lon="10.704124779429923"><ele>1215.0</ele><time>2026-04-16T08:05:58.001Z</time></trkpt><trkpt lat="44.12592793193809" lon="10.704083293329154"><ele>1215.0</ele><time>2026-04-16T08:05:59.001Z</time></trkpt><trkpt lat="44.12582057121238" lon="10.7040347179376"><ele>1215.0</ele><time>2026-04-16T08:06:00.001Z</time></trkpt><trkpt lat="44.12569333432867" lon="10.704001041713063"><ele>1215.0</ele><time>2026-04-16T08:06:01.001Z</time></trkpt><trkpt lat="44.1255800847383" lon="10.70394980809629"><ele>1215.0</ele><time>2026-04-16T08:06:02.001Z</time></trkpt><trkpt lat="44.12548194925361" lon="10.703820035515314"><ele>1215.0</ele><time>2026-04-16T08:06:03.001Z</time></trkpt><trkpt lat="44.12534917948729" lon="10.703599860422187"><ele>1215.0</ele><time>2026-04-16T08:06:04.001Z</time></trkpt><trkpt lat="44.12521005899631" lon="10.703375196973134"><ele>1215.0</ele><time>2026-04-16T08:06:05.001Z</time></trkpt><trkpt lat="44.12513575863533" lon="10.703156991583823"><ele>1215.0</ele><time>2026-04-16T08:06:06.001Z</time></trkpt><trkpt lat="44.125066517531735" lon="10.70299933340227"><ele>1215.0</ele><time>2026-04-16T08:06:07.001Z</time></trkpt><trkpt lat="44.12502464770112" lon="10.702827511654862"><ele>1215.0</ele><time>2026-04-16T08:06:08.001Z</time></trkpt><trkpt lat="44.12497487011845" lon="10.702647390887332"><ele>1214.25</ele><time>2026-04-16T08:06:09.001Z</time></trkpt><trkpt lat="44.12495341680238" lon="10.702453993068893"><ele>1213.5</ele><time>2026-04-16T08:06:10.001Z</time></trkpt><trkpt lat="44.12494849291473" lon="10.70224335126876"><ele>1212.75</ele><time>2026-04-16T08:06:11.001Z</time></trkpt><trkpt lat="44.124949690649004" lon="10.702035238118954"><ele>1212.0</ele><time>2026-04-16T08:06:12.001Z</time></trkpt><trkpt lat="44.12496435965639" lon="10.701784885249227"><ele>1212.0</ele><time>2026-04-16T08:06:13.001Z</time></trkpt><trkpt lat="44.12501776725476" lon="10.701553523043811"><ele>1212.0</ele><time>2026-04-16T08:06:14.001Z</time></trkpt><trkpt lat="44.12507903038808" lon="10.701356189702175"><ele>1212.0</ele><time>2026-04-16T08:06:15.001Z</time></trkpt><trkpt lat="44.12516688939248" lon="10.701222805013414"><ele>1212.0</ele><time>2026-04-16T08:06:16.001Z</time></trkpt><trkpt lat="44.125229045483586" lon="10.70112530739104"><ele>1212.0</ele><time>2026-04-16T08:06:17.001Z</time></trkpt><trkpt lat="44.125236302562975" lon="10.70103090599179"><ele>1212.0</ele><time>2026-04-16T08:06:18.001Z</time></trkpt><trkpt lat="44.12524036927345" lon="10.70091034750271"><ele>1212.0</ele><time>2026-04-16T08:06:19.001Z</time></trkpt><trkpt lat="44.12519916495923" lon="10.700736860537145"><ele>1212.0</ele><time>2026-04-16T08:06:20.001Z</time></trkpt><trkpt lat="44.125090326928735" lon="10.700548541246636"><ele>1214.75</ele><time>2026-04-16T08:06:21.001Z</time></trkpt><trkpt lat="44.124982359054165" lon="10.700370054135092"><ele>1217.5</ele><time>2026-04-16T08:06:22.002Z</time></trkpt><trkpt lat="44.124944336433295" lon="10.700186607765112"><ele>1220.25</ele><time>2026-04-16T08:06:23.002Z</time></trkpt><trkpt lat="44.12493763426149" lon="10.700029507536565"><ele>1223.0</ele><time>2026-04-16T08:06:24.002Z</time></trkpt><trkpt lat="44.124940312308574" lon="10.699847618820431"><ele>1225.0</ele><time>2026-04-16T08:06:25.002Z</time></trkpt><trkpt lat="44.12497411270152" lon="10.699612983392717"><ele>1227.0</ele><time>2026-04-16T08:06:26.002Z</time></trkpt><trkpt lat="44.12504465259603" lon="10.699380680704996"><ele>1229.0</ele><time>2026-04-16T08:06:27.002Z</time></trkpt><trkpt lat="44.12511634872511" lon="10.699166505549021"><ele>1231.6666666666667</ele><time>2026-04-16T08:06:28.002Z</time></trkpt><trkpt lat="44.12515381867342" lon="10.698967758287138"><ele>1234.3333333333333</ele><time>2026-04-16T08:06:29.002Z</time></trkpt><trkpt lat="44.12522681273183" lon="10.698772096853764"><ele>1237.0</ele><time>2026-04-16T08:06:30.002Z</time></trkpt><trkpt lat="44.12531707691077" lon="10.698581096904737"><ele>1239.0</ele><time>2026-04-16T08:06:31.002Z</time></trkpt><trkpt lat="44.12540860297409" lon="10.698399130599094"><ele>1241.0</ele><time>2026-04-16T08:06:32.002Z</time></trkpt><trkpt lat="44.12546010229848" lon="10.698213168544523"><ele>1243.0</ele><time>2026-04-16T08:06:33.002Z</time></trkpt><trkpt lat="44.12551502609237" lon="10.698026510937511"><ele>1245.0</ele><time>2026-04-16T08:06:34.002Z</time></trkpt><trkpt lat="44.12556703376107" lon="10.697812730931624"><ele>1247.25</ele><time>2026-04-16T08:06:35.002Z</time></trkpt><trkpt lat="44.12557230171291" lon="10.69763113085022"><ele>1249.5</ele><time>2026-04-16T08:06:36.002Z</time></trkpt><trkpt lat="44.12558205105582" lon="10.697403561982414"><ele>1251.75</ele><time>2026-04-16T08:06:37.002Z</time></trkpt><trkpt lat="44.125589800156234" lon="10.697195908180282"><ele>1254.0</ele><time>2026-04-16T08:06:38.002Z</time></trkpt><trkpt lat="44.12559487377325" lon="10.697035343599222"><ele>1256.3333333333333</ele><time>2026-04-16T08:06:39.002Z</time></trkpt><trkpt lat="44.12561221186286" lon="10.69675747989295"><ele>1258.6666666666665</ele><time>2026-04-16T08:06:40.002Z</time></trkpt><trkpt lat="44.12571274588004" lon="10.696496589533874"><ele>1261.0</ele><time>2026-04-16T08:06:41.002Z</time></trkpt><trkpt lat="44.125807005015496" lon="10.696338170830787"><ele>1258.0</ele><time>2026-04-16T08:06:42.002Z</time></trkpt><trkpt lat="44.125881501262846" lon="10.696212109826472"><ele>1255.0</ele><time>2026-04-16T08:06:43.002Z</time></trkpt><trkpt lat="44.12595565539161" lon="10.696098684010309"><ele>1252.0</ele><time>2026-04-16T08:06:44.002Z</time></trkpt><trkpt lat="44.1260568127739" lon="10.6959961032806"><ele>1249.0</ele><time>2026-04-16T08:06:45.002Z</time></trkpt><trkpt lat="44.126142753492424" lon="10.69595232255347"><ele>1246.0</ele><time>2026-04-16T08:06:46.002Z</time></trkpt><trkpt lat="44.12623593674676" lon="10.695929212236214"><ele>1246.0</ele><time>2026-04-16T08:06:47.002Z</time></trkpt><trkpt lat="44.12634976505914" lon="10.695912956168186"><ele>1246.0</ele><time>2026-04-16T08:06:48.002Z</time></trkpt><trkpt lat="44.126480539203186" lon="10.69589876627659"><ele>1246.0</ele><time>2026-04-16T08:06:49.002Z</time></trkpt><trkpt lat="44.12662215832366" lon="10.695882418755078"><ele>1246.0</ele><time>2026-04-16T08:06:50.002Z</time></trkpt><trkpt lat="44.12675613566063" lon="10.695859129960217"><ele>1248.5</ele><time>2026-04-16T08:06:51.002Z</time></trkpt><trkpt lat="44.12688749578569" lon="10.695823885264842"><ele>1251.0</ele><time>2026-04-16T08:06:52.002Z</time></trkpt><trkpt lat="44.127008097589915" lon="10.695778208390507"><ele>1253.5</ele><time>2026-04-16T08:06:53.002Z</time></trkpt><trkpt lat="44.12713432464249" lon="10.695739500632708"><ele>1256.0</ele><time>2026-04-16T08:06:54.002Z</time></trkpt><trkpt lat="44.12726888332379" lon="10.695645455293693"><ele>1255.0</ele><time>2026-04-16T08:06:55.002Z</time></trkpt><trkpt lat="44.12739815748429" lon="10.695484450279018"><ele>1254.0</ele><time>2026-04-16T08:06:56.002Z</time></trkpt><trkpt lat="44.1275136539797" lon="10.695310814233912"><ele>1253.0</ele><time>2026-04-16T08:06:57.002Z</time></trkpt><trkpt lat="44.12762206624164" lon="10.695136073952373"><ele>1259.0</ele><time>2026-04-16T08:06:58.002Z</time></trkpt><trkpt lat="44.12772063728623" lon="10.69492639477511"><ele>1265.0</ele><time>2026-04-16T08:06:59Z</time></trkpt><trkpt lat="44.127798421877195" lon="10.69471211530892"><ele>1271.0</ele><time>2026-04-16T08:07:00Z</time></trkpt><trkpt lat="44.12787039474138" lon="10.694507148589564"><ele>1273.25</ele><time>2026-04-16T08:07:01Z</time></trkpt><trkpt lat="44.127932574712034" lon="10.694310945135024"><ele>1275.5</ele><time>2026-04-16T08:07:02Z</time></trkpt><trkpt lat="44.12800017314199" lon="10.694120923767079"><ele>1277.75</ele><time>2026-04-16T08:07:03Z</time></trkpt><trkpt lat="44.12805984783092" lon="10.693945598791252"><ele>1280.0</ele><time>2026-04-16T08:07:04Z</time></trkpt><trkpt lat="44.128093113531676" lon="10.693767688418964"><ele>1280.3333333333335</ele><time>2026-04-16T08:07:05Z</time></trkpt><trkpt lat="44.128097164299255" lon="10.693568932185203"><ele>1280.6666666666667</ele><time>2026-04-16T08:07:06Z</time></trkpt><trkpt lat="44.128057543378944" lon="10.693357934360904"><ele>1281.0</ele><time>2026-04-16T08:07:07Z</time></trkpt><trkpt lat="44.12802928937" lon="10.693151003506363"><ele>1281.0</ele><time>2026-04-16T08:07:08Z</time></trkpt><trkpt lat="44.128000189154456" lon="10.692980998016791"><ele>1281.0</ele><time>2026-04-16T08:07:09Z</time></trkpt><trkpt lat="44.12799062628598" lon="10.692834147478939"><ele>1281.0</ele><time>2026-04-16T08:07:10Z</time></trkpt><trkpt lat="44.128019386026786" lon="10.69271592580075"><ele>1281.0</ele><time>2026-04-16T08:07:11Z</time></trkpt><trkpt lat="44.128082304434656" lon="10.692569580410833"><ele>1281.0</ele><time>2026-04-16T08:07:12Z</time></trkpt><trkpt lat="44.128152523420034" lon="10.692447677770652"><ele>1282.75</ele><time>2026-04-16T08:07:13Z</time></trkpt><trkpt lat="44.128200590166124" lon="10.692317961707008"><ele>1284.5</ele><time>2026-04-16T08:07:14Z</time></trkpt><trkpt lat="44.12822205239967" lon="10.692152794952966"><ele>1286.25</ele><time>2026-04-16T08:07:15Z</time></trkpt><trkpt lat="44.1282132820638" lon="10.691935325311414"><ele>1288.0</ele><time>2026-04-16T08:07:16Z</time></trkpt><trkpt lat="44.12822351231594" lon="10.6917343191161"><ele>1282.0</ele><time>2026-04-16T08:07:17Z</time></trkpt><trkpt lat="44.128260534776786" lon="10.691544751423612"><ele>1276.0</ele><time>2026-04-16T08:07:18Z</time></trkpt><trkpt lat="44.12830557951363" lon="10.691389377963993"><ele>1270.0</ele><time>2026-04-16T08:07:19Z</time></trkpt><trkpt lat="44.12837024967282" lon="10.691305577468551"><ele>1264.0</ele><time>2026-04-16T08:07:20Z</time></trkpt><trkpt lat="44.1284568584615" lon="10.691206929220048"><ele>1266.6666666666665</ele><time>2026-04-16T08:07:21Z</time></trkpt><trkpt lat="44.128541928239564" lon="10.691050361499418"><ele>1269.3333333333333</ele><time>2026-04-16T08:07:22Z</time></trkpt><trkpt lat="44.12858273972318" lon="10.690839411232462"><ele>1272.0</ele><time>2026-04-16T08:07:23Z</time></trkpt><trkpt lat="44.12855711591617" lon="10.690612220821302"><ele>1272.0</ele><time>2026-04-16T08:07:24Z</time></trkpt><trkpt lat="44.12852846929362" lon="10.690385436769299"><ele>1272.0</ele><time>2026-04-16T08:07:25Z</time></trkpt><trkpt lat="44.128493936878726" lon="10.690191208954326"><ele>1272.0</ele><time>2026-04-16T08:07:26Z</time></trkpt><trkpt lat="44.12850540854668" lon="10.68997220354287"><ele>1272.75</ele><time>2026-04-16T08:07:27Z</time></trkpt><trkpt lat="44.12851070433385" lon="10.689755759616153"><ele>1273.5</ele><time>2026-04-16T08:07:28Z</time></trkpt><trkpt lat="44.12855765639512" lon="10.689563089035365"><ele>1274.25</ele><time>2026-04-16T08:07:29Z</time></trkpt><trkpt lat="44.128608695162974" lon="10.689410367612462"><ele>1275.0</ele><time>2026-04-16T08:07:30Z</time></trkpt><trkpt lat="44.128670163306374" lon="10.689292256087692"><ele>1275.75</ele><time>2026-04-16T08:07:31Z</time></trkpt><trkpt lat="44.128751857232785" lon="10.689180882937867"><ele>1276.5</ele><time>2026-04-16T08:07:32Z</time></trkpt><trkpt lat="44.12886065098033" lon="10.689058505950367"><ele>1277.25</ele><time>2026-04-16T08:07:33Z</time></trkpt><trkpt lat="44.12898324268129" lon="10.688956661946522"><ele>1278.0</ele><time>2026-04-16T08:07:34.001Z</time></trkpt><trkpt lat="44.12911469066076" lon="10.688848132540953"><ele>1275.6666666666667</ele><time>2026-04-16T08:07:35.001Z</time></trkpt><trkpt lat="44.129247905975575" lon="10.688708051710833"><ele>1273.3333333333335</ele><time>2026-04-16T08:07:36.001Z</time></trkpt><trkpt lat="44.12938631241285" lon="10.688609738359784"><ele>1271.0</ele><time>2026-04-16T08:07:37.001Z</time></trkpt><trkpt lat="44.12952518927881" lon="10.68848168637294"><ele>1271.0</ele><time>2026-04-16T08:07:38.001Z</time></trkpt><trkpt lat="44.12966338958956" lon="10.688359228263218"><ele>1271.0</ele><time>2026-04-16T08:07:39.001Z</time></trkpt><trkpt lat="44.12979658449097" lon="10.68822173525303"><ele>1271.0</ele><time>2026-04-16T08:07:40.001Z</time></trkpt><trkpt lat="44.129905674845716" lon="10.68805935885539"><ele>1270.3333333333335</ele><time>2026-04-16T08:07:41.001Z</time></trkpt><trkpt lat="44.13001312450167" lon="10.687869115626096"><ele>1269.6666666666667</ele><time>2026-04-16T08:07:42.001Z</time></trkpt><trkpt lat="44.130118401717375" lon="10.687686964764948"><ele>1269.0</ele><time>2026-04-16T08:07:43.001Z</time></trkpt><trkpt lat="44.13022794930497" lon="10.68750908990296"><ele>1269.0</ele><time>2026-04-16T08:07:44.001Z</time></trkpt><trkpt lat="44.13032719308546" lon="10.687317061023021"><ele>1269.0</ele><time>2026-04-16T08:07:45.001Z</time></trkpt><trkpt lat="44.130445538727336" lon="10.687143948307172"><ele>1269.0</ele><time>2026-04-16T08:07:46.001Z</time></trkpt><trkpt lat="44.13057696365362" lon="10.686968887638322"><ele>1268.3333333333333</ele><time>2026-04-16T08:07:47.001Z</time></trkpt><trkpt lat="44.130713165797026" lon="10.686804663937544"><ele>1267.6666666666665</ele><time>2026-04-16T08:07:48.001Z</time></trkpt><trkpt lat="44.13087035201347" lon="10.686687490914775"><ele>1267.0</ele><time>2026-04-16T08:07:49.001Z</time></trkpt><trkpt lat="44.13101921502217" lon="10.686532948394621"><ele>1267.0</ele><time>2026-04-16T08:07:50.001Z</time></trkpt><trkpt lat="44.13117591492001" lon="10.686396412798185"><ele>1267.0</ele><time>2026-04-16T08:07:51.001Z</time></trkpt><trkpt lat="44.131331824510745" lon="10.686260935968555"><ele>1267.0</ele><time>2026-04-16T08:07:52.001Z</time></trkpt><trkpt lat="44.13148945172181" lon="10.68611714607266"><ele>1268.0</ele><time>2026-04-16T08:07:53.001Z</time></trkpt><trkpt lat="44.131632626555" lon="10.68597311060741"><ele>1269.0</ele><time>2026-04-16T08:07:54.001Z</time></trkpt><trkpt lat="44.13177463608499" lon="10.685870033796778"><ele>1270.0</ele><time>2026-04-16T08:07:55.001Z</time></trkpt><trkpt lat="44.131901762974124" lon="10.685762492679348"><ele>1270.0</ele><time>2026-04-16T08:07:56.001Z</time></trkpt><trkpt lat="44.13202528350022" lon="10.685676788625464"><ele>1270.0</ele><time>2026-04-16T08:07:57.001Z</time></trkpt><trkpt lat="44.132145313416174" lon="10.685591220650288"><ele>1270.0</ele><time>2026-04-16T08:07:58.001Z</time></trkpt><trkpt lat="44.1322599067349" lon="10.685483083727625"><ele>1270.0</ele><time>2026-04-16T08:07:59.001Z</time></trkpt><trkpt lat="44.13236315615336" lon="10.68539396020536"><ele>1268.5</ele><time>2026-04-16T08:08:00.001Z</time></trkpt><trkpt lat="44.132437742612765" lon="10.685271907153528"><ele>1267.0</ele><time>2026-04-16T08:08:01.001Z</time></trkpt><trkpt lat="44.132489685660055" lon="10.685118431266446"><ele>1265.5</ele><time>2026-04-16T08:08:02.001Z</time></trkpt><trkpt lat="44.13252844409052" lon="10.684953439520196"><ele>1264.0</ele><time>2026-04-16T08:08:03.001Z</time></trkpt><trkpt lat="44.13257534775192" lon="10.684759962924566"><ele>1267.25</ele><time>2026-04-16T08:08:04.001Z</time></trkpt><trkpt lat="44.132620940283765" lon="10.684566657339015"><ele>1270.5</ele><time>2026-04-16T08:08:05.001Z</time></trkpt><trkpt lat="44.13267402449947" lon="10.684366648933144"><ele>1273.75</ele><time>2026-04-16T08:08:06.001Z</time></trkpt><trkpt lat="44.132743058154354" lon="10.68419035312091"><ele>1277.0</ele><time>2026-04-16T08:08:07.001Z</time></trkpt><trkpt lat="44.13284371013332" lon="10.684047735213392"><ele>1282.3333333333335</ele><time>2026-04-16T08:08:08.001Z</time></trkpt><trkpt lat="44.13296115731433" lon="10.683919863293566"><ele>1287.6666666666667</ele><time>2026-04-16T08:08:09.001Z</time></trkpt><trkpt lat="44.13308158532475" lon="10.683781220581363"><ele>1293.0</ele><time>2026-04-16T08:08:10.001Z</time></trkpt><trkpt lat="44.133211401371135" lon="10.683641445293073"><ele>1294.75</ele><time>2026-04-16T08:08:11.001Z</time></trkpt><trkpt lat="44.13332381214113" lon="10.683499362570275"><ele>1296.5</ele><time>2026-04-16T08:08:12.001Z</time></trkpt><trkpt lat="44.133436840531225" lon="10.683338905933715"><ele>1298.25</ele><time>2026-04-16T08:08:13.001Z</time></trkpt><trkpt lat="44.13356133015825" lon="10.683272959291244"><ele>1300.0</ele><time>2026-04-16T08:08:14.001Z</time></trkpt><trkpt lat="44.133704485722745" lon="10.683222678826013"><ele>1300.0</ele><time>2026-04-16T08:08:15.001Z</time></trkpt><trkpt lat="44.1338303646155" lon="10.68321533173078"><ele>1300.0</ele><time>2026-04-16T08:08:16.001Z</time></trkpt><trkpt lat="44.13393647577785" lon="10.683201113149211"><ele>1300.0</ele><time>2026-04-16T08:08:17.001Z</time></trkpt><trkpt lat="44.134039046364585" lon="10.683136264005014"><ele>1300.0</ele><time>2026-04-16T08:08:18.001Z</time></trkpt><trkpt lat="44.13411946224957" lon="10.683035418094027"><ele>1298.5</ele><time>2026-04-16T08:08:19.001Z</time></trkpt><trkpt lat="44.134178289547535" lon="10.6828968960981"><ele>1297.0</ele><time>2026-04-16T08:08:20.001Z</time></trkpt><trkpt lat="44.13424708520134" lon="10.682724228873608"><ele>1295.5</ele><time>2026-04-16T08:08:21.001Z</time></trkpt><trkpt lat="44.1343245234823" lon="10.682543543444739"><ele>1294.0</ele><time>2026-04-16T08:08:22.001Z</time></trkpt><trkpt lat="44.1344117181116" lon="10.682373412081821"><ele>1298.6666666666665</ele><time>2026-04-16T08:08:23.001Z</time></trkpt><trkpt lat="44.13451090153613" lon="10.682208751223843"><ele>1303.3333333333333</ele><time>2026-04-16T08:08:24.001Z</time></trkpt><trkpt lat="44.13462252218486" lon="10.682026080568676"><ele>1308.0</ele><time>2026-04-16T08:08:25.001Z</time></trkpt><trkpt lat="44.1347327304105" lon="10.681865264001093"><ele>1308.0</ele><time>2026-04-16T08:08:26.001Z</time></trkpt><trkpt lat="44.13484275049628" lon="10.681730176542027"><ele>1308.0</ele><time>2026-04-16T08:08:27.002Z</time></trkpt><trkpt lat="44.134959365105566" lon="10.6816084317394"><ele>1308.0</ele><time>2026-04-16T08:08:28.002Z</time></trkpt><trkpt lat="44.135074030197174" lon="10.681519965096546"><ele>1308.0</ele><time>2026-04-16T08:08:29.002Z</time></trkpt><trkpt lat="44.135177199847945" lon="10.681421631212288"><ele>1308.0</ele><time>2026-04-16T08:08:30.002Z</time></trkpt><trkpt lat="44.13528316802843" lon="10.68134451581521"><ele>1308.0</ele><time>2026-04-16T08:08:31.002Z</time></trkpt><trkpt lat="44.13537169991115" lon="10.681262998424021"><ele>1308.0</ele><time>2026-04-16T08:08:32.002Z</time></trkpt><trkpt lat="44.135453123557596" lon="10.681157818701655"><ele>1308.0</ele><time>2026-04-16T08:08:33.002Z</time></trkpt><trkpt lat="44.13554875030152" lon="10.681044968428859"><ele>1308.3333333333333</ele><time>2026-04-16T08:08:34.002Z</time></trkpt><trkpt lat="44.13566321715728" lon="10.680906886106934"><ele>1308.6666666666665</ele><time>2026-04-16T08:08:35.002Z</time></trkpt><trkpt lat="44.13578232786765" lon="10.680725637493634"><ele>1309.0</ele><time>2026-04-16T08:08:36.002Z</time></trkpt><trkpt lat="44.13590948691762" lon="10.680545642253035"><ele>1309.0</ele><time>2026-04-16T08:08:37.002Z</time></trkpt><trkpt lat="44.136010770690554" lon="10.680351251321413"><ele>1309.0</ele><time>2026-04-16T08:08:38.002Z</time></trkpt><trkpt lat="44.136115038805954" lon="10.680172036810772"><ele>1309.0</ele><time>2026-04-16T08:08:39.002Z</time></trkpt><trkpt lat="44.136224427516545" lon="10.679992531434166"><ele>1309.75</ele><time>2026-04-16T08:08:40.002Z</time></trkpt><trkpt lat="44.136320018301745" lon="10.679835680635364"><ele>1310.5</ele><time>2026-04-16T08:08:41.002Z</time></trkpt><trkpt lat="44.136403332465996" lon="10.679705526486543"><ele>1311.25</ele><time>2026-04-16T08:08:42.002Z</time></trkpt><trkpt lat="44.13649227075988" lon="10.67960653660275"><ele>1312.0</ele><time>2026-04-16T08:08:43.002Z</time></trkpt><trkpt lat="44.136592743258966" lon="10.679589090345651"><ele>1312.0</ele><time>2026-04-16T08:08:44.002Z</time></trkpt><trkpt lat="44.136677403268024" lon="10.679627385950015"><ele>1312.0</ele><time>2026-04-16T08:08:45.002Z</time></trkpt><trkpt lat="44.13677154265043" lon="10.67967401838934"><ele>1312.0</ele><time>2026-04-16T08:08:46.002Z</time></trkpt><trkpt lat="44.136893858010026" lon="10.679654757319298"><ele>1312.0</ele><time>2026-04-16T08:08:47.002Z</time></trkpt><trkpt lat="44.13700159824553" lon="10.679600001028723"><ele>1312.0</ele><time>2026-04-16T08:08:48.002Z</time></trkpt><trkpt lat="44.13710533255807" lon="10.679536170085822"><ele>1312.0</ele><time>2026-04-16T08:08:49.002Z</time></trkpt><trkpt lat="44.13722577381886" lon="10.679458856589626"><ele>1312.0</ele><time>2026-04-16T08:08:50.002Z</time></trkpt><trkpt lat="44.137343487060825" lon="10.67934731912844"><ele>1312.0</ele><time>2026-04-16T08:08:51.002Z</time></trkpt><trkpt lat="44.13744579398599" lon="10.679235365387923"><ele>1312.0</ele><time>2026-04-16T08:08:52.002Z</time></trkpt><trkpt lat="44.137537880004615" lon="10.679138012517273"><ele>1313.0</ele><time>2026-04-16T08:08:53.002Z</time></trkpt><trkpt lat="44.13758713205083" lon="10.679024862182796"><ele>1314.0</ele><time>2026-04-16T08:08:54.002Z</time></trkpt><trkpt lat="44.13756729973556" lon="10.678851515307581"><ele>1315.0</ele><time>2026-04-16T08:08:55.002Z</time></trkpt><trkpt lat="44.13753972454343" lon="10.678683287820919"><ele>1316.0</ele><time>2026-04-16T08:08:56.002Z</time></trkpt><trkpt lat="44.13750097297826" lon="10.678507773591974"><ele>1317.0</ele><time>2026-04-16T08:08:57.002Z</time></trkpt><trkpt lat="44.13748537573138" lon="10.678316481660042"><ele>1318.0</ele><time>2026-04-16T08:08:58.002Z</time></trkpt><trkpt lat="44.137450522029106" lon="10.678112179031793"><ele>1319.0</ele><time>2026-04-16T08:08:59.002Z</time></trkpt><trkpt lat="44.13744266615872" lon="10.677900546495346"><ele>1320.0</ele><time>2026-04-16T08:09:00.002Z</time></trkpt><trkpt lat="44.137440415739604" lon="10.677689256491291"><ele>1320.75</ele><time>2026-04-16T08:09:01.002Z</time></trkpt><trkpt lat="44.13746254443096" lon="10.677486297208691"><ele>1321.5</ele><time>2026-04-16T08:09:02.002Z</time></trkpt><trkpt lat="44.137508789978824" lon="10.677350778185687"><ele>1322.25</ele><time>2026-04-16T08:09:03.002Z</time></trkpt><trkpt lat="44.137587777270795" lon="10.677270454132485"><ele>1323.0</ele><time>2026-04-16T08:09:04.002Z</time></trkpt><trkpt lat="44.13770036052394" lon="10.677213571374365"><ele>1323.0</ele><time>2026-04-16T08:09:05Z</time></trkpt><trkpt lat="44.137797483141334" lon="10.677128733633811"><ele>1323.0</ele><time>2026-04-16T08:09:06Z</time></trkpt><trkpt lat="44.13790888985869" lon="10.677044836187259"><ele>1323.0</ele><time>2026-04-16T08:09:07Z</time></trkpt><trkpt lat="44.137991270234515" lon="10.676892608737031"><ele>1323.0</ele><time>2026-04-16T08:09:08Z</time></trkpt><trkpt lat="44.138085357400776" lon="10.676722900239687"><ele>1326.6666666666667</ele><time>2026-04-16T08:09:09Z</time></trkpt><trkpt lat="44.138200774423304" lon="10.676586367309252"><ele>1330.3333333333335</ele><time>2026-04-16T08:09:10Z</time></trkpt><trkpt lat="44.1383335759696" lon="10.676490006016925"><ele>1334.0</ele><time>2026-04-16T08:09:11Z</time></trkpt><trkpt lat="44.138469092464604" lon="10.676357289207706"><ele>1331.75</ele><time>2026-04-16T08:09:12Z</time></trkpt><trkpt lat="44.13860990157228" lon="10.676242459210028"><ele>1329.5</ele><time>2026-04-16T08:09:13Z</time></trkpt><trkpt lat="44.138740106883866" lon="10.67613924628391"><ele>1327.25</ele><time>2026-04-16T08:09:14Z</time></trkpt><trkpt lat="44.138843946194925" lon="10.676026732925262"><ele>1325.0</ele><time>2026-04-16T08:09:15Z</time></trkpt><trkpt lat="44.13891926190489" lon="10.675888048986844"><ele>1325.0</ele><time>2026-04-16T08:09:16Z</time></trkpt><trkpt lat="44.13896980887389" lon="10.675719181134259"><ele>1325.0</ele><time>2026-04-16T08:09:17Z</time></trkpt><trkpt lat="44.13901064948869" lon="10.675493471869233"><ele>1325.0</ele><time>2026-04-16T08:09:18Z</time></trkpt><trkpt lat="44.139064106574324" lon="10.675309302612606"><ele>1325.0</ele><time>2026-04-16T08:09:19Z</time></trkpt><trkpt lat="44.13912488403822" lon="10.6750942602271"><ele>1330.3333333333335</ele><time>2026-04-16T08:09:20Z</time></trkpt><trkpt lat="44.139188684230255" lon="10.67487995421735"><ele>1335.6666666666667</ele><time>2026-04-16T08:09:21Z</time></trkpt><trkpt lat="44.13923867921531" lon="10.674650150649038"><ele>1341.0</ele><time>2026-04-16T08:09:22Z</time></trkpt><trkpt lat="44.13928345815155" lon="10.67440010661582"><ele>1342.0</ele><time>2026-04-16T08:09:23Z</time></trkpt><trkpt lat="44.13933664411948" lon="10.674182750585787"><ele>1343.0</ele><time>2026-04-16T08:09:24Z</time></trkpt><trkpt lat="44.13940873718297" lon="10.67399049969046"><ele>1344.0</ele><time>2026-04-16T08:09:25Z</time></trkpt><trkpt lat="44.139486782267475" lon="10.673805791644837"><ele>1344.6666666666667</ele><time>2026-04-16T08:09:26Z</time></trkpt><trkpt lat="44.13954891669866" lon="10.673576965754764"><ele>1345.3333333333335</ele><time>2026-04-16T08:09:27Z</time></trkpt><trkpt lat="44.13961210198537" lon="10.673367333802299"><ele>1346.0</ele><time>2026-04-16T08:09:28Z</time></trkpt><trkpt lat="44.13965227392056" lon="10.673213090078653"><ele>1346.0</ele><time>2026-04-16T08:09:29Z</time></trkpt><trkpt lat="44.139682061433916" lon="10.673043029384218"><ele>1346.0</ele><time>2026-04-16T08:09:30Z</time></trkpt><trkpt lat="44.13969336122905" lon="10.672883927962667"><ele>1346.0</ele><time>2026-04-16T08:09:31Z</time></trkpt><trkpt lat="44.13967194471983" lon="10.67271679027841"><ele>1346.0</ele><time>2026-04-16T08:09:32Z</time></trkpt><trkpt lat="44.139640505358614" lon="10.672539712567161"><ele>1348.5</ele><time>2026-04-16T08:09:33Z</time></trkpt><trkpt lat="44.13962624615501" lon="10.672388374102137"><ele>1351.0</ele><time>2026-04-16T08:09:34Z</time></trkpt><trkpt lat="44.13967198941584" lon="10.672256816992878"><ele>1353.5</ele><time>2026-04-16T08:09:35Z</time></trkpt><trkpt lat="44.139758902033435" lon="10.672135158586228"><ele>1356.0</ele><time>2026-04-16T08:09:36Z</time></trkpt><trkpt lat="44.13984894843483" lon="10.672000282607591"><ele>1355.25</ele><time>2026-04-16T08:09:37Z</time></trkpt><trkpt lat="44.13994260801254" lon="10.671863192288177"><ele>1354.5</ele><time>2026-04-16T08:09:38Z</time></trkpt><trkpt lat="44.140035110848245" lon="10.671725334866444"><ele>1353.75</ele><time>2026-04-16T08:09:39Z</time></trkpt><trkpt lat="44.14014289547496" lon="10.671560858764996"><ele>1353.0</ele><time>2026-04-16T08:09:40Z</time></trkpt><trkpt lat="44.1402275445273" lon="10.671408944267883"><ele>1353.0</ele><time>2026-04-16T08:09:41Z</time></trkpt><trkpt lat="44.140325504469715" lon="10.671322778659727"><ele>1353.0</ele><time>2026-04-16T08:09:42Z</time></trkpt><trkpt lat="44.14042966229221" lon="10.671248758562555"><ele>1353.0</ele><time>2026-04-16T08:09:43Z</time></trkpt><trkpt lat="44.14053433119244" lon="10.67123819708266"><ele>1353.0</ele><time>2026-04-16T08:09:44Z</time></trkpt><trkpt lat="44.14063531484243" lon="10.671255638281364"><ele>1353.0</ele><time>2026-04-16T08:09:45.001Z</time></trkpt><trkpt lat="44.140721143113936" lon="10.671284683998648"><ele>1351.75</ele><time>2026-04-16T08:09:46.001Z</time></trkpt><trkpt lat="44.14081408128034" lon="10.671268350146248"><ele>1350.5</ele><time>2026-04-16T08:09:47.001Z</time></trkpt><trkpt lat="44.14088940838063" lon="10.671193691940854"><ele>1349.25</ele><time>2026-04-16T08:09:48.001Z</time></trkpt><trkpt lat="44.14095467291152" lon="10.671043408563348"><ele>1348.0</ele><time>2026-04-16T08:09:49.001Z</time></trkpt><trkpt lat="44.141031297396175" lon="10.670853580975683"><ele>1352.25</ele><time>2026-04-16T08:09:50.001Z</time></trkpt><trkpt lat="44.14108513616068" lon="10.670675710143735"><ele>1356.5</ele><time>2026-04-16T08:09:51.001Z</time></trkpt><trkpt lat="44.141142838446605" lon="10.670511173292434"><ele>1360.75</ele><time>2026-04-16T08:09:52.001Z</time></trkpt><trkpt lat="44.14121943968876" lon="10.67036583260517"><ele>1365.0</ele><time>2026-04-16T08:09:53.001Z</time></trkpt><trkpt lat="44.1413414725524" lon="10.670238631819748"><ele>1364.75</ele><time>2026-04-16T08:09:54.001Z</time></trkpt><trkpt lat="44.14146233310146" lon="10.670113732102381"><ele>1364.5</ele><time>2026-04-16T08:09:55.001Z</time></trkpt><trkpt lat="44.14158247678711" lon="10.670009640864459"><ele>1364.25</ele><time>2026-04-16T08:09:56.001Z</time></trkpt><trkpt lat="44.14169726909724" lon="10.669866884143154"><ele>1364.0</ele><time>2026-04-16T08:09:57.001Z</time></trkpt><trkpt lat="44.141795663117236" lon="10.669729082130884"><ele>1364.0</ele><time>2026-04-16T08:09:58.001Z</time></trkpt><trkpt lat="44.14184993852626" lon="10.669555916503791"><ele>1364.0</ele><time>2026-04-16T08:09:59.001Z</time></trkpt><trkpt lat="44.14188680036114" lon="10.669392158443529"><ele>1364.0</ele><time>2026-04-16T08:10:00.001Z</time></trkpt><trkpt lat="44.141932741590466" lon="10.669206457002668"><ele>1364.0</ele><time>2026-04-16T08:10:01.001Z</time></trkpt><trkpt lat="44.14194567494935" lon="10.668989183014821"><ele>1366.5</ele><time>2026-04-16T08:10:02.001Z</time></trkpt><trkpt lat="44.14198693094277" lon="10.668792703201332"><ele>1369.0</ele><time>2026-04-16T08:10:03.001Z</time></trkpt><trkpt lat="44.14201047673487" lon="10.668612332832657"><ele>1371.5</ele><time>2026-04-16T08:10:04.001Z</time></trkpt><trkpt lat="44.14204338316987" lon="10.66845843688717"><ele>1374.0</ele><time>2026-04-16T08:10:05.001Z</time></trkpt><trkpt lat="44.14208106878048" lon="10.66834469767315"><ele>1374.0</ele><time>2026-04-16T08:10:06.001Z</time></trkpt><trkpt lat="44.142127858293364" lon="10.668248662085341"><ele>1374.0</ele><time>2026-04-16T08:10:07.001Z</time></trkpt><trkpt lat="44.14218633055036" lon="10.668164906260886"><ele>1374.0</ele><time>2026-04-16T08:10:08.001Z</time></trkpt><trkpt lat="44.14226253302506" lon="10.668126327533319"><ele>1374.0</ele><time>2026-04-16T08:10:09.001Z</time></trkpt><trkpt lat="44.14234235513689" lon="10.668125234755184"><ele>1374.0</ele><time>2026-04-16T08:10:10.001Z</time></trkpt><trkpt lat="44.142415888495734" lon="10.668127291091325"><ele>1374.0</ele><time>2026-04-16T08:10:11.001Z</time></trkpt><trkpt lat="44.14254406331211" lon="10.668184909057548"><ele>1374.0</ele><time>2026-04-16T08:10:12.001Z</time></trkpt><trkpt lat="44.14269735432853" lon="10.668175686177467"><ele>1374.0</ele><time>2026-04-16T08:10:13.001Z</time></trkpt><trkpt lat="44.14283586489335" lon="10.668101057311244"><ele>1374.0</ele><time>2026-04-16T08:10:14.001Z</time></trkpt><trkpt lat="44.14293595135743" lon="10.668000062727838"><ele>1374.0</ele><time>2026-04-16T08:10:15.001Z</time></trkpt><trkpt lat="44.14300233442154" lon="10.667847763272887"><ele>1375.5</ele><time>2026-04-16T08:10:16.001Z</time></trkpt><trkpt lat="44.143080357330994" lon="10.667691248055688"><ele>1377.0</ele><time>2026-04-16T08:10:17.001Z</time></trkpt><trkpt lat="44.143154600141735" lon="10.6675033178115"><ele>1378.5</ele><time>2026-04-16T08:10:18.001Z</time></trkpt><trkpt lat="44.14322485517468" lon="10.667350809992369"><ele>1380.0</ele><time>2026-04-16T08:10:19.001Z</time></trkpt><trkpt lat="44.143272349752465" lon="10.66717428171328"><ele>1380.0</ele><time>2026-04-16T08:10:20.001Z</time></trkpt><trkpt lat="44.143309559807335" lon="10.666987828155735"><ele>1380.0</ele><time>2026-04-16T08:10:21.001Z</time></trkpt><trkpt lat="44.14332748781024" lon="10.66680302713062"><ele>1380.0</ele><time>2026-04-16T08:10:22.001Z</time></trkpt><trkpt lat="44.14333183643415" lon="10.666599098143575"><ele>1380.0</ele><time>2026-04-16T08:10:23.001Z</time></trkpt><trkpt lat="44.143360007147095" lon="10.666418461887742"><ele>1379.75</ele><time>2026-04-16T08:10:24.001Z</time></trkpt><trkpt lat="44.14341451701275" lon="10.6662658280287"><ele>1379.5</ele><time>2026-04-16T08:10:25.001Z</time></trkpt><trkpt lat="44.14350579475541" lon="10.666136793197657"><ele>1379.25</ele><time>2026-04-16T08:10:26.001Z</time></trkpt><trkpt lat="44.14360366086327" lon="10.666036737187227"><ele>1379.0</ele><time>2026-04-16T08:10:27.001Z</time></trkpt><trkpt lat="44.14372758496975" lon="10.665937900865632"><ele>1378.25</ele><time>2026-04-16T08:10:28.001Z</time></trkpt><trkpt lat="44.143865656427096" lon="10.665863448291086"><ele>1377.5</ele><time>2026-04-16T08:10:29.001Z</time></trkpt><trkpt lat="44.14399587449301" lon="10.665788475562222"><ele>1376.75</ele><time>2026-04-16T08:10:30.001Z</time></trkpt><trkpt lat="44.14411068573195" lon="10.665705270962475"><ele>1376.0</ele><time>2026-04-16T08:10:31.001Z</time></trkpt><trkpt lat="44.144200527624946" lon="10.665599469566398"><ele>1376.0</ele><time>2026-04-16T08:10:32.001Z</time></trkpt><trkpt lat="44.14426774319116" lon="10.665509630949385"><ele>1376.0</ele><time>2026-04-16T08:10:33.001Z</time></trkpt><trkpt lat="44.14433695598079" lon="10.66542389713035"><ele>1376.0</ele><time>2026-04-16T08:10:34.001Z</time></trkpt><trkpt lat="44.14441685508742" lon="10.665344479501675"><ele>1376.0</ele><time>2026-04-16T08:10:35.001Z</time></trkpt><trkpt lat="44.144536964608925" lon="10.665292978601547"><ele>1376.0</ele><time>2026-04-16T08:10:36.002Z</time></trkpt><trkpt lat="44.14466000620248" lon="10.665269972072231"><ele>1377.4</ele><time>2026-04-16T08:10:37.002Z</time></trkpt><trkpt lat="44.14477835556506" lon="10.665255980500353"><ele>1378.8</ele><time>2026-04-16T08:10:38.002Z</time></trkpt><trkpt lat="44.144891714540954" lon="10.665216761725762"><ele>1380.2</ele><time>2026-04-16T08:10:39.002Z</time></trkpt><trkpt lat="44.145003035597064" lon="10.665183781722396"><ele>1381.6000000000001</ele><time>2026-04-16T08:10:40.002Z</time></trkpt><trkpt lat="44.145094807418175" lon="10.66515786823376"><ele>1383.0</ele><time>2026-04-16T08:10:41.002Z</time></trkpt><trkpt lat="44.14519048870034" lon="10.665129535483619"><ele>1383.0</ele><time>2026-04-16T08:10:42.002Z</time></trkpt><trkpt lat="44.1452639437028" lon="10.665114420777012"><ele>1383.0</ele><time>2026-04-16T08:10:43.002Z</time></trkpt><trkpt lat="44.14537985622476" lon="10.665102321590028"><ele>1383.0</ele><time>2026-04-16T08:10:45.002Z</time></trkpt><trkpt lat="44.14546366542844" lon="10.665086491629594"><ele>1383.0</ele><time>2026-04-16T08:10:47.002Z</time></trkpt><trkpt lat="44.1455257982016" lon="10.66506603757031"><ele>1383.0</ele><time>2026-04-16T08:10:49.002Z</time></trkpt><trkpt lat="44.14559164681738" lon="10.665027936191946"><ele>1383.0</ele><time>2026-04-16T08:10:51.002Z</time></trkpt><trkpt lat="44.14566589900661" lon="10.664926156273529"><ele>1383.0</ele><time>2026-04-16T08:10:53.002Z</time></trkpt><trkpt lat="44.145654661152285" lon="10.664810730192077"><ele>1383.0</ele><time>2026-04-16T08:10:54.002Z</time></trkpt><trkpt lat="44.14562938820839" lon="10.664714110620281"><ele>1383.0</ele><time>2026-04-16T08:10:55.002Z</time></trkpt><trkpt lat="44.14555838041514" lon="10.66460204039225"><ele>1383.0</ele><time>2026-04-16T08:10:56.002Z</time></trkpt><trkpt lat="44.14546977974164" lon="10.664498406562116"><ele>1383.0</ele><time>2026-04-16T08:10:57.002Z</time></trkpt><trkpt lat="44.14536885261692" lon="10.66437164616858"><ele>1382.25</ele><time>2026-04-16T08:10:58.002Z</time></trkpt><trkpt lat="44.145265832328825" lon="10.66422667067674"><ele>1381.5</ele><time>2026-04-16T08:10:59.002Z</time></trkpt><trkpt lat="44.14516379242076" lon="10.664092351513611"><ele>1380.75</ele><time>2026-04-16T08:11:00.002Z</time></trkpt><trkpt lat="44.145044214150175" lon="10.663946936203104"><ele>1380.0</ele><time>2026-04-16T08:11:01.002Z</time></trkpt><trkpt lat="44.14497694536103" lon="10.66378984957177"><ele>1380.25</ele><time>2026-04-16T08:11:02.002Z</time></trkpt><trkpt lat="44.14486615266248" lon="10.663667234174694"><ele>1380.5</ele><time>2026-04-16T08:11:03.002Z</time></trkpt><trkpt lat="44.14476444392146" lon="10.663551963663506"><ele>1380.75</ele><time>2026-04-16T08:11:04.002Z</time></trkpt><trkpt lat="44.1446652968627" lon="10.663423209146236"><ele>1381.0</ele><time>2026-04-16T08:11:05.002Z</time></trkpt><trkpt lat="44.144584948429305" lon="10.663313376216884"><ele>1381.0</ele><time>2026-04-16T08:11:06.002Z</time></trkpt><trkpt lat="44.14450106198158" lon="10.663214697815599"><ele>1381.0</ele><time>2026-04-16T08:11:07.002Z</time></trkpt><trkpt lat="44.14440736888749" lon="10.663125944979157"><ele>1381.0</ele><time>2026-04-16T08:11:08.002Z</time></trkpt><trkpt lat="44.144317739896934" lon="10.663028415636319"><ele>1381.0</ele><time>2026-04-16T08:11:09.002Z</time></trkpt><trkpt lat="44.144226168529464" lon="10.662943259912698"><ele>1381.0</ele><time>2026-04-16T08:11:10.002Z</time></trkpt><trkpt lat="44.14414368833434" lon="10.662839545454975"><ele>1381.5</ele><time>2026-04-16T08:11:11Z</time></trkpt><trkpt lat="44.144088175931046" lon="10.662717492858238"><ele>1382.0</ele><time>2026-04-16T08:11:12Z</time></trkpt><trkpt lat="44.144031145290064" lon="10.662554135436997"><ele>1382.5</ele><time>2026-04-16T08:11:13Z</time></trkpt><trkpt lat="44.143969471953746" lon="10.662398275012023"><ele>1383.0</ele><time>2026-04-16T08:11:14Z</time></trkpt><trkpt lat="44.14386936749492" lon="10.662272942209318"><ele>1383.0</ele><time>2026-04-16T08:11:15Z</time></trkpt><trkpt lat="44.143806211631755" lon="10.66212085448118"><ele>1383.0</ele><time>2026-04-16T08:11:16Z</time></trkpt><trkpt lat="44.14369275888944" lon="10.661980451108768"><ele>1383.0</ele><time>2026-04-16T08:11:17Z</time></trkpt><trkpt lat="44.143562914537235" lon="10.661858046508874"><ele>1383.0</ele><time>2026-04-16T08:11:18Z</time></trkpt><trkpt lat="44.143439929536356" lon="10.661749440754862"><ele>1380.0</ele><time>2026-04-16T08:11:19Z</time></trkpt><trkpt lat="44.143307169537444" lon="10.661623014689946"><ele>1377.0</ele><time>2026-04-16T08:11:20Z</time></trkpt><trkpt lat="44.143180431757465" lon="10.661513261624187"><ele>1374.0</ele><time>2026-04-16T08:11:21Z</time></trkpt><trkpt lat="44.143052536105145" lon="10.661414690122585"><ele>1374.0</ele><time>2026-04-16T08:11:22Z</time></trkpt><trkpt lat="44.14292459874585" lon="10.66131792261931"><ele>1374.0</ele><time>2026-04-16T08:11:23Z</time></trkpt><trkpt lat="44.14279109129472" lon="10.661235315226344"><ele>1374.0</ele><time>2026-04-16T08:11:24Z</time></trkpt><trkpt lat="44.142663806463226" lon="10.661159858956848"><ele>1374.0</ele><time>2026-04-16T08:11:25Z</time></trkpt><trkpt lat="44.14253229892651" lon="10.661088831283369"><ele>1370.6666666666667</ele><time>2026-04-16T08:11:26Z</time></trkpt><trkpt lat="44.14238922971543" lon="10.660988081421118"><ele>1367.3333333333335</ele><time>2026-04-16T08:11:27Z</time></trkpt><trkpt lat="44.1422450359136" lon="10.660866551040447"><ele>1364.0</ele><time>2026-04-16T08:11:28Z</time></trkpt><trkpt lat="44.14212447716642" lon="10.660760371869543"><ele>1364.0</ele><time>2026-04-16T08:11:29Z</time></trkpt><trkpt lat="44.142013044183564" lon="10.660654361745323"><ele>1364.0</ele><time>2026-04-16T08:11:30Z</time></trkpt><trkpt lat="44.141911586826936" lon="10.66055386082971"><ele>1364.0</ele><time>2026-04-16T08:11:31Z</time></trkpt><trkpt lat="44.141833896922" lon="10.660435190142783"><ele>1364.0</ele><time>2026-04-16T08:11:32Z</time></trkpt><trkpt lat="44.1417562634039" lon="10.660313868570595"><ele>1361.4</ele><time>2026-04-16T08:11:33Z</time></trkpt><trkpt lat="44.14168602266339" lon="10.660207798331822"><ele>1358.8000000000002</ele><time>2026-04-16T08:11:34Z</time></trkpt><trkpt lat="44.141637856591565" lon="10.66011708055578"><ele>1356.1999999999998</ele><time>2026-04-16T08:11:35Z</time></trkpt><trkpt lat="44.14158325106463" lon="10.6600529468884"><ele>1353.6</ele><time>2026-04-16T08:11:36Z</time></trkpt><trkpt lat="44.141521765302834" lon="10.659908253134292"><ele>1351.0</ele><time>2026-04-16T08:11:38Z</time></trkpt><trkpt lat="44.141523063404144" lon="10.659792375270284"><ele>1351.0</ele><time>2026-04-16T08:11:39Z</time></trkpt><trkpt lat="44.141557409517645" lon="10.659689458694203"><ele>1351.0</ele><time>2026-04-16T08:11:40Z</time></trkpt><trkpt lat="44.141657271757865" lon="10.659648380832227"><ele>1351.0</ele><time>2026-04-16T08:11:41Z</time></trkpt><trkpt lat="44.141755669950975" lon="10.659612307179055"><ele>1351.0</ele><time>2026-04-16T08:11:42Z</time></trkpt><trkpt lat="44.141831985232535" lon="10.65961934715649"><ele>1351.0</ele><time>2026-04-16T08:11:43.001Z</time></trkpt><trkpt lat="44.14191331875742" lon="10.659621551797553"><ele>1351.0</ele><time>2026-04-16T08:11:44.001Z</time></trkpt><trkpt lat="44.14199874776152" lon="10.65965691798329"><ele>1351.0</ele><time>2026-04-16T08:11:45.001Z</time></trkpt><trkpt lat="44.14208701225815" lon="10.659664326963858"><ele>1351.0</ele><time>2026-04-16T08:11:46.001Z</time></trkpt><trkpt lat="44.14218697553192" lon="10.659632641579682"><ele>1351.0</ele><time>2026-04-16T08:11:47.001Z</time></trkpt><trkpt lat="44.14234383618756" lon="10.659545763750554"><ele>1351.0</ele><time>2026-04-16T08:11:48.001Z</time></trkpt><trkpt lat="44.14248931270955" lon="10.659459761393883"><ele>1348.0</ele><time>2026-04-16T08:11:49.001Z</time></trkpt><trkpt lat="44.14261900676414" lon="10.65934893191033"><ele>1345.0</ele><time>2026-04-16T08:11:50.001Z</time></trkpt><trkpt lat="44.14275001143992" lon="10.65924629070758"><ele>1342.0</ele><time>2026-04-16T08:11:51.001Z</time></trkpt><trkpt lat="44.142872262919184" lon="10.659100335164023"><ele>1342.0</ele><time>2026-04-16T08:11:52.001Z</time></trkpt><trkpt lat="44.14296316413857" lon="10.65893648216149"><ele>1342.0</ele><time>2026-04-16T08:11:53.001Z</time></trkpt><trkpt lat="44.14306652540959" lon="10.658828829359319"><ele>1342.0</ele><time>2026-04-16T08:11:54.001Z</time></trkpt><trkpt lat="44.14320012377374" lon="10.658787161222822"><ele>1342.0</ele><time>2026-04-16T08:11:55.001Z</time></trkpt><trkpt lat="44.14333710703061" lon="10.658745853521848"><ele>1339.8</ele><time>2026-04-16T08:11:56.001Z</time></trkpt><trkpt lat="44.14344988182916" lon="10.658696362505628"><ele>1337.6</ele><time>2026-04-16T08:11:57.001Z</time></trkpt><trkpt lat="44.143545111926976" lon="10.658626969600116"><ele>1335.3999999999999</ele><time>2026-04-16T08:11:58.001Z</time></trkpt><trkpt lat="44.14362172364564" lon="10.658541797606288"><ele>1333.1999999999998</ele><time>2026-04-16T08:11:59.001Z</time></trkpt><trkpt lat="44.14367842086824" lon="10.65840154971928"><ele>1331.0</ele><time>2026-04-16T08:12:00.001Z</time></trkpt><trkpt lat="44.14373109062218" lon="10.658234838895321"><ele>1331.0</ele><time>2026-04-16T08:12:01.001Z</time></trkpt><trkpt lat="44.143767823829975" lon="10.658010166325173"><ele>1331.0</ele><time>2026-04-16T08:12:02.001Z</time></trkpt><trkpt lat="44.1438161364898" lon="10.657798529403761"><ele>1331.0</ele><time>2026-04-16T08:12:03.001Z</time></trkpt><trkpt lat="44.143902060934735" lon="10.65762800347334"><ele>1331.5</ele><time>2026-04-16T08:12:04.001Z</time></trkpt><trkpt lat="44.143998899758294" lon="10.65749771234457"><ele>1332.0</ele><time>2026-04-16T08:12:05.001Z</time></trkpt><trkpt lat="44.1441157370803" lon="10.657410813243812"><ele>1332.5</ele><time>2026-04-16T08:12:06.001Z</time></trkpt><trkpt lat="44.14424224407929" lon="10.65737119479923"><ele>1333.0</ele><time>2026-04-16T08:12:07.001Z</time></trkpt><trkpt lat="44.14433615881095" lon="10.657310757562467"><ele>1330.2</ele><time>2026-04-16T08:12:08.001Z</time></trkpt><trkpt lat="44.14441091638948" lon="10.657214135143482"><ele>1327.4</ele><time>2026-04-16T08:12:09.001Z</time></trkpt><trkpt lat="44.14444846137084" lon="10.657090438373235"><ele>1324.6000000000001</ele><time>2026-04-16T08:12:10.001Z</time></trkpt><trkpt lat="44.14445555975399" lon="10.656942872611527"><ele>1321.8000000000002</ele><time>2026-04-16T08:12:11.001Z</time></trkpt><trkpt lat="44.14446543615629" lon="10.656790924469158"><ele>1319.0</ele><time>2026-04-16T08:12:12.001Z</time></trkpt><trkpt lat="44.14442121924999" lon="10.656615432657379"><ele>1319.0</ele><time>2026-04-16T08:12:13.001Z</time></trkpt><trkpt lat="44.144383458938236" lon="10.656419869546873"><ele>1319.0</ele><time>2026-04-16T08:12:14.001Z</time></trkpt><trkpt lat="44.14437944824881" lon="10.656249026789936"><ele>1319.0</ele><time>2026-04-16T08:12:15.001Z</time></trkpt><trkpt lat="44.14438856638863" lon="10.656028518746767"><ele>1319.0</ele><time>2026-04-16T08:12:16.001Z</time></trkpt><trkpt lat="44.144421913635114" lon="10.655825722686023"><ele>1321.0</ele><time>2026-04-16T08:12:17.001Z</time></trkpt><trkpt lat="44.14447240903405" lon="10.655620806044189"><ele>1323.0</ele><time>2026-04-16T08:12:18.001Z</time></trkpt><trkpt lat="44.14450781853242" lon="10.655436823044793"><ele>1325.0</ele><time>2026-04-16T08:12:19.001Z</time></trkpt><trkpt lat="44.14454765599006" lon="10.655259236802593"><ele>1327.0</ele><time>2026-04-16T08:12:20.001Z</time></trkpt><trkpt lat="44.144618672843464" lon="10.655153246050046"><ele>1325.3999999999999</ele><time>2026-04-16T08:12:21.001Z</time></trkpt><trkpt lat="44.14468299035649" lon="10.655045014496563"><ele>1323.8</ele><time>2026-04-16T08:12:22.001Z</time></trkpt><trkpt lat="44.14478025016667" lon="10.655041462119154"><ele>1322.2</ele><time>2026-04-16T08:12:23.001Z</time></trkpt><trkpt lat="44.14490578352007" lon="10.655056804527876"><ele>1320.6</ele><time>2026-04-16T08:12:24.001Z</time></trkpt><trkpt lat="44.14502409940642" lon="10.65502625025876"><ele>1319.0</ele><time>2026-04-16T08:12:25.001Z</time></trkpt><trkpt lat="44.145136090901254" lon="10.65497964114425"><ele>1319.0</ele><time>2026-04-16T08:12:26.001Z</time></trkpt><trkpt lat="44.145281962490024" lon="10.654922682550927"><ele>1319.0</ele><time>2026-04-16T08:12:27.001Z</time></trkpt><trkpt lat="44.14542135756385" lon="10.654917006669855"><ele>1319.0</ele><time>2026-04-16T08:12:28.001Z</time></trkpt><trkpt lat="44.14555856786084" lon="10.654830649531359"><ele>1319.0</ele><time>2026-04-16T08:12:29.001Z</time></trkpt><trkpt lat="44.14568775626874" lon="10.654811617740709"><ele>1315.25</ele><time>2026-04-16T08:12:30.001Z</time></trkpt><trkpt lat="44.14584245368817" lon="10.654854339521583"><ele>1311.5</ele><time>2026-04-16T08:12:31.001Z</time></trkpt><trkpt lat="44.145959986343705" lon="10.654864397789638"><ele>1307.75</ele><time>2026-04-16T08:12:32.001Z</time></trkpt><trkpt lat="44.14606609777605" lon="10.654853863177769"><ele>1304.0</ele><time>2026-04-16T08:12:33.001Z</time></trkpt><trkpt lat="44.14618476689413" lon="10.654784657118771"><ele>1304.0</ele><time>2026-04-16T08:12:34.002Z</time></trkpt><trkpt lat="44.146347711695746" lon="10.65476312295295"><ele>1304.0</ele><time>2026-04-16T08:12:35.002Z</time></trkpt><trkpt lat="44.146530038842414" lon="10.654702391354968"><ele>1304.0</ele><time>2026-04-16T08:12:36.002Z</time></trkpt><trkpt lat="44.14667782870988" lon="10.654649262044535"><ele>1304.75</ele><time>2026-04-16T08:12:37.002Z</time></trkpt><trkpt lat="44.14679820571442" lon="10.65454475953903"><ele>1305.5</ele><time>2026-04-16T08:12:38.002Z</time></trkpt><trkpt lat="44.14691488410121" lon="10.654414061621289"><ele>1306.25</ele><time>2026-04-16T08:12:39.002Z</time></trkpt><trkpt lat="44.14699536749816" lon="10.654272975513438"><ele>1307.0</ele><time>2026-04-16T08:12:40.002Z</time></trkpt><trkpt lat="44.14705972950524" lon="10.654079746745921"><ele>1307.0</ele><time>2026-04-16T08:12:41.002Z</time></trkpt><trkpt lat="44.14716706620227" lon="10.65389600223882"><ele>1307.0</ele><time>2026-04-16T08:12:42.002Z</time></trkpt><trkpt lat="44.14728474913671" lon="10.653782963238543"><ele>1307.0</ele><time>2026-04-16T08:12:43.002Z</time></trkpt><trkpt lat="44.147422593419094" lon="10.653728235520218"><ele>1302.6666666666667</ele><time>2026-04-16T08:12:44.002Z</time></trkpt><trkpt lat="44.147570234803275" lon="10.653649230446353"><ele>1298.3333333333333</ele><time>2026-04-16T08:12:45.002Z</time></trkpt><trkpt lat="44.14770785010361" lon="10.65352427554158"><ele>1294.0</ele><time>2026-04-16T08:12:46.002Z</time></trkpt><trkpt lat="44.14784539965456" lon="10.653398559439964"><ele>1294.0</ele><time>2026-04-16T08:12:47.002Z</time></trkpt><trkpt lat="44.14798238718569" lon="10.653274215028931"><ele>1294.0</ele><time>2026-04-16T08:12:48.002Z</time></trkpt><trkpt lat="44.14809502451518" lon="10.653148618442447"><ele>1294.0</ele><time>2026-04-16T08:12:49.002Z</time></trkpt><trkpt lat="44.14822720119302" lon="10.653041696284586"><ele>1289.25</ele><time>2026-04-16T08:12:50.002Z</time></trkpt><trkpt lat="44.14834927709404" lon="10.652932517254753"><ele>1284.5</ele><time>2026-04-16T08:12:51.002Z</time></trkpt><trkpt lat="44.148467960564325" lon="10.652872861602894"><ele>1279.75</ele><time>2026-04-16T08:12:52.002Z</time></trkpt><trkpt lat="44.14858787951357" lon="10.652840551649478"><ele>1275.0</ele><time>2026-04-16T08:12:53.002Z</time></trkpt><trkpt lat="44.14871571693323" lon="10.652845836000093"><ele>1275.0</ele><time>2026-04-16T08:12:54.002Z</time></trkpt><trkpt lat="44.14885262403779" lon="10.652872098840264"><ele>1275.0</ele><time>2026-04-16T08:12:55.002Z</time></trkpt><trkpt lat="44.148978800721046" lon="10.652899679341473"><ele>1275.0</ele><time>2026-04-16T08:12:56.002Z</time></trkpt><trkpt lat="44.14911238927383" lon="10.65292090752202"><ele>1275.0</ele><time>2026-04-16T08:12:57.002Z</time></trkpt><trkpt lat="44.14925757636114" lon="10.652909239169782"><ele>1273.25</ele><time>2026-04-16T08:12:58.002Z</time></trkpt><trkpt lat="44.14937231474586" lon="10.652848808092164"><ele>1271.5</ele><time>2026-04-16T08:12:59.002Z</time></trkpt><trkpt lat="44.149502115402434" lon="10.652766560612738"><ele>1269.75</ele><time>2026-04-16T08:13:00.002Z</time></trkpt><trkpt lat="44.149649818900606" lon="10.652728659147153"><ele>1268.0</ele><time>2026-04-16T08:13:01.002Z</time></trkpt><trkpt lat="44.14978318088199" lon="10.652731346125641"><ele>1271.75</ele><time>2026-04-16T08:13:02.002Z</time></trkpt><trkpt lat="44.149928461415534" lon="10.652731449555084"><ele>1275.5</ele><time>2026-04-16T08:13:03.002Z</time></trkpt><trkpt lat="44.150059937136035" lon="10.652736649061188"><ele>1279.25</ele><time>2026-04-16T08:13:04.002Z</time></trkpt><trkpt lat="44.150173832025935" lon="10.652741423084102"><ele>1283.0</ele><time>2026-04-16T08:13:05.002Z</time></trkpt><trkpt lat="44.150265776907474" lon="10.652744858690907"><ele>1283.0</ele><time>2026-04-16T08:13:06.002Z</time></trkpt><trkpt lat="44.15037028279951" lon="10.65275376064653"><ele>1283.0</ele><time>2026-04-16T08:13:07.002Z</time></trkpt><trkpt lat="44.150459704029736" lon="10.652713908745884"><ele>1283.0</ele><time>2026-04-16T08:13:08.002Z</time></trkpt><trkpt lat="44.15058501311344" lon="10.65262363607921"><ele>1283.0</ele><time>2026-04-16T08:13:09.002Z</time></trkpt><trkpt lat="44.150669406770575" lon="10.652449578622708"><ele>1277.0</ele><time>2026-04-16T08:13:10.002Z</time></trkpt><trkpt lat="44.150746516820845" lon="10.652319552406095"><ele>1271.0</ele><time>2026-04-16T08:13:11.002Z</time></trkpt><trkpt lat="44.150800378667235" lon="10.652197635910321"><ele>1265.0</ele><time>2026-04-16T08:13:12.002Z</time></trkpt><trkpt lat="44.15084796701197" lon="10.652101571636493"><ele>1259.0</ele><time>2026-04-16T08:13:13.002Z</time></trkpt><trkpt lat="44.15094099589142" lon="10.652063097138312"><ele>1253.0</ele><time>2026-04-16T08:13:14.002Z</time></trkpt><trkpt lat="44.1510681386617" lon="10.652026184868603"><ele>1253.0</ele><time>2026-04-16T08:13:15.002Z</time></trkpt><trkpt lat="44.15119473688067" lon="10.651976993414204"><ele>1253.0</ele><time>2026-04-16T08:13:16.002Z</time></trkpt><trkpt lat="44.15134447888492" lon="10.651921733768276"><ele>1253.0</ele><time>2026-04-16T08:13:17.001Z</time></trkpt><trkpt lat="44.1514972310097" lon="10.651863561709265"><ele>1253.0</ele><time>2026-04-16T08:13:18.001Z</time></trkpt><trkpt lat="44.15164095214018" lon="10.651779719891563"><ele>1255.0</ele><time>2026-04-16T08:13:19.001Z</time></trkpt><trkpt lat="44.151777949996216" lon="10.651676592695646"><ele>1257.0</ele><time>2026-04-16T08:13:20.001Z</time></trkpt><trkpt lat="44.15191249390222" lon="10.651574222385102"><ele>1259.0</ele><time>2026-04-16T08:13:21.001Z</time></trkpt><trkpt lat="44.1520319808935" lon="10.651507577040277"><ele>1261.0</ele><time>2026-04-16T08:13:22.001Z</time></trkpt><trkpt lat="44.15214871623494" lon="10.651457773935386"><ele>1261.0</ele><time>2026-04-16T08:13:23.001Z</time></trkpt><trkpt lat="44.15226913507905" lon="10.651444348723977"><ele>1261.0</ele><time>2026-04-16T08:13:24.001Z</time></trkpt><trkpt lat="44.15237025098427" lon="10.651488883866634"><ele>1261.0</ele><time>2026-04-16T08:13:25.001Z</time></trkpt><trkpt lat="44.15248791806819" lon="10.651495032245307"><ele>1261.0</ele><time>2026-04-16T08:13:26.001Z</time></trkpt><trkpt lat="44.152630371444666" lon="10.651501896355557"><ele>1255.0</ele><time>2026-04-16T08:13:27.001Z</time></trkpt><trkpt lat="44.152770225749265" lon="10.651454803705118"><ele>1249.0</ele><time>2026-04-16T08:13:28.001Z</time></trkpt><trkpt lat="44.152904035782605" lon="10.651366809767302"><ele>1243.0</ele><time>2026-04-16T08:13:29.001Z</time></trkpt><trkpt lat="44.15305947751099" lon="10.651285121415704"><ele>1240.0</ele><time>2026-04-16T08:13:30.001Z</time></trkpt><trkpt lat="44.15320713556298" lon="10.651241317951534"><ele>1237.0</ele><time>2026-04-16T08:13:31.001Z</time></trkpt><trkpt lat="44.15333923790693" lon="10.651233985056942"><ele>1234.0</ele><time>2026-04-16T08:13:32.001Z</time></trkpt><trkpt lat="44.153480851774766" lon="10.651235924105986"><ele>1231.0</ele><time>2026-04-16T08:13:33.001Z</time></trkpt><trkpt lat="44.15361457064129" lon="10.651205610570244"><ele>1230.0</ele><time>2026-04-16T08:13:34.001Z</time></trkpt><trkpt lat="44.15374136486006" lon="10.651120424370124"><ele>1229.0</ele><time>2026-04-16T08:13:35.001Z</time></trkpt><trkpt lat="44.15389708654799" lon="10.651024728212747"><ele>1228.0</ele><time>2026-04-16T08:13:36.001Z</time></trkpt><trkpt lat="44.154054863568184" lon="10.65091053639834"><ele>1228.0</ele><time>2026-04-16T08:13:37.001Z</time></trkpt><trkpt lat="44.15421074668241" lon="10.650783181616237"><ele>1228.0</ele><time>2026-04-16T08:13:38.001Z</time></trkpt><trkpt lat="44.15436066001401" lon="10.650664456710905"><ele>1228.0</ele><time>2026-04-16T08:13:39.001Z</time></trkpt><trkpt lat="44.15449751149619" lon="10.650554550212867"><ele>1228.0</ele><time>2026-04-16T08:13:40.001Z</time></trkpt><trkpt lat="44.15463781754637" lon="10.650443228616261"><ele>1228.0</ele><time>2026-04-16T08:13:41.001Z</time></trkpt><trkpt lat="44.15480028694786" lon="10.650387104718721"><ele>1228.0</ele><time>2026-04-16T08:13:42.001Z</time></trkpt><trkpt lat="44.15496314679499" lon="10.650332889073676"><ele>1226.6666666666665</ele><time>2026-04-16T08:13:43.001Z</time></trkpt><trkpt lat="44.15514936570382" lon="10.650277670496653"><ele>1225.3333333333333</ele><time>2026-04-16T08:13:44.001Z</time></trkpt><trkpt lat="44.15533893285749" lon="10.650220515381017"><ele>1224.0</ele><time>2026-04-16T08:13:45.001Z</time></trkpt><trkpt lat="44.15551152470871" lon="10.650163271409737"><ele>1224.0</ele><time>2026-04-16T08:13:46.001Z</time></trkpt><trkpt lat="44.1556687162077" lon="10.65010401321703"><ele>1224.0</ele><time>2026-04-16T08:13:47.001Z</time></trkpt><trkpt lat="44.155809664525705" lon="10.650027153128189"><ele>1224.0</ele><time>2026-04-16T08:13:48.001Z</time></trkpt><trkpt lat="44.15596138299555" lon="10.649960026702397"><ele>1222.0</ele><time>2026-04-16T08:13:49.001Z</time></trkpt><trkpt lat="44.1560906738086" lon="10.649903974800333"><ele>1220.0</ele><time>2026-04-16T08:13:50.001Z</time></trkpt><trkpt lat="44.15620923497193" lon="10.649841008541888"><ele>1218.0</ele><time>2026-04-16T08:13:51.001Z</time></trkpt><trkpt lat="44.15630496027346" lon="10.649770966150351"><ele>1216.0</ele><time>2026-04-16T08:13:52.001Z</time></trkpt><trkpt lat="44.15635673339887" lon="10.649679018816741"><ele>1216.0</ele><time>2026-04-16T08:13:53.001Z</time></trkpt><trkpt lat="44.156390773657115" lon="10.649579035916489"><ele>1216.0</ele><time>2026-04-16T08:13:54.001Z</time></trkpt><trkpt lat="44.156385881228886" lon="10.649475977394502"><ele>1216.0</ele><time>2026-04-16T08:13:55.001Z</time></trkpt><trkpt lat="44.156342587686375" lon="10.649382754280701"><ele>1216.0</ele><time>2026-04-16T08:13:56.001Z</time></trkpt><trkpt lat="44.15626936482223" lon="10.649295238612341"><ele>1216.0</ele><time>2026-04-16T08:13:57.001Z</time></trkpt><trkpt lat="44.1561706232824" lon="10.649215766871928"><ele>1216.0</ele><time>2026-04-16T08:13:58.001Z</time></trkpt><trkpt lat="44.15607453895598" lon="10.649123204474165"><ele>1215.5</ele><time>2026-04-16T08:13:59.001Z</time></trkpt><trkpt lat="44.15597530428683" lon="10.649013556368754"><ele>1215.0</ele><time>2026-04-16T08:14:00.001Z</time></trkpt><trkpt lat="44.15590136527502" lon="10.648879504354635"><ele>1214.5</ele><time>2026-04-16T08:14:01.001Z</time></trkpt><trkpt lat="44.155808879440215" lon="10.648766683555937"><ele>1214.0</ele><time>2026-04-16T08:14:02.001Z</time></trkpt><trkpt lat="44.15573796225666" lon="10.648637245963736"><ele>1212.75</ele><time>2026-04-16T08:14:03.001Z</time></trkpt><trkpt lat="44.155697345384574" lon="10.648494703334089"><ele>1211.5</ele><time>2026-04-16T08:14:04.001Z</time></trkpt><trkpt lat="44.155690904042345" lon="10.648328504427806"><ele>1210.25</ele><time>2026-04-16T08:14:05.001Z</time></trkpt><trkpt lat="44.15571055172468" lon="10.648175722011427"><ele>1209.0</ele><time>2026-04-16T08:14:06.001Z</time></trkpt><trkpt lat="44.15576247382283" lon="10.648041582777038"><ele>1209.0</ele><time>2026-04-16T08:14:07.001Z</time></trkpt><trkpt lat="44.15586463823933" lon="10.64798140389015"><ele>1209.0</ele><time>2026-04-16T08:14:08.001Z</time></trkpt><trkpt lat="44.15597675616349" lon="10.647923324298441"><ele>1209.0</ele><time>2026-04-16T08:14:09.001Z</time></trkpt><trkpt lat="44.156103334107506" lon="10.647834921331812"><ele>1209.0</ele><time>2026-04-16T08:14:10.001Z</time></trkpt><trkpt lat="44.15621869772573" lon="10.647703729178984"><ele>1206.0</ele><time>2026-04-16T08:14:11.001Z</time></trkpt><trkpt lat="44.156334085981136" lon="10.647565424872687"><ele>1203.0</ele><time>2026-04-16T08:14:12.001Z</time></trkpt><trkpt lat="44.15645485603403" lon="10.647451759338235"><ele>1200.0</ele><time>2026-04-16T08:14:13.001Z</time></trkpt><trkpt lat="44.1566006658937" lon="10.647354238610761"><ele>1200.0</ele><time>2026-04-16T08:14:14.001Z</time></trkpt><trkpt lat="44.15675798899966" lon="10.647272723560311"><ele>1200.0</ele><time>2026-04-16T08:14:15.001Z</time></trkpt><trkpt lat="44.15691802822407" lon="10.647184832031087"><ele>1200.0</ele><time>2026-04-16T08:14:16.001Z</time></trkpt><trkpt lat="44.157088169791756" lon="10.647123138218557"><ele>1200.0</ele><time>2026-04-16T08:14:17.001Z</time></trkpt><trkpt lat="44.157254029565514" lon="10.647037329408494"><ele>1200.0</ele><time>2026-04-16T08:14:18.001Z</time></trkpt><trkpt lat="44.157414725620725" lon="10.646963646510752"><ele>1200.0</ele><time>2026-04-16T08:14:19.001Z</time></trkpt><trkpt lat="44.15757231803741" lon="10.64688922703626"><ele>1198.75</ele><time>2026-04-16T08:14:20.002Z</time></trkpt><trkpt lat="44.15771412465828" lon="10.646822699336578"><ele>1197.5</ele><time>2026-04-16T08:14:21.002Z</time></trkpt><trkpt lat="44.15785099174126" lon="10.646760086175203"><ele>1196.25</ele><time>2026-04-16T08:14:22.002Z</time></trkpt><trkpt lat="44.15797717855717" lon="10.64671619972485"><ele>1195.0</ele><time>2026-04-16T08:14:23.002Z</time></trkpt><trkpt lat="44.15810368242699" lon="10.64668197055661"><ele>1193.0</ele><time>2026-04-16T08:14:24.002Z</time></trkpt><trkpt lat="44.15822111558137" lon="10.646629502944263"><ele>1191.0</ele><time>2026-04-16T08:14:25.002Z</time></trkpt><trkpt lat="44.15832215814422" lon="10.646549895440394"><ele>1189.0</ele><time>2026-04-16T08:14:26.002Z</time></trkpt><trkpt lat="44.158417068643196" lon="10.646427946327387"><ele>1187.0</ele><time>2026-04-16T08:14:27.002Z</time></trkpt><trkpt lat="44.15852234204527" lon="10.646268445251689"><ele>1187.0</ele><time>2026-04-16T08:14:28.002Z</time></trkpt><trkpt lat="44.15862163733679" lon="10.64608620487957"><ele>1187.0</ele><time>2026-04-16T08:14:29.002Z</time></trkpt><trkpt lat="44.15872502570131" lon="10.645893706609492"><ele>1187.0</ele><time>2026-04-16T08:14:30.002Z</time></trkpt><trkpt lat="44.15879443594499" lon="10.645730428528713"><ele>1187.0</ele><time>2026-04-16T08:14:31.002Z</time></trkpt><trkpt lat="44.158849648467765" lon="10.645556864593415"><ele>1187.0</ele><time>2026-04-16T08:14:32.002Z</time></trkpt><trkpt lat="44.158903325371234" lon="10.645396317789189"><ele>1187.0</ele><time>2026-04-16T08:14:33.002Z</time></trkpt><trkpt lat="44.15896224088149" lon="10.64525138342066"><ele>1187.0</ele><time>2026-04-16T08:14:34.002Z</time></trkpt><trkpt lat="44.15905061142892" lon="10.645175502232343"><ele>1186.0</ele><time>2026-04-16T08:14:35.002Z</time></trkpt><trkpt lat="44.15914476769763" lon="10.645088323802744"><ele>1185.0</ele><time>2026-04-16T08:14:36.002Z</time></trkpt><trkpt lat="44.159254762680355" lon="10.644989724519597"><ele>1184.0</ele><time>2026-04-16T08:14:37.002Z</time></trkpt><trkpt lat="44.15939176649076" lon="10.644924053879633"><ele>1183.0</ele><time>2026-04-16T08:14:38.002Z</time></trkpt><trkpt lat="44.15953893911819" lon="10.64485919871735"><ele>1183.0</ele><time>2026-04-16T08:14:39.002Z</time></trkpt><trkpt lat="44.15968912593213" lon="10.644793771497918"><ele>1183.0</ele><time>2026-04-16T08:14:40.002Z</time></trkpt><trkpt lat="44.159845117964515" lon="10.644738134340622"><ele>1183.0</ele><time>2026-04-16T08:14:41.002Z</time></trkpt><trkpt lat="44.159990992241944" lon="10.6447093845291"><ele>1178.5</ele><time>2026-04-16T08:14:42.002Z</time></trkpt><trkpt lat="44.160136200492715" lon="10.644669115733107"><ele>1174.0</ele><time>2026-04-16T08:14:43.002Z</time></trkpt><trkpt lat="44.16027704815592" lon="10.64465685647778"><ele>1169.5</ele><time>2026-04-16T08:14:44.002Z</time></trkpt><trkpt lat="44.16043633942284" lon="10.64467044458466"><ele>1165.0</ele><time>2026-04-16T08:14:45.002Z</time></trkpt><trkpt lat="44.16057972387007" lon="10.644735034850266"><ele>1163.5</ele><time>2026-04-16T08:14:46.002Z</time></trkpt><trkpt lat="44.16073180372653" lon="10.644775226441594"><ele>1162.0</ele><time>2026-04-16T08:14:47.002Z</time></trkpt><trkpt lat="44.16087695195003" lon="10.644814984629097"><ele>1160.5</ele><time>2026-04-16T08:14:48.002Z</time></trkpt><trkpt lat="44.16100466155319" lon="10.644832724138604"><ele>1159.0</ele><time>2026-04-16T08:14:49.002Z</time></trkpt><trkpt lat="44.161135268438684" lon="10.644839654899673"><ele>1159.0</ele><time>2026-04-16T08:14:50.002Z</time></trkpt><trkpt lat="44.161277143383565" lon="10.644827647064066"><ele>1159.0</ele><time>2026-04-16T08:14:51.002Z</time></trkpt><trkpt lat="44.16141703564013" lon="10.644802788672074"><ele>1159.0</ele><time>2026-04-16T08:14:52.002Z</time></trkpt><trkpt lat="44.161541557733024" lon="10.644777488229899"><ele>1159.0</ele><time>2026-04-16T08:14:53.002Z</time></trkpt><trkpt lat="44.16165969427124" lon="10.644738566430048"><ele>1157.0</ele><time>2026-04-16T08:14:54.002Z</time></trkpt><trkpt lat="44.161782549674456" lon="10.64469084644843"><ele>1155.0</ele><time>2026-04-16T08:14:55.002Z</time></trkpt><trkpt lat="44.161913043794094" lon="10.644616815621992"><ele>1153.0</ele><time>2026-04-16T08:14:56.002Z</time></trkpt><trkpt lat="44.16202212037072" lon="10.644529806905664"><ele>1151.0</ele><time>2026-04-16T08:14:57.002Z</time></trkpt><trkpt lat="44.162153006553154" lon="10.64440242738735"><ele>1150.6666666666667</ele><time>2026-04-16T08:14:58.002Z</time></trkpt><trkpt lat="44.162285361170454" lon="10.644236485628278"><ele>1150.3333333333333</ele><time>2026-04-16T08:14:59.002Z</time></trkpt><trkpt lat="44.16239966311509" lon="10.644109425374024"><ele>1150.0</ele><time>2026-04-16T08:15:00.002Z</time></trkpt><trkpt lat="44.16250753510202" lon="10.64397679270335"><ele>1150.0</ele><time>2026-04-16T08:15:01.002Z</time></trkpt><trkpt lat="44.162629524623625" lon="10.64383676944994"><ele>1150.0</ele><time>2026-04-16T08:15:02.002Z</time></trkpt><trkpt lat="44.16273760667715" lon="10.643719680503526"><ele>1150.0</ele><time>2026-04-16T08:15:03.002Z</time></trkpt><trkpt lat="44.162837711990946" lon="10.643615821877079"><ele>1150.0</ele><time>2026-04-16T08:15:04.002Z</time></trkpt><trkpt lat="44.16294263141065" lon="10.6434969298109"><ele>1148.8</ele><time>2026-04-16T08:15:05.002Z</time></trkpt><trkpt lat="44.163050403379806" lon="10.643408877056949"><ele>1147.6</ele><time>2026-04-16T08:15:06.002Z</time></trkpt><trkpt lat="44.16315740328982" lon="10.643345642015966"><ele>1146.4</ele><time>2026-04-16T08:15:07.002Z</time></trkpt><trkpt lat="44.16325995503583" lon="10.643323268721316"><ele>1145.2</ele><time>2026-04-16T08:15:08.002Z</time></trkpt><trkpt lat="44.16334984608402" lon="10.643267349182924"><ele>1144.0</ele><time>2026-04-16T08:15:09.002Z</time></trkpt><trkpt lat="44.16342768819441" lon="10.643202428631488"><ele>1144.0</ele><time>2026-04-16T08:15:10.002Z</time></trkpt><trkpt lat="44.16351287500707" lon="10.643141601754467"><ele>1144.0</ele><time>2026-04-16T08:15:11.002Z</time></trkpt><trkpt lat="44.16359912779527" lon="10.64310763401585"><ele>1144.0</ele><time>2026-04-16T08:15:12.002Z</time></trkpt><trkpt lat="44.163697042634034" lon="10.643088623783694"><ele>1144.0</ele><time>2026-04-16T08:15:13.003Z</time></trkpt><trkpt lat="44.16383567939623" lon="10.643046278369539"><ele>1144.0</ele><time>2026-04-16T08:15:14.003Z</time></trkpt><trkpt lat="44.163964515968054" lon="10.642912046567377"><ele>1140.0</ele><time>2026-04-16T08:15:15.003Z</time></trkpt><trkpt lat="44.164054366630566" lon="10.64268276847029"><ele>1136.0</ele><time>2026-04-16T08:15:16.003Z</time></trkpt><trkpt lat="44.164075246434756" lon="10.642465626615481"><ele>1132.0</ele><time>2026-04-16T08:15:17.003Z</time></trkpt><trkpt lat="44.16407445883551" lon="10.64233487213311"><ele>1128.0</ele><time>2026-04-16T08:15:18.003Z</time></trkpt><trkpt lat="44.164067161702114" lon="10.642217665937094"><ele>1128.0</ele><time>2026-04-16T08:15:19.003Z</time></trkpt><trkpt lat="44.16404020063922" lon="10.642083565914747"><ele>1128.0</ele><time>2026-04-16T08:15:20.003Z</time></trkpt><trkpt lat="44.163998987332874" lon="10.641980930240583"><ele>1128.0</ele><time>2026-04-16T08:15:21.003Z</time></trkpt><trkpt lat="44.16393903373998" lon="10.641883753509186"><ele>1128.0</ele><time>2026-04-16T08:15:22.003Z</time></trkpt><trkpt lat="44.16387483498546" lon="10.64179213200765"><ele>1128.0</ele><time>2026-04-16T08:15:23.001Z</time></trkpt><trkpt lat="44.1638677731706" lon="10.641669621304683"><ele>1129.25</ele><time>2026-04-16T08:15:24.001Z</time></trkpt><trkpt lat="44.163883994956855" lon="10.64152423236273"><ele>1130.5</ele><time>2026-04-16T08:15:25.001Z</time></trkpt><trkpt lat="44.16392820444622" lon="10.64137490424457"><ele>1131.75</ele><time>2026-04-16T08:15:26.001Z</time></trkpt><trkpt lat="44.163963284585265" lon="10.641199568261081"><ele>1133.0</ele><time>2026-04-16T08:15:27.001Z</time></trkpt><trkpt lat="44.16394991535199" lon="10.641045950599702"><ele>1133.0</ele><time>2026-04-16T08:15:28.001Z</time></trkpt><trkpt lat="44.16394439451138" lon="10.64088408595456"><ele>1133.0</ele><time>2026-04-16T08:15:29.001Z</time></trkpt><trkpt lat="44.16391160422562" lon="10.64072390407255"><ele>1133.0</ele><time>2026-04-16T08:15:30.001Z</time></trkpt><trkpt lat="44.16385499581444" lon="10.640601379962371"><ele>1133.0</ele><time>2026-04-16T08:15:31.001Z</time></trkpt><trkpt lat="44.163773188988685" lon="10.640506949142049"><ele>1133.0</ele><time>2026-04-16T08:15:32.001Z</time></trkpt><trkpt lat="44.1636890036204" lon="10.64043251704241"><ele>1133.0</ele><time>2026-04-16T08:15:33.001Z</time></trkpt><trkpt lat="44.163585695483256" lon="10.64038676823466"><ele>1133.0</ele><time>2026-04-16T08:15:34.001Z</time></trkpt><trkpt lat="44.16349088712293" lon="10.640340590451773"><ele>1133.0</ele><time>2026-04-16T08:15:35Z</time></trkpt><trkpt lat="44.163430777019165" lon="10.64030677295827"><ele>1133.0</ele><time>2026-04-16T08:15:37.001Z</time></trkpt><trkpt lat="44.16348755973389" lon="10.640209607982985"><ele>1133.0</ele><time>2026-04-16T08:15:40.001Z</time></trkpt><trkpt lat="44.16356668085828" lon="10.640218215308204"><ele>1133.0</ele><time>2026-04-16T08:15:41.001Z</time></trkpt><trkpt lat="44.163658401901564" lon="10.640283174559684"><ele>1133.0</ele><time>2026-04-16T08:15:42.001Z</time></trkpt><trkpt lat="44.163757445673596" lon="10.640361010069714"><ele>1133.0</ele><time>2026-04-16T08:15:43.001Z</time></trkpt><trkpt lat="44.16385382502279" lon="10.64044411015686"><ele>1133.0</ele><time>2026-04-16T08:15:44.001Z</time></trkpt><trkpt lat="44.163955753569404" lon="10.640546120158572"><ele>1133.0</ele><time>2026-04-16T08:15:45.001Z</time></trkpt><trkpt lat="44.16405802625475" lon="10.640692673780098"><ele>1128.0</ele><time>2026-04-16T08:15:46.001Z</time></trkpt><trkpt lat="44.16413796326112" lon="10.640871038887134"><ele>1123.0</ele><time>2026-04-16T08:15:47.001Z</time></trkpt><trkpt lat="44.16422815635079" lon="10.641057066480524"><ele>1118.0</ele><time>2026-04-16T08:15:48.001Z</time></trkpt><trkpt lat="44.16428268283495" lon="10.641259957964184"><ele>1118.0</ele><time>2026-04-16T08:15:49.001Z</time></trkpt><trkpt lat="44.164337659430046" lon="10.641448881662942"><ele>1118.0</ele><time>2026-04-16T08:15:50.001Z</time></trkpt><trkpt lat="44.16440221519465" lon="10.641622882609209"><ele>1118.0</ele><time>2026-04-16T08:15:51.001Z</time></trkpt><trkpt lat="44.16447920871747" lon="10.641789434171207"><ele>1118.0</ele><time>2026-04-16T08:15:52.001Z</time></trkpt><trkpt lat="44.16455315836238" lon="10.64194751872248"><ele>1120.5</ele><time>2026-04-16T08:15:53.001Z</time></trkpt><trkpt lat="44.164626032733686" lon="10.642104056261081"><ele>1123.0</ele><time>2026-04-16T08:15:54.001Z</time></trkpt><trkpt lat="44.16469824007587" lon="10.642260734476087"><ele>1125.5</ele><time>2026-04-16T08:15:55.001Z</time></trkpt><trkpt lat="44.164769363557284" lon="10.642411542498273"><ele>1128.0</ele><time>2026-04-16T08:15:56.001Z</time></trkpt><trkpt lat="44.1648390379504" lon="10.642546664702582"><ele>1121.4</ele><time>2026-04-16T08:15:57.001Z</time></trkpt><trkpt lat="44.16492963167808" lon="10.642661265483069"><ele>1114.8</ele><time>2026-04-16T08:15:58.001Z</time></trkpt><trkpt lat="44.16499791794407" lon="10.642795147667147"><ele>1108.2</ele><time>2026-04-16T08:15:59.001Z</time></trkpt><trkpt lat="44.16507520350428" lon="10.642899176877833"><ele>1101.6</ele><time>2026-04-16T08:16:00.001Z</time></trkpt><trkpt lat="44.165138832887" lon="10.642988518904813"><ele>1095.0</ele><time>2026-04-16T08:16:01.001Z</time></trkpt><trkpt lat="44.16519819091315" lon="10.643055942260848"><ele>1095.0</ele><time>2026-04-16T08:16:02.001Z</time></trkpt><trkpt lat="44.16530111262655" lon="10.643104628393989"><ele>1095.0</ele><time>2026-04-16T08:16:04.001Z</time></trkpt><trkpt lat="44.16536910563776" lon="10.643053227038472"><ele>1095.0</ele><time>2026-04-16T08:16:05.001Z</time></trkpt><trkpt lat="44.16539957298634" lon="10.642948551147127"><ele>1095.0</ele><time>2026-04-16T08:16:06.001Z</time></trkpt><trkpt lat="44.165408889943585" lon="10.642838148332366"><ele>1095.0</ele><time>2026-04-16T08:16:07.001Z</time></trkpt><trkpt lat="44.165398049161496" lon="10.642705932745297"><ele>1095.0</ele><time>2026-04-16T08:16:08.001Z</time></trkpt><trkpt lat="44.16538565896903" lon="10.642550522878627"><ele>1095.0</ele><time>2026-04-16T08:16:09.001Z</time></trkpt><trkpt lat="44.16535907495113" lon="10.64238152387664"><ele>1095.0</ele><time>2026-04-16T08:16:10.001Z</time></trkpt><trkpt lat="44.16531305882661" lon="10.642232461828746"><ele>1095.0</ele><time>2026-04-16T08:16:11.001Z</time></trkpt><trkpt lat="44.16525966499398" lon="10.642082017772019"><ele>1095.0</ele><time>2026-04-16T08:16:12.001Z</time></trkpt><trkpt lat="44.16520176078723" lon="10.641942103955117"><ele>1094.0</ele><time>2026-04-16T08:16:13.001Z</time></trkpt><trkpt lat="44.165146952377846" lon="10.641808263458636"><ele>1093.0</ele><time>2026-04-16T08:16:14.001Z</time></trkpt><trkpt lat="44.16509989995716" lon="10.641675886697172"><ele>1092.0</ele><time>2026-04-16T08:16:15.001Z</time></trkpt><trkpt lat="44.16506692032101" lon="10.641530129001811"><ele>1091.0</ele><time>2026-04-16T08:16:16.001Z</time></trkpt><trkpt lat="44.16504154652451" lon="10.6413633283878"><ele>1090.0</ele><time>2026-04-16T08:16:17.001Z</time></trkpt><trkpt lat="44.16502244917345" lon="10.641185860976202"><ele>1088.25</ele><time>2026-04-16T08:16:18.001Z</time></trkpt><trkpt lat="44.16501495022786" lon="10.641001673279897"><ele>1086.5</ele><time>2026-04-16T08:16:19.001Z</time></trkpt><trkpt lat="44.16500749752317" lon="10.6408262839121"><ele>1084.75</ele><time>2026-04-16T08:16:20.001Z</time></trkpt><trkpt lat="44.16499041370718" lon="10.640643481101257"><ele>1083.0</ele><time>2026-04-16T08:16:21.001Z</time></trkpt><trkpt lat="44.16497349908132" lon="10.640454916678022"><ele>1080.25</ele><time>2026-04-16T08:16:22.001Z</time></trkpt><trkpt lat="44.16496446539287" lon="10.640284441422041"><ele>1077.5</ele><time>2026-04-16T08:16:23.001Z</time></trkpt><trkpt lat="44.16495082569191" lon="10.64010346934868"><ele>1074.75</ele><time>2026-04-16T08:16:24.001Z</time></trkpt><trkpt lat="44.16495620772233" lon="10.639922475375043"><ele>1072.0</ele><time>2026-04-16T08:16:25.001Z</time></trkpt><trkpt lat="44.164971879708204" lon="10.639740836783963"><ele>1072.0</ele><time>2026-04-16T08:16:26.001Z</time></trkpt><trkpt lat="44.164984993189734" lon="10.63955818825345"><ele>1072.0</ele><time>2026-04-16T08:16:27.001Z</time></trkpt><trkpt lat="44.164992434424356" lon="10.639395502335464"><ele>1072.0</ele><time>2026-04-16T08:16:28.001Z</time></trkpt><trkpt lat="44.1649956649136" lon="10.639257566922124"><ele>1072.0</ele><time>2026-04-16T08:16:29.002Z</time></trkpt><trkpt lat="44.16501380373861" lon="10.639137579470242"><ele>1072.0</ele><time>2026-04-16T08:16:30.002Z</time></trkpt><trkpt lat="44.165059363556736" lon="10.639042235776861"><ele>1072.2</ele><time>2026-04-16T08:16:31.002Z</time></trkpt><trkpt lat="44.16512221885103" lon="10.638955025109587"><ele>1072.4</ele><time>2026-04-16T08:16:32.002Z</time></trkpt><trkpt lat="44.165210212788104" lon="10.638897726953081"><ele>1072.6</ele><time>2026-04-16T08:16:33.002Z</time></trkpt><trkpt lat="44.16532256134253" lon="10.638874411759476"><ele>1072.8</ele><time>2026-04-16T08:16:34.002Z</time></trkpt><trkpt lat="44.16544661351895" lon="10.63890861324111"><ele>1073.0</ele><time>2026-04-16T08:16:35.002Z</time></trkpt><trkpt lat="44.1655583403375" lon="10.638935789129983"><ele>1073.0</ele><time>2026-04-16T08:16:36.002Z</time></trkpt><trkpt lat="44.1656580650862" lon="10.638997356061578"><ele>1073.0</ele><time>2026-04-16T08:16:37.002Z</time></trkpt><trkpt lat="44.16575043265122" lon="10.63910286139955"><ele>1073.0</ele><time>2026-04-16T08:16:38.002Z</time></trkpt><trkpt lat="44.16583569146326" lon="10.639234656011821"><ele>1073.0</ele><time>2026-04-16T08:16:39.002Z</time></trkpt><trkpt lat="44.16592607259" lon="10.639382923894221"><ele>1070.5</ele><time>2026-04-16T08:16:40.002Z</time></trkpt><trkpt lat="44.166032451982396" lon="10.639520728020637"><ele>1068.0</ele><time>2026-04-16T08:16:41.002Z</time></trkpt><trkpt lat="44.16610090249378" lon="10.639672174143938"><ele>1065.5</ele><time>2026-04-16T08:16:42.002Z</time></trkpt><trkpt lat="44.16617302604931" lon="10.639795127934"><ele>1063.0</ele><time>2026-04-16T08:16:43.002Z</time></trkpt><trkpt lat="44.16623612937779" lon="10.639910778647208"><ele>1063.0</ele><time>2026-04-16T08:16:44.002Z</time></trkpt><trkpt lat="44.166298678773984" lon="10.640041916618276"><ele>1063.0</ele><time>2026-04-16T08:16:45.002Z</time></trkpt><trkpt lat="44.166353663177134" lon="10.640175135447054"><ele>1063.0</ele><time>2026-04-16T08:16:46.002Z</time></trkpt><trkpt lat="44.16642677604452" lon="10.64032016876409"><ele>1063.0</ele><time>2026-04-16T08:16:47.002Z</time></trkpt><trkpt lat="44.16651415953257" lon="10.640466622227848"><ele>1062.0</ele><time>2026-04-16T08:16:48.002Z</time></trkpt><trkpt lat="44.16661457459667" lon="10.640624927965705"><ele>1061.0</ele><time>2026-04-16T08:16:49.002Z</time></trkpt><trkpt lat="44.1667167829213" lon="10.640775955542187"><ele>1060.0</ele><time>2026-04-16T08:16:50.002Z</time></trkpt><trkpt lat="44.166818020162225" lon="10.64090518750313"><ele>1059.0</ele><time>2026-04-16T08:16:51.002Z</time></trkpt><trkpt lat="44.16689973920434" lon="10.641028804948018"><ele>1059.0</ele><time>2026-04-16T08:16:52.002Z</time></trkpt><trkpt lat="44.16697210230927" lon="10.641122015775059"><ele>1059.0</ele><time>2026-04-16T08:16:53.002Z</time></trkpt><trkpt lat="44.1670709527546" lon="10.641189081711518"><ele>1059.0</ele><time>2026-04-16T08:16:54.002Z</time></trkpt><trkpt lat="44.16717801049708" lon="10.641248827407946"><ele>1059.0</ele><time>2026-04-16T08:16:55.002Z</time></trkpt><trkpt lat="44.16729323233791" lon="10.641281123345289"><ele>1059.0</ele><time>2026-04-16T08:16:56.002Z</time></trkpt><trkpt lat="44.16742318581148" lon="10.64129566969273"><ele>1055.75</ele><time>2026-04-16T08:16:57.002Z</time></trkpt><trkpt lat="44.167543546335416" lon="10.641275683352939"><ele>1052.5</ele><time>2026-04-16T08:16:58.002Z</time></trkpt><trkpt lat="44.167685152993954" lon="10.64123608738757"><ele>1049.25</ele><time>2026-04-16T08:16:59.002Z</time></trkpt><trkpt lat="44.1678044929034" lon="10.64120489951293"><ele>1046.0</ele><time>2026-04-16T08:17:00.002Z</time></trkpt><trkpt lat="44.16791996271648" lon="10.64116794316189"><ele>1046.0</ele><time>2026-04-16T08:17:01.002Z</time></trkpt><trkpt lat="44.16801910492778" lon="10.641141558967833"><ele>1046.0</ele><time>2026-04-16T08:17:02.002Z</time></trkpt><trkpt lat="44.16812938727411" lon="10.641144321227188"><ele>1046.0</ele><time>2026-04-16T08:17:03.002Z</time></trkpt><trkpt lat="44.1682367465575" lon="10.641113158526146"><ele>1046.0</ele><time>2026-04-16T08:17:04.002Z</time></trkpt><trkpt lat="44.16833486160137" lon="10.641081904351681"><ele>1046.0</ele><time>2026-04-16T08:17:05.002Z</time></trkpt><trkpt lat="44.168434884920885" lon="10.641064612114631"><ele>1045.8</ele><time>2026-04-16T08:17:06.002Z</time></trkpt><trkpt lat="44.168534681678835" lon="10.641089547771937"><ele>1045.6</ele><time>2026-04-16T08:17:07.002Z</time></trkpt><trkpt lat="44.16862065639935" lon="10.641112024673"><ele>1045.4</ele><time>2026-04-16T08:17:08.002Z</time></trkpt><trkpt lat="44.16870969015421" lon="10.6411341662199"><ele>1045.2</ele><time>2026-04-16T08:17:09.002Z</time></trkpt><trkpt lat="44.1687908669433" lon="10.64115159060792"><ele>1045.0</ele><time>2026-04-16T08:17:10.002Z</time></trkpt><trkpt lat="44.168890462369184" lon="10.641152848094864"><ele>1048.5</ele><time>2026-04-16T08:17:11.002Z</time></trkpt><trkpt lat="44.16900982866279" lon="10.64112081962769"><ele>1052.0</ele><time>2026-04-16T08:17:12.002Z</time></trkpt><trkpt lat="44.16913948226838" lon="10.641055381937921"><ele>1055.5</ele><time>2026-04-16T08:17:13.002Z</time></trkpt><trkpt lat="44.16927207074168" lon="10.640977915149609"><ele>1059.0</ele><time>2026-04-16T08:17:14.002Z</time></trkpt><trkpt lat="44.16941362515706" lon="10.640911307565265"><ele>1059.0</ele><time>2026-04-16T08:17:15.002Z</time></trkpt><trkpt lat="44.16956954348395" lon="10.640881045064313"><ele>1059.0</ele><time>2026-04-16T08:17:16.002Z</time></trkpt><trkpt lat="44.16971667077125" lon="10.640907016290402"><ele>1059.0</ele><time>2026-04-16T08:17:17.002Z</time></trkpt><trkpt lat="44.16984283709827" lon="10.640908389477008"><ele>1059.0</ele><time>2026-04-16T08:17:18.002Z</time></trkpt><trkpt lat="44.16996598097712" lon="10.640926620501082"><ele>1058.8</ele><time>2026-04-16T08:17:19.002Z</time></trkpt><trkpt lat="44.17008156691591" lon="10.64092972173279"><ele>1058.6000000000001</ele><time>2026-04-16T08:17:20.002Z</time></trkpt><trkpt lat="44.170183793336406" lon="10.640926009621964"><ele>1058.4</ele><time>2026-04-16T08:17:21.002Z</time></trkpt><trkpt lat="44.17028554929503" lon="10.64091464671938"><ele>1058.2</ele><time>2026-04-16T08:17:22.002Z</time></trkpt><trkpt lat="44.17037571201847" lon="10.640873438955685"><ele>1058.0</ele><time>2026-04-16T08:17:23.003Z</time></trkpt><trkpt lat="44.17044781855577" lon="10.640736436316768"><ele>1058.0</ele><time>2026-04-16T08:17:24.003Z</time></trkpt><trkpt lat="44.17048595275967" lon="10.640555677220055"><ele>1058.0</ele><time>2026-04-16T08:17:25.003Z</time></trkpt><trkpt lat="44.17051873405332" lon="10.640426018145993"><ele>1058.0</ele><time>2026-04-16T08:17:26.003Z</time></trkpt><trkpt lat="44.170568511130995" lon="10.640324396233884"><ele>1058.0</ele><time>2026-04-16T08:17:27.003Z</time></trkpt><trkpt lat="44.17064174131335" lon="10.640294753414182"><ele>1058.0</ele><time>2026-04-16T08:17:28.003Z</time></trkpt><trkpt lat="44.170752720038124" lon="10.640294569053369"><ele>1055.0</ele><time>2026-04-16T08:17:29.001Z</time></trkpt><trkpt lat="44.170863900206406" lon="10.640307860120535"><ele>1052.0</ele><time>2026-04-16T08:17:30Z</time></trkpt><trkpt lat="44.170999654872745" lon="10.64030762995018"><ele>1049.0</ele><time>2026-04-16T08:17:31Z</time></trkpt><trkpt lat="44.17112996759074" lon="10.640371736987198"><ele>1046.0</ele><time>2026-04-16T08:17:32.001Z</time></trkpt><trkpt lat="44.17123787216155" lon="10.640414731837437"><ele>1046.0</ele><time>2026-04-16T08:17:33.001Z</time></trkpt><trkpt lat="44.1713267421474" lon="10.640464161361571"><ele>1046.0</ele><time>2026-04-16T08:17:34.001Z</time></trkpt><trkpt lat="44.17142658600225" lon="10.640557823303146"><ele>1046.0</ele><time>2026-04-16T08:17:35.001Z</time></trkpt><trkpt lat="44.17148710221877" lon="10.640685125672544"><ele>1046.0</ele><time>2026-04-16T08:17:36.001Z</time></trkpt><trkpt lat="44.17153043539331" lon="10.640802087113604"><ele>1046.0</ele><time>2026-04-16T08:17:37.001Z</time></trkpt><trkpt lat="44.171590221696086" lon="10.640893586426301"><ele>1046.25</ele><time>2026-04-16T08:17:38.001Z</time></trkpt><trkpt lat="44.171678607362225" lon="10.64094234764575"><ele>1046.5</ele><time>2026-04-16T08:17:39Z</time></trkpt><trkpt lat="44.171788479548205" lon="10.640938807754818"><ele>1046.75</ele><time>2026-04-16T08:17:40Z</time></trkpt><trkpt lat="44.17192144630154" lon="10.640918772429385"><ele>1047.0</ele><time>2026-04-16T08:17:41.001Z</time></trkpt><trkpt lat="44.1720637766825" lon="10.640923836875485"><ele>1047.0</ele><time>2026-04-16T08:17:42.001Z</time></trkpt><trkpt lat="44.172197007565956" lon="10.640950026112975"><ele>1047.0</ele><time>2026-04-16T08:17:43.001Z</time></trkpt><trkpt lat="44.172308645027854" lon="10.641012454864365"><ele>1047.0</ele><time>2026-04-16T08:17:44.001Z</time></trkpt><trkpt lat="44.172414886462654" lon="10.641130482464867"><ele>1047.0</ele><time>2026-04-16T08:17:45.001Z</time></trkpt><trkpt lat="44.1725497317831" lon="10.641243674359435"><ele>1041.5</ele><time>2026-04-16T08:17:46.001Z</time></trkpt><trkpt lat="44.172700396233445" lon="10.64131035189106"><ele>1036.0</ele><time>2026-04-16T08:17:47.001Z</time></trkpt><trkpt lat="44.172839031835736" lon="10.641354199987905"><ele>1030.5</ele><time>2026-04-16T08:17:48.001Z</time></trkpt><trkpt lat="44.172963480919904" lon="10.64139142689001"><ele>1025.0</ele><time>2026-04-16T08:17:49.001Z</time></trkpt><trkpt lat="44.173093453405095" lon="10.64143132899614"><ele>1026.0</ele><time>2026-04-16T08:17:50.001Z</time></trkpt><trkpt lat="44.17321470254338" lon="10.641510919473111"><ele>1027.0</ele><time>2026-04-16T08:17:51.001Z</time></trkpt><trkpt lat="44.1733224367443" lon="10.64163126354995"><ele>1028.0</ele><time>2026-04-16T08:17:52.001Z</time></trkpt><trkpt lat="44.17342425520739" lon="10.641767957053547"><ele>1029.0</ele><time>2026-04-16T08:17:53.001Z</time></trkpt><trkpt lat="44.1735183815253" lon="10.64191696472711"><ele>1026.25</ele><time>2026-04-16T08:17:54.001Z</time></trkpt><trkpt lat="44.173617150728255" lon="10.642058847838369"><ele>1023.5</ele><time>2026-04-16T08:17:55.001Z</time></trkpt><trkpt lat="44.17370881188337" lon="10.642179549906817"><ele>1020.75</ele><time>2026-04-16T08:17:56.001Z</time></trkpt><trkpt lat="44.173806908047396" lon="10.64228193058231"><ele>1018.0</ele><time>2026-04-16T08:17:57.001Z</time></trkpt><trkpt lat="44.173903469675835" lon="10.642372819165306"><ele>1018.0</ele><time>2026-04-16T08:17:58.001Z</time></trkpt><trkpt lat="44.17399525816534" lon="10.642456051226308"><ele>1018.0</ele><time>2026-04-16T08:17:59.001Z</time></trkpt><trkpt lat="44.17407485288121" lon="10.642530892201947"><ele>1018.0</ele><time>2026-04-16T08:18:00.001Z</time></trkpt><trkpt lat="44.17414522928599" lon="10.642614680805732"><ele>1018.0</ele><time>2026-04-16T08:18:01.001Z</time></trkpt><trkpt lat="44.17421278512517" lon="10.64271189648856"><ele>1018.0</ele><time>2026-04-16T08:18:02.001Z</time></trkpt><trkpt lat="44.174267467738076" lon="10.642806603134865"><ele>1016.4</ele><time>2026-04-16T08:18:03.001Z</time></trkpt><trkpt lat="44.174316167699324" lon="10.642915577811591"><ele>1014.8</ele><time>2026-04-16T08:18:04.001Z</time></trkpt><trkpt lat="44.1743804595054" lon="10.643019700938353"><ele>1013.2</ele><time>2026-04-16T08:18:05.001Z</time></trkpt><trkpt lat="44.17445623680057" lon="10.643092673268361"><ele>1011.6</ele><time>2026-04-16T08:18:06.001Z</time></trkpt><trkpt lat="44.17455075184906" lon="10.643127961886352"><ele>1010.0</ele><time>2026-04-16T08:18:07.001Z</time></trkpt><trkpt lat="44.17463401232691" lon="10.643128889285176"><ele>1010.0</ele><time>2026-04-16T08:18:08.001Z</time></trkpt><trkpt lat="44.17470979020616" lon="10.643157333430075"><ele>1010.0</ele><time>2026-04-16T08:18:09.001Z</time></trkpt><trkpt lat="44.17476869115257" lon="10.643206779778966"><ele>1010.0</ele><time>2026-04-16T08:18:10.001Z</time></trkpt><trkpt lat="44.174791348088895" lon="10.643361057402016"><ele>1010.0</ele><time>2026-04-16T08:18:12.001Z</time></trkpt><trkpt lat="44.174775094545325" lon="10.64349014777556"><ele>1010.0</ele><time>2026-04-16T08:18:13.001Z</time></trkpt><trkpt lat="44.17474690953435" lon="10.643633496096292"><ele>1010.25</ele><time>2026-04-16T08:18:14.001Z</time></trkpt><trkpt lat="44.17472316946753" lon="10.643763969845562"><ele>1010.5</ele><time>2026-04-16T08:18:15.001Z</time></trkpt><trkpt lat="44.17472856341581" lon="10.643907794509321"><ele>1010.75</ele><time>2026-04-16T08:18:16.001Z</time></trkpt><trkpt lat="44.174784469504374" lon="10.644065185466632"><ele>1011.0</ele><time>2026-04-16T08:18:17.001Z</time></trkpt><trkpt lat="44.17488984602571" lon="10.64416593647082"><ele>1011.0</ele><time>2026-04-16T08:18:18.001Z</time></trkpt><trkpt lat="44.17497895643871" lon="10.644236022370142"><ele>1010.9999999999999</ele><time>2026-04-16T08:18:19.001Z</time></trkpt><trkpt lat="44.175065854711704" lon="10.644299570296122"><ele>1010.9999999999999</ele><time>2026-04-16T08:18:20.001Z</time></trkpt><trkpt lat="44.175158893633075" lon="10.644362680723003"><ele>1011.0</ele><time>2026-04-16T08:18:21.001Z</time></trkpt><trkpt lat="44.17526860576263" lon="10.644412475058767"><ele>1011.0</ele><time>2026-04-16T08:18:22.001Z</time></trkpt><trkpt lat="44.17540681615753" lon="10.6444400611469"><ele>1011.0</ele><time>2026-04-16T08:18:23.001Z</time></trkpt><trkpt lat="44.17555951134582" lon="10.644458600146088"><ele>1011.0</ele><time>2026-04-16T08:18:24.001Z</time></trkpt><trkpt lat="44.175699643092656" lon="10.644487487797349"><ele>1011.0</ele><time>2026-04-16T08:18:25.001Z</time></trkpt><trkpt lat="44.175847289245176" lon="10.644542321027641"><ele>1011.0</ele><time>2026-04-16T08:18:26.001Z</time></trkpt><trkpt lat="44.175989351789575" lon="10.644596743869073"><ele>1008.5</ele><time>2026-04-16T08:18:27.001Z</time></trkpt><trkpt lat="44.176099387186184" lon="10.644669639520444"><ele>1006.0</ele><time>2026-04-16T08:18:28.001Z</time></trkpt><trkpt lat="44.176194775598866" lon="10.644776073491315"><ele>1003.5</ele><time>2026-04-16T08:18:29.001Z</time></trkpt><trkpt lat="44.17625369143243" lon="10.6449191829412"><ele>1001.0</ele><time>2026-04-16T08:18:30.001Z</time></trkpt><trkpt lat="44.17629711108375" lon="10.645073433596593"><ele>1001.0</ele><time>2026-04-16T08:18:31.002Z</time></trkpt><trkpt lat="44.17636325640197" lon="10.645229797513144"><ele>1001.0</ele><time>2026-04-16T08:18:32.002Z</time></trkpt><trkpt lat="44.17647632801739" lon="10.645333797302234"><ele>1001.0</ele><time>2026-04-16T08:18:33.002Z</time></trkpt><trkpt lat="44.17658151043363" lon="10.645408527877253"><ele>1001.0</ele><time>2026-04-16T08:18:34.002Z</time></trkpt><trkpt lat="44.17669766419667" lon="10.645441270769126"><ele>1002.25</ele><time>2026-04-16T08:18:35.002Z</time></trkpt><trkpt lat="44.1768063495654" lon="10.645396879644668"><ele>1003.5</ele><time>2026-04-16T08:18:36.002Z</time></trkpt><trkpt lat="44.17690943989507" lon="10.64531721735675"><ele>1004.75</ele><time>2026-04-16T08:18:37.002Z</time></trkpt><trkpt lat="44.1770298072913" lon="10.645226373820385"><ele>1006.0</ele><time>2026-04-16T08:18:38.002Z</time></trkpt><trkpt lat="44.177177229770386" lon="10.645142235546619"><ele>1006.0</ele><time>2026-04-16T08:18:39.002Z</time></trkpt><trkpt lat="44.17732021073041" lon="10.645046642794835"><ele>1006.0</ele><time>2026-04-16T08:18:40.002Z</time></trkpt><trkpt lat="44.17744788995049" lon="10.644968285178862"><ele>1006.0</ele><time>2026-04-16T08:18:41.002Z</time></trkpt><trkpt lat="44.17757447504896" lon="10.644911707355378"><ele>1006.0</ele><time>2026-04-16T08:18:42.002Z</time></trkpt><trkpt lat="44.177693831023234" lon="10.644896687228515"><ele>1004.0</ele><time>2026-04-16T08:18:43.002Z</time></trkpt><trkpt lat="44.17784068752825" lon="10.644922778266592"><ele>1002.0</ele><time>2026-04-16T08:18:44.002Z</time></trkpt><trkpt lat="44.17799396357998" lon="10.644992494819741"><ele>1000.0</ele><time>2026-04-16T08:18:45.002Z</time></trkpt><trkpt lat="44.178136970226824" lon="10.645011074254969"><ele>997.75</ele><time>2026-04-16T08:18:46.002Z</time></trkpt><trkpt lat="44.17827135435527" lon="10.645031869361455"><ele>995.5</ele><time>2026-04-16T08:18:47.002Z</time></trkpt><trkpt lat="44.1784031981396" lon="10.645056426297757"><ele>993.25</ele><time>2026-04-16T08:18:48.002Z</time></trkpt><trkpt lat="44.178545210801985" lon="10.645039170654545"><ele>991.0</ele><time>2026-04-16T08:18:49.002Z</time></trkpt><trkpt lat="44.178671222168795" lon="10.644982487462132"><ele>991.0</ele><time>2026-04-16T08:18:50.002Z</time></trkpt><trkpt lat="44.17878555635316" lon="10.644889667905456"><ele>990.9999999999999</ele><time>2026-04-16T08:18:51.002Z</time></trkpt><trkpt lat="44.178860439114125" lon="10.644792148233883"><ele>990.9999999999999</ele><time>2026-04-16T08:18:52.002Z</time></trkpt><trkpt lat="44.178939212043346" lon="10.644694726836128"><ele>991.0</ele><time>2026-04-16T08:18:53.002Z</time></trkpt><trkpt lat="44.17902586565391" lon="10.644635075027468"><ele>991.0</ele><time>2026-04-16T08:18:54.002Z</time></trkpt><trkpt lat="44.17912116049439" lon="10.644622769265426"><ele>988.5</ele><time>2026-04-16T08:18:55.002Z</time></trkpt><trkpt lat="44.17921802584253" lon="10.64467767373335"><ele>986.0</ele><time>2026-04-16T08:18:56.002Z</time></trkpt><trkpt lat="44.17931498380853" lon="10.644792482553582"><ele>983.5</ele><time>2026-04-16T08:18:57.002Z</time></trkpt><trkpt lat="44.17943804627739" lon="10.64482683359346"><ele>981.0</ele><time>2026-04-16T08:18:58.002Z</time></trkpt><trkpt lat="44.17954307866122" lon="10.644794619352743"><ele>981.0</ele><time>2026-04-16T08:18:59.002Z</time></trkpt><trkpt lat="44.17967052611778" lon="10.64476405694219"><ele>981.0</ele><time>2026-04-16T08:19:00.002Z</time></trkpt><trkpt lat="44.17982062334964" lon="10.644709469480828"><ele>981.0</ele><time>2026-04-16T08:19:01.002Z</time></trkpt><trkpt lat="44.17998309103441" lon="10.644672902822384"><ele>981.0</ele><time>2026-04-16T08:19:02.002Z</time></trkpt><trkpt lat="44.180143508275194" lon="10.644593864894064"><ele>978.5</ele><time>2026-04-16T08:19:03.002Z</time></trkpt><trkpt lat="44.180280242793565" lon="10.644576451594938"><ele>976.0</ele><time>2026-04-16T08:19:04.002Z</time></trkpt><trkpt lat="44.180412369042486" lon="10.644596925839467"><ele>973.5</ele><time>2026-04-16T08:19:05.002Z</time></trkpt><trkpt lat="44.18055183826635" lon="10.64463669495518"><ele>971.0</ele><time>2026-04-16T08:19:06.002Z</time></trkpt><trkpt lat="44.18066290831798" lon="10.644727910451765"><ele>972.1999999999999</ele><time>2026-04-16T08:19:07.002Z</time></trkpt><trkpt lat="44.18075821601424" lon="10.644803461893169"><ele>973.3999999999999</ele><time>2026-04-16T08:19:08.002Z</time></trkpt><trkpt lat="44.18081949199072" lon="10.64491195499291"><ele>974.6</ele><time>2026-04-16T08:19:09.002Z</time></trkpt><trkpt lat="44.180887013448995" lon="10.645039963366358"><ele>975.8</ele><time>2026-04-16T08:19:10.002Z</time></trkpt><trkpt lat="44.18095438599353" lon="10.645143790615887"><ele>977.0</ele><time>2026-04-16T08:19:11.002Z</time></trkpt><trkpt lat="44.18105923982776" lon="10.64523143164058"><ele>977.0</ele><time>2026-04-16T08:19:12.002Z</time></trkpt><trkpt lat="44.18118647020771" lon="10.645269951605782"><ele>977.0</ele><time>2026-04-16T08:19:13.002Z</time></trkpt><trkpt lat="44.18130466136224" lon="10.645302361456883"><ele>977.0</ele><time>2026-04-16T08:19:14.002Z</time></trkpt><trkpt lat="44.181425067395494" lon="10.645335759583817"><ele>977.0</ele><time>2026-04-16T08:19:15.002Z</time></trkpt><trkpt lat="44.181555669545226" lon="10.645371261130009"><ele>970.75</ele><time>2026-04-16T08:19:16.002Z</time></trkpt><trkpt lat="44.18167998747882" lon="10.645401845301844"><ele>964.5</ele><time>2026-04-16T08:19:17.002Z</time></trkpt><trkpt lat="44.18179963804085" lon="10.645407032469679"><ele>958.25</ele><time>2026-04-16T08:19:18.002Z</time></trkpt><trkpt lat="44.18191494166043" lon="10.645380641262362"><ele>952.0</ele><time>2026-04-16T08:19:19.002Z</time></trkpt><trkpt lat="44.18204970286002" lon="10.645305269528711"><ele>959.5</ele><time>2026-04-16T08:19:20.002Z</time></trkpt><trkpt lat="44.182178553572754" lon="10.645212248283892"><ele>967.0</ele><time>2026-04-16T08:19:21.002Z</time></trkpt><trkpt lat="44.182304587323166" lon="10.645115779235505"><ele>974.5</ele><time>2026-04-16T08:19:22.002Z</time></trkpt><trkpt lat="44.18243226448903" lon="10.64501097033161"><ele>982.0</ele><time>2026-04-16T08:19:23.002Z</time></trkpt><trkpt lat="44.18259128707091" lon="10.644887303138848"><ele>982.0</ele><time>2026-04-16T08:19:24.002Z</time></trkpt><trkpt lat="44.18274666616172" lon="10.644769191985208"><ele>982.0</ele><time>2026-04-16T08:19:25.002Z</time></trkpt><trkpt lat="44.18291900332772" lon="10.644644878554434"><ele>982.0</ele><time>2026-04-16T08:19:26.002Z</time></trkpt><trkpt lat="44.183076586718435" lon="10.644526285249706"><ele>982.0</ele><time>2026-04-16T08:19:27.003Z</time></trkpt><trkpt lat="44.18321161782646" lon="10.644447409881215"><ele>982.0</ele><time>2026-04-16T08:19:28.003Z</time></trkpt><trkpt lat="44.18333952426142" lon="10.644381887822005"><ele>982.0</ele><time>2026-04-16T08:19:29.003Z</time></trkpt><trkpt lat="44.18346261386425" lon="10.64431787840113"><ele>982.0</ele><time>2026-04-16T08:19:30.003Z</time></trkpt><trkpt lat="44.183610666128175" lon="10.64426410171601"><ele>982.0</ele><time>2026-04-16T08:19:31.003Z</time></trkpt><trkpt lat="44.18378093686807" lon="10.644214833971215"><ele>982.0</ele><time>2026-04-16T08:19:32.003Z</time></trkpt><trkpt lat="44.18394828412214" lon="10.644187607916654"><ele>982.0</ele><time>2026-04-16T08:19:33.003Z</time></trkpt><trkpt lat="44.184134639152205" lon="10.64418637414562"><ele>980.6666666666666</ele><time>2026-04-16T08:19:34.003Z</time></trkpt><trkpt lat="44.18430414924468" lon="10.644195038997154"><ele>979.3333333333333</ele><time>2026-04-16T08:19:35.001Z</time></trkpt><trkpt lat="44.18448459277607" lon="10.644202792878044"><ele>978.0</ele><time>2026-04-16T08:19:36.001Z</time></trkpt><trkpt lat="44.18465944396481" lon="10.64421575364576"><ele>979.3333333333333</ele><time>2026-04-16T08:19:37.001Z</time></trkpt><trkpt lat="44.18484934178222" lon="10.644221414288108"><ele>980.6666666666666</ele><time>2026-04-16T08:19:38.001Z</time></trkpt><trkpt lat="44.185019372454974" lon="10.644298317572654"><ele>982.0</ele><time>2026-04-16T08:19:39.001Z</time></trkpt><trkpt lat="44.18515524086985" lon="10.644382620615287"><ele>982.0</ele><time>2026-04-16T08:19:40.001Z</time></trkpt><trkpt lat="44.18527538706953" lon="10.64445049782554"><ele>982.0</ele><time>2026-04-16T08:19:41.001Z</time></trkpt><trkpt lat="44.185390088882265" lon="10.64452814357117"><ele>982.0</ele><time>2026-04-16T08:19:42.001Z</time></trkpt><trkpt lat="44.185517187793714" lon="10.644582057666899"><ele>982.0</ele><time>2026-04-16T08:19:43.001Z</time></trkpt><trkpt lat="44.18569547480001" lon="10.644599744488522"><ele>980.3333333333333</ele><time>2026-04-16T08:19:44.001Z</time></trkpt><trkpt lat="44.18581585114457" lon="10.644554709377468"><ele>978.6666666666667</ele><time>2026-04-16T08:19:45.001Z</time></trkpt><trkpt lat="44.185956957617236" lon="10.644475061897522"><ele>977.0</ele><time>2026-04-16T08:19:46.001Z</time></trkpt><trkpt lat="44.18613153314578" lon="10.644430922501584"><ele>977.0</ele><time>2026-04-16T08:19:47.001Z</time></trkpt><trkpt lat="44.18630446856965" lon="10.644404200537334"><ele>977.0</ele><time>2026-04-16T08:19:48.001Z</time></trkpt><trkpt lat="44.18647406193998" lon="10.644397460074618"><ele>977.0</ele><time>2026-04-16T08:19:49.001Z</time></trkpt><trkpt lat="44.18663327865788" lon="10.644493441931457"><ele>970.0</ele><time>2026-04-16T08:19:50.001Z</time></trkpt><trkpt lat="44.18677147946458" lon="10.644526787392037"><ele>963.0</ele><time>2026-04-16T08:19:51.001Z</time></trkpt><trkpt lat="44.18690559358359" lon="10.644558283632204"><ele>956.0</ele><time>2026-04-16T08:19:52.001Z</time></trkpt><trkpt lat="44.18702746329433" lon="10.64458591435374"><ele>949.0</ele><time>2026-04-16T08:19:53.001Z</time></trkpt><trkpt lat="44.18715265414138" lon="10.644603011136423"><ele>949.0</ele><time>2026-04-16T08:19:54.001Z</time></trkpt><trkpt lat="44.187276695341716" lon="10.644592511325632"><ele>949.0</ele><time>2026-04-16T08:19:55.001Z</time></trkpt><trkpt lat="44.187364103451195" lon="10.64457874379278"><ele>949.0</ele><time>2026-04-16T08:19:56.001Z</time></trkpt><trkpt lat="44.187495021864585" lon="10.644531845751038"><ele>949.0</ele><time>2026-04-16T08:19:57.001Z</time></trkpt><trkpt lat="44.187633180623536" lon="10.644447429762156"><ele>956.3333333333333</ele><time>2026-04-16T08:19:58.001Z</time></trkpt><trkpt lat="44.18777547827354" lon="10.644347226633503"><ele>963.6666666666667</ele><time>2026-04-16T08:19:59.001Z</time></trkpt><trkpt lat="44.187911684064005" lon="10.644217405952165"><ele>971.0</ele><time>2026-04-16T08:20:00.001Z</time></trkpt><trkpt lat="44.18802112550172" lon="10.644102416530693"><ele>971.0</ele><time>2026-04-16T08:20:01.001Z</time></trkpt><trkpt lat="44.1881395695196" lon="10.643986178910364"><ele>971.0</ele><time>2026-04-16T08:20:02.001Z</time></trkpt><trkpt lat="44.188251486296615" lon="10.643860055471766"><ele>971.0</ele><time>2026-04-16T08:20:03.001Z</time></trkpt><trkpt lat="44.1883476057919" lon="10.643709779520595"><ele>971.0</ele><time>2026-04-16T08:20:04.001Z</time></trkpt><trkpt lat="44.1884196910736" lon="10.643533082244216"><ele>968.3333333333334</ele><time>2026-04-16T08:20:05.001Z</time></trkpt><trkpt lat="44.18850184656416" lon="10.643348478963862"><ele>965.6666666666667</ele><time>2026-04-16T08:20:06.001Z</time></trkpt><trkpt lat="44.188586357269514" lon="10.643140309969121"><ele>963.0</ele><time>2026-04-16T08:20:07.001Z</time></trkpt><trkpt lat="44.18869868685189" lon="10.642946818733352"><ele>967.0</ele><time>2026-04-16T08:20:08.001Z</time></trkpt><trkpt lat="44.188817636579955" lon="10.642764543202489"><ele>971.0</ele><time>2026-04-16T08:20:09.001Z</time></trkpt><trkpt lat="44.18892651169955" lon="10.642621159096551"><ele>975.0</ele><time>2026-04-16T08:20:10.001Z</time></trkpt><trkpt lat="44.189024875718104" lon="10.642473067583317"><ele>969.0</ele><time>2026-04-16T08:20:11.001Z</time></trkpt><trkpt lat="44.18910599077116" lon="10.642363273814675"><ele>963.0</ele><time>2026-04-16T08:20:12.001Z</time></trkpt><trkpt lat="44.18918978041562" lon="10.642259406193856"><ele>957.0</ele><time>2026-04-16T08:20:13.001Z</time></trkpt><trkpt lat="44.18922557209277" lon="10.642126950704316"><ele>951.0</ele><time>2026-04-16T08:20:14.001Z</time></trkpt><trkpt lat="44.18922696481258" lon="10.641993199865693"><ele>945.0</ele><time>2026-04-16T08:20:15.001Z</time></trkpt><trkpt lat="44.18920092656941" lon="10.641815147084165"><ele>944.75</ele><time>2026-04-16T08:20:16.001Z</time></trkpt><trkpt lat="44.18915794838939" lon="10.6416485435463"><ele>944.5</ele><time>2026-04-16T08:20:17.001Z</time></trkpt><trkpt lat="44.18909198875308" lon="10.641507930461108"><ele>944.25</ele><time>2026-04-16T08:20:18.001Z</time></trkpt><trkpt lat="44.189004940406726" lon="10.641362637934417"><ele>944.0</ele><time>2026-04-16T08:20:19.001Z</time></trkpt><trkpt lat="44.18890254867535" lon="10.641208656739126"><ele>949.0</ele><time>2026-04-16T08:20:20.001Z</time></trkpt><trkpt lat="44.18879346511512" lon="10.641057825582047"><ele>954.0</ele><time>2026-04-16T08:20:21.001Z</time></trkpt><trkpt lat="44.18867430988943" lon="10.64090263002311"><ele>959.0</ele><time>2026-04-16T08:20:22.001Z</time></trkpt><trkpt lat="44.18858769622904" lon="10.640729597970518"><ele>959.0</ele><time>2026-04-16T08:20:23.001Z</time></trkpt><trkpt lat="44.188513001285784" lon="10.640555287318245"><ele>959.0</ele><time>2026-04-16T08:20:24.001Z</time></trkpt><trkpt lat="44.18844989365375" lon="10.640370637795964"><ele>959.0</ele><time>2026-04-16T08:20:25.001Z</time></trkpt><trkpt lat="44.188408666379836" lon="10.640156756862737"><ele>956.25</ele><time>2026-04-16T08:20:26.001Z</time></trkpt><trkpt lat="44.188377871854456" lon="10.639984723390098"><ele>953.5</ele><time>2026-04-16T08:20:27.001Z</time></trkpt><trkpt lat="44.18836037419963" lon="10.639813524041525"><ele>950.75</ele><time>2026-04-16T08:20:28.001Z</time></trkpt><trkpt lat="44.188397018479236" lon="10.639664153484777"><ele>948.0</ele><time>2026-04-16T08:20:29.001Z</time></trkpt><trkpt lat="44.18842339446058" lon="10.639512483401631"><ele>947.25</ele><time>2026-04-16T08:20:30.001Z</time></trkpt><trkpt lat="44.188448497659145" lon="10.639332308616689"><ele>946.5</ele><time>2026-04-16T08:20:31.001Z</time></trkpt><trkpt lat="44.188452916599815" lon="10.639101308208804"><ele>945.75</ele><time>2026-04-16T08:20:32.001Z</time></trkpt><trkpt lat="44.18847773603484" lon="10.638898066398504"><ele>945.0</ele><time>2026-04-16T08:20:33.001Z</time></trkpt><trkpt lat="44.18850372242659" lon="10.638727641175148"><ele>946.8</ele><time>2026-04-16T08:20:34.001Z</time></trkpt><trkpt lat="44.1885186595702" lon="10.638589645732997"><ele>948.6</ele><time>2026-04-16T08:20:35.001Z</time></trkpt><trkpt lat="44.18856433568477" lon="10.638479269943964"><ele>950.4000000000001</ele><time>2026-04-16T08:20:36.001Z</time></trkpt><trkpt lat="44.18863747267814" lon="10.638430341599845"><ele>952.2</ele><time>2026-04-16T08:20:37.001Z</time></trkpt><trkpt lat="44.18874309468206" lon="10.638371931309692"><ele>954.0</ele><time>2026-04-16T08:20:38.001Z</time></trkpt><trkpt lat="44.18887647183118" lon="10.638270805197545"><ele>943.3333333333333</ele><time>2026-04-16T08:20:39.001Z</time></trkpt><trkpt lat="44.18904581909986" lon="10.638234560674126"><ele>932.6666666666666</ele><time>2026-04-16T08:20:40.001Z</time></trkpt><trkpt lat="44.18919613637722" lon="10.638167587788146"><ele>922.0</ele><time>2026-04-16T08:20:41.001Z</time></trkpt><trkpt lat="44.189342275343115" lon="10.638104570603463"><ele>922.0</ele><time>2026-04-16T08:20:42.001Z</time></trkpt><trkpt lat="44.189459141660784" lon="10.638006975797916"><ele>922.0</ele><time>2026-04-16T08:20:43.001Z</time></trkpt><trkpt lat="44.18954490406896" lon="10.637905901662576"><ele>922.0</ele><time>2026-04-16T08:20:44.001Z</time></trkpt><trkpt lat="44.18960936575009" lon="10.637799420333064"><ele>922.0</ele><time>2026-04-16T08:20:45.002Z</time></trkpt><trkpt lat="44.189658425218994" lon="10.637677954404653"><ele>922.0</ele><time>2026-04-16T08:20:46.002Z</time></trkpt><trkpt lat="44.18970277937186" lon="10.637547835612745"><ele>927.0</ele><time>2026-04-16T08:20:47.002Z</time></trkpt><trkpt lat="44.18973583824069" lon="10.637402773855033"><ele>932.0</ele><time>2026-04-16T08:20:48.002Z</time></trkpt><trkpt lat="44.18977563211034" lon="10.637223181762119"><ele>937.0</ele><time>2026-04-16T08:20:49.002Z</time></trkpt><trkpt lat="44.18980155355106" lon="10.637034503520308"><ele>942.0</ele><time>2026-04-16T08:20:50.002Z</time></trkpt><trkpt lat="44.18981562609206" lon="10.636843331921394"><ele>944.6666666666667</ele><time>2026-04-16T08:20:51.002Z</time></trkpt><trkpt lat="44.189823277150445" lon="10.636632278478308"><ele>947.3333333333334</ele><time>2026-04-16T08:20:52.002Z</time></trkpt><trkpt lat="44.1898325417749" lon="10.636399076675342"><ele>950.0</ele><time>2026-04-16T08:20:53.002Z</time></trkpt><trkpt lat="44.18984319827286" lon="10.636203556380112"><ele>940.25</ele><time>2026-04-16T08:20:54.002Z</time></trkpt><trkpt lat="44.18985923648272" lon="10.636008828110556"><ele>930.5</ele><time>2026-04-16T08:20:55.002Z</time></trkpt><trkpt lat="44.18987840552821" lon="10.635812498829234"><ele>920.75</ele><time>2026-04-16T08:20:56.002Z</time></trkpt><trkpt lat="44.18989982984971" lon="10.635615670964757"><ele>911.0</ele><time>2026-04-16T08:20:57.002Z</time></trkpt><trkpt lat="44.18992303577966" lon="10.635417672015643"><ele>909.6666666666667</ele><time>2026-04-16T08:20:58.002Z</time></trkpt><trkpt lat="44.189946773763275" lon="10.635213225533084"><ele>908.3333333333333</ele><time>2026-04-16T08:20:59.002Z</time></trkpt><trkpt lat="44.189982972327265" lon="10.635002798464992"><ele>907.0</ele><time>2026-04-16T08:21:00.002Z</time></trkpt><trkpt lat="44.18999681157556" lon="10.634766634541624"><ele>907.0</ele><time>2026-04-16T08:21:01.002Z</time></trkpt><trkpt lat="44.18999374249505" lon="10.63451757737715"><ele>907.0</ele><time>2026-04-16T08:21:02.002Z</time></trkpt><trkpt lat="44.18998837508199" lon="10.63431609860525"><ele>907.0</ele><time>2026-04-16T08:21:03.002Z</time></trkpt><trkpt lat="44.18996555719338" lon="10.634118238848004"><ele>905.3333333333333</ele><time>2026-04-16T08:21:04.002Z</time></trkpt><trkpt lat="44.18995489466985" lon="10.63389170699518"><ele>903.6666666666667</ele><time>2026-04-16T08:21:05.002Z</time></trkpt><trkpt lat="44.18995697776067" lon="10.633670041389458"><ele>902.0</ele><time>2026-04-16T08:21:06.002Z</time></trkpt><trkpt lat="44.18997624736329" lon="10.633480079961263"><ele>902.0</ele><time>2026-04-16T08:21:07.002Z</time></trkpt><trkpt lat="44.189973163795386" lon="10.633254032914268"><ele>902.0</ele><time>2026-04-16T08:21:08.002Z</time></trkpt><trkpt lat="44.18997353473469" lon="10.633058358378138"><ele>902.0</ele><time>2026-04-16T08:21:09.002Z</time></trkpt><trkpt lat="44.189991052505526" lon="10.632848285373187"><ele>904.25</ele><time>2026-04-16T08:21:10.002Z</time></trkpt><trkpt lat="44.19004408244811" lon="10.632651442407719"><ele>906.5</ele><time>2026-04-16T08:21:11.002Z</time></trkpt><trkpt lat="44.19011831981686" lon="10.632495457281044"><ele>908.75</ele><time>2026-04-16T08:21:12.002Z</time></trkpt><trkpt lat="44.190205320706866" lon="10.632392344352436"><ele>911.0</ele><time>2026-04-16T08:21:13.002Z</time></trkpt><trkpt lat="44.19031363874286" lon="10.632291067382202"><ele>911.0</ele><time>2026-04-16T08:21:14.002Z</time></trkpt><trkpt lat="44.19040799047782" lon="10.632129677682187"><ele>911.0</ele><time>2026-04-16T08:21:15.002Z</time></trkpt><trkpt lat="44.19051677117782" lon="10.632015206666132"><ele>911.0</ele><time>2026-04-16T08:21:16.002Z</time></trkpt><trkpt lat="44.19061310957996" lon="10.631854519784197"><ele>911.0</ele><time>2026-04-16T08:21:17.002Z</time></trkpt><trkpt lat="44.19066426312431" lon="10.63179084283288"><ele>904.5999999999999</ele><time>2026-04-16T08:21:18.002Z</time></trkpt><trkpt lat="44.190716627273176" lon="10.631718971398373"><ele>898.1999999999999</ele><time>2026-04-16T08:21:19.002Z</time></trkpt><trkpt lat="44.19074838054999" lon="10.631583823709974"><ele>891.8000000000001</ele><time>2026-04-16T08:21:20.002Z</time></trkpt><trkpt lat="44.19075419208293" lon="10.631432771301835"><ele>885.4000000000001</ele><time>2026-04-16T08:21:21.002Z</time></trkpt><trkpt lat="44.190765226718256" lon="10.63128715306372"><ele>879.0</ele><time>2026-04-16T08:21:22.002Z</time></trkpt><trkpt lat="44.19079345083691" lon="10.631145975200104"><ele>881.25</ele><time>2026-04-16T08:21:23.002Z</time></trkpt><trkpt lat="44.19081002377848" lon="10.631043360213422"><ele>883.5</ele><time>2026-04-16T08:21:24.002Z</time></trkpt><trkpt lat="44.19085497255769" lon="10.630885051711978"><ele>885.75</ele><time>2026-04-16T08:21:25.002Z</time></trkpt><trkpt lat="44.19091253985333" lon="10.630726652288057"><ele>888.0</ele><time>2026-04-16T08:21:26.002Z</time></trkpt><trkpt lat="44.19093001958563" lon="10.630540699076764"><ele>888.0</ele><time>2026-04-16T08:21:27.002Z</time></trkpt><trkpt lat="44.19090759984724" lon="10.630360594578999"><ele>888.0</ele><time>2026-04-16T08:21:28.002Z</time></trkpt><trkpt lat="44.19087547500262" lon="10.630207607505003"><ele>888.0</ele><time>2026-04-16T08:21:29.002Z</time></trkpt><trkpt lat="44.19085429387942" lon="10.630043270441059"><ele>888.0</ele><time>2026-04-16T08:21:30.002Z</time></trkpt><trkpt lat="44.19086462688847" lon="10.629891730515634"><ele>887.75</ele><time>2026-04-16T08:21:31.002Z</time></trkpt><trkpt lat="44.19091496799237" lon="10.629716171572937"><ele>887.5</ele><time>2026-04-16T08:21:32.002Z</time></trkpt><trkpt lat="44.190985216188764" lon="10.629542951149872"><ele>887.25</ele><time>2026-04-16T08:21:33.002Z</time></trkpt><trkpt lat="44.191069584839546" lon="10.62936242952756"><ele>887.0</ele><time>2026-04-16T08:21:34.002Z</time></trkpt><trkpt lat="44.19116102636868" lon="10.629179989192535"><ele>887.3333333333334</ele><time>2026-04-16T08:21:35.002Z</time></trkpt><trkpt lat="44.19121994139746" lon="10.628973061409628"><ele>887.6666666666667</ele><time>2026-04-16T08:21:36.002Z</time></trkpt><trkpt lat="44.19126192841091" lon="10.628771402701618"><ele>888.0</ele><time>2026-04-16T08:21:37.002Z</time></trkpt><trkpt lat="44.19129646154176" lon="10.6285596299058"><ele>888.0</ele><time>2026-04-16T08:21:38.002Z</time></trkpt><trkpt lat="44.19132354913317" lon="10.628332046945289"><ele>888.0</ele><time>2026-04-16T08:21:39.002Z</time></trkpt><trkpt lat="44.19136237722438" lon="10.628105128093774"><ele>888.0</ele><time>2026-04-16T08:21:40.002Z</time></trkpt><trkpt lat="44.191413508654676" lon="10.62790337037481"><ele>887.25</ele><time>2026-04-16T08:21:41.001Z</time></trkpt><trkpt lat="44.191473822461745" lon="10.627721881723929"><ele>886.5</ele><time>2026-04-16T08:21:42Z</time></trkpt><trkpt lat="44.19150419071325" lon="10.627520807659236"><ele>885.75</ele><time>2026-04-16T08:21:43Z</time></trkpt><trkpt lat="44.19152639006184" lon="10.627317524802953"><ele>885.0</ele><time>2026-04-16T08:21:44Z</time></trkpt><trkpt lat="44.19154284864263" lon="10.627103971575218"><ele>877.0</ele><time>2026-04-16T08:21:45Z</time></trkpt><trkpt lat="44.19154961514087" lon="10.626892169839225"><ele>869.0</ele><time>2026-04-16T08:21:46Z</time></trkpt><trkpt lat="44.19155384947145" lon="10.62672731488801"><ele>861.0</ele><time>2026-04-16T08:21:47Z</time></trkpt><trkpt lat="44.191545892291586" lon="10.626578734128833"><ele>853.0</ele><time>2026-04-16T08:21:48Z</time></trkpt><trkpt lat="44.19152862731115" lon="10.626431510594736"><ele>855.4999999999999</ele><time>2026-04-16T08:21:49Z</time></trkpt><trkpt lat="44.19148619596743" lon="10.626312540173355"><ele>858.0</ele><time>2026-04-16T08:21:50Z</time></trkpt><trkpt lat="44.19144651626986" lon="10.626195828026756"><ele>860.5</ele><time>2026-04-16T08:21:51Z</time></trkpt><trkpt lat="44.19141692445528" lon="10.626079722680455"><ele>863.0</ele><time>2026-04-16T08:21:52Z</time></trkpt><trkpt lat="44.19138216808383" lon="10.625985748531315"><ele>865.4999999999999</ele><time>2026-04-16T08:21:53Z</time></trkpt><trkpt lat="44.19136959807753" lon="10.625876370283008"><ele>868.0</ele><time>2026-04-16T08:21:54Z</time></trkpt><trkpt lat="44.19144973443043" lon="10.625749460867922"><ele>862.75</ele><time>2026-04-16T08:21:56Z</time></trkpt><trkpt lat="44.19153376623512" lon="10.625663311961695"><ele>857.5</ele><time>2026-04-16T08:21:57Z</time></trkpt><trkpt lat="44.191645269526596" lon="10.62558040752493"><ele>852.25</ele><time>2026-04-16T08:21:58Z</time></trkpt><trkpt lat="44.19176621257722" lon="10.62550871733654"><ele>847.0</ele><time>2026-04-16T08:21:59Z</time></trkpt><trkpt lat="44.1918897634302" lon="10.62543499283864"><ele>847.0</ele><time>2026-04-16T08:22:00Z</time></trkpt><trkpt lat="44.192006763304576" lon="10.625373939461227"><ele>847.0</ele><time>2026-04-16T08:22:01Z</time></trkpt><trkpt lat="44.1921290849464" lon="10.625322992233478"><ele>847.0</ele><time>2026-04-16T08:22:02Z</time></trkpt><trkpt lat="44.192269884305105" lon="10.625270410863841"><ele>847.0</ele><time>2026-04-16T08:22:03Z</time></trkpt><trkpt lat="44.19242073996491" lon="10.625275479152222"><ele>850.6666666666666</ele><time>2026-04-16T08:22:04Z</time></trkpt><trkpt lat="44.19258280172879" lon="10.625249492975259"><ele>854.3333333333333</ele><time>2026-04-16T08:22:05Z</time></trkpt><trkpt lat="44.1927399679114" lon="10.625240138743214"><ele>858.0</ele><time>2026-04-16T08:22:06Z</time></trkpt><trkpt lat="44.19288469555084" lon="10.625234779306314"><ele>858.0</ele><time>2026-04-16T08:22:07Z</time></trkpt><trkpt lat="44.193016179565774" lon="10.62522231661564"><ele>858.0</ele><time>2026-04-16T08:22:08Z</time></trkpt><trkpt lat="44.193122952556905" lon="10.625211194579975"><ele>858.0</ele><time>2026-04-16T08:22:09Z</time></trkpt><trkpt lat="44.19323507592012" lon="10.625192345695977"><ele>858.0</ele><time>2026-04-16T08:22:10Z</time></trkpt><trkpt lat="44.19332756132847" lon="10.625158112940166"><ele>858.0</ele><time>2026-04-16T08:22:11Z</time></trkpt><trkpt lat="44.193398122797134" lon="10.625086202323807"><ele>854.8</ele><time>2026-04-16T08:22:12Z</time></trkpt><trkpt lat="44.193439123175246" lon="10.624969148332841"><ele>851.5999999999999</ele><time>2026-04-16T08:22:13Z</time></trkpt><trkpt lat="44.193450317834824" lon="10.624823243538529"><ele>848.4000000000001</ele><time>2026-04-16T08:22:14Z</time></trkpt><trkpt lat="44.19341577040848" lon="10.624666656313115"><ele>845.2</ele><time>2026-04-16T08:22:15.001Z</time></trkpt><trkpt lat="44.19337899271909" lon="10.624500248328216"><ele>842.0</ele><time>2026-04-16T08:22:16.001Z</time></trkpt><trkpt lat="44.193336457403234" lon="10.624347327865557"><ele>842.0000000000001</ele><time>2026-04-16T08:22:17.001Z</time></trkpt><trkpt lat="44.19330998808945" lon="10.624231341814133"><ele>842.0</ele><time>2026-04-16T08:22:18.001Z</time></trkpt><trkpt lat="44.19329269036887" lon="10.624135105475935"><ele>842.0</ele><time>2026-04-16T08:22:19.001Z</time></trkpt><trkpt lat="44.19329453410726" lon="10.624040143689033"><ele>842.0</ele><time>2026-04-16T08:22:20.001Z</time></trkpt><trkpt lat="44.19331624551695" lon="10.623947839574821"><ele>842.0000000000001</ele><time>2026-04-16T08:22:21.001Z</time></trkpt><trkpt lat="44.19338197344978" lon="10.623892157582784"><ele>842.0</ele><time>2026-04-16T08:22:22.001Z</time></trkpt><trkpt lat="44.193457919497625" lon="10.623829785716099"><ele>842.0</ele><time>2026-04-16T08:22:23.001Z</time></trkpt><trkpt lat="44.19356373693706" lon="10.623778524148776"><ele>842.0</ele><time>2026-04-16T08:22:24.001Z</time></trkpt><trkpt lat="44.19365052535386" lon="10.623717256031416"><ele>842.0</ele><time>2026-04-16T08:22:25.001Z</time></trkpt><trkpt lat="44.193724035054736" lon="10.623652201210362"><ele>842.0</ele><time>2026-04-16T08:22:26.001Z</time></trkpt><trkpt lat="44.19380281979859" lon="10.623565529295153"><ele>842.0</ele><time>2026-04-16T08:22:27.001Z</time></trkpt><trkpt lat="44.193844264117324" lon="10.623441029071909"><ele>845.4000000000001</ele><time>2026-04-16T08:22:28.001Z</time></trkpt><trkpt lat="44.193886680399736" lon="10.623341793678602"><ele>848.8000000000001</ele><time>2026-04-16T08:22:29.001Z</time></trkpt><trkpt lat="44.19393087132791" lon="10.62323845835006"><ele>852.2</ele><time>2026-04-16T08:22:30.001Z</time></trkpt><trkpt lat="44.19401404092978" lon="10.623172225299793"><ele>855.6</ele><time>2026-04-16T08:22:31.001Z</time></trkpt><trkpt lat="44.19411086296678" lon="10.623119060426571"><ele>859.0</ele><time>2026-04-16T08:22:32.001Z</time></trkpt><trkpt lat="44.19420500314162" lon="10.623085502726768"><ele>850.5</ele><time>2026-04-16T08:22:33.001Z</time></trkpt><trkpt lat="44.194333035092654" lon="10.623101089336872"><ele>842.0</ele><time>2026-04-16T08:22:34.001Z</time></trkpt><trkpt lat="44.19444648613309" lon="10.623125508593986"><ele>833.5</ele><time>2026-04-16T08:22:35.001Z</time></trkpt><trkpt lat="44.19454666862242" lon="10.623140179646164"><ele>825.0</ele><time>2026-04-16T08:22:36.001Z</time></trkpt><trkpt lat="44.19465528949074" lon="10.623144132333401"><ele>825.0</ele><time>2026-04-16T08:22:37.001Z</time></trkpt><trkpt lat="44.19475821317827" lon="10.623075338749608"><ele>825.0</ele><time>2026-04-16T08:22:38.001Z</time></trkpt><trkpt lat="44.19482788397172" lon="10.62299833239273"><ele>825.0</ele><time>2026-04-16T08:22:39.001Z</time></trkpt><trkpt lat="44.194881573385025" lon="10.62287670853768"><ele>825.0</ele><time>2026-04-16T08:22:40.001Z</time></trkpt><trkpt lat="44.19493639349493" lon="10.62272817421307"><ele>825.0</ele><time>2026-04-16T08:22:41.001Z</time></trkpt><trkpt lat="44.195001561647445" lon="10.62256205788168"><ele>822.0</ele><time>2026-04-16T08:22:42.001Z</time></trkpt><trkpt lat="44.195067712374964" lon="10.622379778244339"><ele>819.0</ele><time>2026-04-16T08:22:43.001Z</time></trkpt><trkpt lat="44.1951556277411" lon="10.622229501789787"><ele>816.0</ele><time>2026-04-16T08:22:44.001Z</time></trkpt><trkpt lat="44.195241438959904" lon="10.62209804137473"><ele>813.0</ele><time>2026-04-16T08:22:45.001Z</time></trkpt><trkpt lat="44.19532547009021" lon="10.621989940722786"><ele>814.2</ele><time>2026-04-16T08:22:46.001Z</time></trkpt><trkpt lat="44.19540773410075" lon="10.621881555137723"><ele>815.4</ele><time>2026-04-16T08:22:47.001Z</time></trkpt><trkpt lat="44.19548739548822" lon="10.621786828161982"><ele>816.6</ele><time>2026-04-16T08:22:48.001Z</time></trkpt><trkpt lat="44.19553458304019" lon="10.621701247268204"><ele>817.8000000000001</ele><time>2026-04-16T08:22:49.001Z</time></trkpt><trkpt lat="44.19555550915249" lon="10.621585950771436"><ele>819.0</ele><time>2026-04-16T08:22:50.001Z</time></trkpt><trkpt lat="44.195521500664036" lon="10.621476920419685"><ele>819.0</ele><time>2026-04-16T08:22:51.001Z</time></trkpt><trkpt lat="44.1954552134231" lon="10.621359726676157"><ele>819.0</ele><time>2026-04-16T08:22:52.001Z</time></trkpt><trkpt lat="44.19536519901302" lon="10.621246146213622"><ele>819.0</ele><time>2026-04-16T08:22:53.001Z</time></trkpt><trkpt lat="44.19527321023695" lon="10.621129123132048"><ele>819.0</ele><time>2026-04-16T08:22:54.001Z</time></trkpt><trkpt lat="44.1951802088256" lon="10.620985537433885"><ele>815.0</ele><time>2026-04-16T08:22:55.001Z</time></trkpt><trkpt lat="44.19510267249868" lon="10.620833868244183"><ele>811.0</ele><time>2026-04-16T08:22:56.001Z</time></trkpt><trkpt lat="44.195033027406275" lon="10.620685325134918"><ele>807.0</ele><time>2026-04-16T08:22:57.001Z</time></trkpt><trkpt lat="44.19497501185044" lon="10.620531945195308"><ele>803.0</ele><time>2026-04-16T08:22:58.001Z</time></trkpt><trkpt lat="44.19494047284183" lon="10.620369832574488"><ele>801.25</ele><time>2026-04-16T08:22:59.001Z</time></trkpt><trkpt lat="44.19491690930451" lon="10.620189130576497"><ele>799.5</ele><time>2026-04-16T08:23:00.001Z</time></trkpt><trkpt lat="44.19491003923304" lon="10.619997656263322"><ele>797.75</ele><time>2026-04-16T08:23:01.001Z</time></trkpt><trkpt lat="44.19490428619152" lon="10.619789522060234"><ele>796.0</ele><time>2026-04-16T08:23:02.001Z</time></trkpt><trkpt lat="44.194900718324035" lon="10.619609200174427"><ele>794.25</ele><time>2026-04-16T08:23:03.001Z</time></trkpt><trkpt lat="44.19488682217949" lon="10.619437954237853"><ele>792.5</ele><time>2026-04-16T08:23:04.001Z</time></trkpt><trkpt lat="44.19487874766329" lon="10.619277071534784"><ele>790.75</ele><time>2026-04-16T08:23:05.001Z</time></trkpt><trkpt lat="44.19488812468326" lon="10.619128888787111"><ele>789.0</ele><time>2026-04-16T08:23:06.001Z</time></trkpt><trkpt lat="44.19489939056951" lon="10.61894717010741"><ele>789.0</ele><time>2026-04-16T08:23:07.001Z</time></trkpt><trkpt lat="44.19492752750721" lon="10.618785366985325"><ele>789.0</ele><time>2026-04-16T08:23:08.001Z</time></trkpt><trkpt lat="44.19500034385301" lon="10.618640568793445"><ele>789.0</ele><time>2026-04-16T08:23:09.001Z</time></trkpt><trkpt lat="44.1950713104906" lon="10.618461570849188"><ele>789.0</ele><time>2026-04-16T08:23:10.001Z</time></trkpt><trkpt lat="44.19515846361706" lon="10.618294591700657"><ele>786.5</ele><time>2026-04-16T08:23:11.001Z</time></trkpt><trkpt lat="44.19524828996985" lon="10.618113472342868"><ele>784.0</ele><time>2026-04-16T08:23:12.001Z</time></trkpt><trkpt lat="44.195330375195226" lon="10.617935807620654"><ele>781.5</ele><time>2026-04-16T08:23:13.001Z</time></trkpt><trkpt lat="44.195421862707974" lon="10.617832042266453"><ele>779.0</ele><time>2026-04-16T08:23:14.002Z</time></trkpt><trkpt lat="44.195484684709555" lon="10.617713114459566"><ele>779.0000000000001</ele><time>2026-04-16T08:23:15.002Z</time></trkpt><trkpt lat="44.195541855511145" lon="10.617609815345652"><ele>779.0</ele><time>2026-04-16T08:23:16.002Z</time></trkpt><trkpt lat="44.19560689138" lon="10.617523726947706"><ele>779.0</ele><time>2026-04-16T08:23:17.002Z</time></trkpt><trkpt lat="44.19567611532732" lon="10.617465601058255"><ele>779.0</ele><time>2026-04-16T08:23:18.002Z</time></trkpt><trkpt lat="44.195750461848675" lon="10.617501901699294"><ele>779.0000000000001</ele><time>2026-04-16T08:23:19.002Z</time></trkpt><trkpt lat="44.19582652882317" lon="10.617571753354406"><ele>779.0</ele><time>2026-04-16T08:23:20.002Z</time></trkpt><trkpt lat="44.19593151774315" lon="10.617660240202836"><ele>777.3333333333334</ele><time>2026-04-16T08:23:21.002Z</time></trkpt><trkpt lat="44.19605959758037" lon="10.617767115346364"><ele>775.6666666666667</ele><time>2026-04-16T08:23:22.002Z</time></trkpt><trkpt lat="44.196185586489065" lon="10.617873355794549"><ele>774.0</ele><time>2026-04-16T08:23:23.002Z</time></trkpt><trkpt lat="44.19632191804405" lon="10.617986446958003"><ele>774.0</ele><time>2026-04-16T08:23:24.002Z</time></trkpt><trkpt lat="44.196462082550305" lon="10.618102958360693"><ele>774.0</ele><time>2026-04-16T08:23:25.002Z</time></trkpt><trkpt lat="44.196609611147146" lon="10.618228679604705"><ele>774.0</ele><time>2026-04-16T08:23:26.002Z</time></trkpt><trkpt lat="44.19674137039122" lon="10.618344590980543"><ele>773.0</ele><time>2026-04-16T08:23:27.002Z</time></trkpt><trkpt lat="44.196863659605285" lon="10.618495927444151"><ele>772.0</ele><time>2026-04-16T08:23:28.002Z</time></trkpt><trkpt lat="44.19696095915259" lon="10.618670063127565"><ele>771.0</ele><time>2026-04-16T08:23:29.002Z</time></trkpt><trkpt lat="44.19706134255516" lon="10.618846598331965"><ele>771.0</ele><time>2026-04-16T08:23:30.002Z</time></trkpt><trkpt lat="44.197186748052346" lon="10.619023692885573"><ele>771.0</ele><time>2026-04-16T08:23:31.002Z</time></trkpt><trkpt lat="44.197321773304964" lon="10.619178266783877"><ele>771.0</ele><time>2026-04-16T08:23:32.002Z</time></trkpt><trkpt lat="44.197446231681745" lon="10.61931318560218"><ele>770.25</ele><time>2026-04-16T08:23:33.002Z</time></trkpt><trkpt lat="44.19756265909922" lon="10.619434718931386"><ele>769.5</ele><time>2026-04-16T08:23:34.002Z</time></trkpt><trkpt lat="44.19767761524671" lon="10.619545107750906"><ele>768.75</ele><time>2026-04-16T08:23:35.002Z</time></trkpt><trkpt lat="44.197785740306365" lon="10.619633368698272"><ele>768.0</ele><time>2026-04-16T08:23:36.002Z</time></trkpt><trkpt lat="44.19788394398463" lon="10.619698954291787"><ele>768.0</ele><time>2026-04-16T08:23:37.002Z</time></trkpt><trkpt lat="44.1979782591623" lon="10.61973572242132"><ele>768.0</ele><time>2026-04-16T08:23:38.002Z</time></trkpt><trkpt lat="44.19808102027762" lon="10.61975479183081"><ele>768.0</ele><time>2026-04-16T08:23:39.002Z</time></trkpt><trkpt lat="44.19819937539371" lon="10.619716230564018"><ele>768.0</ele><time>2026-04-16T08:23:40.002Z</time></trkpt><trkpt lat="44.19831966889541" lon="10.619642411455725"><ele>768.25</ele><time>2026-04-16T08:23:41.002Z</time></trkpt><trkpt lat="44.19844528391329" lon="10.619582884674296"><ele>768.5</ele><time>2026-04-16T08:23:42.002Z</time></trkpt><trkpt lat="44.198583122417006" lon="10.61953456823423"><ele>768.75</ele><time>2026-04-16T08:23:43.002Z</time></trkpt><trkpt lat="44.19872233866087" lon="10.6195278277051"><ele>769.0</ele><time>2026-04-16T08:23:44.002Z</time></trkpt><trkpt lat="44.198851466719205" lon="10.619492088034994"><ele>771.25</ele><time>2026-04-16T08:23:45.002Z</time></trkpt><trkpt lat="44.19897070988476" lon="10.619391910235018"><ele>773.5</ele><time>2026-04-16T08:23:46.002Z</time></trkpt><trkpt lat="44.19907192599486" lon="10.619247682227046"><ele>775.75</ele><time>2026-04-16T08:23:47.001Z</time></trkpt><trkpt lat="44.199176083451576" lon="10.61909520857914"><ele>778.0</ele><time>2026-04-16T08:23:48Z</time></trkpt><trkpt lat="44.1992768409079" lon="10.618957936793937"><ele>778.0</ele><time>2026-04-16T08:23:49Z</time></trkpt><trkpt lat="44.199399260290214" lon="10.618874158062473"><ele>778.0</ele><time>2026-04-16T08:23:50Z</time></trkpt><trkpt lat="44.199527162153416" lon="10.618795688380313"><ele>778.0</ele><time>2026-04-16T08:23:51Z</time></trkpt><trkpt lat="44.19966751687122" lon="10.618701859946801"><ele>778.0</ele><time>2026-04-16T08:23:52Z</time></trkpt><trkpt lat="44.19980634104821" lon="10.618593677402936"><ele>778.5</ele><time>2026-04-16T08:23:53Z</time></trkpt><trkpt lat="44.19993366173481" lon="10.618490269026564"><ele>779.0</ele><time>2026-04-16T08:23:54Z</time></trkpt><trkpt lat="44.20005681479274" lon="10.618379602182424"><ele>779.5</ele><time>2026-04-16T08:23:55Z</time></trkpt><trkpt lat="44.200168991504285" lon="10.61829841585666"><ele>780.0</ele><time>2026-04-16T08:23:56Z</time></trkpt><trkpt lat="44.20026693835403" lon="10.61816608278518"><ele>780.0</ele><time>2026-04-16T08:23:57Z</time></trkpt><trkpt lat="44.20039372955075" lon="10.618137892699197"><ele>780.0</ele><time>2026-04-16T08:23:58Z</time></trkpt><trkpt lat="44.20052877928145" lon="10.618134990866597"><ele>780.0</ele><time>2026-04-16T08:23:59Z</time></trkpt><trkpt lat="44.200646594954776" lon="10.618109855548832"><ele>780.0</ele><time>2026-04-16T08:24:00Z</time></trkpt><trkpt lat="44.200759881432646" lon="10.618166023814947"><ele>779.6</ele><time>2026-04-16T08:24:01Z</time></trkpt><trkpt lat="44.20085231821302" lon="10.618087080417972"><ele>779.2</ele><time>2026-04-16T08:24:02.001Z</time></trkpt><trkpt lat="44.200908832117605" lon="10.61794644412446"><ele>778.8</ele><time>2026-04-16T08:24:03.001Z</time></trkpt><trkpt lat="44.20093206946067" lon="10.617813974791687"><ele>778.4</ele><time>2026-04-16T08:24:04.001Z</time></trkpt><trkpt lat="44.20091602767844" lon="10.617649432265067"><ele>778.0</ele><time>2026-04-16T08:24:05.001Z</time></trkpt><trkpt lat="44.20088343960382" lon="10.617484674193493"><ele>777.8</ele><time>2026-04-16T08:24:06.001Z</time></trkpt><trkpt lat="44.2008188793733" lon="10.617330059600008"><ele>777.5999999999999</ele><time>2026-04-16T08:24:07.001Z</time></trkpt><trkpt lat="44.20075839395266" lon="10.617193274688983"><ele>777.4000000000001</ele><time>2026-04-16T08:24:08.001Z</time></trkpt><trkpt lat="44.20071243647206" lon="10.61705875316688"><ele>777.2</ele><time>2026-04-16T08:24:09.001Z</time></trkpt><trkpt lat="44.200707362745014" lon="10.61692840433862"><ele>777.0</ele><time>2026-04-16T08:24:10.001Z</time></trkpt><trkpt lat="44.200720600196576" lon="10.616777419541643"><ele>777.0</ele><time>2026-04-16T08:24:11.001Z</time></trkpt><trkpt lat="44.200757402861434" lon="10.616627519074353"><ele>777.0</ele><time>2026-04-16T08:24:12.001Z</time></trkpt><trkpt lat="44.20081817817741" lon="10.616469758511409"><ele>777.0</ele><time>2026-04-16T08:24:13.001Z</time></trkpt><trkpt lat="44.20087686991879" lon="10.616281480657863"><ele>777.0</ele><time>2026-04-16T08:24:14.001Z</time></trkpt><trkpt lat="44.200932676608176" lon="10.616114121506625"><ele>777.0</ele><time>2026-04-16T08:24:15.001Z</time></trkpt><trkpt lat="44.200996433419995" lon="10.615937013257485"><ele>777.0</ele><time>2026-04-16T08:24:16.001Z</time></trkpt><trkpt lat="44.201037752113805" lon="10.61577910636588"><ele>777.0</ele><time>2026-04-16T08:24:17.001Z</time></trkpt><trkpt lat="44.20106338636395" lon="10.615645031777639"><ele>777.0</ele><time>2026-04-16T08:24:18.001Z</time></trkpt><trkpt lat="44.20109490304131" lon="10.615550387140006"><ele>777.0</ele><time>2026-04-16T08:24:19.001Z</time></trkpt><trkpt lat="44.20113193861534" lon="10.615412294394016"><ele>778.0</ele><time>2026-04-16T08:24:21.001Z</time></trkpt><trkpt lat="44.20116110393663" lon="10.615302589702287"><ele>779.0</ele><time>2026-04-16T08:24:23.001Z</time></trkpt><trkpt lat="44.201104348553194" lon="10.615159381205263"><ele>780.0</ele><time>2026-04-16T08:24:25.001Z</time></trkpt><trkpt lat="44.20104494617725" lon="10.615078466415406"><ele>781.0</ele><time>2026-04-16T08:24:26.001Z</time></trkpt><trkpt lat="44.200988704601095" lon="10.614973891651957"><ele>782.0</ele><time>2026-04-16T08:24:27.001Z</time></trkpt><trkpt lat="44.20095099337303" lon="10.614873530418835"><ele>782.0</ele><time>2026-04-16T08:24:28.001Z</time></trkpt><trkpt lat="44.20091822529689" lon="10.614747884241835"><ele>782.0</ele><time>2026-04-16T08:24:29.001Z</time></trkpt><trkpt lat="44.20087722245975" lon="10.614603830694731"><ele>782.0</ele><time>2026-04-16T08:24:30.001Z</time></trkpt><trkpt lat="44.200829452866905" lon="10.614446727395931"><ele>782.0</ele><time>2026-04-16T08:24:31.001Z</time></trkpt><trkpt lat="44.20079309546746" lon="10.614289409709647"><ele>782.0</ele><time>2026-04-16T08:24:32.001Z</time></trkpt><trkpt lat="44.20075565044542" lon="10.614139302084592"><ele>781.5</ele><time>2026-04-16T08:24:33.001Z</time></trkpt><trkpt lat="44.200731701755075" lon="10.613971457900249"><ele>781.0</ele><time>2026-04-16T08:24:34.001Z</time></trkpt><trkpt lat="44.200715719329416" lon="10.613801144289134"><ele>780.5</ele><time>2026-04-16T08:24:35.001Z</time></trkpt><trkpt lat="44.20072428883716" lon="10.613631954767632"><ele>780.0</ele><time>2026-04-16T08:24:36.001Z</time></trkpt><trkpt lat="44.200748836723605" lon="10.61347656955975"><ele>779.6</ele><time>2026-04-16T08:24:37.001Z</time></trkpt><trkpt lat="44.20077009539261" lon="10.613356556631404"><ele>779.2</ele><time>2026-04-16T08:24:38.001Z</time></trkpt><trkpt lat="44.200779962475025" lon="10.613232907446658"><ele>778.8</ele><time>2026-04-16T08:24:39.001Z</time></trkpt><trkpt lat="44.20077986597544" lon="10.613115111346515"><ele>778.4</ele><time>2026-04-16T08:24:40.001Z</time></trkpt><trkpt lat="44.200732864122614" lon="10.61296621601054"><ele>778.0</ele><time>2026-04-16T08:24:42.001Z</time></trkpt><trkpt lat="44.200632426037124" lon="10.612840819959668"><ele>781.1666666666666</ele><time>2026-04-16T08:24:44.001Z</time></trkpt><trkpt lat="44.20057007391089" lon="10.61275869056453"><ele>784.3333333333333</ele><time>2026-04-16T08:24:45.001Z</time></trkpt><trkpt lat="44.20050353237833" lon="10.612671207339748"><ele>787.5</ele><time>2026-04-16T08:24:46.001Z</time></trkpt><trkpt lat="44.20045359432197" lon="10.61257434456289"><ele>790.6666666666667</ele><time>2026-04-16T08:24:47.001Z</time></trkpt><trkpt lat="44.20042247948147" lon="10.612462644002195"><ele>793.8333333333334</ele><time>2026-04-16T08:24:48.001Z</time></trkpt><trkpt lat="44.200395994002726" lon="10.612337036611251"><ele>797.0</ele><time>2026-04-16T08:24:49.001Z</time></trkpt><trkpt lat="44.200377583177335" lon="10.612202464702568"><ele>797.0000000000001</ele><time>2026-04-16T08:24:50.001Z</time></trkpt><trkpt lat="44.20035120368174" lon="10.612076114447724"><ele>797.0</ele><time>2026-04-16T08:24:51.001Z</time></trkpt><trkpt lat="44.200371596828134" lon="10.611969014553972"><ele>797.0</ele><time>2026-04-16T08:24:52.001Z</time></trkpt><trkpt lat="44.20037143641244" lon="10.611863017983373"><ele>797.0</ele><time>2026-04-16T08:24:53.001Z</time></trkpt><trkpt lat="44.200377489965696" lon="10.611687632090666"><ele>797.0000000000001</ele><time>2026-04-16T08:24:55.001Z</time></trkpt><trkpt lat="44.200364260701484" lon="10.611591252197586"><ele>797.0</ele><time>2026-04-16T08:24:56.001Z</time></trkpt><trkpt lat="44.20035751640603" lon="10.611497311328824"><ele>796.2</ele><time>2026-04-16T08:24:57.002Z</time></trkpt><trkpt lat="44.20029499303213" lon="10.611357664872413"><ele>795.4000000000001</ele><time>2026-04-16T08:24:59.002Z</time></trkpt><trkpt lat="44.200224249386274" lon="10.611214312155786"><ele>794.5999999999999</ele><time>2026-04-16T08:25:01.002Z</time></trkpt><trkpt lat="44.20017688575017" lon="10.611138508128134"><ele>793.8</ele><time>2026-04-16T08:25:02.002Z</time></trkpt><trkpt lat="44.200117559293005" lon="10.611042132608697"><ele>793.0</ele><time>2026-04-16T08:25:03.002Z</time></trkpt><trkpt lat="44.20007055777083" lon="10.6109590524929"><ele>792.4</ele><time>2026-04-16T08:25:04.002Z</time></trkpt><trkpt lat="44.2000182023853" lon="10.610872934496411"><ele>791.8</ele><time>2026-04-16T08:25:05.002Z</time></trkpt><trkpt lat="44.19995413158975" lon="10.610728869511046"><ele>791.2</ele><time>2026-04-16T08:25:06.002Z</time></trkpt><trkpt lat="44.19989963006432" lon="10.610629300678971"><ele>790.6</ele><time>2026-04-16T08:25:07.002Z</time></trkpt><trkpt lat="44.1998579173226" lon="10.610533532165624"><ele>790.0</ele><time>2026-04-16T08:25:08.002Z</time></trkpt><trkpt lat="44.19979538820095" lon="10.610447689961918"><ele>791.1666666666666</ele><time>2026-04-16T08:25:09.002Z</time></trkpt><trkpt lat="44.199737197715194" lon="10.610391915736708"><ele>792.3333333333333</ele><time>2026-04-16T08:25:10.002Z</time></trkpt><trkpt lat="44.19966928640225" lon="10.610344254798118"><ele>793.5</ele><time>2026-04-16T08:25:11.002Z</time></trkpt><trkpt lat="44.19958568104883" lon="10.610318857966172"><ele>794.6666666666667</ele><time>2026-04-16T08:25:12.002Z</time></trkpt><trkpt lat="44.19950488671006" lon="10.610266123085633"><ele>795.8333333333334</ele><time>2026-04-16T08:25:13.002Z</time></trkpt><trkpt lat="44.1994225915601" lon="10.610229970112968"><ele>797.0</ele><time>2026-04-16T08:25:14.002Z</time></trkpt><trkpt lat="44.19933863155495" lon="10.6102100261703"><ele>797.0000000000001</ele><time>2026-04-16T08:25:15.002Z</time></trkpt><trkpt lat="44.19925278217686" lon="10.610207718960629"><ele>797.0</ele><time>2026-04-16T08:25:16.002Z</time></trkpt><trkpt lat="44.1991786315413" lon="10.610182379191679"><ele>797.0</ele><time>2026-04-16T08:25:17.002Z</time></trkpt><trkpt lat="44.199113601514696" lon="10.610163112178249"><ele>797.0</ele><time>2026-04-16T08:25:18.002Z</time></trkpt><trkpt lat="44.19904672977241" lon="10.610148924399427"><ele>797.0000000000001</ele><time>2026-04-16T08:25:19.002Z</time></trkpt><trkpt lat="44.19893673490947" lon="10.610129597640954"><ele>797.0</ele><time>2026-04-16T08:25:21.002Z</time></trkpt><trkpt lat="44.19882608824324" lon="10.610118368853236"><ele>798.8333333333334</ele><time>2026-04-16T08:25:23.002Z</time></trkpt><trkpt lat="44.19872448552612" lon="10.61009994536549"><ele>800.6666666666667</ele><time>2026-04-16T08:25:25.002Z</time></trkpt><trkpt lat="44.19865432633616" lon="10.610090667817854"><ele>802.5</ele><time>2026-04-16T08:25:26.002Z</time></trkpt><trkpt lat="44.19857352676557" lon="10.61006549715589"><ele>804.3333333333333</ele><time>2026-04-16T08:25:27.002Z</time></trkpt><trkpt lat="44.198502961235555" lon="10.610027902109618"><ele>806.1666666666666</ele><time>2026-04-16T08:25:28.002Z</time></trkpt><trkpt lat="44.19843209454722" lon="10.609991002189677"><ele>808.0</ele><time>2026-04-16T08:25:29.002Z</time></trkpt><trkpt lat="44.19837305005684" lon="10.609951203017067"><ele>808.0</ele><time>2026-04-16T08:25:30.002Z</time></trkpt><trkpt lat="44.19829158146273" lon="10.60986415995255"><ele>808.0</ele><time>2026-04-16T08:25:32.002Z</time></trkpt><trkpt lat="44.19824398189841" lon="10.609795483464948"><ele>808.0</ele><time>2026-04-16T08:25:34.002Z</time></trkpt><trkpt lat="44.19817618856381" lon="10.60979188134808"><ele>808.0</ele><time>2026-04-16T08:26:29.001Z</time></trkpt><trkpt lat="44.19824469159929" lon="10.609739038377192"><ele>808.0</ele><time>2026-04-16T08:28:37.14Z</time></trkpt><trkpt lat="44.19815642292776" lon="10.610017930148363"><ele>808.0</ele><time>2026-04-16T08:28:55.003Z</time></trkpt><trkpt lat="44.19817886946531" lon="10.609864543815858"><ele>808.0</ele><time>2026-04-16T08:29:09Z</time></trkpt><trkpt lat="44.198202999339706" lon="10.609782587722998"><ele>808.0</ele><time>2026-04-16T08:29:34.143Z</time></trkpt><trkpt lat="44.19815947604336" lon="10.609716545908494"><ele>808.0</ele><time>2026-04-16T08:30:22.14Z</time></trkpt><trkpt lat="44.19829339827728" lon="10.609956816276402"><ele>808.0</ele><time>2026-04-16T08:30:44.451Z</time></trkpt><trkpt lat="44.19821199401755" lon="10.609881915204292"><ele>808.0</ele><time>2026-04-16T08:30:56.375Z</time></trkpt><trkpt lat="44.19824923204997" lon="10.609798816020685"><ele>808.0</ele><time>2026-04-16T08:31:32.001Z</time></trkpt><trkpt lat="44.19819203076037" lon="10.609851619254227"><ele>808.0</ele><time>2026-04-16T08:31:43.001Z</time></trkpt><trkpt lat="44.19799558847261" lon="10.609885617417888"><ele>808.0</ele><time>2026-04-16T08:32:44.002Z</time></trkpt><trkpt lat="44.19800376410139" lon="10.609747535115238"><ele>807.9999999999999</ele><time>2026-04-16T08:33:15.002Z</time></trkpt><trkpt lat="44.19809325098478" lon="10.609779994384645"><ele>808.0</ele><time>2026-04-16T08:33:30Z</time></trkpt><trkpt lat="44.19806674815458" lon="10.609873295250273"><ele>808.0</ele><time>2026-04-16T08:34:01.001Z</time></trkpt><trkpt lat="44.198117077018225" lon="10.609988485444594"><ele>808.0</ele><time>2026-04-16T08:35:13.002Z</time></trkpt><trkpt lat="44.19818888386579" lon="10.609941285134747"><ele>807.9999999999999</ele><time>2026-04-16T08:36:38.001Z</time></trkpt><trkpt lat="44.19813835143873" lon="10.610027848514704"><ele>808.0</ele><time>2026-04-16T08:38:15Z</time></trkpt><trkpt lat="44.198159266158" lon="10.60994314948507"><ele>807.9999999999999</ele><time>2026-04-16T08:38:28.001Z</time></trkpt><trkpt lat="44.198218170985974" lon="10.609855559996747"><ele>808.0</ele><time>2026-04-16T08:38:51.001Z</time></trkpt><trkpt lat="44.198179195441774" lon="10.609932114022115"><ele>808.0</ele><time>2026-04-16T08:40:06.001Z</time></trkpt><trkpt lat="44.198265526615245" lon="10.610027741785604"><ele>808.0</ele><time>2026-04-16T08:40:08.001Z</time></trkpt><trkpt lat="44.198338094367" lon="10.610063676955127"><ele>807.9999999999999</ele><time>2026-04-16T08:40:09.001Z</time></trkpt><trkpt lat="44.1984171620811" lon="10.61011465076351"><ele>808.0</ele><time>2026-04-16T08:40:10.001Z</time></trkpt><trkpt lat="44.19851307766025" lon="10.610181444888829"><ele>808.0</ele><time>2026-04-16T08:40:11.001Z</time></trkpt><trkpt lat="44.19860390750736" lon="10.610231496669188"><ele>808.0</ele><time>2026-04-16T08:40:12.001Z</time></trkpt><trkpt lat="44.19871063800594" lon="10.610250098048496"><ele>808.0</ele><time>2026-04-16T08:40:13.001Z</time></trkpt><trkpt lat="44.19879707327803" lon="10.610234113060011"><ele>808.0</ele><time>2026-04-16T08:40:14.001Z</time></trkpt><trkpt lat="44.19888206583873" lon="10.61022542430851"><ele>808.0</ele><time>2026-04-16T08:40:15.001Z</time></trkpt><trkpt lat="44.1989664717541" lon="10.610208588979992"><ele>805.8</ele><time>2026-04-16T08:40:16.001Z</time></trkpt><trkpt lat="44.19907026058453" lon="10.610214561900525"><ele>803.5999999999999</ele><time>2026-04-16T08:40:17.001Z</time></trkpt><trkpt lat="44.19917520211076" lon="10.610220680302131"><ele>801.4000000000001</ele><time>2026-04-16T08:40:18.001Z</time></trkpt><trkpt lat="44.199286094245906" lon="10.610220522187541"><ele>799.2</ele><time>2026-04-16T08:40:19.001Z</time></trkpt><trkpt lat="44.19939778520561" lon="10.61027521371184"><ele>797.0</ele><time>2026-04-16T08:40:20.001Z</time></trkpt><trkpt lat="44.199494803345054" lon="10.61031107912101"><ele>798.0000000000001</ele><time>2026-04-16T08:40:21.001Z</time></trkpt><trkpt lat="44.19958565544426" lon="10.610324942023405"><ele>799.0</ele><time>2026-04-16T08:40:22.001Z</time></trkpt><trkpt lat="44.19966331064752" lon="10.610391929887186"><ele>800.0</ele><time>2026-04-16T08:40:23.001Z</time></trkpt><trkpt lat="44.19973355837119" lon="10.61044242828746"><ele>801.0</ele><time>2026-04-16T08:40:24.001Z</time></trkpt><trkpt lat="44.19980721797194" lon="10.610490647793904"><ele>802.0000000000001</ele><time>2026-04-16T08:40:25.001Z</time></trkpt><trkpt lat="44.19985299675849" lon="10.610597698462515"><ele>803.0</ele><time>2026-04-16T08:40:26.001Z</time></trkpt><trkpt lat="44.199904552277204" lon="10.610692975475716"><ele>800.5</ele><time>2026-04-16T08:40:27.001Z</time></trkpt><trkpt lat="44.1999509837252" lon="10.61081263463747"><ele>798.0</ele><time>2026-04-16T08:40:28.001Z</time></trkpt><trkpt lat="44.20001804467425" lon="10.61097283556834"><ele>795.5</ele><time>2026-04-16T08:40:29.001Z</time></trkpt><trkpt lat="44.2000911428611" lon="10.611114552502194"><ele>793.0</ele><time>2026-04-16T08:40:30.001Z</time></trkpt><trkpt lat="44.200155477889965" lon="10.611253831221113"><ele>793.0</ele><time>2026-04-16T08:40:31.001Z</time></trkpt><trkpt lat="44.200208593276024" lon="10.611359340258117"><ele>793.0</ele><time>2026-04-16T08:40:32.001Z</time></trkpt><trkpt lat="44.20025478201153" lon="10.611470980896572"><ele>793.0</ele><time>2026-04-16T08:40:33.001Z</time></trkpt><trkpt lat="44.200309996440616" lon="10.611584340654924"><ele>793.0</ele><time>2026-04-16T08:40:34.001Z</time></trkpt><trkpt lat="44.20034925450231" lon="10.611701618000332"><ele>793.0</ele><time>2026-04-16T08:40:35.001Z</time></trkpt><trkpt lat="44.20034468518131" lon="10.611848725100142"><ele>793.8</ele><time>2026-04-16T08:40:36.001Z</time></trkpt><trkpt lat="44.20033414972781" lon="10.611992075407972"><ele>794.5999999999999</ele><time>2026-04-16T08:40:37.001Z</time></trkpt><trkpt lat="44.200324775864665" lon="10.61213582164716"><ele>795.4000000000001</ele><time>2026-04-16T08:40:38.001Z</time></trkpt><trkpt lat="44.20032719894582" lon="10.612284525906325"><ele>796.2</ele><time>2026-04-16T08:40:39.001Z</time></trkpt><trkpt lat="44.20034312364153" lon="10.612407632101311"><ele>797.0</ele><time>2026-04-16T08:40:40.001Z</time></trkpt><trkpt lat="44.200391390771024" lon="10.612541423406817"><ele>797.0000000000001</ele><time>2026-04-16T08:40:41.002Z</time></trkpt><trkpt lat="44.200441949813495" lon="10.61264740731376"><ele>797.0</ele><time>2026-04-16T08:40:42.002Z</time></trkpt><trkpt lat="44.20050085509732" lon="10.612750900288132"><ele>797.0</ele><time>2026-04-16T08:40:43.002Z</time></trkpt><trkpt lat="44.20056985608125" lon="10.612841816709965"><ele>797.0</ele><time>2026-04-16T08:40:44.002Z</time></trkpt><trkpt lat="44.20063165284309" lon="10.61290836427709"><ele>797.0000000000001</ele><time>2026-04-16T08:40:45.002Z</time></trkpt><trkpt lat="44.20069208730919" lon="10.612977999993495"><ele>797.0</ele><time>2026-04-16T08:40:46.002Z</time></trkpt><trkpt lat="44.20072869406491" lon="10.613050766144923"><ele>793.6</ele><time>2026-04-16T08:40:47.002Z</time></trkpt><trkpt lat="44.20074448902125" lon="10.61315593121167"><ele>790.2</ele><time>2026-04-16T08:40:48.002Z</time></trkpt><trkpt lat="44.20073478824379" lon="10.613276555730705"><ele>786.8</ele><time>2026-04-16T08:40:49.002Z</time></trkpt><trkpt lat="44.20072018448204" lon="10.613428903576489"><ele>783.4</ele><time>2026-04-16T08:40:50.002Z</time></trkpt><trkpt lat="44.2006986412975" lon="10.613588315803435"><ele>780.0</ele><time>2026-04-16T08:40:51.002Z</time></trkpt><trkpt lat="44.20068176906866" lon="10.613756764533274"><ele>780.0</ele><time>2026-04-16T08:40:52.002Z</time></trkpt><trkpt lat="44.20068507073419" lon="10.613919300379116"><ele>780.0</ele><time>2026-04-16T08:40:53.002Z</time></trkpt><trkpt lat="44.20070624175513" lon="10.614076632696074"><ele>780.0</ele><time>2026-04-16T08:40:54.002Z</time></trkpt><trkpt lat="44.20074839093848" lon="10.614235990617173"><ele>780.0</ele><time>2026-04-16T08:40:55.002Z</time></trkpt><trkpt lat="44.200799565349044" lon="10.614409220387728"><ele>780.4</ele><time>2026-04-16T08:40:56.002Z</time></trkpt><trkpt lat="44.20083157352453" lon="10.614575640583382"><ele>780.8</ele><time>2026-04-16T08:40:57.002Z</time></trkpt><trkpt lat="44.200871376995046" lon="10.614709418108294"><ele>781.2</ele><time>2026-04-16T08:40:58.002Z</time></trkpt><trkpt lat="44.20090160162147" lon="10.614817484974234"><ele>781.6</ele><time>2026-04-16T08:40:59.002Z</time></trkpt><trkpt lat="44.200928426176894" lon="10.614913245877029"><ele>782.0</ele><time>2026-04-16T08:41:00.002Z</time></trkpt><trkpt lat="44.20096559107418" lon="10.615059077680279"><ele>782.0000000000001</ele><time>2026-04-16T08:41:02.002Z</time></trkpt><trkpt lat="44.20099386239959" lon="10.615179508173114"><ele>782.0</ele><time>2026-04-16T08:41:04.002Z</time></trkpt><trkpt lat="44.201023504896625" lon="10.61528523471187"><ele>782.0</ele><time>2026-04-16T08:41:07.002Z</time></trkpt><trkpt lat="44.20107182670917" lon="10.615378592906612"><ele>782.0</ele><time>2026-04-16T08:41:10.002Z</time></trkpt><trkpt lat="44.20101487482087" lon="10.615484816808895"><ele>782.0000000000001</ele><time>2026-04-16T08:41:11.002Z</time></trkpt><trkpt lat="44.200986415845186" lon="10.615569362151454"><ele>782.0</ele><time>2026-04-16T08:41:13.002Z</time></trkpt><trkpt lat="44.200955364538835" lon="10.615655750595518"><ele>781.0</ele><time>2026-04-16T08:41:15.002Z</time></trkpt><trkpt lat="44.20090578480577" lon="10.615779478707292"><ele>780.0</ele><time>2026-04-16T08:41:17.002Z</time></trkpt><trkpt lat="44.2008774513592" lon="10.6158768102697"><ele>779.0</ele><time>2026-04-16T08:41:18.002Z</time></trkpt><trkpt lat="44.20084774770755" lon="10.615984013616066"><ele>778.0</ele><time>2026-04-16T08:41:19.002Z</time></trkpt><trkpt lat="44.20082497215044" lon="10.616114782636433"><ele>777.0</ele><time>2026-04-16T08:41:20.002Z</time></trkpt><trkpt lat="44.200789910353784" lon="10.61625747197756"><ele>776.2</ele><time>2026-04-16T08:41:21.002Z</time></trkpt><trkpt lat="44.200743531761525" lon="10.616393603395247"><ele>775.4000000000001</ele><time>2026-04-16T08:41:22.002Z</time></trkpt><trkpt lat="44.200710128454" lon="10.616552322685225"><ele>774.5999999999999</ele><time>2026-04-16T08:41:23.002Z</time></trkpt><trkpt lat="44.200679073360874" lon="10.616696520459191"><ele>773.8</ele><time>2026-04-16T08:41:24.002Z</time></trkpt><trkpt lat="44.200659778728884" lon="10.61682719353468"><ele>773.0</ele><time>2026-04-16T08:41:25.002Z</time></trkpt><trkpt lat="44.200654623978174" lon="10.616938802832152"><ele>773.8</ele><time>2026-04-16T08:41:26.002Z</time></trkpt><trkpt lat="44.20066947066091" lon="10.61705692550691"><ele>774.5999999999999</ele><time>2026-04-16T08:41:27.002Z</time></trkpt><trkpt lat="44.20070644548362" lon="10.61718698007651"><ele>775.4000000000001</ele><time>2026-04-16T08:41:28.002Z</time></trkpt><trkpt lat="44.20075515095429" lon="10.617317898582991"><ele>776.2</ele><time>2026-04-16T08:41:29.002Z</time></trkpt><trkpt lat="44.20080449666831" lon="10.617455216548537"><ele>777.0</ele><time>2026-04-16T08:41:30.002Z</time></trkpt><trkpt lat="44.20084014419522" lon="10.617598363648318"><ele>777.0</ele><time>2026-04-16T08:41:31.002Z</time></trkpt><trkpt lat="44.20085382703804" lon="10.617741068965524"><ele>777.0</ele><time>2026-04-16T08:41:32.002Z</time></trkpt><trkpt lat="44.20085022477794" lon="10.617868030680988"><ele>777.0</ele><time>2026-04-16T08:41:33.002Z</time></trkpt><trkpt lat="44.200818635687114" lon="10.61797453158251"><ele>777.0</ele><time>2026-04-16T08:41:34.002Z</time></trkpt><trkpt lat="44.20076961653581" lon="10.618055203011368"><ele>777.0</ele><time>2026-04-16T08:41:35.002Z</time></trkpt><trkpt lat="44.200689655187475" lon="10.618101067627784"><ele>777.0</ele><time>2026-04-16T08:41:36.002Z</time></trkpt><trkpt lat="44.20060195608463" lon="10.618122791244746"><ele>777.6</ele><time>2026-04-16T08:41:37.002Z</time></trkpt><trkpt lat="44.200497907042184" lon="10.61814266469982"><ele>778.2</ele><time>2026-04-16T08:41:38.002Z</time></trkpt><trkpt lat="44.200401721502146" lon="10.61814817228221"><ele>778.8</ele><time>2026-04-16T08:41:39.002Z</time></trkpt><trkpt lat="44.20031244736592" lon="10.618157901199368"><ele>779.4</ele><time>2026-04-16T08:41:40.002Z</time></trkpt><trkpt lat="44.20022278013204" lon="10.618182922647373"><ele>780.0</ele><time>2026-04-16T08:41:41.002Z</time></trkpt><trkpt lat="44.200139774405706" lon="10.61822297355383"><ele>780.0</ele><time>2026-04-16T08:41:42.002Z</time></trkpt><trkpt lat="44.200047304287274" lon="10.618280694023596"><ele>780.0</ele><time>2026-04-16T08:41:43.003Z</time></trkpt><trkpt lat="44.19994475952757" lon="10.618368949636448"><ele>780.0</ele><time>2026-04-16T08:41:44.003Z</time></trkpt><trkpt lat="44.19984353953397" lon="10.618471242257064"><ele>780.0</ele><time>2026-04-16T08:41:45.003Z</time></trkpt><trkpt lat="44.19971578970696" lon="10.618577752782993"><ele>779.5</ele><time>2026-04-16T08:41:46.003Z</time></trkpt><trkpt lat="44.19959849383121" lon="10.618663916830318"><ele>779.0</ele><time>2026-04-16T08:41:47.002Z</time></trkpt><trkpt lat="44.19949078915218" lon="10.61874215826503"><ele>778.5</ele><time>2026-04-16T08:41:48.002Z</time></trkpt><trkpt lat="44.19939825818197" lon="10.618804524688263"><ele>778.0</ele><time>2026-04-16T08:41:49.002Z</time></trkpt><trkpt lat="44.1993066970612" lon="10.618858865172704"><ele>777.9999999999999</ele><time>2026-04-16T08:41:50.002Z</time></trkpt><trkpt lat="44.19922757450481" lon="10.618923757090576"><ele>778.0</ele><time>2026-04-16T08:41:51.002Z</time></trkpt><trkpt lat="44.19916023966743" lon="10.618996678569973"><ele>778.0</ele><time>2026-04-16T08:41:52.002Z</time></trkpt><trkpt lat="44.19910155431676" lon="10.619074331359096"><ele>778.0</ele><time>2026-04-16T08:41:53.002Z</time></trkpt><trkpt lat="44.199043113480116" lon="10.619153663329621"><ele>777.9999999999999</ele><time>2026-04-16T08:41:54.002Z</time></trkpt><trkpt lat="44.198987007920785" lon="10.619227680277833"><ele>778.0</ele><time>2026-04-16T08:41:55.002Z</time></trkpt><trkpt lat="44.19893262154323" lon="10.61929008027284"><ele>776.2</ele><time>2026-04-16T08:41:56.002Z</time></trkpt><trkpt lat="44.198874645823416" lon="10.61935914561462"><ele>774.4</ele><time>2026-04-16T08:41:57.002Z</time></trkpt><trkpt lat="44.19880791862204" lon="10.619423093369209"><ele>772.6</ele><time>2026-04-16T08:41:58.002Z</time></trkpt><trkpt lat="44.198706262498646" lon="10.619475606572859"><ele>770.8000000000001</ele><time>2026-04-16T08:41:59.002Z</time></trkpt><trkpt lat="44.19857824208206" lon="10.619495281265735"><ele>769.0</ele><time>2026-04-16T08:42:00.002Z</time></trkpt><trkpt lat="44.198454151445546" lon="10.619505930663184"><ele>769.0</ele><time>2026-04-16T08:42:01.002Z</time></trkpt><trkpt lat="44.19832128823626" lon="10.619562868281164"><ele>769.0</ele><time>2026-04-16T08:42:02.001Z</time></trkpt><trkpt lat="44.19819118894428" lon="10.619636225825278"><ele>769.0</ele><time>2026-04-16T08:42:03.001Z</time></trkpt><trkpt lat="44.19808018082211" lon="10.619680435128915"><ele>769.0</ele><time>2026-04-16T08:42:04.001Z</time></trkpt><trkpt lat="44.19797236038333" lon="10.619690249392129"><ele>768.75</ele><time>2026-04-16T08:42:05.001Z</time></trkpt><trkpt lat="44.19787340756207" lon="10.619650497369637"><ele>768.5</ele><time>2026-04-16T08:42:06.001Z</time></trkpt><trkpt lat="44.1977643723139" lon="10.619572620788697"><ele>768.25</ele><time>2026-04-16T08:42:07.001Z</time></trkpt><trkpt lat="44.19764510666127" lon="10.619474723340268"><ele>768.0</ele><time>2026-04-16T08:42:08.001Z</time></trkpt><trkpt lat="44.197530523879344" lon="10.619354238028661"><ele>769.0</ele><time>2026-04-16T08:42:09.001Z</time></trkpt><trkpt lat="44.197410871071405" lon="10.619222426009072"><ele>770.0</ele><time>2026-04-16T08:42:10.001Z</time></trkpt><trkpt lat="44.19728929262214" lon="10.619077733022799"><ele>771.0</ele><time>2026-04-16T08:42:11.001Z</time></trkpt><trkpt lat="44.19716499350853" lon="10.618922858269254"><ele>771.0</ele><time>2026-04-16T08:42:12.001Z</time></trkpt><trkpt lat="44.197047739450426" lon="10.618786021472667"><ele>771.0</ele><time>2026-04-16T08:42:13.001Z</time></trkpt><trkpt lat="44.19696798283775" lon="10.618607583878589"><ele>771.0</ele><time>2026-04-16T08:42:14.001Z</time></trkpt><trkpt lat="44.196869424484454" lon="10.618467828376346"><ele>771.0</ele><time>2026-04-16T08:42:15.001Z</time></trkpt><trkpt lat="44.19676568367162" lon="10.61832535167576"><ele>771.75</ele><time>2026-04-16T08:42:16.001Z</time></trkpt><trkpt lat="44.196653229034496" lon="10.618218529124604"><ele>772.5</ele><time>2026-04-16T08:42:17.001Z</time></trkpt><trkpt lat="44.19652924033116" lon="10.618126536153262"><ele>773.25</ele><time>2026-04-16T08:42:18.001Z</time></trkpt><trkpt lat="44.196411640487476" lon="10.618018222001057"><ele>774.0</ele><time>2026-04-16T08:42:19.001Z</time></trkpt><trkpt lat="44.196300524274164" lon="10.617923996228884"><ele>774.0</ele><time>2026-04-16T08:42:20.001Z</time></trkpt><trkpt lat="44.19619108197996" lon="10.617826898506815"><ele>774.0</ele><time>2026-04-16T08:42:21.001Z</time></trkpt><trkpt lat="44.196087353871675" lon="10.617735846512705"><ele>774.0</ele><time>2026-04-16T08:42:22.001Z</time></trkpt><trkpt lat="44.19599347555252" lon="10.617654181380631"><ele>774.0</ele><time>2026-04-16T08:42:23.001Z</time></trkpt><trkpt lat="44.19589930741522" lon="10.617577281480706"><ele>775.0</ele><time>2026-04-16T08:42:24.001Z</time></trkpt><trkpt lat="44.19581723504704" lon="10.617498318073306"><ele>776.0</ele><time>2026-04-16T08:42:25.001Z</time></trkpt><trkpt lat="44.195737949702675" lon="10.617435387348749"><ele>777.0</ele><time>2026-04-16T08:42:26.001Z</time></trkpt><trkpt lat="44.19565562674499" lon="10.617410382283412"><ele>778.0</ele><time>2026-04-16T08:42:27.001Z</time></trkpt><trkpt lat="44.19557105932568" lon="10.617446018836992"><ele>779.0</ele><time>2026-04-16T08:42:28.001Z</time></trkpt><trkpt lat="44.19549265514274" lon="10.617546507947313"><ele>779.0</ele><time>2026-04-16T08:42:29.001Z</time></trkpt><trkpt lat="44.19543138835663" lon="10.617660485585569"><ele>779.0</ele><time>2026-04-16T08:42:30.001Z</time></trkpt><trkpt lat="44.19537416483504" lon="10.617812224455939"><ele>779.0</ele><time>2026-04-16T08:42:31.001Z</time></trkpt><trkpt lat="44.195303479293614" lon="10.617970350197517"><ele>779.0</ele><time>2026-04-16T08:42:32.001Z</time></trkpt><trkpt lat="44.19520662962988" lon="10.618117889478453"><ele>779.0</ele><time>2026-04-16T08:42:33.001Z</time></trkpt><trkpt lat="44.195118264804876" lon="10.618287513637226"><ele>779.0</ele><time>2026-04-16T08:42:34.001Z</time></trkpt><trkpt lat="44.19502985936767" lon="10.618464225955682"><ele>779.0</ele><time>2026-04-16T08:42:35.001Z</time></trkpt><trkpt lat="44.19494603728554" lon="10.61864347936838"><ele>781.5</ele><time>2026-04-16T08:42:36.002Z</time></trkpt><trkpt lat="44.1948717564981" lon="10.6188057928477"><ele>784.0</ele><time>2026-04-16T08:42:37.002Z</time></trkpt><trkpt lat="44.19482947978606" lon="10.618956960566235"><ele>786.5</ele><time>2026-04-16T08:42:38.002Z</time></trkpt><trkpt lat="44.19479872543215" lon="10.61911931302247"><ele>789.0</ele><time>2026-04-16T08:42:39.002Z</time></trkpt><trkpt lat="44.19479567273962" lon="10.619285369294792"><ele>790.75</ele><time>2026-04-16T08:42:40.002Z</time></trkpt><trkpt lat="44.19480704417599" lon="10.619463485976262"><ele>792.5</ele><time>2026-04-16T08:42:41.002Z</time></trkpt><trkpt lat="44.19482658374013" lon="10.6196241828463"><ele>794.25</ele><time>2026-04-16T08:42:42.002Z</time></trkpt><trkpt lat="44.194848375153086" lon="10.61979264460234"><ele>796.0</ele><time>2026-04-16T08:42:43.002Z</time></trkpt><trkpt lat="44.194867357091496" lon="10.619973441865715"><ele>796.0</ele><time>2026-04-16T08:42:44.002Z</time></trkpt><trkpt lat="44.194878654527486" lon="10.620154835075272"><ele>796.0</ele><time>2026-04-16T08:42:45.002Z</time></trkpt><trkpt lat="44.19488994634723" lon="10.620325972472921"><ele>796.0</ele><time>2026-04-16T08:42:46.002Z</time></trkpt><trkpt lat="44.194907324257116" lon="10.620477462529388"><ele>796.0</ele><time>2026-04-16T08:42:47.002Z</time></trkpt><trkpt lat="44.194940178036916" lon="10.620614449542295"><ele>797.75</ele><time>2026-04-16T08:42:48.002Z</time></trkpt><trkpt lat="44.19499147552727" lon="10.6207459162248"><ele>799.5</ele><time>2026-04-16T08:42:49.002Z</time></trkpt><trkpt lat="44.19505806719484" lon="10.62088665031163"><ele>801.25</ele><time>2026-04-16T08:42:50.002Z</time></trkpt><trkpt lat="44.19513958370476" lon="10.621033982606464"><ele>803.0</ele><time>2026-04-16T08:42:51.002Z</time></trkpt><trkpt lat="44.19522747214504" lon="10.621174093871298"><ele>806.2</ele><time>2026-04-16T08:42:52.002Z</time></trkpt><trkpt lat="44.195322701208845" lon="10.621283849052105"><ele>809.4</ele><time>2026-04-16T08:42:53.002Z</time></trkpt><trkpt lat="44.195395230267515" lon="10.621363717348162"><ele>812.6</ele><time>2026-04-16T08:42:54.002Z</time></trkpt><trkpt lat="44.19544190771808" lon="10.621441349809682"><ele>815.8000000000001</ele><time>2026-04-16T08:42:55.002Z</time></trkpt><trkpt lat="44.195456111923896" lon="10.621621266206668"><ele>819.0</ele><time>2026-04-16T08:42:57.002Z</time></trkpt><trkpt lat="44.195407620564716" lon="10.621720526508255"><ele>819.0</ele><time>2026-04-16T08:42:58.002Z</time></trkpt><trkpt lat="44.19533895785134" lon="10.6218127953619"><ele>819.0</ele><time>2026-04-16T08:42:59.002Z</time></trkpt><trkpt lat="44.195264522349625" lon="10.621913174002218"><ele>819.0</ele><time>2026-04-16T08:43:00.002Z</time></trkpt><trkpt lat="44.19518456657557" lon="10.622021160989878"><ele>819.0</ele><time>2026-04-16T08:43:01.002Z</time></trkpt><trkpt lat="44.19510072987578" lon="10.622138704685534"><ele>819.0</ele><time>2026-04-16T08:43:02.002Z</time></trkpt><trkpt lat="44.19502462253941" lon="10.62227341099257"><ele>817.5</ele><time>2026-04-16T08:43:03.002Z</time></trkpt><trkpt lat="44.19495673550459" lon="10.622439207227261"><ele>816.0</ele><time>2026-04-16T08:43:04.002Z</time></trkpt><trkpt lat="44.194895395918785" lon="10.622613841282535"><ele>814.5</ele><time>2026-04-16T08:43:05.002Z</time></trkpt><trkpt lat="44.194835810279486" lon="10.622795593264922"><ele>813.0</ele><time>2026-04-16T08:43:06.002Z</time></trkpt><trkpt lat="44.19476272735237" lon="10.622946529920773"><ele>815.4</ele><time>2026-04-16T08:43:07.002Z</time></trkpt><trkpt lat="44.19468199030927" lon="10.623042047446631"><ele>817.8</ele><time>2026-04-16T08:43:08.002Z</time></trkpt><trkpt lat="44.194586713657515" lon="10.623088992112192"><ele>820.2</ele><time>2026-04-16T08:43:09.002Z</time></trkpt><trkpt lat="44.1944812123803" lon="10.623086961354597"><ele>822.6</ele><time>2026-04-16T08:43:10.002Z</time></trkpt><trkpt lat="44.19436079643178" lon="10.623063915627764"><ele>825.0</ele><time>2026-04-16T08:43:11.002Z</time></trkpt><trkpt lat="44.19423459994426" lon="10.623046939012292"><ele>825.0</ele><time>2026-04-16T08:43:12.002Z</time></trkpt><trkpt lat="44.19411822997658" lon="10.623052112807397"><ele>825.0</ele><time>2026-04-16T08:43:13.002Z</time></trkpt><trkpt lat="44.193998078284054" lon="10.623099760404472"><ele>825.0</ele><time>2026-04-16T08:43:14.002Z</time></trkpt><trkpt lat="44.19390251991886" lon="10.623168597432304"><ele>825.0</ele><time>2026-04-16T08:43:15.002Z</time></trkpt><trkpt lat="44.193825350452535" lon="10.623281833253232"><ele>829.25</ele><time>2026-04-16T08:43:16.002Z</time></trkpt><trkpt lat="44.193759903978545" lon="10.623415848365207"><ele>833.5</ele><time>2026-04-16T08:43:17.002Z</time></trkpt><trkpt lat="44.193682569316714" lon="10.623545651325493"><ele>837.75</ele><time>2026-04-16T08:43:18.002Z</time></trkpt><trkpt lat="44.19358323253191" lon="10.623649402369635"><ele>842.0</ele><time>2026-04-16T08:43:19.002Z</time></trkpt><trkpt lat="44.1934636324799" lon="10.623702723930538"><ele>842.0000000000001</ele><time>2026-04-16T08:43:20.002Z</time></trkpt><trkpt lat="44.193363641337776" lon="10.623749405492113"><ele>842.0</ele><time>2026-04-16T08:43:21.002Z</time></trkpt><trkpt lat="44.19328637336929" lon="10.623814730362257"><ele>842.0</ele><time>2026-04-16T08:43:22.002Z</time></trkpt><trkpt lat="44.193235584392994" lon="10.623905902996801"><ele>842.0</ele><time>2026-04-16T08:43:23.002Z</time></trkpt><trkpt lat="44.19321292435416" lon="10.623994779627097"><ele>842.0000000000001</ele><time>2026-04-16T08:43:24.002Z</time></trkpt><trkpt lat="44.19321718395981" lon="10.62410877827889"><ele>842.0</ele><time>2026-04-16T08:43:25.002Z</time></trkpt><trkpt lat="44.1932383815195" lon="10.624226690269914"><ele>842.0</ele><time>2026-04-16T08:43:26.002Z</time></trkpt><trkpt lat="44.19326939066827" lon="10.624355496071598"><ele>842.0</ele><time>2026-04-16T08:43:27.002Z</time></trkpt><trkpt lat="44.19330809963375" lon="10.624496501145455"><ele>842.0</ele><time>2026-04-16T08:43:28.002Z</time></trkpt><trkpt lat="44.193349422991204" lon="10.624645475565405"><ele>842.0</ele><time>2026-04-16T08:43:29.002Z</time></trkpt><trkpt lat="44.193379318656824" lon="10.624776452857704"><ele>842.0</ele><time>2026-04-16T08:43:30.002Z</time></trkpt><trkpt lat="44.19338914022892" lon="10.624893230987347"><ele>841.4000000000001</ele><time>2026-04-16T08:43:31.002Z</time></trkpt><trkpt lat="44.19336879295339" lon="10.62499392718284"><ele>840.8000000000001</ele><time>2026-04-16T08:43:32.002Z</time></trkpt><trkpt lat="44.19331770193082" lon="10.625077485914165"><ele>840.2</ele><time>2026-04-16T08:43:33.002Z</time></trkpt><trkpt lat="44.19322965175093" lon="10.625132672500829"><ele>839.6</ele><time>2026-04-16T08:43:34.002Z</time></trkpt><trkpt lat="44.19312500312544" lon="10.625146926619594"><ele>839.0</ele><time>2026-04-16T08:43:35.002Z</time></trkpt><trkpt lat="44.19299420363045" lon="10.625148363849929"><ele>843.75</ele><time>2026-04-16T08:43:36.002Z</time></trkpt><trkpt lat="44.192862762951165" lon="10.62516095578396"><ele>848.5</ele><time>2026-04-16T08:43:37.002Z</time></trkpt><trkpt lat="44.19272828225055" lon="10.625178237335367"><ele>853.25</ele><time>2026-04-16T08:43:38.002Z</time></trkpt><trkpt lat="44.192583412399294" lon="10.625195033669817"><ele>858.0</ele><time>2026-04-16T08:43:39.002Z</time></trkpt><trkpt lat="44.192432275812656" lon="10.625209894906996"><ele>859.75</ele><time>2026-04-16T08:43:40.002Z</time></trkpt><trkpt lat="44.19227727950841" lon="10.625218602194623"><ele>861.5</ele><time>2026-04-16T08:43:41.002Z</time></trkpt><trkpt lat="44.19213440567068" lon="10.625228219927697"><ele>863.25</ele><time>2026-04-16T08:43:42.002Z</time></trkpt><trkpt lat="44.19200454291614" lon="10.625252527838215"><ele>865.0</ele><time>2026-04-16T08:43:43.002Z</time></trkpt><trkpt lat="44.19188557016578" lon="10.625310661202525"><ele>865.75</ele><time>2026-04-16T08:43:44.002Z</time></trkpt><trkpt lat="44.191769771177576" lon="10.62539866051028"><ele>866.5</ele><time>2026-04-16T08:43:45.002Z</time></trkpt><trkpt lat="44.191643084319395" lon="10.625476896650495"><ele>867.25</ele><time>2026-04-16T08:43:46.002Z</time></trkpt><trkpt lat="44.191526805836" lon="10.625554897609117"><ele>868.0</ele><time>2026-04-16T08:43:47.002Z</time></trkpt><trkpt lat="44.191425940717885" lon="10.625604873793167"><ele>867.9999999999999</ele><time>2026-04-16T08:43:48.002Z</time></trkpt><trkpt lat="44.191344878027344" lon="10.625654661417274"><ele>868.0</ele><time>2026-04-16T08:43:49.002Z</time></trkpt><trkpt lat="44.1913003665009" lon="10.625734917399791"><ele>868.0</ele><time>2026-04-16T08:43:50.002Z</time></trkpt><trkpt lat="44.1912801410828" lon="10.625828484483579"><ele>868.0</ele><time>2026-04-16T08:43:51.002Z</time></trkpt><trkpt lat="44.191290277369816" lon="10.625941256825465"><ele>867.9999999999999</ele><time>2026-04-16T08:43:52.003Z</time></trkpt><trkpt lat="44.19132089904539" lon="10.626068375145318"><ele>868.0</ele><time>2026-04-16T08:43:53.002Z</time></trkpt><trkpt lat="44.191372917374835" lon="10.62621946490197"><ele>869.75</ele><time>2026-04-16T08:43:54.002Z</time></trkpt><trkpt lat="44.19142477231397" lon="10.626378947572357"><ele>871.5</ele><time>2026-04-16T08:43:55.002Z</time></trkpt><trkpt lat="44.19143565435283" lon="10.626543976141553"><ele>873.25</ele><time>2026-04-16T08:43:56.002Z</time></trkpt><trkpt lat="44.19145470802037" lon="10.626717222366523"><ele>875.0</ele><time>2026-04-16T08:43:57.002Z</time></trkpt><trkpt lat="44.19146351040539" lon="10.626892740355773"><ele>877.5</ele><time>2026-04-16T08:43:58.002Z</time></trkpt><trkpt lat="44.191477235343505" lon="10.627067487863052"><ele>880.0</ele><time>2026-04-16T08:43:59.002Z</time></trkpt><trkpt lat="44.191463334098756" lon="10.627246114768845"><ele>882.5</ele><time>2026-04-16T08:44:00.002Z</time></trkpt><trkpt lat="44.19144793690693" lon="10.627420760813427"><ele>885.0</ele><time>2026-04-16T08:44:01.002Z</time></trkpt><trkpt lat="44.191419237297055" lon="10.62759298143087"><ele>885.0</ele><time>2026-04-16T08:44:02.002Z</time></trkpt><trkpt lat="44.1913702027822" lon="10.627770699720786"><ele>885.0</ele><time>2026-04-16T08:44:03.002Z</time></trkpt><trkpt lat="44.191301411259055" lon="10.627946697888012"><ele>885.0</ele><time>2026-04-16T08:44:04.002Z</time></trkpt><trkpt lat="44.19126606822422" lon="10.62814081254157"><ele>885.0</ele><time>2026-04-16T08:44:05.002Z</time></trkpt><trkpt lat="44.191228989655016" lon="10.628335695505681"><ele>884.75</ele><time>2026-04-16T08:44:06.002Z</time></trkpt><trkpt lat="44.19119771220573" lon="10.628535271926731"><ele>884.5</ele><time>2026-04-16T08:44:07.002Z</time></trkpt><trkpt lat="44.19116277881314" lon="10.62870986223059"><ele>884.25</ele><time>2026-04-16T08:44:08.002Z</time></trkpt><trkpt lat="44.19112905787798" lon="10.628872570266067"><ele>884.0</ele><time>2026-04-16T08:44:09.002Z</time></trkpt><trkpt lat="44.19107571850637" lon="10.629028560829003"><ele>884.0</ele><time>2026-04-16T08:44:10.001Z</time></trkpt><trkpt lat="44.19100937084224" lon="10.629187667325441"><ele>884.0</ele><time>2026-04-16T08:44:11.001Z</time></trkpt><trkpt lat="44.19094065133575" lon="10.629356409597392"><ele>884.0</ele><time>2026-04-16T08:44:12.001Z</time></trkpt><trkpt lat="44.19087227316942" lon="10.629513035090532"><ele>884.0</ele><time>2026-04-16T08:44:13.001Z</time></trkpt><trkpt lat="44.19081822464301" lon="10.629649469760716"><ele>884.75</ele><time>2026-04-16T08:44:14.001Z</time></trkpt><trkpt lat="44.19077865919465" lon="10.629793219741526"><ele>885.5</ele><time>2026-04-16T08:44:15.001Z</time></trkpt><trkpt lat="44.19076078952972" lon="10.629945674911916"><ele>886.25</ele><time>2026-04-16T08:44:16.001Z</time></trkpt><trkpt lat="44.190779891720865" lon="10.630113017125797"><ele>887.0</ele><time>2026-04-16T08:44:17.001Z</time></trkpt><trkpt lat="44.19081587458812" lon="10.630279584921263"><ele>887.25</ele><time>2026-04-16T08:44:18.001Z</time></trkpt><trkpt lat="44.190829477270434" lon="10.630441932836158"><ele>887.5</ele><time>2026-04-16T08:44:19.001Z</time></trkpt><trkpt lat="44.19081558840874" lon="10.630604284733423"><ele>887.75</ele><time>2026-04-16T08:44:20.001Z</time></trkpt><trkpt lat="44.19076978472338" lon="10.630758656975239"><ele>888.0</ele><time>2026-04-16T08:44:21.001Z</time></trkpt><trkpt lat="44.190720729759605" lon="10.630913016020687"><ele>888.0</ele><time>2026-04-16T08:44:22.001Z</time></trkpt><trkpt lat="44.190688311102896" lon="10.631058111089501"><ele>888.0</ele><time>2026-04-16T08:44:23.001Z</time></trkpt><trkpt lat="44.19068293070753" lon="10.631197512327082"><ele>888.0</ele><time>2026-04-16T08:44:24.001Z</time></trkpt><trkpt lat="44.19069247301067" lon="10.631337540937192"><ele>888.0</ele><time>2026-04-16T08:44:25.001Z</time></trkpt><trkpt lat="44.19069184406824" lon="10.63148281083721"><ele>888.0</ele><time>2026-04-16T08:44:26.001Z</time></trkpt><trkpt lat="44.19064725074433" lon="10.63160832836107"><ele>893.75</ele><time>2026-04-16T08:44:27.001Z</time></trkpt><trkpt lat="44.19057182941548" lon="10.63172176941367"><ele>899.5</ele><time>2026-04-16T08:44:28.001Z</time></trkpt><trkpt lat="44.19047614130607" lon="10.631825311423425"><ele>905.25</ele><time>2026-04-16T08:44:29.001Z</time></trkpt><trkpt lat="44.19036423985666" lon="10.63193630043069"><ele>911.0</ele><time>2026-04-16T08:44:30.001Z</time></trkpt><trkpt lat="44.19026188962783" lon="10.632044376490178"><ele>911.0</ele><time>2026-04-16T08:44:31.001Z</time></trkpt><trkpt lat="44.190157798080186" lon="10.632157946169404"><ele>911.0</ele><time>2026-04-16T08:44:32.001Z</time></trkpt><trkpt lat="44.190066315847545" lon="10.632303009865007"><ele>911.0</ele><time>2026-04-16T08:44:33.001Z</time></trkpt><trkpt lat="44.18999436607968" lon="10.632484966173939"><ele>911.0</ele><time>2026-04-16T08:44:34.001Z</time></trkpt><trkpt lat="44.189936492133704" lon="10.632681686715015"><ele>908.75</ele><time>2026-04-16T08:44:35.001Z</time></trkpt><trkpt lat="44.189892198407996" lon="10.632874574747563"><ele>906.5</ele><time>2026-04-16T08:44:36.001Z</time></trkpt><trkpt lat="44.18985707124568" lon="10.633067481902392"><ele>904.25</ele><time>2026-04-16T08:44:37.001Z</time></trkpt><trkpt lat="44.18983371245786" lon="10.633258591029923"><ele>902.0</ele><time>2026-04-16T08:44:38.001Z</time></trkpt><trkpt lat="44.189828051393775" lon="10.633462864008797"><ele>912.3333333333334</ele><time>2026-04-16T08:44:39.001Z</time></trkpt><trkpt lat="44.189828287552075" lon="10.6336764653257"><ele>922.6666666666667</ele><time>2026-04-16T08:44:40.001Z</time></trkpt><trkpt lat="44.189828635094024" lon="10.633890265856104"><ele>933.0</ele><time>2026-04-16T08:44:41.001Z</time></trkpt><trkpt lat="44.189833350685134" lon="10.63410231216706"><ele>926.5</ele><time>2026-04-16T08:44:42.001Z</time></trkpt><trkpt lat="44.18984559542059" lon="10.63428355993712"><ele>920.0</ele><time>2026-04-16T08:44:43.001Z</time></trkpt><trkpt lat="44.18986482255218" lon="10.634453079001643"><ele>913.5</ele><time>2026-04-16T08:44:44.001Z</time></trkpt><trkpt lat="44.18987192315162" lon="10.634612092924895"><ele>907.0</ele><time>2026-04-16T08:44:45.001Z</time></trkpt><trkpt lat="44.18987420227891" lon="10.634787117749921"><ele>907.0</ele><time>2026-04-16T08:44:46.002Z</time></trkpt><trkpt lat="44.18985404534818" lon="10.634968178759284"><ele>907.0</ele><time>2026-04-16T08:44:47.002Z</time></trkpt><trkpt lat="44.18983240305181" lon="10.635153531331245"><ele>907.0</ele><time>2026-04-16T08:44:48.002Z</time></trkpt><trkpt lat="44.18980356676681" lon="10.635349824192481"><ele>907.0</ele><time>2026-04-16T08:44:49.002Z</time></trkpt><trkpt lat="44.189780553798265" lon="10.635557559865747"><ele>921.0</ele><time>2026-04-16T08:44:50.002Z</time></trkpt><trkpt lat="44.18975214008341" lon="10.635784706914977"><ele>935.0</ele><time>2026-04-16T08:44:51.002Z</time></trkpt><trkpt lat="44.18972897930332" lon="10.636014007784706"><ele>949.0</ele><time>2026-04-16T08:44:52.002Z</time></trkpt><trkpt lat="44.18970925417264" lon="10.636229317135205"><ele>949.25</ele><time>2026-04-16T08:44:53.002Z</time></trkpt><trkpt lat="44.18969179794531" lon="10.636433496278482"><ele>949.5</ele><time>2026-04-16T08:44:54.002Z</time></trkpt><trkpt lat="44.1896894045428" lon="10.636632464165"><ele>949.75</ele><time>2026-04-16T08:44:55.002Z</time></trkpt><trkpt lat="44.18969462651036" lon="10.636836142841446"><ele>950.0</ele><time>2026-04-16T08:44:56.002Z</time></trkpt><trkpt lat="44.18967505235327" lon="10.637031047882992"><ele>948.0</ele><time>2026-04-16T08:44:57.002Z</time></trkpt><trkpt lat="44.18963094400272" lon="10.637225277910836"><ele>946.0</ele><time>2026-04-16T08:44:58.002Z</time></trkpt><trkpt lat="44.189583272126015" lon="10.637412840575415"><ele>944.0</ele><time>2026-04-16T08:44:59.002Z</time></trkpt><trkpt lat="44.18952959459607" lon="10.637575094442656"><ele>942.0</ele><time>2026-04-16T08:45:00.002Z</time></trkpt><trkpt lat="44.18946864590516" lon="10.63771806493702"><ele>937.0</ele><time>2026-04-16T08:45:01.002Z</time></trkpt><trkpt lat="44.18939803533728" lon="10.63783693170892"><ele>932.0</ele><time>2026-04-16T08:45:02.002Z</time></trkpt><trkpt lat="44.18930676374985" lon="10.637928966962065"><ele>927.0</ele><time>2026-04-16T08:45:03.002Z</time></trkpt><trkpt lat="44.189194309815996" lon="10.638010424971792"><ele>922.0</ele><time>2026-04-16T08:45:04.002Z</time></trkpt><trkpt lat="44.1890720705275" lon="10.638084670571669"><ele>930.0</ele><time>2026-04-16T08:45:05.002Z</time></trkpt><trkpt lat="44.18893913381902" lon="10.638164144154976"><ele>938.0</ele><time>2026-04-16T08:45:06.002Z</time></trkpt><trkpt lat="44.188803831439806" lon="10.638247864252186"><ele>946.0</ele><time>2026-04-16T08:45:07.002Z</time></trkpt><trkpt lat="44.18869557843682" lon="10.638312326380685"><ele>954.0</ele><time>2026-04-16T08:45:08.002Z</time></trkpt><trkpt lat="44.18859963096571" lon="10.638375938091267"><ele>954.0</ele><time>2026-04-16T08:45:09.002Z</time></trkpt><trkpt lat="44.188519679458686" lon="10.63845486166379"><ele>954.0000000000001</ele><time>2026-04-16T08:45:10.002Z</time></trkpt><trkpt lat="44.18845663432728" lon="10.638560725533617"><ele>954.0000000000001</ele><time>2026-04-16T08:45:11.002Z</time></trkpt><trkpt lat="44.18840708235602" lon="10.63870213852964"><ele>954.0</ele><time>2026-04-16T08:45:12.002Z</time></trkpt><trkpt lat="44.18839473124482" lon="10.63886815565821"><ele>954.0</ele><time>2026-04-16T08:45:13.002Z</time></trkpt><trkpt lat="44.18840551297447" lon="10.639070016123044"><ele>952.0</ele><time>2026-04-16T08:45:14.002Z</time></trkpt><trkpt lat="44.188405453997014" lon="10.63927915022633"><ele>950.0</ele><time>2026-04-16T08:45:15.002Z</time></trkpt><trkpt lat="44.18840175968571" lon="10.639490575603778"><ele>948.0</ele><time>2026-04-16T08:45:16.002Z</time></trkpt><trkpt lat="44.18835811794687" lon="10.63969772983656"><ele>948.0</ele><time>2026-04-16T08:45:17.002Z</time></trkpt><trkpt lat="44.18834075307146" lon="10.63990936466159"><ele>948.0</ele><time>2026-04-16T08:45:18.002Z</time></trkpt><trkpt lat="44.18836420493001" lon="10.640122084584506"><ele>948.0</ele><time>2026-04-16T08:45:19.002Z</time></trkpt><trkpt lat="44.18841241246203" lon="10.640336386799811"><ele>951.6666666666667</ele><time>2026-04-16T08:45:20.002Z</time></trkpt><trkpt lat="44.188466946622775" lon="10.640545511136722"><ele>955.3333333333334</ele><time>2026-04-16T08:45:21.002Z</time></trkpt><trkpt lat="44.188536520122895" lon="10.640740028462448"><ele>959.0</ele><time>2026-04-16T08:45:22.002Z</time></trkpt><trkpt lat="44.188621600284435" lon="10.640921290439424"><ele>959.0</ele><time>2026-04-16T08:45:23.002Z</time></trkpt><trkpt lat="44.188724613529985" lon="10.641080554913126"><ele>959.0</ele><time>2026-04-16T08:45:24.002Z</time></trkpt><trkpt lat="44.188829557872914" lon="10.641224726236986"><ele>959.0</ele><time>2026-04-16T08:45:25.002Z</time></trkpt><trkpt lat="44.18893155506068" lon="10.641327551990535"><ele>959.0</ele><time>2026-04-16T08:45:26.002Z</time></trkpt><trkpt lat="44.18901615658768" lon="10.64144663571602"><ele>956.2</ele><time>2026-04-16T08:45:27.002Z</time></trkpt><trkpt lat="44.18908428519466" lon="10.641579539645424"><ele>953.4000000000001</ele><time>2026-04-16T08:45:28.002Z</time></trkpt><trkpt lat="44.18911428187331" lon="10.641737598993679"><ele>950.6</ele><time>2026-04-16T08:45:29.002Z</time></trkpt><trkpt lat="44.18915080970045" lon="10.641872590681434"><ele>947.8</ele><time>2026-04-16T08:45:30.002Z</time></trkpt><trkpt lat="44.189128582663166" lon="10.642010577569486"><ele>945.0</ele><time>2026-04-16T08:45:31.002Z</time></trkpt><trkpt lat="44.18909084680831" lon="10.642148377905992"><ele>945.0</ele><time>2026-04-16T08:45:32.002Z</time></trkpt><trkpt lat="44.18903183175077" lon="10.64227367869931"><ele>945.0</ele><time>2026-04-16T08:45:33.002Z</time></trkpt><trkpt lat="44.1889525083026" lon="10.64238585923015"><ele>945.0</ele><time>2026-04-16T08:45:34.002Z</time></trkpt><trkpt lat="44.18886734657213" lon="10.64249750734199"><ele>945.0</ele><time>2026-04-16T08:45:35.002Z</time></trkpt><trkpt lat="44.18877125772522" lon="10.642613075411125"><ele>951.0</ele><time>2026-04-16T08:45:36.002Z</time></trkpt><trkpt lat="44.18866929097462" lon="10.64275220188996"><ele>957.0</ele><time>2026-04-16T08:45:37.002Z</time></trkpt><trkpt lat="44.1885647602498" lon="10.642921595336835"><ele>963.0</ele><time>2026-04-16T08:45:38.002Z</time></trkpt><trkpt lat="44.188466772201416" lon="10.643102268835968"><ele>963.0</ele><time>2026-04-16T08:45:39.002Z</time></trkpt><trkpt lat="44.18839385694194" lon="10.643293217984306"><ele>963.0</ele><time>2026-04-16T08:45:40.002Z</time></trkpt><trkpt lat="44.18831076981174" lon="10.64350129457312"><ele>963.0</ele><time>2026-04-16T08:45:41.002Z</time></trkpt><trkpt lat="44.18822349683715" lon="10.643677870314924"><ele>965.6666666666667</ele><time>2026-04-16T08:45:42.002Z</time></trkpt><trkpt lat="44.18811333654872" lon="10.643820302035532"><ele>968.3333333333334</ele><time>2026-04-16T08:45:43.002Z</time></trkpt><trkpt lat="44.18798265211894" lon="10.643951200058495"><ele>971.0</ele><time>2026-04-16T08:45:44.002Z</time></trkpt><trkpt lat="44.187856642732825" lon="10.644084692401709"><ele>971.0</ele><time>2026-04-16T08:45:45.002Z</time></trkpt><trkpt lat="44.18772663460818" lon="10.644209855717683"><ele>971.0</ele><time>2026-04-16T08:45:46.002Z</time></trkpt><trkpt lat="44.18760156421194" lon="10.644325949011613"><ele>971.0</ele><time>2026-04-16T08:45:47.002Z</time></trkpt><trkpt lat="44.18748616918945" lon="10.644422427411746"><ele>971.0</ele><time>2026-04-16T08:45:48.002Z</time></trkpt><trkpt lat="44.187367266399264" lon="10.644489282250355"><ele>965.5</ele><time>2026-04-16T08:45:49.002Z</time></trkpt><trkpt lat="44.187258155255506" lon="10.64452747710487"><ele>960.0</ele><time>2026-04-16T08:45:50.002Z</time></trkpt><trkpt lat="44.18712822839292" lon="10.644553031522582"><ele>954.5</ele><time>2026-04-16T08:45:51.002Z</time></trkpt><trkpt lat="44.18699494145209" lon="10.644542775018891"><ele>949.0</ele><time>2026-04-16T08:45:52.002Z</time></trkpt><trkpt lat="44.186857946896325" lon="10.644513412997295"><ele>949.0</ele><time>2026-04-16T08:45:53.002Z</time></trkpt><trkpt lat="44.186709670129815" lon="10.64446812621199"><ele>949.0</ele><time>2026-04-16T08:45:54.002Z</time></trkpt><trkpt lat="44.18655756216841" lon="10.644440889038359"><ele>949.0</ele><time>2026-04-16T08:45:55.002Z</time></trkpt><trkpt lat="44.18638488924575" lon="10.64442500332202"><ele>950.6666666666666</ele><time>2026-04-16T08:45:56.002Z</time></trkpt><trkpt lat="44.18621105174394" lon="10.644435773321918"><ele>952.3333333333333</ele><time>2026-04-16T08:45:57.002Z</time></trkpt><trkpt lat="44.18603779736389" lon="10.644461854700268"><ele>954.0</ele><time>2026-04-16T08:45:58.002Z</time></trkpt><trkpt lat="44.185859304696834" lon="10.644497161583441"><ele>954.0</ele><time>2026-04-16T08:45:59.002Z</time></trkpt><trkpt lat="44.18569657478718" lon="10.644533021360633"><ele>954.0</ele><time>2026-04-16T08:46:00.002Z</time></trkpt><trkpt lat="44.18555129090416" lon="10.64456562919078"><ele>954.0</ele><time>2026-04-16T08:46:01.002Z</time></trkpt><trkpt lat="44.18541467111659" lon="10.644580037898896"><ele>954.0</ele><time>2026-04-16T08:46:02.002Z</time></trkpt><trkpt lat="44.18528234607852" lon="10.644566239166235"><ele>953.3333333333333</ele><time>2026-04-16T08:46:03.002Z</time></trkpt><trkpt lat="44.18513204614567" lon="10.644522683743991"><ele>952.6666666666666</ele><time>2026-04-16T08:46:04.002Z</time></trkpt><trkpt lat="44.1849832342183" lon="10.644464666258497"><ele>952.0</ele><time>2026-04-16T08:46:05.002Z</time></trkpt><trkpt lat="44.184825279710964" lon="10.644399354846154"><ele>960.6666666666666</ele><time>2026-04-16T08:46:06.002Z</time></trkpt><trkpt lat="44.184663762852075" lon="10.64432802285634"><ele>969.3333333333333</ele><time>2026-04-16T08:46:07.002Z</time></trkpt><trkpt lat="44.18450088336611" lon="10.644269666610096"><ele>978.0</ele><time>2026-04-16T08:46:08.002Z</time></trkpt><trkpt lat="44.18432849426651" lon="10.644210709368856"><ele>978.0</ele><time>2026-04-16T08:46:09.002Z</time></trkpt><trkpt lat="44.184157925227204" lon="10.644187112772002"><ele>978.0</ele><time>2026-04-16T08:46:10.002Z</time></trkpt><trkpt lat="44.18398145175521" lon="10.644190643026034"><ele>978.0</ele><time>2026-04-16T08:46:11.001Z</time></trkpt><trkpt lat="44.183805623888155" lon="10.64421075009342"><ele>979.3333333333333</ele><time>2026-04-16T08:46:12.001Z</time></trkpt><trkpt lat="44.183631335592565" lon="10.644233552896909"><ele>980.6666666666666</ele><time>2026-04-16T08:46:13.001Z</time></trkpt><trkpt lat="44.183473079586214" lon="10.644270729542164"><ele>982.0</ele><time>2026-04-16T08:46:14.001Z</time></trkpt><trkpt lat="44.183312515996164" lon="10.644327878772275"><ele>982.0</ele><time>2026-04-16T08:46:15.001Z</time></trkpt><trkpt lat="44.183149280926784" lon="10.644406375309464"><ele>982.0</ele><time>2026-04-16T08:46:16.001Z</time></trkpt><trkpt lat="44.18299574964271" lon="10.644504070824246"><ele>982.0</ele><time>2026-04-16T08:46:17.001Z</time></trkpt><trkpt lat="44.182848495471525" lon="10.644603852161222"><ele>982.0</ele><time>2026-04-16T08:46:18.001Z</time></trkpt><trkpt lat="44.182703365081366" lon="10.644718311557607"><ele>982.0</ele><time>2026-04-16T08:46:19.001Z</time></trkpt><trkpt lat="44.182554204214036" lon="10.644838694038459"><ele>982.0</ele><time>2026-04-16T08:46:20.001Z</time></trkpt><trkpt lat="44.18241899401896" lon="10.644946506647731"><ele>983.75</ele><time>2026-04-16T08:46:21.001Z</time></trkpt><trkpt lat="44.18228868426039" lon="10.645035561621079"><ele>985.5</ele><time>2026-04-16T08:46:22.001Z</time></trkpt><trkpt lat="44.18216771601139" lon="10.645122818531338"><ele>987.25</ele><time>2026-04-16T08:46:23.001Z</time></trkpt><trkpt lat="44.182057935808714" lon="10.64519029318944"><ele>989.0</ele><time>2026-04-16T08:46:24.001Z</time></trkpt><trkpt lat="44.18194630697587" lon="10.645261701053236"><ele>986.0</ele><time>2026-04-16T08:46:25.001Z</time></trkpt><trkpt lat="44.18182448182704" lon="10.645301651822773"><ele>983.0</ele><time>2026-04-16T08:46:26.001Z</time></trkpt><trkpt lat="44.181698382282434" lon="10.645328168356848"><ele>980.0</ele><time>2026-04-16T08:46:27.001Z</time></trkpt><trkpt lat="44.18157454248359" lon="10.64531553585291"><ele>977.0</ele><time>2026-04-16T08:46:28.001Z</time></trkpt><trkpt lat="44.181440343830445" lon="10.645278502513543"><ele>977.0</ele><time>2026-04-16T08:46:29.001Z</time></trkpt><trkpt lat="44.181315715543995" lon="10.645241981144807"><ele>977.0</ele><time>2026-04-16T08:46:30.001Z</time></trkpt><trkpt lat="44.18119462519686" lon="10.645204218599629"><ele>977.0</ele><time>2026-04-16T08:46:31.001Z</time></trkpt><trkpt lat="44.181087078568176" lon="10.645170478979649"><ele>977.0</ele><time>2026-04-16T08:46:32.001Z</time></trkpt><trkpt lat="44.18099340890177" lon="10.645128230302392"><ele>977.0</ele><time>2026-04-16T08:46:33.001Z</time></trkpt><trkpt lat="44.180919630430026" lon="10.645052140666406"><ele>977.0</ele><time>2026-04-16T08:46:34.001Z</time></trkpt><trkpt lat="44.18084464192594" lon="10.644951632156515"><ele>977.0</ele><time>2026-04-16T08:46:35.001Z</time></trkpt><trkpt lat="44.180770729939915" lon="10.64483798018127"><ele>977.0</ele><time>2026-04-16T08:46:36.001Z</time></trkpt><trkpt lat="44.18068954872377" lon="10.644733813933428"><ele>977.0</ele><time>2026-04-16T08:46:37.001Z</time></trkpt><trkpt lat="44.18058586404133" lon="10.644660008438873"><ele>975.5</ele><time>2026-04-16T08:46:38.001Z</time></trkpt><trkpt lat="44.18046153843503" lon="10.644615821815272"><ele>974.0</ele><time>2026-04-16T08:46:39.001Z</time></trkpt><trkpt lat="44.18033744864578" lon="10.644579411826518"><ele>972.5</ele><time>2026-04-16T08:46:40.001Z</time></trkpt><trkpt lat="44.18020191262134" lon="10.644568792800722"><ele>971.0</ele><time>2026-04-16T08:46:41.001Z</time></trkpt><trkpt lat="44.180077093797735" lon="10.644574670075901"><ele>971.0</ele><time>2026-04-16T08:46:42.001Z</time></trkpt><trkpt lat="44.17995030667403" lon="10.64461543113873"><ele>971.0</ele><time>2026-04-16T08:46:43.001Z</time></trkpt><trkpt lat="44.17981314795374" lon="10.644662688879505"><ele>971.0</ele><time>2026-04-16T08:46:44.001Z</time></trkpt><trkpt lat="44.17967644639661" lon="10.644703799121503"><ele>971.0</ele><time>2026-04-16T08:46:45.001Z</time></trkpt><trkpt lat="44.17955996129373" lon="10.64472228805804"><ele>973.0</ele><time>2026-04-16T08:46:46.001Z</time></trkpt><trkpt lat="44.17944953946286" lon="10.644738946094702"><ele>974.9999999999999</ele><time>2026-04-16T08:46:47.001Z</time></trkpt><trkpt lat="44.17934871098589" lon="10.64474045697469"><ele>976.9999999999999</ele><time>2026-04-16T08:46:48.001Z</time></trkpt><trkpt lat="44.17925999529651" lon="10.644708609215446"><ele>979.0</ele><time>2026-04-16T08:46:49.001Z</time></trkpt><trkpt lat="44.17919174315765" lon="10.644650107393332"><ele>981.0</ele><time>2026-04-16T08:46:50.001Z</time></trkpt><trkpt lat="44.179117412499636" lon="10.644593614742103"><ele>981.0</ele><time>2026-04-16T08:46:51.001Z</time></trkpt><trkpt lat="44.17902550995117" lon="10.644577451340352"><ele>980.9999999999999</ele><time>2026-04-16T08:46:52.001Z</time></trkpt><trkpt lat="44.17892610997089" lon="10.644623999720313"><ele>980.9999999999999</ele><time>2026-04-16T08:46:53.001Z</time></trkpt><trkpt lat="44.178835882330425" lon="10.644714068968602"><ele>981.0</ele><time>2026-04-16T08:46:54.001Z</time></trkpt><trkpt lat="44.17873983235506" lon="10.644812915246328"><ele>981.0</ele><time>2026-04-16T08:46:55.001Z</time></trkpt><trkpt lat="44.1786356325118" lon="10.644901666716981"><ele>983.5</ele><time>2026-04-16T08:46:56.001Z</time></trkpt><trkpt lat="44.17852550908985" lon="10.644960182479865"><ele>986.0</ele><time>2026-04-16T08:46:57.001Z</time></trkpt><trkpt lat="44.17839674234153" lon="10.6449980729452"><ele>988.5</ele><time>2026-04-16T08:46:58.001Z</time></trkpt><trkpt lat="44.178268933180995" lon="10.645005831541514"><ele>991.0</ele><time>2026-04-16T08:46:59.001Z</time></trkpt><trkpt lat="44.17813783603704" lon="10.644996796221932"><ele>993.25</ele><time>2026-04-16T08:47:00.001Z</time></trkpt><trkpt lat="44.17800653226406" lon="10.644956174771178"><ele>995.5</ele><time>2026-04-16T08:47:01.001Z</time></trkpt><trkpt lat="44.177873063922384" lon="10.644904749088177"><ele>997.75</ele><time>2026-04-16T08:47:02.001Z</time></trkpt><trkpt lat="44.1777468120782" lon="10.644858037766076"><ele>1000.0</ele><time>2026-04-16T08:47:03.001Z</time></trkpt><trkpt lat="44.177618445964214" lon="10.6448399851197"><ele>1000.0</ele><time>2026-04-16T08:47:04.001Z</time></trkpt><trkpt lat="44.17749305027028" lon="10.644856406536054"><ele>1000.0</ele><time>2026-04-16T08:47:05.001Z</time></trkpt><trkpt lat="44.17736216932257" lon="10.644913531058613"><ele>1000.0</ele><time>2026-04-16T08:47:06.001Z</time></trkpt><trkpt lat="44.17723178593312" lon="10.64499431408117"><ele>1000.0</ele><time>2026-04-16T08:47:07.001Z</time></trkpt><trkpt lat="44.17710125073575" lon="10.645090416090316"><ele>1001.5</ele><time>2026-04-16T08:47:08.001Z</time></trkpt><trkpt lat="44.17698475747433" lon="10.645170363251417"><ele>1003.0</ele><time>2026-04-16T08:47:09.001Z</time></trkpt><trkpt lat="44.17687837778322" lon="10.645244773555104"><ele>1004.5</ele><time>2026-04-16T08:47:10.001Z</time></trkpt><trkpt lat="44.17678407305333" lon="10.645308112748433"><ele>1006.0</ele><time>2026-04-16T08:47:11.001Z</time></trkpt><trkpt lat="44.17668940484755" lon="10.645352093823563"><ele>1005.0</ele><time>2026-04-16T08:47:12.001Z</time></trkpt><trkpt lat="44.17659833660052" lon="10.64536047247703"><ele>1003.9999999999999</ele><time>2026-04-16T08:47:13.001Z</time></trkpt><trkpt lat="44.17650446069442" lon="10.645319875955758"><ele>1002.9999999999999</ele><time>2026-04-16T08:47:14.001Z</time></trkpt><trkpt lat="44.17641621778109" lon="10.64525341964276"><ele>1002.0</ele><time>2026-04-16T08:47:15.001Z</time></trkpt><trkpt lat="44.17633372461335" lon="10.645146805205554"><ele>1001.0</ele><time>2026-04-16T08:47:16.001Z</time></trkpt><trkpt lat="44.17631023318036" lon="10.644997116286254"><ele>1001.0</ele><time>2026-04-16T08:47:17.001Z</time></trkpt><trkpt lat="44.176265075281385" lon="10.644849637374502"><ele>1001.0</ele><time>2026-04-16T08:47:18.001Z</time></trkpt><trkpt lat="44.17619227726789" lon="10.644707569281277"><ele>1001.0</ele><time>2026-04-16T08:47:19.001Z</time></trkpt><trkpt lat="44.17608572720897" lon="10.644626029468736"><ele>1001.0</ele><time>2026-04-16T08:47:20.001Z</time></trkpt><trkpt lat="44.17597446653141" lon="10.64454821060316"><ele>1001.0</ele><time>2026-04-16T08:47:21.002Z</time></trkpt><trkpt lat="44.17584542189749" lon="10.644489645491747"><ele>1001.0</ele><time>2026-04-16T08:47:22.002Z</time></trkpt><trkpt lat="44.17571157575987" lon="10.644437873285758"><ele>1001.0</ele><time>2026-04-16T08:47:23.002Z</time></trkpt><trkpt lat="44.17556945107377" lon="10.644404736841155"><ele>1001.0</ele><time>2026-04-16T08:47:24.002Z</time></trkpt><trkpt lat="44.17543392885783" lon="10.6443827006355"><ele>1003.5</ele><time>2026-04-16T08:47:25.002Z</time></trkpt><trkpt lat="44.17530198738623" lon="10.644360442532708"><ele>1006.0</ele><time>2026-04-16T08:47:26.002Z</time></trkpt><trkpt lat="44.17517555899737" lon="10.644318224665998"><ele>1008.5</ele><time>2026-04-16T08:47:27.002Z</time></trkpt><trkpt lat="44.17506207338866" lon="10.64424797563206"><ele>1011.0</ele><time>2026-04-16T08:47:28.002Z</time></trkpt><trkpt lat="44.17495668880392" lon="10.644161658073248"><ele>1011.0</ele><time>2026-04-16T08:47:29.002Z</time></trkpt><trkpt lat="44.17486897953332" lon="10.644081439591709"><ele>1010.9999999999999</ele><time>2026-04-16T08:47:30.002Z</time></trkpt><trkpt lat="44.17479418337523" lon="10.643990326994174"><ele>1010.9999999999999</ele><time>2026-04-16T08:47:31.002Z</time></trkpt><trkpt lat="44.17475172808767" lon="10.643881697614423"><ele>1011.0</ele><time>2026-04-16T08:47:32.002Z</time></trkpt><trkpt lat="44.17473959157624" lon="10.643757669773917"><ele>1011.0</ele><time>2026-04-16T08:47:33.002Z</time></trkpt><trkpt lat="44.17478187612127" lon="10.643630728902206"><ele>1010.8</ele><time>2026-04-16T08:47:34.002Z</time></trkpt><trkpt lat="44.17481151418965" lon="10.643474116015682"><ele>1010.5999999999999</ele><time>2026-04-16T08:47:35.002Z</time></trkpt><trkpt lat="44.174812735104" lon="10.643324979360901"><ele>1010.4</ele><time>2026-04-16T08:47:36.002Z</time></trkpt><trkpt lat="44.17480488154418" lon="10.643207368062617"><ele>1010.2</ele><time>2026-04-16T08:47:37.002Z</time></trkpt><trkpt lat="44.17476204578338" lon="10.643122888154258"><ele>1010.0</ele><time>2026-04-16T08:47:38.002Z</time></trkpt><trkpt lat="44.17469044869396" lon="10.64307398115654"><ele>1010.0</ele><time>2026-04-16T08:47:39.002Z</time></trkpt><trkpt lat="44.17459440017082" lon="10.643049602455473"><ele>1010.0</ele><time>2026-04-16T08:47:40.002Z</time></trkpt><trkpt lat="44.17448625507593" lon="10.643022522663083"><ele>1010.0</ele><time>2026-04-16T08:47:41.002Z</time></trkpt><trkpt lat="44.174383467444905" lon="10.64297861702863"><ele>1010.0</ele><time>2026-04-16T08:47:42.002Z</time></trkpt><trkpt lat="44.17431996654714" lon="10.642844445133562"><ele>1010.0</ele><time>2026-04-16T08:47:43.002Z</time></trkpt><trkpt lat="44.17425211664318" lon="10.64270391360746"><ele>1012.6666666666667</ele><time>2026-04-16T08:47:44.002Z</time></trkpt><trkpt lat="44.174157558344106" lon="10.642567389199762"><ele>1015.3333333333333</ele><time>2026-04-16T08:47:45.002Z</time></trkpt><trkpt lat="44.174029146330604" lon="10.64243148696368"><ele>1018.0</ele><time>2026-04-16T08:47:46.002Z</time></trkpt><trkpt lat="44.17389305067965" lon="10.642307116902195"><ele>1018.0</ele><time>2026-04-16T08:47:47.002Z</time></trkpt><trkpt lat="44.17376311786762" lon="10.642180220101432"><ele>1018.0</ele><time>2026-04-16T08:47:48.002Z</time></trkpt><trkpt lat="44.173617960576316" lon="10.642064840191502"><ele>1018.0</ele><time>2026-04-16T08:47:49.002Z</time></trkpt><trkpt lat="44.17351576430268" lon="10.64189711581603"><ele>1020.3333333333333</ele><time>2026-04-16T08:47:50.002Z</time></trkpt><trkpt lat="44.17340718062851" lon="10.64172052177196"><ele>1022.6666666666667</ele><time>2026-04-16T08:47:51.002Z</time></trkpt><trkpt lat="44.17329992515314" lon="10.641568286417792"><ele>1025.0</ele><time>2026-04-16T08:47:52.002Z</time></trkpt><trkpt lat="44.17318405118171" lon="10.641451956731206"><ele>1025.0</ele><time>2026-04-16T08:47:53.002Z</time></trkpt><trkpt lat="44.173056916910284" lon="10.64137518270595"><ele>1025.0</ele><time>2026-04-16T08:47:54.002Z</time></trkpt><trkpt lat="44.17291382834247" lon="10.641320638889928"><ele>1025.0</ele><time>2026-04-16T08:47:55.002Z</time></trkpt><trkpt lat="44.17275600488928" lon="10.641270437555669"><ele>1025.0</ele><time>2026-04-16T08:47:56.002Z</time></trkpt><trkpt lat="44.17259784806778" lon="10.64120432984642"><ele>1030.5</ele><time>2026-04-16T08:47:57.002Z</time></trkpt><trkpt lat="44.17245482170363" lon="10.641128956349988"><ele>1036.0</ele><time>2026-04-16T08:47:58.002Z</time></trkpt><trkpt lat="44.17234847229752" lon="10.641007744548364"><ele>1041.5</ele><time>2026-04-16T08:47:59.002Z</time></trkpt><trkpt lat="44.17224104273625" lon="10.640921941591516"><ele>1047.0</ele><time>2026-04-16T08:48:00.002Z</time></trkpt><trkpt lat="44.172124154644855" lon="10.640891489162506"><ele>1047.0</ele><time>2026-04-16T08:48:01.002Z</time></trkpt><trkpt lat="44.1719972926743" lon="10.640867471075554"><ele>1047.0</ele><time>2026-04-16T08:48:02.002Z</time></trkpt><trkpt lat="44.17186166528339" lon="10.640872747499822"><ele>1047.0</ele><time>2026-04-16T08:48:03.002Z</time></trkpt><trkpt lat="44.17173779116173" lon="10.640871691637265"><ele>1047.0</ele><time>2026-04-16T08:48:04.002Z</time></trkpt><trkpt lat="44.17164118228116" lon="10.640847618124313"><ele>1047.0</ele><time>2026-04-16T08:48:05.002Z</time></trkpt><trkpt lat="44.17156405523564" lon="10.640800627785461"><ele>1047.0</ele><time>2026-04-16T08:48:06.001Z</time></trkpt><trkpt lat="44.17150473713711" lon="10.640699167783904"><ele>1047.0</ele><time>2026-04-16T08:48:07.001Z</time></trkpt><trkpt lat="44.17148642765977" lon="10.64055796193797"><ele>1047.0</ele><time>2026-04-16T08:48:08.002Z</time></trkpt><trkpt lat="44.17142475586234" lon="10.640471894718468"><ele>1047.0</ele><time>2026-04-16T08:48:09.001Z</time></trkpt><trkpt lat="44.17137145213408" lon="10.640400934238839"><ele>1047.0</ele><time>2026-04-16T08:48:10.001Z</time></trkpt><trkpt lat="44.171288652381456" lon="10.640342825357912"><ele>1046.75</ele><time>2026-04-16T08:48:11.002Z</time></trkpt><trkpt lat="44.171177920544004" lon="10.640300488637843"><ele>1046.5</ele><time>2026-04-16T08:48:12.001Z</time></trkpt><trkpt lat="44.17104304545418" lon="10.64027160636484"><ele>1046.25</ele><time>2026-04-16T08:48:13.001Z</time></trkpt><trkpt lat="44.170904263599304" lon="10.640247116228027"><ele>1046.0</ele><time>2026-04-16T08:48:14.001Z</time></trkpt><trkpt lat="44.17077283115608" lon="10.640241599024966"><ele>1048.3999999999999</ele><time>2026-04-16T08:48:15.002Z</time></trkpt><trkpt lat="44.170668855158986" lon="10.640231311457683"><ele>1050.8</ele><time>2026-04-16T08:48:16.002Z</time></trkpt><trkpt lat="44.17057651722741" lon="10.640244473088385"><ele>1053.1999999999998</ele><time>2026-04-16T08:48:17.001Z</time></trkpt><trkpt lat="44.170501747419785" lon="10.640320432752393"><ele>1055.6</ele><time>2026-04-16T08:48:18.002Z</time></trkpt><trkpt lat="44.17045316827029" lon="10.640438887606324"><ele>1058.0</ele><time>2026-04-16T08:48:19.002Z</time></trkpt><trkpt lat="44.17042239150113" lon="10.640585682339434"><ele>1058.0</ele><time>2026-04-16T08:48:20.002Z</time></trkpt><trkpt lat="44.170366782017226" lon="10.640724726734701"><ele>1058.0</ele><time>2026-04-16T08:48:21.002Z</time></trkpt><trkpt lat="44.17030512821323" lon="10.640822528424394"><ele>1058.0</ele><time>2026-04-16T08:48:22.001Z</time></trkpt><trkpt lat="44.1702246215174" lon="10.640860901907146"><ele>1058.0</ele><time>2026-04-16T08:48:23.001Z</time></trkpt><trkpt lat="44.170100898644534" lon="10.640873701220707"><ele>1058.0</ele><time>2026-04-16T08:48:24.001Z</time></trkpt><trkpt lat="44.16997292323723" lon="10.640864957556131"><ele>1058.3333333333335</ele><time>2026-04-16T08:48:25.001Z</time></trkpt><trkpt lat="44.169827959702054" lon="10.640861422079716"><ele>1058.6666666666667</ele><time>2026-04-16T08:48:26.001Z</time></trkpt><trkpt lat="44.169668776431784" lon="10.640852706289776"><ele>1059.0</ele><time>2026-04-16T08:48:27.001Z</time></trkpt><trkpt lat="44.1695023519545" lon="10.640849365016795"><ele>1059.0</ele><time>2026-04-16T08:48:28.001Z</time></trkpt><trkpt lat="44.16933890433781" lon="10.6408651606808"><ele>1059.0</ele><time>2026-04-16T08:48:29.001Z</time></trkpt><trkpt lat="44.1691790733029" lon="10.64093282415239"><ele>1059.0</ele><time>2026-04-16T08:48:30.001Z</time></trkpt><trkpt lat="44.169042863764396" lon="10.641001183163505"><ele>1060.0</ele><time>2026-04-16T08:48:31.001Z</time></trkpt><trkpt lat="44.16891594644855" lon="10.641048516400426"><ele>1061.0</ele><time>2026-04-16T08:48:32.001Z</time></trkpt><trkpt lat="44.16877914159355" lon="10.641084104228693"><ele>1062.0</ele><time>2026-04-16T08:48:33.001Z</time></trkpt><trkpt lat="44.168631229794805" lon="10.641064959655067"><ele>1063.0</ele><time>2026-04-16T08:48:34.001Z</time></trkpt><trkpt lat="44.168485273491726" lon="10.641017479246761"><ele>1063.0</ele><time>2026-04-16T08:48:35.001Z</time></trkpt><trkpt lat="44.16833454903739" lon="10.640996836764508"><ele>1063.0</ele><time>2026-04-16T08:48:36.001Z</time></trkpt><trkpt lat="44.168178093915934" lon="10.641023213033746"><ele>1063.0</ele><time>2026-04-16T08:48:37.001Z</time></trkpt><trkpt lat="44.168012133655985" lon="10.641073223563527"><ele>1064.0</ele><time>2026-04-16T08:48:38.001Z</time></trkpt><trkpt lat="44.16785000446599" lon="10.641118461150718"><ele>1065.0</ele><time>2026-04-16T08:48:39.001Z</time></trkpt><trkpt lat="44.167710446524026" lon="10.64114549126708"><ele>1066.0</ele><time>2026-04-16T08:48:40.001Z</time></trkpt><trkpt lat="44.167581231149086" lon="10.641182514499208"><ele>1067.0</ele><time>2026-04-16T08:48:41.001Z</time></trkpt><trkpt lat="44.16745322112249" lon="10.641204242228067"><ele>1065.0</ele><time>2026-04-16T08:48:42.001Z</time></trkpt><trkpt lat="44.1673280316856" lon="10.641208030946308"><ele>1063.0</ele><time>2026-04-16T08:48:43.001Z</time></trkpt><trkpt lat="44.16719532829318" lon="10.641181780431586"><ele>1061.0</ele><time>2026-04-16T08:48:44.001Z</time></trkpt><trkpt lat="44.16707937894918" lon="10.641119672944987"><ele>1059.0</ele><time>2026-04-16T08:48:45.001Z</time></trkpt><trkpt lat="44.16696770488589" lon="10.641032250981512"><ele>1059.0</ele><time>2026-04-16T08:48:46.001Z</time></trkpt><trkpt lat="44.16686366974595" lon="10.640931651165932"><ele>1059.0</ele><time>2026-04-16T08:48:47.001Z</time></trkpt><trkpt lat="44.16678567467269" lon="10.6407711281481"><ele>1059.0</ele><time>2026-04-16T08:48:48.001Z</time></trkpt><trkpt lat="44.166697016578" lon="10.64062587507178"><ele>1059.0</ele><time>2026-04-16T08:48:49.001Z</time></trkpt><trkpt lat="44.166603629539686" lon="10.640467763736453"><ele>1060.3333333333333</ele><time>2026-04-16T08:48:50.001Z</time></trkpt><trkpt lat="44.166507701556064" lon="10.640299773108499"><ele>1061.6666666666665</ele><time>2026-04-16T08:48:51.001Z</time></trkpt><trkpt lat="44.16641432726404" lon="10.640128944698468"><ele>1063.0</ele><time>2026-04-16T08:48:52.001Z</time></trkpt><trkpt lat="44.16632301936521" lon="10.639943824285451"><ele>1063.0</ele><time>2026-04-16T08:48:53.001Z</time></trkpt><trkpt lat="44.166228985135234" lon="10.639786109225264"><ele>1063.0</ele><time>2026-04-16T08:48:54.001Z</time></trkpt><trkpt lat="44.16612204940532" lon="10.639636928694506"><ele>1063.0</ele><time>2026-04-16T08:48:55.001Z</time></trkpt><trkpt lat="44.16601828184236" lon="10.639480185103576"><ele>1068.0</ele><time>2026-04-16T08:48:56.001Z</time></trkpt><trkpt lat="44.16592067586524" lon="10.639302731970382"><ele>1073.0</ele><time>2026-04-16T08:48:57.001Z</time></trkpt><trkpt lat="44.16581509816277" lon="10.639135000474786"><ele>1078.0</ele><time>2026-04-16T08:48:58.001Z</time></trkpt><trkpt lat="44.16570828855355" lon="10.639019277484273"><ele>1076.75</ele><time>2026-04-16T08:48:59.001Z</time></trkpt><trkpt lat="44.16560464810173" lon="10.63892402661731"><ele>1075.5</ele><time>2026-04-16T08:49:00.001Z</time></trkpt><trkpt lat="44.16548054147223" lon="10.638868113718116"><ele>1074.25</ele><time>2026-04-16T08:49:01.001Z</time></trkpt><trkpt lat="44.16535955928859" lon="10.638832846242906"><ele>1073.0</ele><time>2026-04-16T08:49:02.001Z</time></trkpt><trkpt lat="44.16524248861513" lon="10.63882162296025"><ele>1073.0</ele><time>2026-04-16T08:49:03.001Z</time></trkpt><trkpt lat="44.16513576637272" lon="10.63885463802455"><ele>1073.0</ele><time>2026-04-16T08:49:04.001Z</time></trkpt><trkpt lat="44.16504524476008" lon="10.638923461953462"><ele>1073.0</ele><time>2026-04-16T08:49:05.001Z</time></trkpt><trkpt lat="44.1649822311504" lon="10.639036636664025"><ele>1073.0</ele><time>2026-04-16T08:49:06.001Z</time></trkpt><trkpt lat="44.164949023315636" lon="10.639190728397413"><ele>1073.0</ele><time>2026-04-16T08:49:07.001Z</time></trkpt><trkpt lat="44.16494148791801" lon="10.639368649462348"><ele>1072.6666666666667</ele><time>2026-04-16T08:49:08.001Z</time></trkpt><trkpt lat="44.16494159663408" lon="10.639577424000432"><ele>1072.3333333333333</ele><time>2026-04-16T08:49:09.001Z</time></trkpt><trkpt lat="44.16493397534987" lon="10.639805783840593"><ele>1072.0</ele><time>2026-04-16T08:49:10.001Z</time></trkpt><trkpt lat="44.16492606011713" lon="10.640042188659665"><ele>1072.0</ele><time>2026-04-16T08:49:11.001Z</time></trkpt><trkpt lat="44.16492326194199" lon="10.640274781800311"><ele>1072.0</ele><time>2026-04-16T08:49:12.001Z</time></trkpt><trkpt lat="44.164927043539414" lon="10.640504677202825"><ele>1072.0</ele><time>2026-04-16T08:49:13.001Z</time></trkpt><trkpt lat="44.164946782078175" lon="10.640737204377205"><ele>1075.6666666666665</ele><time>2026-04-16T08:49:14.001Z</time></trkpt><trkpt lat="44.164970917835205" lon="10.640973325480838"><ele>1079.3333333333333</ele><time>2026-04-16T08:49:15.001Z</time></trkpt><trkpt lat="44.16499078962297" lon="10.641211224541713"><ele>1083.0</ele><time>2026-04-16T08:49:16.001Z</time></trkpt><trkpt lat="44.1650212361635" lon="10.641421870502542"><ele>1084.75</ele><time>2026-04-16T08:49:17.001Z</time></trkpt><trkpt lat="44.16505731294172" lon="10.641621258363788"><ele>1086.5</ele><time>2026-04-16T08:49:18.002Z</time></trkpt><trkpt lat="44.16511344675929" lon="10.641814236024706"><ele>1088.25</ele><time>2026-04-16T08:49:19.002Z</time></trkpt><trkpt lat="44.16517830352145" lon="10.641987379125778"><ele>1090.0</ele><time>2026-04-16T08:49:20.002Z</time></trkpt><trkpt lat="44.165242994602444" lon="10.642148806948729"><ele>1089.8</ele><time>2026-04-16T08:49:21.002Z</time></trkpt><trkpt lat="44.16529255389762" lon="10.642288535809488"><ele>1089.6</ele><time>2026-04-16T08:49:22.002Z</time></trkpt><trkpt lat="44.165334678788696" lon="10.642431085733357"><ele>1089.4</ele><time>2026-04-16T08:49:23.002Z</time></trkpt><trkpt lat="44.16536344044608" lon="10.642589356592449"><ele>1089.2</ele><time>2026-04-16T08:49:24.002Z</time></trkpt><trkpt lat="44.165369848243834" lon="10.642737529857403"><ele>1089.0</ele><time>2026-04-16T08:49:25.002Z</time></trkpt><trkpt lat="44.165371735778415" lon="10.642860940505937"><ele>1089.0</ele><time>2026-04-16T08:49:26.002Z</time></trkpt><trkpt lat="44.16534992364692" lon="10.642958598218659"><ele>1089.0</ele><time>2026-04-16T08:49:27.002Z</time></trkpt><trkpt lat="44.16530781830565" lon="10.643027867221573"><ele>1089.0</ele><time>2026-04-16T08:49:28.002Z</time></trkpt><trkpt lat="44.165185910859826" lon="10.643010893215425"><ele>1089.0</ele><time>2026-04-16T08:49:30.002Z</time></trkpt><trkpt lat="44.16511887387348" lon="10.642914566852133"><ele>1089.0</ele><time>2026-04-16T08:49:31.002Z</time></trkpt><trkpt lat="44.16504441071538" lon="10.64280802169792"><ele>1090.5</ele><time>2026-04-16T08:49:32.002Z</time></trkpt><trkpt lat="44.16496587430352" lon="10.642683774368509"><ele>1092.0</ele><time>2026-04-16T08:49:33.002Z</time></trkpt><trkpt lat="44.16487834203014" lon="10.642536122022033"><ele>1093.5</ele><time>2026-04-16T08:49:34.002Z</time></trkpt><trkpt lat="44.164784457229736" lon="10.642377044190072"><ele>1095.0</ele><time>2026-04-16T08:49:35.002Z</time></trkpt><trkpt lat="44.164694509613696" lon="10.642183794219143"><ele>1102.6666666666667</ele><time>2026-04-16T08:49:36.002Z</time></trkpt><trkpt lat="44.16460840339497" lon="10.641990241212458"><ele>1110.3333333333335</ele><time>2026-04-16T08:49:37.002Z</time></trkpt><trkpt lat="44.16451483189827" lon="10.64178318598864"><ele>1118.0</ele><time>2026-04-16T08:49:38.002Z</time></trkpt><trkpt lat="44.16442198856496" lon="10.641564530308454"><ele>1118.0</ele><time>2026-04-16T08:49:39.002Z</time></trkpt><trkpt lat="44.164343417469155" lon="10.641351952459438"><ele>1118.0</ele><time>2026-04-16T08:49:40.002Z</time></trkpt><trkpt lat="44.16428460352912" lon="10.64115809611547"><ele>1118.0</ele><time>2026-04-16T08:49:41.002Z</time></trkpt><trkpt lat="44.164222389097255" lon="10.640973696571676"><ele>1115.5</ele><time>2026-04-16T08:49:42.002Z</time></trkpt><trkpt lat="44.164143825014065" lon="10.64078501619691"><ele>1113.0</ele><time>2026-04-16T08:49:43.002Z</time></trkpt><trkpt lat="44.164059784369265" lon="10.640612883183305"><ele>1110.5</ele><time>2026-04-16T08:49:44.002Z</time></trkpt><trkpt lat="44.163978071231305" lon="10.640473047058416"><ele>1108.0</ele><time>2026-04-16T08:49:45.002Z</time></trkpt><trkpt lat="44.16389057220188" lon="10.640355660810709"><ele>1108.25</ele><time>2026-04-16T08:49:46.002Z</time></trkpt><trkpt lat="44.16378985358907" lon="10.640256329087228"><ele>1108.5</ele><time>2026-04-16T08:49:47.002Z</time></trkpt><trkpt lat="44.163664736419314" lon="10.64018500636019"><ele>1108.75</ele><time>2026-04-16T08:49:48.002Z</time></trkpt><trkpt lat="44.163555255332625" lon="10.640135037586854"><ele>1109.0</ele><time>2026-04-16T08:49:49.002Z</time></trkpt><trkpt lat="44.16347893281111" lon="10.640096609583095"><ele>1109.0</ele><time>2026-04-16T08:49:50.002Z</time></trkpt><trkpt lat="44.163406965420556" lon="10.640097809196785"><ele>1109.0</ele><time>2026-04-16T08:49:51.002Z</time></trkpt><trkpt lat="44.16335136244488" lon="10.640206920789009"><ele>1109.0</ele><time>2026-04-16T08:49:53.002Z</time></trkpt><trkpt lat="44.16343633562005" lon="10.64035714117225"><ele>1109.0</ele><time>2026-04-16T08:49:55.002Z</time></trkpt><trkpt lat="44.16352902726314" lon="10.640398202094998"><ele>1109.0</ele><time>2026-04-16T08:49:56.002Z</time></trkpt><trkpt lat="44.163627542417835" lon="10.640456160940419"><ele>1115.0</ele><time>2026-04-16T08:49:57.002Z</time></trkpt><trkpt lat="44.16373146592287" lon="10.640499930961784"><ele>1121.0</ele><time>2026-04-16T08:49:58.002Z</time></trkpt><trkpt lat="44.16381370794615" lon="10.640607014579382"><ele>1127.0</ele><time>2026-04-16T08:49:59.002Z</time></trkpt><trkpt lat="44.163861016665244" lon="10.64073287791606"><ele>1133.0</ele><time>2026-04-16T08:50:00.002Z</time></trkpt><trkpt lat="44.16389577406436" lon="10.640902573993621"><ele>1133.0</ele><time>2026-04-16T08:50:01.002Z</time></trkpt><trkpt lat="44.16390564209617" lon="10.641076941894339"><ele>1133.0</ele><time>2026-04-16T08:50:02.002Z</time></trkpt><trkpt lat="44.16390063694733" lon="10.641235525756628"><ele>1133.0</ele><time>2026-04-16T08:50:03.002Z</time></trkpt><trkpt lat="44.16386800242972" lon="10.641394458541217"><ele>1133.0</ele><time>2026-04-16T08:50:04.002Z</time></trkpt><trkpt lat="44.163831865095666" lon="10.641527564693382"><ele>1135.2</ele><time>2026-04-16T08:50:05.002Z</time></trkpt><trkpt lat="44.163813236480976" lon="10.641657707713692"><ele>1137.4</ele><time>2026-04-16T08:50:06.002Z</time></trkpt><trkpt lat="44.16383929708913" lon="10.641793721064436"><ele>1139.6000000000001</ele><time>2026-04-16T08:50:07.002Z</time></trkpt><trkpt lat="44.16389835400672" lon="10.641926902536586"><ele>1141.8</ele><time>2026-04-16T08:50:08.002Z</time></trkpt><trkpt lat="44.16396884688074" lon="10.642070256094037"><ele>1144.0</ele><time>2026-04-16T08:50:09.002Z</time></trkpt><trkpt lat="44.16401627155849" lon="10.642239910107492"><ele>1144.0</ele><time>2026-04-16T08:50:10.002Z</time></trkpt><trkpt lat="44.164025996568284" lon="10.642423562410954"><ele>1144.0</ele><time>2026-04-16T08:50:11.001Z</time></trkpt><trkpt lat="44.16401776963135" lon="10.64258570614781"><ele>1144.0</ele><time>2026-04-16T08:50:12.001Z</time></trkpt><trkpt lat="44.1639838527138" lon="10.64273102657074"><ele>1144.0</ele><time>2026-04-16T08:50:13.001Z</time></trkpt><trkpt lat="44.16391558402039" lon="10.642851979761652"><ele>1144.0</ele><time>2026-04-16T08:50:14.001Z</time></trkpt><trkpt lat="44.16381565514845" lon="10.64295251397441"><ele>1144.0</ele><time>2026-04-16T08:50:15.001Z</time></trkpt><trkpt lat="44.16369772567079" lon="10.643014771055626"><ele>1144.0</ele><time>2026-04-16T08:50:16.001Z</time></trkpt><trkpt lat="44.16357719306359" lon="10.643067450689449"><ele>1144.0</ele><time>2026-04-16T08:50:17.001Z</time></trkpt><trkpt lat="44.16344644042464" lon="10.643120833881717"><ele>1144.0</ele><time>2026-04-16T08:50:18.001Z</time></trkpt><trkpt lat="44.163316083412965" lon="10.643177085894871"><ele>1144.0</ele><time>2026-04-16T08:50:19.001Z</time></trkpt><trkpt lat="44.16319478886915" lon="10.643256029648693"><ele>1144.0</ele><time>2026-04-16T08:50:20.001Z</time></trkpt><trkpt lat="44.16306048712027" lon="10.643339686940488"><ele>1144.0</ele><time>2026-04-16T08:50:21.001Z</time></trkpt><trkpt lat="44.16294060345492" lon="10.64343353924114"><ele>1146.0</ele><time>2026-04-16T08:50:22.001Z</time></trkpt><trkpt lat="44.162824558100326" lon="10.643539018812556"><ele>1148.0</ele><time>2026-04-16T08:50:23.001Z</time></trkpt><trkpt lat="44.16269939766933" lon="10.643674797706185"><ele>1150.0</ele><time>2026-04-16T08:50:24.001Z</time></trkpt><trkpt lat="44.162560324696635" lon="10.643812440958463"><ele>1150.0</ele><time>2026-04-16T08:50:25.001Z</time></trkpt><trkpt lat="44.1624272881059" lon="10.643952430881185"><ele>1150.0</ele><time>2026-04-16T08:50:26.001Z</time></trkpt><trkpt lat="44.162301364912196" lon="10.644101257956628"><ele>1150.0</ele><time>2026-04-16T08:50:27.001Z</time></trkpt><trkpt lat="44.16216461163204" lon="10.644229795495463"><ele>1150.25</ele><time>2026-04-16T08:50:28.001Z</time></trkpt><trkpt lat="44.16204274416422" lon="10.64434696177965"><ele>1150.5</ele><time>2026-04-16T08:50:29.001Z</time></trkpt><trkpt lat="44.16193438148298" lon="10.644443529913357"><ele>1150.75</ele><time>2026-04-16T08:50:30.001Z</time></trkpt><trkpt lat="44.16183821782382" lon="10.644534948841418"><ele>1151.0</ele><time>2026-04-16T08:50:31.001Z</time></trkpt><trkpt lat="44.16173728623087" lon="10.644604503664608"><ele>1151.0</ele><time>2026-04-16T08:50:32.001Z</time></trkpt><trkpt lat="44.161611235288056" lon="10.64464618626721"><ele>1151.0</ele><time>2026-04-16T08:50:33.001Z</time></trkpt><trkpt lat="44.161469329805826" lon="10.644680542389413"><ele>1151.0</ele><time>2026-04-16T08:50:34.001Z</time></trkpt><trkpt lat="44.16132501055754" lon="10.644717927485981"><ele>1151.0</ele><time>2026-04-16T08:50:35.001Z</time></trkpt><trkpt lat="44.16118333229738" lon="10.644752452453936"><ele>1153.6666666666667</ele><time>2026-04-16T08:50:36.001Z</time></trkpt><trkpt lat="44.161033316081365" lon="10.644767200748692"><ele>1156.3333333333333</ele><time>2026-04-16T08:50:37.001Z</time></trkpt><trkpt lat="44.1608858559631" lon="10.644768696625002"><ele>1159.0</ele><time>2026-04-16T08:50:38.001Z</time></trkpt><trkpt lat="44.160732209505255" lon="10.644740777309869"><ele>1161.0</ele><time>2026-04-16T08:50:39.001Z</time></trkpt><trkpt lat="44.16056842441651" lon="10.644702461957024"><ele>1163.0</ele><time>2026-04-16T08:50:40.001Z</time></trkpt><trkpt lat="44.160417467599125" lon="10.644635323998495"><ele>1165.0</ele><time>2026-04-16T08:50:41.001Z</time></trkpt><trkpt lat="44.16026490622475" lon="10.644615846430682"><ele>1165.0</ele><time>2026-04-16T08:50:42.001Z</time></trkpt><trkpt lat="44.16011787804371" lon="10.644639044796689"><ele>1165.0</ele><time>2026-04-16T08:50:43.001Z</time></trkpt><trkpt lat="44.15997441562421" lon="10.644662935124254"><ele>1165.0</ele><time>2026-04-16T08:50:44.001Z</time></trkpt><trkpt lat="44.15982889176641" lon="10.644713406378022"><ele>1165.0</ele><time>2026-04-16T08:50:45.001Z</time></trkpt><trkpt lat="44.15967889066589" lon="10.644795499853029"><ele>1171.0</ele><time>2026-04-16T08:50:46.001Z</time></trkpt><trkpt lat="44.15952921818531" lon="10.644870189947293"><ele>1177.0</ele><time>2026-04-16T08:50:47.001Z</time></trkpt><trkpt lat="44.159364779377505" lon="10.644951348800234"><ele>1183.0</ele><time>2026-04-16T08:50:48.001Z</time></trkpt><trkpt lat="44.159219849357136" lon="10.645020573436817"><ele>1183.0</ele><time>2026-04-16T08:50:49.001Z</time></trkpt><trkpt lat="44.159080613599805" lon="10.645093950648015"><ele>1183.0</ele><time>2026-04-16T08:50:50.001Z</time></trkpt><trkpt lat="44.15897079384835" lon="10.645188736638714"><ele>1183.0</ele><time>2026-04-16T08:50:51.001Z</time></trkpt><trkpt lat="44.15888019770592" lon="10.64531632651924"><ele>1183.0</ele><time>2026-04-16T08:50:52.001Z</time></trkpt><trkpt lat="44.158806803707506" lon="10.645503270215993"><ele>1184.3333333333333</ele><time>2026-04-16T08:50:53.001Z</time></trkpt><trkpt lat="44.15873887512859" lon="10.645713111568504"><ele>1185.6666666666667</ele><time>2026-04-16T08:50:54.001Z</time></trkpt><trkpt lat="44.15866455266814" lon="10.645933712603977"><ele>1187.0</ele><time>2026-04-16T08:50:55.001Z</time></trkpt><trkpt lat="44.15856544946536" lon="10.646113463296436"><ele>1187.0</ele><time>2026-04-16T08:50:56.001Z</time></trkpt><trkpt lat="44.15845868836249" lon="10.646292788977506"><ele>1187.0</ele><time>2026-04-16T08:50:57.001Z</time></trkpt><trkpt lat="44.158344119139294" lon="10.646436320397136"><ele>1187.0</ele><time>2026-04-16T08:50:58.001Z</time></trkpt><trkpt lat="44.15824382069939" lon="10.646554726880947"><ele>1189.0</ele><time>2026-04-16T08:50:59.001Z</time></trkpt><trkpt lat="44.15813633246607" lon="10.646644662299801"><ele>1191.0</ele><time>2026-04-16T08:51:00.001Z</time></trkpt><trkpt lat="44.15802024621359" lon="10.646705682285283"><ele>1193.0</ele><time>2026-04-16T08:51:01.001Z</time></trkpt><trkpt lat="44.15788721202995" lon="10.64676286839179"><ele>1195.0</ele><time>2026-04-16T08:51:02.001Z</time></trkpt><trkpt lat="44.157738094662825" lon="10.64676793721463"><ele>1195.0</ele><time>2026-04-16T08:51:03.001Z</time></trkpt><trkpt lat="44.15758555219275" lon="10.64682464856785"><ele>1195.0</ele><time>2026-04-16T08:51:04.001Z</time></trkpt><trkpt lat="44.15742514720822" lon="10.646901223136606"><ele>1195.0</ele><time>2026-04-16T08:51:05.001Z</time></trkpt><trkpt lat="44.15725641452415" lon="10.64698277605484"><ele>1196.6666666666665</ele><time>2026-04-16T08:51:06.001Z</time></trkpt><trkpt lat="44.15708356888754" lon="10.647065998031854"><ele>1198.3333333333333</ele><time>2026-04-16T08:51:07.001Z</time></trkpt><trkpt lat="44.15691294814722" lon="10.647141705380365"><ele>1200.0</ele><time>2026-04-16T08:51:08.001Z</time></trkpt><trkpt lat="44.156744414961054" lon="10.647227715058925"><ele>1200.0</ele><time>2026-04-16T08:51:09.001Z</time></trkpt><trkpt lat="44.15657310347978" lon="10.64731283654275"><ele>1200.0</ele><time>2026-04-16T08:51:10.001Z</time></trkpt><trkpt lat="44.156422182471104" lon="10.64739635665689"><ele>1200.0</ele><time>2026-04-16T08:51:11.001Z</time></trkpt><trkpt lat="44.15629714398399" lon="10.647499600018287"><ele>1202.25</ele><time>2026-04-16T08:51:12.001Z</time></trkpt><trkpt lat="44.15619104082416" lon="10.647637312117956"><ele>1204.5</ele><time>2026-04-16T08:51:13.001Z</time></trkpt><trkpt lat="44.156086970454076" lon="10.64775862477023"><ele>1206.75</ele><time>2026-04-16T08:51:14.001Z</time></trkpt><trkpt lat="44.15596794844477" lon="10.647863797140886"><ele>1209.0</ele><time>2026-04-16T08:51:15.001Z</time></trkpt><trkpt lat="44.15584362165441" lon="10.647944782702016"><ele>1209.0</ele><time>2026-04-16T08:51:16.001Z</time></trkpt><trkpt lat="44.15573990750227" lon="10.648023834846631"><ele>1209.0</ele><time>2026-04-16T08:51:17.001Z</time></trkpt><trkpt lat="44.155671526730124" lon="10.648126723606312"><ele>1209.0</ele><time>2026-04-16T08:51:18.001Z</time></trkpt><trkpt lat="44.15563399222207" lon="10.64826486874639"><ele>1209.0</ele><time>2026-04-16T08:51:19.001Z</time></trkpt><trkpt lat="44.15562583085775" lon="10.648416748903832"><ele>1209.0</ele><time>2026-04-16T08:51:20.001Z</time></trkpt><trkpt lat="44.15565306882403" lon="10.648576537461658"><ele>1210.25</ele><time>2026-04-16T08:51:21.001Z</time></trkpt><trkpt lat="44.15570920806635" lon="10.648721829282279"><ele>1211.5</ele><time>2026-04-16T08:51:22.001Z</time></trkpt><trkpt lat="44.15579406886205" lon="10.64885300708447"><ele>1212.75</ele><time>2026-04-16T08:51:23.001Z</time></trkpt><trkpt lat="44.155903151166164" lon="10.648981580320891"><ele>1214.0</ele><time>2026-04-16T08:51:24.001Z</time></trkpt><trkpt lat="44.15601716741167" lon="10.649115752714836"><ele>1214.0</ele><time>2026-04-16T08:51:25.001Z</time></trkpt><trkpt lat="44.15613442881366" lon="10.649250627136487"><ele>1214.0</ele><time>2026-04-16T08:51:26.001Z</time></trkpt><trkpt lat="44.15623647069023" lon="10.649360024347763"><ele>1214.0</ele><time>2026-04-16T08:51:27.001Z</time></trkpt><trkpt lat="44.15629830377078" lon="10.64945573853148"><ele>1214.0</ele><time>2026-04-16T08:51:28.001Z</time></trkpt><trkpt lat="44.15633157356524" lon="10.64955714437306"><ele>1214.4</ele><time>2026-04-16T08:51:29.001Z</time></trkpt><trkpt lat="44.156300276478845" lon="10.649707452709464"><ele>1214.8000000000002</ele><time>2026-04-16T08:51:31.001Z</time></trkpt><trkpt lat="44.15622591100186" lon="10.6497634611488"><ele>1215.1999999999998</ele><time>2026-04-16T08:51:32.001Z</time></trkpt><trkpt lat="44.15612437251338" lon="10.649810632910954"><ele>1215.6</ele><time>2026-04-16T08:51:33.001Z</time></trkpt><trkpt lat="44.15601079993072" lon="10.649870396391883"><ele>1216.0</ele><time>2026-04-16T08:51:34.001Z</time></trkpt><trkpt lat="44.15587693031341" lon="10.649937485394728"><ele>1216.0</ele><time>2026-04-16T08:51:35.001Z</time></trkpt><trkpt lat="44.15573950622242" lon="10.650008218108898"><ele>1216.0</ele><time>2026-04-16T08:51:36.001Z</time></trkpt><trkpt lat="44.15559639892208" lon="10.650075099854133"><ele>1216.0</ele><time>2026-04-16T08:51:37.001Z</time></trkpt><trkpt lat="44.15544082263118" lon="10.650127371296719"><ele>1218.6666666666665</ele><time>2026-04-16T08:51:38.001Z</time></trkpt><trkpt lat="44.15526967107943" lon="10.650191648450782"><ele>1221.3333333333333</ele><time>2026-04-16T08:51:39.001Z</time></trkpt><trkpt lat="44.155104146508265" lon="10.650240391502392"><ele>1224.0</ele><time>2026-04-16T08:51:40.001Z</time></trkpt><trkpt lat="44.15493918551575" lon="10.650286515997415"><ele>1225.3333333333333</ele><time>2026-04-16T08:51:41.001Z</time></trkpt><trkpt lat="44.154769688862494" lon="10.6503438582863"><ele>1226.6666666666665</ele><time>2026-04-16T08:51:42.001Z</time></trkpt><trkpt lat="44.154606738947685" lon="10.650430721341198"><ele>1228.0</ele><time>2026-04-16T08:51:43.001Z</time></trkpt><trkpt lat="44.15444186122489" lon="10.650543075145874"><ele>1228.0</ele><time>2026-04-16T08:51:44.001Z</time></trkpt><trkpt lat="44.154282660021025" lon="10.650662085829438"><ele>1228.0</ele><time>2026-04-16T08:51:45.001Z</time></trkpt><trkpt lat="44.154130424265716" lon="10.650773915719128"><ele>1228.0</ele><time>2026-04-16T08:51:46.001Z</time></trkpt><trkpt lat="44.15396961192372" lon="10.650902220957208"><ele>1229.0</ele><time>2026-04-16T08:51:47.001Z</time></trkpt><trkpt lat="44.15380982717736" lon="10.651025255992835"><ele>1230.0</ele><time>2026-04-16T08:51:48.001Z</time></trkpt><trkpt lat="44.15366163607641" lon="10.651123377201317"><ele>1231.0</ele><time>2026-04-16T08:51:49.001Z</time></trkpt><trkpt lat="44.15350817881681" lon="10.651187358176205"><ele>1231.0</ele><time>2026-04-16T08:51:50.001Z</time></trkpt><trkpt lat="44.1533484452591" lon="10.651209534644945"><ele>1231.0</ele><time>2026-04-16T08:51:51.001Z</time></trkpt><trkpt lat="44.15318354508458" lon="10.65121079353644"><ele>1231.0</ele><time>2026-04-16T08:51:52.001Z</time></trkpt><trkpt lat="44.15302754302344" lon="10.651252782052167"><ele>1234.0</ele><time>2026-04-16T08:51:53.001Z</time></trkpt><trkpt lat="44.152881490703486" lon="10.651318874589034"><ele>1237.0</ele><time>2026-04-16T08:51:54.001Z</time></trkpt><trkpt lat="44.15274186383818" lon="10.651386992266486"><ele>1240.0</ele><time>2026-04-16T08:51:55.001Z</time></trkpt><trkpt lat="44.15260115072071" lon="10.651443037197433"><ele>1243.0</ele><time>2026-04-16T08:51:56.001Z</time></trkpt><trkpt lat="44.15246116111442" lon="10.651450712103706"><ele>1247.5</ele><time>2026-04-16T08:51:57.001Z</time></trkpt><trkpt lat="44.15232356377696" lon="10.651385985067256"><ele>1252.0</ele><time>2026-04-16T08:51:58.001Z</time></trkpt><trkpt lat="44.152192828786426" lon="10.651357991031025"><ele>1256.5</ele><time>2026-04-16T08:51:59.001Z</time></trkpt><trkpt lat="44.1520724050059" lon="10.651353913082986"><ele>1261.0</ele><time>2026-04-16T08:52:00.001Z</time></trkpt><trkpt lat="44.15194034329359" lon="10.651397173065275"><ele>1261.0</ele><time>2026-04-16T08:52:01.001Z</time></trkpt><trkpt lat="44.151814737322205" lon="10.651473884500408"><ele>1261.0</ele><time>2026-04-16T08:52:02.001Z</time></trkpt><trkpt lat="44.15168355832296" lon="10.651571675470185"><ele>1261.0</ele><time>2026-04-16T08:52:03.001Z</time></trkpt><trkpt lat="44.15154903058676" lon="10.651678534802832"><ele>1261.0</ele><time>2026-04-16T08:52:04.001Z</time></trkpt><trkpt lat="44.151401199437394" lon="10.65177853722697"><ele>1259.0</ele><time>2026-04-16T08:52:05.001Z</time></trkpt><trkpt lat="44.151252344417145" lon="10.651848634380029"><ele>1257.0</ele><time>2026-04-16T08:52:06.001Z</time></trkpt><trkpt lat="44.151098696575254" lon="10.651886668149851"><ele>1255.0</ele><time>2026-04-16T08:52:07.001Z</time></trkpt><trkpt lat="44.150965438524295" lon="10.65192499099336"><ele>1253.0</ele><time>2026-04-16T08:52:08.001Z</time></trkpt><trkpt lat="44.150857417618845" lon="10.651976700460308"><ele>1253.0</ele><time>2026-04-16T08:52:09.001Z</time></trkpt><trkpt lat="44.15077578706657" lon="10.65204913986"><ele>1253.0</ele><time>2026-04-16T08:52:10.001Z</time></trkpt><trkpt lat="44.15069953004639" lon="10.65215514270991"><ele>1253.0</ele><time>2026-04-16T08:52:11.001Z</time></trkpt><trkpt lat="44.15066839354869" lon="10.65232463614707"><ele>1253.0</ele><time>2026-04-16T08:52:12.001Z</time></trkpt><trkpt lat="44.15061043843191" lon="10.652463588681089"><ele>1253.0</ele><time>2026-04-16T08:52:13.001Z</time></trkpt><trkpt lat="44.1505343353264" lon="10.652571429278598"><ele>1259.0</ele><time>2026-04-16T08:52:14.001Z</time></trkpt><trkpt lat="44.15044072387802" lon="10.652651806882565"><ele>1265.0</ele><time>2026-04-16T08:52:15.001Z</time></trkpt><trkpt lat="44.15033630216447" lon="10.652680015664776"><ele>1271.0</ele><time>2026-04-16T08:52:16.001Z</time></trkpt><trkpt lat="44.15022859095317" lon="10.652680304492785"><ele>1277.0</ele><time>2026-04-16T08:52:17.001Z</time></trkpt><trkpt lat="44.15010421952935" lon="10.652674754713539"><ele>1283.0</ele><time>2026-04-16T08:52:18.001Z</time></trkpt><trkpt lat="44.14997740674024" lon="10.652664433634287"><ele>1286.3333333333335</ele><time>2026-04-16T08:52:19.001Z</time></trkpt><trkpt lat="44.14982442673467" lon="10.65264588773188"><ele>1289.6666666666667</ele><time>2026-04-16T08:52:20.001Z</time></trkpt><trkpt lat="44.14968056521925" lon="10.652653689888933"><ele>1293.0</ele><time>2026-04-16T08:52:21.001Z</time></trkpt><trkpt lat="44.14952734587222" lon="10.652690639308906"><ele>1293.0</ele><time>2026-04-16T08:52:22.001Z</time></trkpt><trkpt lat="44.149385352045776" lon="10.652749773529257"><ele>1293.0</ele><time>2026-04-16T08:52:23.001Z</time></trkpt><trkpt lat="44.149243584211746" lon="10.652797040260513"><ele>1293.0</ele><time>2026-04-16T08:52:24.001Z</time></trkpt><trkpt lat="44.149108448918355" lon="10.652816758963214"><ele>1293.0</ele><time>2026-04-16T08:52:25.001Z</time></trkpt><trkpt lat="44.14895282076233" lon="10.652816007692191"><ele>1287.0</ele><time>2026-04-16T08:52:26.001Z</time></trkpt><trkpt lat="44.14879675089109" lon="10.652802855065588"><ele>1281.0</ele><time>2026-04-16T08:52:27.001Z</time></trkpt><trkpt lat="44.14864817792872" lon="10.652793917445548"><ele>1275.0</ele><time>2026-04-16T08:52:28.001Z</time></trkpt><trkpt lat="44.148504834593766" lon="10.65282012781687"><ele>1275.0</ele><time>2026-04-16T08:52:29.001Z</time></trkpt><trkpt lat="44.14836863585045" lon="10.652871569095996"><ele>1275.0</ele><time>2026-04-16T08:52:30.001Z</time></trkpt><trkpt lat="44.14823245855717" lon="10.652980495393573"><ele>1275.0</ele><time>2026-04-16T08:52:31.001Z</time></trkpt><trkpt lat="44.14809587373497" lon="10.653115665175182"><ele>1281.3333333333333</ele><time>2026-04-16T08:52:32.001Z</time></trkpt><trkpt lat="44.147964348313124" lon="10.653239654729527"><ele>1287.6666666666665</ele><time>2026-04-16T08:52:33.001Z</time></trkpt><trkpt lat="44.14781748900259" lon="10.653386330545484"><ele>1294.0</ele><time>2026-04-16T08:52:34.001Z</time></trkpt><trkpt lat="44.14767188424424" lon="10.653513905691824"><ele>1291.0</ele><time>2026-04-16T08:52:35.001Z</time></trkpt><trkpt lat="44.147532773941585" lon="10.653628793697635"><ele>1288.0</ele><time>2026-04-16T08:52:36.001Z</time></trkpt><trkpt lat="44.14741052007441" lon="10.65369914812838"><ele>1285.0</ele><time>2026-04-16T08:52:37.001Z</time></trkpt><trkpt lat="44.147289314016355" lon="10.653744192330818"><ele>1282.0</ele><time>2026-04-16T08:52:38.001Z</time></trkpt><trkpt lat="44.14718788794259" lon="10.65382440463935"><ele>1288.25</ele><time>2026-04-16T08:52:39.001Z</time></trkpt><trkpt lat="44.147099087808726" lon="10.653945733114098"><ele>1294.5</ele><time>2026-04-16T08:52:40.001Z</time></trkpt><trkpt lat="44.147012557879826" lon="10.654102743215093"><ele>1300.75</ele><time>2026-04-16T08:52:41.001Z</time></trkpt><trkpt lat="44.146919939367955" lon="10.654263603365635"><ele>1307.0</ele><time>2026-04-16T08:52:42.001Z</time></trkpt><trkpt lat="44.14682136165971" lon="10.654376357085823"><ele>1306.25</ele><time>2026-04-16T08:52:43.001Z</time></trkpt><trkpt lat="44.1467040812075" lon="10.654473783221686"><ele>1305.5</ele><time>2026-04-16T08:52:44.001Z</time></trkpt><trkpt lat="44.146569081505824" lon="10.654527441637828"><ele>1304.75</ele><time>2026-04-16T08:52:45.001Z</time></trkpt><trkpt lat="44.14643018184059" lon="10.65460882173144"><ele>1304.0</ele><time>2026-04-16T08:52:46.001Z</time></trkpt><trkpt lat="44.146292465027706" lon="10.654711278019867"><ele>1304.0</ele><time>2026-04-16T08:52:47.001Z</time></trkpt><trkpt lat="44.146143371380255" lon="10.65479532703112"><ele>1304.0</ele><time>2026-04-16T08:52:48.001Z</time></trkpt><trkpt lat="44.146010435044374" lon="10.654836248954043"><ele>1304.0</ele><time>2026-04-16T08:52:49.001Z</time></trkpt><trkpt lat="44.145876602258554" lon="10.65481178564015"><ele>1304.0</ele><time>2026-04-16T08:52:50.001Z</time></trkpt><trkpt lat="44.14575231575069" lon="10.654779954310271"><ele>1307.75</ele><time>2026-04-16T08:52:51.001Z</time></trkpt><trkpt lat="44.145625566101415" lon="10.65476199415811"><ele>1311.5</ele><time>2026-04-16T08:52:52.001Z</time></trkpt><trkpt lat="44.1454890320048" lon="10.654818476985715"><ele>1315.25</ele><time>2026-04-16T08:52:53.001Z</time></trkpt><trkpt lat="44.145378157425995" lon="10.654898573550263"><ele>1319.0</ele><time>2026-04-16T08:52:54.001Z</time></trkpt><trkpt lat="44.1452546925657" lon="10.655003488941452"><ele>1319.0</ele><time>2026-04-16T08:52:55.001Z</time></trkpt><trkpt lat="44.14511261615113" lon="10.655066778486963"><ele>1319.0</ele><time>2026-04-16T08:52:56.001Z</time></trkpt><trkpt lat="44.14498457351139" lon="10.655057268157675"><ele>1319.0</ele><time>2026-04-16T08:52:57.001Z</time></trkpt><trkpt lat="44.14486335120941" lon="10.655068194679895"><ele>1319.0</ele><time>2026-04-16T08:52:58.001Z</time></trkpt><trkpt lat="44.144768958812485" lon="10.655122742680144"><ele>1321.0</ele><time>2026-04-16T08:52:59.001Z</time></trkpt><trkpt lat="44.144692071253424" lon="10.655186791591683"><ele>1323.0</ele><time>2026-04-16T08:53:00.001Z</time></trkpt><trkpt lat="44.14461704664843" lon="10.655294849009474"><ele>1325.0</ele><time>2026-04-16T08:53:01.001Z</time></trkpt><trkpt lat="44.14454195134586" lon="10.655435710916555"><ele>1327.0</ele><time>2026-04-16T08:53:02.001Z</time></trkpt><trkpt lat="44.144463596999096" lon="10.655592456837095"><ele>1327.0</ele><time>2026-04-16T08:53:03.001Z</time></trkpt><trkpt lat="44.1443919374239" lon="10.655732005387486"><ele>1327.0</ele><time>2026-04-16T08:53:04.001Z</time></trkpt><trkpt lat="44.14433541521283" lon="10.655878482537023"><ele>1327.0</ele><time>2026-04-16T08:53:05.001Z</time></trkpt><trkpt lat="44.14430141608468" lon="10.656018228839852"><ele>1327.0</ele><time>2026-04-16T08:53:06.001Z</time></trkpt><trkpt lat="44.144288427926334" lon="10.656169580910076"><ele>1324.3333333333333</ele><time>2026-04-16T08:53:07.001Z</time></trkpt><trkpt lat="44.1442928728233" lon="10.656370521591999"><ele>1321.6666666666667</ele><time>2026-04-16T08:53:08.001Z</time></trkpt><trkpt lat="44.14432584255047" lon="10.65657583633426"><ele>1319.0</ele><time>2026-04-16T08:53:09.001Z</time></trkpt><trkpt lat="44.14435118644607" lon="10.656797831702777"><ele>1317.0</ele><time>2026-04-16T08:53:10.001Z</time></trkpt><trkpt lat="44.14435914721176" lon="10.656989146409124"><ele>1315.0</ele><time>2026-04-16T08:53:11.001Z</time></trkpt><trkpt lat="44.14432750500262" lon="10.65715779997529"><ele>1313.0</ele><time>2026-04-16T08:53:12.001Z</time></trkpt><trkpt lat="44.14426379970656" lon="10.65729399926087"><ele>1311.0</ele><time>2026-04-16T08:53:13.001Z</time></trkpt><trkpt lat="44.144167071279135" lon="10.657399902055904"><ele>1311.0</ele><time>2026-04-16T08:53:14.001Z</time></trkpt><trkpt lat="44.14404953407934" lon="10.657486383027855"><ele>1311.0</ele><time>2026-04-16T08:53:15.001Z</time></trkpt><trkpt lat="44.14392849954211" lon="10.657565913294205"><ele>1311.0</ele><time>2026-04-16T08:53:16.001Z</time></trkpt><trkpt lat="44.143828301946314" lon="10.657707366796883"><ele>1311.0</ele><time>2026-04-16T08:53:17.001Z</time></trkpt><trkpt lat="44.143739542999434" lon="10.65788845676977"><ele>1317.6666666666667</ele><time>2026-04-16T08:53:18.001Z</time></trkpt><trkpt lat="44.14367843207355" lon="10.658096896498881"><ele>1324.3333333333335</ele><time>2026-04-16T08:53:19.001Z</time></trkpt><trkpt lat="44.14362685725671" lon="10.658295918990044"><ele>1331.0</ele><time>2026-04-16T08:53:20.001Z</time></trkpt><trkpt lat="44.14357268015149" lon="10.658472935093693"><ele>1331.0</ele><time>2026-04-16T08:53:21.001Z</time></trkpt><trkpt lat="44.143501468940684" lon="10.658611004725365"><ele>1331.0</ele><time>2026-04-16T08:53:22.001Z</time></trkpt><trkpt lat="44.14340225539716" lon="10.65870505372627"><ele>1331.0</ele><time>2026-04-16T08:53:23.001Z</time></trkpt><trkpt lat="44.1432903864808" lon="10.658771289330412"><ele>1331.0</ele><time>2026-04-16T08:53:24.001Z</time></trkpt><trkpt lat="44.143164718623936" lon="10.658836509654147"><ele>1334.6666666666667</ele><time>2026-04-16T08:53:25.001Z</time></trkpt><trkpt lat="44.143031209746404" lon="10.658929715694752"><ele>1338.3333333333333</ele><time>2026-04-16T08:53:26.001Z</time></trkpt><trkpt lat="44.14290679071242" lon="10.659049111456493"><ele>1342.0</ele><time>2026-04-16T08:53:27.001Z</time></trkpt><trkpt lat="44.142781748878264" lon="10.659192854165388"><ele>1342.0</ele><time>2026-04-16T08:53:28.001Z</time></trkpt><trkpt lat="44.1426569513525" lon="10.659332860901365"><ele>1342.0</ele><time>2026-04-16T08:53:29.001Z</time></trkpt><trkpt lat="44.14252475748902" lon="10.659471640540525"><ele>1342.0</ele><time>2026-04-16T08:53:30.001Z</time></trkpt><trkpt lat="44.142395661605605" lon="10.659590895884554"><ele>1344.25</ele><time>2026-04-16T08:53:31.001Z</time></trkpt><trkpt lat="44.14227548553132" lon="10.659680929632275"><ele>1346.5</ele><time>2026-04-16T08:53:32.001Z</time></trkpt><trkpt lat="44.14216375039071" lon="10.659735631616735"><ele>1348.75</ele><time>2026-04-16T08:53:33.001Z</time></trkpt><trkpt lat="44.14204798456456" lon="10.659750131984312"><ele>1351.0</ele><time>2026-04-16T08:53:34.001Z</time></trkpt><trkpt lat="44.14192867061615" lon="10.659734587862246"><ele>1351.0</ele><time>2026-04-16T08:53:35.001Z</time></trkpt><trkpt lat="44.141826814871166" lon="10.659696749755335"><ele>1351.0</ele><time>2026-04-16T08:53:36.001Z</time></trkpt><trkpt lat="44.14174088632007" lon="10.659654854312306"><ele>1351.0</ele><time>2026-04-16T08:53:37.001Z</time></trkpt><trkpt lat="44.14165997206541" lon="10.659682493384276"><ele>1351.0</ele><time>2026-04-16T08:53:38.001Z</time></trkpt><trkpt lat="44.141597678771575" lon="10.659763286549413"><ele>1351.0</ele><time>2026-04-16T08:53:39.001Z</time></trkpt><trkpt lat="44.14156226326199" lon="10.659850464450932"><ele>1351.0</ele><time>2026-04-16T08:53:40.001Z</time></trkpt><trkpt lat="44.141551043055706" lon="10.659962424974836"><ele>1351.0</ele><time>2026-04-16T08:53:41.001Z</time></trkpt><trkpt lat="44.14156151978977" lon="10.66010129749017"><ele>1351.0</ele><time>2026-04-16T08:53:42.001Z</time></trkpt><trkpt lat="44.14160804936247" lon="10.660231941827119"><ele>1351.0</ele><time>2026-04-16T08:53:43.001Z</time></trkpt><trkpt lat="44.14168548464357" lon="10.660347996891371"><ele>1351.0</ele><time>2026-04-16T08:53:44.001Z</time></trkpt><trkpt lat="44.1418023826581" lon="10.660466890768483"><ele>1355.3333333333333</ele><time>2026-04-16T08:53:45.001Z</time></trkpt><trkpt lat="44.14192584129477" lon="10.660604905715068"><ele>1359.6666666666667</ele><time>2026-04-16T08:53:46.001Z</time></trkpt><trkpt lat="44.14205869855893" lon="10.660736431527507"><ele>1364.0</ele><time>2026-04-16T08:53:47.001Z</time></trkpt><trkpt lat="44.14219460269621" lon="10.66087169439165"><ele>1364.0</ele><time>2026-04-16T08:53:48.001Z</time></trkpt><trkpt lat="44.14234532904329" lon="10.660995382324728"><ele>1364.0</ele><time>2026-04-16T08:53:49.001Z</time></trkpt><trkpt lat="44.142500566425774" lon="10.661111426171493"><ele>1364.0</ele><time>2026-04-16T08:53:50.001Z</time></trkpt><trkpt lat="44.14265213236003" lon="10.661211667912784"><ele>1367.3333333333335</ele><time>2026-04-16T08:53:51.001Z</time></trkpt><trkpt lat="44.14281241695626" lon="10.66128291720972"><ele>1370.6666666666667</ele><time>2026-04-16T08:53:52.001Z</time></trkpt><trkpt lat="44.14298831798429" lon="10.661345115432868"><ele>1374.0</ele><time>2026-04-16T08:53:53.001Z</time></trkpt><trkpt lat="44.143145347524865" lon="10.661446221975604"><ele>1369.0</ele><time>2026-04-16T08:53:54.001Z</time></trkpt><trkpt lat="44.14329594140824" lon="10.661599313691893"><ele>1364.0</ele><time>2026-04-16T08:53:55.001Z</time></trkpt><trkpt lat="44.1434376253945" lon="10.661750942748045"><ele>1359.0</ele><time>2026-04-16T08:53:56.001Z</time></trkpt><trkpt lat="44.143566898257106" lon="10.661901646507804"><ele>1365.0</ele><time>2026-04-16T08:53:57.001Z</time></trkpt><trkpt lat="44.143678220904896" lon="10.662028321871379"><ele>1371.0</ele><time>2026-04-16T08:53:58.001Z</time></trkpt><trkpt lat="44.1437879505881" lon="10.662141414598869"><ele>1377.0</ele><time>2026-04-16T08:53:59.001Z</time></trkpt><trkpt lat="44.14388167310567" lon="10.662265616924362"><ele>1383.0</ele><time>2026-04-16T08:54:00.001Z</time></trkpt><trkpt lat="44.143964279399185" lon="10.662396947971372"><ele>1383.0</ele><time>2026-04-16T08:54:01.001Z</time></trkpt><trkpt lat="44.14402166744342" lon="10.662564874627336"><ele>1383.0</ele><time>2026-04-16T08:54:02.001Z</time></trkpt><trkpt lat="44.14407745457579" lon="10.662720152839812"><ele>1383.0</ele><time>2026-04-16T08:54:03.001Z</time></trkpt><trkpt lat="44.144119609385996" lon="10.662846864513348"><ele>1383.0</ele><time>2026-04-16T08:54:04.001Z</time></trkpt><trkpt lat="44.144162221422356" lon="10.662939216257636"><ele>1383.0</ele><time>2026-04-16T08:54:05.001Z</time></trkpt><trkpt lat="44.144216604673865" lon="10.66302084117521"><ele>1382.5</ele><time>2026-04-16T08:54:06.001Z</time></trkpt><trkpt lat="44.14429657882761" lon="10.663109495031096"><ele>1382.0</ele><time>2026-04-16T08:54:07.001Z</time></trkpt><trkpt lat="44.14440070197551" lon="10.663186017368254"><ele>1381.5</ele><time>2026-04-16T08:54:08.001Z</time></trkpt><trkpt lat="44.14451345231288" lon="10.663296395720181"><ele>1381.0</ele><time>2026-04-16T08:54:09.001Z</time></trkpt><trkpt lat="44.14463210226947" lon="10.663428993338828"><ele>1381.0</ele><time>2026-04-16T08:54:10.001Z</time></trkpt><trkpt lat="44.14473062099763" lon="10.663555889179122"><ele>1381.0</ele><time>2026-04-16T08:54:11.001Z</time></trkpt><trkpt lat="44.144826852406716" lon="10.663693474720027"><ele>1381.0</ele><time>2026-04-16T08:54:12.001Z</time></trkpt><trkpt lat="44.144929957542544" lon="10.66383214701264"><ele>1381.0</ele><time>2026-04-16T08:54:13.001Z</time></trkpt><trkpt lat="44.145034857815105" lon="10.663962154063427"><ele>1380.75</ele><time>2026-04-16T08:54:14.001Z</time></trkpt><trkpt lat="44.14513724167151" lon="10.66409698664603"><ele>1380.5</ele><time>2026-04-16T08:54:15.001Z</time></trkpt><trkpt lat="44.14523498168031" lon="10.664203495090943"><ele>1380.25</ele><time>2026-04-16T08:54:16.001Z</time></trkpt><trkpt lat="44.14530894655629" lon="10.664319972324869"><ele>1380.0</ele><time>2026-04-16T08:54:17.001Z</time></trkpt><trkpt lat="44.14539046222543" lon="10.664433519534478"><ele>1380.5</ele><time>2026-04-16T08:54:18.001Z</time></trkpt><trkpt lat="44.145448635870316" lon="10.664517922968002"><ele>1381.0</ele><time>2026-04-16T08:54:19.001Z</time></trkpt><trkpt lat="44.145499368499124" lon="10.66460532646812"><ele>1381.5</ele><time>2026-04-16T08:54:20.001Z</time></trkpt><trkpt lat="44.14554482237253" lon="10.664683029105577"><ele>1382.0</ele><time>2026-04-16T08:54:21.001Z</time></trkpt><trkpt lat="44.1455997882461" lon="10.664747613632423"><ele>1382.5</ele><time>2026-04-16T08:54:22.001Z</time></trkpt><trkpt lat="44.14563601663104" lon="10.66488422104534"><ele>1383.0</ele><time>2026-04-16T08:54:24.001Z</time></trkpt><trkpt lat="44.14558206037735" lon="10.665025377160125"><ele>1383.0</ele><time>2026-04-16T08:54:26.001Z</time></trkpt><trkpt lat="44.14553063604788" lon="10.665087407320042"><ele>1383.0</ele><time>2026-04-16T08:54:27.001Z</time></trkpt><trkpt lat="44.145450731782105" lon="10.665113850130576"><ele>1383.0</ele><time>2026-04-16T08:54:28.001Z</time></trkpt><trkpt lat="44.14537210735756" lon="10.665120087817696"><ele>1383.0</ele><time>2026-04-16T08:54:29.001Z</time></trkpt><trkpt lat="44.14525671750592" lon="10.665137648169914"><ele>1383.0</ele><time>2026-04-16T08:54:30.001Z</time></trkpt><trkpt lat="44.14513560901944" lon="10.66515224715854"><ele>1383.0</ele><time>2026-04-16T08:54:31.001Z</time></trkpt><trkpt lat="44.14501320365435" lon="10.665178360239413"><ele>1383.0</ele><time>2026-04-16T08:54:32.001Z</time></trkpt><trkpt lat="44.144878640964" lon="10.665205669812421"><ele>1383.0</ele><time>2026-04-16T08:54:33.001Z</time></trkpt><trkpt lat="44.14472782963385" lon="10.66524297101733"><ele>1383.0</ele><time>2026-04-16T08:54:34.001Z</time></trkpt><trkpt lat="44.144569593838746" lon="10.665270109916747"><ele>1381.6000000000001</ele><time>2026-04-16T08:54:35.001Z</time></trkpt><trkpt lat="44.14443917339346" lon="10.665288123315367"><ele>1380.2</ele><time>2026-04-16T08:54:36.001Z</time></trkpt><trkpt lat="44.14434359007069" lon="10.665333541672593"><ele>1378.8</ele><time>2026-04-16T08:54:37.001Z</time></trkpt><trkpt lat="44.14425638617222" lon="10.665416336765015"><ele>1377.4</ele><time>2026-04-16T08:54:38.001Z</time></trkpt><trkpt lat="44.14417680518636" lon="10.665517761761174"><ele>1376.0</ele><time>2026-04-16T08:54:39.001Z</time></trkpt><trkpt lat="44.14407878235087" lon="10.665620904150932"><ele>1379.3333333333335</ele><time>2026-04-16T08:54:40.001Z</time></trkpt><trkpt lat="44.14395595077417" lon="10.66571599231005"><ele>1382.6666666666667</ele><time>2026-04-16T08:54:41.001Z</time></trkpt><trkpt lat="44.1438125435952" lon="10.665818810313853"><ele>1386.0</ele><time>2026-04-16T08:54:42.001Z</time></trkpt><trkpt lat="44.143666160446166" lon="10.665908581640204"><ele>1386.0</ele><time>2026-04-16T08:54:43.001Z</time></trkpt><trkpt lat="44.14352978317524" lon="10.665988676331722"><ele>1386.0</ele><time>2026-04-16T08:54:44.001Z</time></trkpt><trkpt lat="44.14342093241896" lon="10.666076962388232"><ele>1386.0</ele><time>2026-04-16T08:54:45.001Z</time></trkpt><trkpt lat="44.143347112712156" lon="10.66615917148607"><ele>1386.0</ele><time>2026-04-16T08:54:46.001Z</time></trkpt><trkpt lat="44.14328208582807" lon="10.666305413747986"><ele>1384.5</ele><time>2026-04-16T08:54:47.001Z</time></trkpt><trkpt lat="44.14323138160203" lon="10.666440201127816"><ele>1383.0</ele><time>2026-04-16T08:54:48.001Z</time></trkpt><trkpt lat="44.143215736710474" lon="10.666673519482014"><ele>1381.5</ele><time>2026-04-16T08:54:49.001Z</time></trkpt><trkpt lat="44.14323379320201" lon="10.666895311643925"><ele>1380.0</ele><time>2026-04-16T08:54:50.001Z</time></trkpt><trkpt lat="44.14322449884529" lon="10.667103095058557"><ele>1382.0</ele><time>2026-04-16T08:54:51.001Z</time></trkpt><trkpt lat="44.14320592831593" lon="10.667295650121224"><ele>1384.0</ele><time>2026-04-16T08:54:52.001Z</time></trkpt><trkpt lat="44.14314420296321" lon="10.66749287591234"><ele>1386.0</ele><time>2026-04-16T08:54:53.001Z</time></trkpt><trkpt lat="44.143050858825625" lon="10.667676208611049"><ele>1383.0</ele><time>2026-04-16T08:54:54.001Z</time></trkpt><trkpt lat="44.14295919478591" lon="10.667843642646535"><ele>1380.0</ele><time>2026-04-16T08:54:55.001Z</time></trkpt><trkpt lat="44.14287412005152" lon="10.667977772383786"><ele>1377.0</ele><time>2026-04-16T08:54:56.001Z</time></trkpt><trkpt lat="44.14278231513758" lon="10.668084068156425"><ele>1374.0</ele><time>2026-04-16T08:54:57.001Z</time></trkpt><trkpt lat="44.142659158491554" lon="10.668151079545918"><ele>1374.0</ele><time>2026-04-16T08:54:58.001Z</time></trkpt><trkpt lat="44.14251570541292" lon="10.668183150654805"><ele>1374.0</ele><time>2026-04-16T08:54:59.001Z</time></trkpt><trkpt lat="44.142394707073485" lon="10.668174587070915"><ele>1374.0</ele><time>2026-04-16T08:55:00.001Z</time></trkpt><trkpt lat="44.14226237380308" lon="10.668152920368883"><ele>1374.0</ele><time>2026-04-16T08:55:01.001Z</time></trkpt><trkpt lat="44.1421607834118" lon="10.668147033343587"><ele>1374.0</ele><time>2026-04-16T08:55:02.001Z</time></trkpt><trkpt lat="44.14206793166456" lon="10.668169252363185"><ele>1374.0</ele><time>2026-04-16T08:55:03.001Z</time></trkpt><trkpt lat="44.1420099299515" lon="10.66824287317228"><ele>1374.0</ele><time>2026-04-16T08:55:04.001Z</time></trkpt><trkpt lat="44.14195800046751" lon="10.668346694999405"><ele>1374.0</ele><time>2026-04-16T08:55:05.001Z</time></trkpt><trkpt lat="44.14191489642772" lon="10.668499759346126"><ele>1374.0</ele><time>2026-04-16T08:55:06.001Z</time></trkpt><trkpt lat="44.14190020952852" lon="10.66868937720116"><ele>1374.0</ele><time>2026-04-16T08:55:07.001Z</time></trkpt><trkpt lat="44.141885839440384" lon="10.66889606521635"><ele>1374.0</ele><time>2026-04-16T08:55:08.001Z</time></trkpt><trkpt lat="44.141856998869606" lon="10.669112075340006"><ele>1374.0</ele><time>2026-04-16T08:55:09.001Z</time></trkpt><trkpt lat="44.141824773136264" lon="10.669305843938513"><ele>1374.0</ele><time>2026-04-16T08:55:10.001Z</time></trkpt><trkpt lat="44.14179030504743" lon="10.669495672729907"><ele>1370.6666666666667</ele><time>2026-04-16T08:55:11.001Z</time></trkpt><trkpt lat="44.14168199063267" lon="10.669653737996246"><ele>1367.3333333333335</ele><time>2026-04-16T08:55:12.001Z</time></trkpt><trkpt lat="44.1415736418628" lon="10.669818317994592"><ele>1364.0</ele><time>2026-04-16T08:55:13.001Z</time></trkpt><trkpt lat="44.14144767869925" lon="10.669956620039391"><ele>1364.3333333333335</ele><time>2026-04-16T08:55:14.001Z</time></trkpt><trkpt lat="44.14132010359353" lon="10.670101123640679"><ele>1364.6666666666667</ele><time>2026-04-16T08:55:15.001Z</time></trkpt><trkpt lat="44.14119036787552" lon="10.670238149278212"><ele>1365.0</ele><time>2026-04-16T08:55:16.001Z</time></trkpt><trkpt lat="44.141096875966184" lon="10.670367960066969"><ele>1365.0</ele><time>2026-04-16T08:55:17.001Z</time></trkpt><trkpt lat="44.141006386857015" lon="10.670474435643145"><ele>1365.0</ele><time>2026-04-16T08:55:18.001Z</time></trkpt><trkpt lat="44.14094712244966" lon="10.67062673092972"><ele>1365.0</ele><time>2026-04-16T08:55:19.001Z</time></trkpt><trkpt lat="44.140899813748085" lon="10.67080382826236"><ele>1365.0</ele><time>2026-04-16T08:55:20.001Z</time></trkpt><trkpt lat="44.140867602439414" lon="10.670957974957451"><ele>1365.0</ele><time>2026-04-16T08:55:21.001Z</time></trkpt><trkpt lat="44.14085715749528" lon="10.67109849975148"><ele>1365.0</ele><time>2026-04-16T08:55:22.001Z</time></trkpt><trkpt lat="44.140800705621324" lon="10.671162703339776"><ele>1365.0</ele><time>2026-04-16T08:55:23.001Z</time></trkpt><trkpt lat="44.14071264348849" lon="10.671188448862095"><ele>1365.0</ele><time>2026-04-16T08:55:24.001Z</time></trkpt><trkpt lat="44.14062270967273" lon="10.67118011968975"><ele>1365.0</ele><time>2026-04-16T08:55:25.001Z</time></trkpt><trkpt lat="44.14050469705107" lon="10.671134200056787"><ele>1362.6</ele><time>2026-04-16T08:55:26.001Z</time></trkpt><trkpt lat="44.1404001984808" lon="10.671119323980047"><ele>1360.2</ele><time>2026-04-16T08:55:27.001Z</time></trkpt><trkpt lat="44.140335999990015" lon="10.671146609581985"><ele>1357.8000000000002</ele><time>2026-04-16T08:55:28.001Z</time></trkpt><trkpt lat="44.14027008571239" lon="10.671234755895538"><ele>1355.4</ele><time>2026-04-16T08:55:29.001Z</time></trkpt><trkpt lat="44.1401717540933" lon="10.671443024919197"><ele>1353.0</ele><time>2026-04-16T08:55:30.001Z</time></trkpt><trkpt lat="44.14004083714468" lon="10.67164991042957"><ele>1353.0</ele><time>2026-04-16T08:55:31.001Z</time></trkpt><trkpt lat="44.13993120466742" lon="10.671824910166476"><ele>1353.0</ele><time>2026-04-16T08:55:32.001Z</time></trkpt><trkpt lat="44.139805026830025" lon="10.671992793323497"><ele>1353.0</ele><time>2026-04-16T08:55:33.001Z</time></trkpt><trkpt lat="44.139702748228196" lon="10.672135481968635"><ele>1353.75</ele><time>2026-04-16T08:55:34.001Z</time></trkpt><trkpt lat="44.13962725608562" lon="10.672269980922394"><ele>1354.5</ele><time>2026-04-16T08:55:35.001Z</time></trkpt><trkpt lat="44.13957227403646" lon="10.672413795367527"><ele>1355.25</ele><time>2026-04-16T08:55:36.001Z</time></trkpt><trkpt lat="44.13954018871973" lon="10.67258369840397"><ele>1356.0</ele><time>2026-04-16T08:55:37.001Z</time></trkpt><trkpt lat="44.13954103478726" lon="10.672773704417727"><ele>1353.5</ele><time>2026-04-16T08:55:38.001Z</time></trkpt><trkpt lat="44.139583533808235" lon="10.672970516435742"><ele>1351.0</ele><time>2026-04-16T08:55:39.001Z</time></trkpt><trkpt lat="44.13958732488563" lon="10.673143958331426"><ele>1348.5</ele><time>2026-04-16T08:55:40.001Z</time></trkpt><trkpt lat="44.13955907741381" lon="10.6733082869768"><ele>1346.0</ele><time>2026-04-16T08:55:41.001Z</time></trkpt><trkpt lat="44.1394725048144" lon="10.673468149691441"><ele>1345.3333333333335</ele><time>2026-04-16T08:55:42.001Z</time></trkpt><trkpt lat="44.13941416858355" lon="10.673653393629733"><ele>1344.6666666666667</ele><time>2026-04-16T08:55:43.001Z</time></trkpt><trkpt lat="44.1393516274779" lon="10.673856622338695"><ele>1344.0</ele><time>2026-04-16T08:55:44.001Z</time></trkpt><trkpt lat="44.13928110768923" lon="10.674073126870399"><ele>1344.0</ele><time>2026-04-16T08:55:45.001Z</time></trkpt><trkpt lat="44.139205133768506" lon="10.674311483733513"><ele>1344.0</ele><time>2026-04-16T08:55:46.001Z</time></trkpt><trkpt lat="44.13912793837858" lon="10.674542161512932"><ele>1344.0</ele><time>2026-04-16T08:55:47.001Z</time></trkpt><trkpt lat="44.139062778990244" lon="10.67478171057903"><ele>1342.3333333333333</ele><time>2026-04-16T08:55:48.001Z</time></trkpt><trkpt lat="44.13898515758153" lon="10.67502183659151"><ele>1340.6666666666665</ele><time>2026-04-16T08:55:49.001Z</time></trkpt><trkpt lat="44.13892973131159" lon="10.675242165159451"><ele>1339.0</ele><time>2026-04-16T08:55:50.001Z</time></trkpt><trkpt lat="44.1388738826018" lon="10.675429175708102"><ele>1335.5</ele><time>2026-04-16T08:55:51.001Z</time></trkpt><trkpt lat="44.13881509053588" lon="10.67559087216775"><ele>1332.0</ele><time>2026-04-16T08:55:52.001Z</time></trkpt><trkpt lat="44.13877678710996" lon="10.67576286859446"><ele>1328.5</ele><time>2026-04-16T08:55:53.001Z</time></trkpt><trkpt lat="44.138719991382835" lon="10.675926936258673"><ele>1325.0</ele><time>2026-04-16T08:55:54.001Z</time></trkpt><trkpt lat="44.13861191617198" lon="10.676056755907135"><ele>1328.0</ele><time>2026-04-16T08:55:55.001Z</time></trkpt><trkpt lat="44.13846985386875" lon="10.676147825805288"><ele>1331.0</ele><time>2026-04-16T08:55:56.001Z</time></trkpt><trkpt lat="44.13832491283606" lon="10.676253950406515"><ele>1334.0</ele><time>2026-04-16T08:55:57.001Z</time></trkpt><trkpt lat="44.13817425233728" lon="10.6763863680652"><ele>1334.0</ele><time>2026-04-16T08:55:58.001Z</time></trkpt><trkpt lat="44.13804438944693" lon="10.676525481113375"><ele>1334.0</ele><time>2026-04-16T08:55:59.001Z</time></trkpt><trkpt lat="44.137943943819614" lon="10.6766633202145"><ele>1334.0</ele><time>2026-04-16T08:56:00.001Z</time></trkpt><trkpt lat="44.13785331471377" lon="10.676799544239914"><ele>1334.0</ele><time>2026-04-16T08:56:01.001Z</time></trkpt><trkpt lat="44.1377718046771" lon="10.676945485759765"><ele>1331.8000000000002</ele><time>2026-04-16T08:56:02.001Z</time></trkpt><trkpt lat="44.137705751509884" lon="10.67707887760721"><ele>1329.6000000000001</ele><time>2026-04-16T08:56:03.001Z</time></trkpt><trkpt lat="44.137605132460116" lon="10.677149164573061"><ele>1327.4</ele><time>2026-04-16T08:56:04.001Z</time></trkpt><trkpt lat="44.13749065158692" lon="10.677168366190736"><ele>1325.2</ele><time>2026-04-16T08:56:05.001Z</time></trkpt><trkpt lat="44.13742220094346" lon="10.677195073604622"><ele>1323.0</ele><time>2026-04-16T08:56:06.001Z</time></trkpt><trkpt lat="44.13737415834904" lon="10.677279685344754"><ele>1328.5</ele><time>2026-04-16T08:56:07.001Z</time></trkpt><trkpt lat="44.13731767571121" lon="10.677442799608068"><ele>1334.0</ele><time>2026-04-16T08:56:08.001Z</time></trkpt><trkpt lat="44.13728690720887" lon="10.67763043026809"><ele>1339.5</ele><time>2026-04-16T08:56:09.001Z</time></trkpt><trkpt lat="44.1372884500501" lon="10.677848679145159"><ele>1345.0</ele><time>2026-04-16T08:56:10.001Z</time></trkpt><trkpt lat="44.13730664481069" lon="10.678073051029177"><ele>1345.0</ele><time>2026-04-16T08:56:11.001Z</time></trkpt><trkpt lat="44.1373697858714" lon="10.678329668265192"><ele>1345.0</ele><time>2026-04-16T08:56:12.001Z</time></trkpt><trkpt lat="44.13743110650729" lon="10.678547353405067"><ele>1345.0</ele><time>2026-04-16T08:56:13.001Z</time></trkpt><trkpt lat="44.1374723865279" lon="10.678721603128317"><ele>1342.6</ele><time>2026-04-16T08:56:14.001Z</time></trkpt><trkpt lat="44.13750269465083" lon="10.67887654331361"><ele>1340.2</ele><time>2026-04-16T08:56:15.001Z</time></trkpt><trkpt lat="44.1374897841363" lon="10.679006864787068"><ele>1337.8000000000002</ele><time>2026-04-16T08:56:16.001Z</time></trkpt><trkpt lat="44.13744769458503" lon="10.67911453035381"><ele>1335.4</ele><time>2026-04-16T08:56:17.001Z</time></trkpt><trkpt lat="44.137351162122876" lon="10.679215017824857"><ele>1333.0</ele><time>2026-04-16T08:56:18.001Z</time></trkpt><trkpt lat="44.137209814935694" lon="10.67927897621216"><ele>1333.0</ele><time>2026-04-16T08:56:19.001Z</time></trkpt><trkpt lat="44.137080844676596" lon="10.67937613879392"><ele>1333.0</ele><time>2026-04-16T08:56:20.001Z</time></trkpt><trkpt lat="44.13696134360805" lon="10.679508130451019"><ele>1333.0</ele><time>2026-04-16T08:56:21.001Z</time></trkpt><trkpt lat="44.136863698078294" lon="10.679595816445186"><ele>1333.0</ele><time>2026-04-16T08:56:22.001Z</time></trkpt><trkpt lat="44.136754995631456" lon="10.679615037772034"><ele>1331.5</ele><time>2026-04-16T08:56:23.001Z</time></trkpt><trkpt lat="44.13665268519172" lon="10.679566529026133"><ele>1330.0</ele><time>2026-04-16T08:56:24.001Z</time></trkpt><trkpt lat="44.13655576815203" lon="10.679502584969871"><ele>1328.5</ele><time>2026-04-16T08:56:25.001Z</time></trkpt><trkpt lat="44.136450395292506" lon="10.679517410780239"><ele>1327.0</ele><time>2026-04-16T08:56:26.001Z</time></trkpt><trkpt lat="44.136363767120166" lon="10.679666915151671"><ele>1327.0</ele><time>2026-04-16T08:56:27.001Z</time></trkpt><trkpt lat="44.136269457475734" lon="10.679838887116048"><ele>1327.0</ele><time>2026-04-16T08:56:28.001Z</time></trkpt><trkpt lat="44.136153077178946" lon="10.680092646732254"><ele>1327.0</ele><time>2026-04-16T08:56:29.001Z</time></trkpt><trkpt lat="44.13604577197806" lon="10.68030411162389"><ele>1326.3333333333333</ele><time>2026-04-16T08:56:30.001Z</time></trkpt><trkpt lat="44.135919120071264" lon="10.680507603571678"><ele>1325.6666666666667</ele><time>2026-04-16T08:56:31.001Z</time></trkpt><trkpt lat="44.13579524039648" lon="10.680706633248906"><ele>1325.0</ele><time>2026-04-16T08:56:32.001Z</time></trkpt><trkpt lat="44.13566209257306" lon="10.680898925502737"><ele>1325.0</ele><time>2026-04-16T08:56:33.001Z</time></trkpt><trkpt lat="44.135523548467674" lon="10.681065132522859"><ele>1325.0</ele><time>2026-04-16T08:56:34.001Z</time></trkpt><trkpt lat="44.13539432431444" lon="10.681212352363515"><ele>1325.0</ele><time>2026-04-16T08:56:35.001Z</time></trkpt><trkpt lat="44.13525259678204" lon="10.681342546479545"><ele>1325.0</ele><time>2026-04-16T08:56:36.001Z</time></trkpt><trkpt lat="44.135103554893675" lon="10.681461685754414"><ele>1325.0</ele><time>2026-04-16T08:56:37.001Z</time></trkpt><trkpt lat="44.13495044780154" lon="10.68158129153008"><ele>1325.0</ele><time>2026-04-16T08:56:38.001Z</time></trkpt><trkpt lat="44.13479165279367" lon="10.681733402042967"><ele>1325.0</ele><time>2026-04-16T08:56:39.001Z</time></trkpt><trkpt lat="44.134644942878985" lon="10.681907173275139"><ele>1325.0</ele><time>2026-04-16T08:56:40.001Z</time></trkpt><trkpt lat="44.134501828444016" lon="10.682094747405381"><ele>1325.0</ele><time>2026-04-16T08:56:41Z</time></trkpt><trkpt lat="44.13438659737387" lon="10.682265406682557"><ele>1319.3333333333335</ele><time>2026-04-16T08:56:42Z</time></trkpt><trkpt lat="44.1342950422978" lon="10.682432205726686"><ele>1313.6666666666667</ele><time>2026-04-16T08:56:43Z</time></trkpt><trkpt lat="44.13420547100026" lon="10.682633706260534"><ele>1308.0</ele><time>2026-04-16T08:56:44Z</time></trkpt><trkpt lat="44.134123019724406" lon="10.682845813239668"><ele>1306.0</ele><time>2026-04-16T08:56:45Z</time></trkpt><trkpt lat="44.134058454661286" lon="10.68300576618279"><ele>1304.0</ele><time>2026-04-16T08:56:46Z</time></trkpt><trkpt lat="44.13397564323025" lon="10.683119251590728"><ele>1302.0</ele><time>2026-04-16T08:56:47Z</time></trkpt><trkpt lat="44.133861741145395" lon="10.683149331355029"><ele>1300.0</ele><time>2026-04-16T08:56:48Z</time></trkpt><trkpt lat="44.133734198454384" lon="10.683171289016293"><ele>1300.0</ele><time>2026-04-16T08:56:49Z</time></trkpt><trkpt lat="44.13360200589621" lon="10.683187199472622"><ele>1300.0</ele><time>2026-04-16T08:56:50Z</time></trkpt><trkpt lat="44.13346787364846" lon="10.68320691184639"><ele>1300.0</ele><time>2026-04-16T08:56:51Z</time></trkpt><trkpt lat="44.133342043953306" lon="10.683331660282956"><ele>1300.0</ele><time>2026-04-16T08:56:52Z</time></trkpt><trkpt lat="44.13321617085752" lon="10.683488581234727"><ele>1297.6666666666665</ele><time>2026-04-16T08:56:53Z</time></trkpt><trkpt lat="44.13308493394303" lon="10.683660074379652"><ele>1295.3333333333333</ele><time>2026-04-16T08:56:54Z</time></trkpt><trkpt lat="44.13296248316113" lon="10.683828013152729"><ele>1293.0</ele><time>2026-04-16T08:56:55Z</time></trkpt><trkpt lat="44.13282083554608" lon="10.683987614979483"><ele>1293.0</ele><time>2026-04-16T08:56:56Z</time></trkpt><trkpt lat="44.1327106772196" lon="10.684117537412565"><ele>1293.0</ele><time>2026-04-16T08:56:57Z</time></trkpt><trkpt lat="44.13262763290734" lon="10.68428422518832"><ele>1293.0</ele><time>2026-04-16T08:56:58Z</time></trkpt><trkpt lat="44.13256747076433" lon="10.68447323958985"><ele>1293.0</ele><time>2026-04-16T08:56:59Z</time></trkpt><trkpt lat="44.132530669607" lon="10.684695215535193"><ele>1287.6666666666667</ele><time>2026-04-16T08:57:00Z</time></trkpt><trkpt lat="44.132496925408105" lon="10.68492147397724"><ele>1282.3333333333335</ele><time>2026-04-16T08:57:01Z</time></trkpt><trkpt lat="44.132463114605976" lon="10.68513550051945"><ele>1277.0</ele><time>2026-04-16T08:57:02Z</time></trkpt><trkpt lat="44.132403117208526" lon="10.68531112936979"><ele>1275.25</ele><time>2026-04-16T08:57:03Z</time></trkpt><trkpt lat="44.132312941125356" lon="10.685449414540953"><ele>1273.5</ele><time>2026-04-16T08:57:04Z</time></trkpt><trkpt lat="44.13218860188323" lon="10.685558159256695"><ele>1271.75</ele><time>2026-04-16T08:57:05Z</time></trkpt><trkpt lat="44.13204361248669" lon="10.685636498614532"><ele>1270.0</ele><time>2026-04-16T08:57:06Z</time></trkpt><trkpt lat="44.131896264536024" lon="10.685726022471696"><ele>1270.0</ele><time>2026-04-16T08:57:07Z</time></trkpt><trkpt lat="44.13175407905682" lon="10.685838481912487"><ele>1270.0</ele><time>2026-04-16T08:57:08Z</time></trkpt><trkpt lat="44.13159522402716" lon="10.685955359482296"><ele>1270.0</ele><time>2026-04-16T08:57:09.001Z</time></trkpt><trkpt lat="44.13145480965528" lon="10.686122539318223"><ele>1269.0</ele><time>2026-04-16T08:57:10.001Z</time></trkpt><trkpt lat="44.131281446058395" lon="10.686271269378256"><ele>1268.0</ele><time>2026-04-16T08:57:11.001Z</time></trkpt><trkpt lat="44.13111684611808" lon="10.686422798436656"><ele>1267.0</ele><time>2026-04-16T08:57:12.001Z</time></trkpt><trkpt lat="44.13094223478215" lon="10.686572630463917"><ele>1267.0</ele><time>2026-04-16T08:57:13.001Z</time></trkpt><trkpt lat="44.13077194964248" lon="10.68672144180179"><ele>1267.0</ele><time>2026-04-16T08:57:14.001Z</time></trkpt><trkpt lat="44.130623401964364" lon="10.686863852211461"><ele>1267.0</ele><time>2026-04-16T08:57:15.001Z</time></trkpt><trkpt lat="44.13048052232144" lon="10.687038048540137"><ele>1267.6666666666665</ele><time>2026-04-16T08:57:16.001Z</time></trkpt><trkpt lat="44.13033957358289" lon="10.687231470344502"><ele>1268.3333333333333</ele><time>2026-04-16T08:57:17.001Z</time></trkpt><trkpt lat="44.13019982044748" lon="10.687434396602292"><ele>1269.0</ele><time>2026-04-16T08:57:18.001Z</time></trkpt><trkpt lat="44.13006641189063" lon="10.687643513963653"><ele>1269.6666666666667</ele><time>2026-04-16T08:57:19.001Z</time></trkpt><trkpt lat="44.1299353436411" lon="10.687840628081442"><ele>1270.3333333333335</ele><time>2026-04-16T08:57:20.001Z</time></trkpt><trkpt lat="44.12982048321358" lon="10.688022858930474"><ele>1271.0</ele><time>2026-04-16T08:57:21.001Z</time></trkpt><trkpt lat="44.12968993248521" lon="10.688203708801742"><ele>1271.0</ele><time>2026-04-16T08:57:22.001Z</time></trkpt><trkpt lat="44.12955099810235" lon="10.68836760872918"><ele>1271.0</ele><time>2026-04-16T08:57:23.001Z</time></trkpt><trkpt lat="44.12940403961899" lon="10.688500666615763"><ele>1271.0</ele><time>2026-04-16T08:57:24.001Z</time></trkpt><trkpt lat="44.129269262668466" lon="10.68861535722374"><ele>1273.3333333333335</ele><time>2026-04-16T08:57:25.001Z</time></trkpt><trkpt lat="44.12912955739904" lon="10.6887306657228"><ele>1275.6666666666667</ele><time>2026-04-16T08:57:26.001Z</time></trkpt><trkpt lat="44.12898305041219" lon="10.688842862423748"><ele>1278.0</ele><time>2026-04-16T08:57:27.001Z</time></trkpt><trkpt lat="44.12883874252807" lon="10.688976818902637"><ele>1278.0</ele><time>2026-04-16T08:57:28.001Z</time></trkpt><trkpt lat="44.128702397160545" lon="10.689114155184807"><ele>1278.0</ele><time>2026-04-16T08:57:29.001Z</time></trkpt><trkpt lat="44.12858555436697" lon="10.689272987451545"><ele>1278.0</ele><time>2026-04-16T08:57:30.001Z</time></trkpt><trkpt lat="44.128516754434145" lon="10.689425547182967"><ele>1277.25</ele><time>2026-04-16T08:57:31.001Z</time></trkpt><trkpt lat="44.12846579783496" lon="10.689605503783394"><ele>1276.5</ele><time>2026-04-16T08:57:32.001Z</time></trkpt><trkpt lat="44.12844092647191" lon="10.689798378953109"><ele>1275.75</ele><time>2026-04-16T08:57:33.001Z</time></trkpt><trkpt lat="44.12843388066597" lon="10.689999401364796"><ele>1275.0</ele><time>2026-04-16T08:57:34.001Z</time></trkpt><trkpt lat="44.12844578408182" lon="10.690204886263352"><ele>1274.25</ele><time>2026-04-16T08:57:35.001Z</time></trkpt><trkpt lat="44.128466116904654" lon="10.690395816576888"><ele>1273.5</ele><time>2026-04-16T08:57:36.001Z</time></trkpt><trkpt lat="44.128494394299295" lon="10.690567111482249"><ele>1272.75</ele><time>2026-04-16T08:57:37.001Z</time></trkpt><trkpt lat="44.12851714050367" lon="10.690723880056392"><ele>1272.0</ele><time>2026-04-16T08:57:38.001Z</time></trkpt><trkpt lat="44.12852314595711" lon="10.690881666030574"><ele>1272.0</ele><time>2026-04-16T08:57:39.001Z</time></trkpt><trkpt lat="44.12848693920239" lon="10.691017321471039"><ele>1272.0</ele><time>2026-04-16T08:57:40.001Z</time></trkpt><trkpt lat="44.12841587373932" lon="10.69115210427234"><ele>1272.0</ele><time>2026-04-16T08:57:41.001Z</time></trkpt><trkpt lat="44.12832130079434" lon="10.69127934450917"><ele>1272.0</ele><time>2026-04-16T08:57:42.001Z</time></trkpt><trkpt lat="44.1282439775005" lon="10.691416711965509"><ele>1276.0</ele><time>2026-04-16T08:57:43.001Z</time></trkpt><trkpt lat="44.12819991368368" lon="10.691573423493418"><ele>1280.0</ele><time>2026-04-16T08:57:44.001Z</time></trkpt><trkpt lat="44.12817669307409" lon="10.691762046671116"><ele>1284.0</ele><time>2026-04-16T08:57:45.001Z</time></trkpt><trkpt lat="44.128172738824745" lon="10.691984143911334"><ele>1288.0</ele><time>2026-04-16T08:57:46.001Z</time></trkpt><trkpt lat="44.12815941061066" lon="10.692192688948047"><ele>1288.0</ele><time>2026-04-16T08:57:47.001Z</time></trkpt><trkpt lat="44.12813899846789" lon="10.692370580041848"><ele>1288.0</ele><time>2026-04-16T08:57:48.001Z</time></trkpt><trkpt lat="44.12808216254523" lon="10.692520599367143"><ele>1288.0</ele><time>2026-04-16T08:57:49.001Z</time></trkpt><trkpt lat="44.128015571149355" lon="10.692644210068066"><ele>1288.0</ele><time>2026-04-16T08:57:50.001Z</time></trkpt><trkpt lat="44.12798126171449" lon="10.692797374945803"><ele>1286.25</ele><time>2026-04-16T08:57:51.001Z</time></trkpt><trkpt lat="44.127989412154704" lon="10.692985317960284"><ele>1284.5</ele><time>2026-04-16T08:57:52.001Z</time></trkpt><trkpt lat="44.128014808785856" lon="10.693180163353183"><ele>1282.75</ele><time>2026-04-16T08:57:53.001Z</time></trkpt><trkpt lat="44.12806090472536" lon="10.693392300502929"><ele>1281.0</ele><time>2026-04-16T08:57:54.001Z</time></trkpt><trkpt lat="44.12807616404427" lon="10.693581657406616"><ele>1280.75</ele><time>2026-04-16T08:57:55.001Z</time></trkpt><trkpt lat="44.12807950891981" lon="10.693768554380927"><ele>1280.5</ele><time>2026-04-16T08:57:56.001Z</time></trkpt><trkpt lat="44.12804244819708" lon="10.693947611037576"><ele>1280.25</ele><time>2026-04-16T08:57:57.001Z</time></trkpt><trkpt lat="44.12797797828764" lon="10.69414647182698"><ele>1280.0</ele><time>2026-04-16T08:57:58.001Z</time></trkpt><trkpt lat="44.12790367136795" lon="10.6943555275783"><ele>1277.0</ele><time>2026-04-16T08:57:59.001Z</time></trkpt><trkpt lat="44.12781930164948" lon="10.69457120618142"><ele>1274.0</ele><time>2026-04-16T08:58:00.001Z</time></trkpt><trkpt lat="44.12774409895581" lon="10.69479693429304"><ele>1271.0</ele><time>2026-04-16T08:58:01.001Z</time></trkpt><trkpt lat="44.127658516796366" lon="10.695006523676657"><ele>1271.0</ele><time>2026-04-16T08:58:02.001Z</time></trkpt><trkpt lat="44.12754079650521" lon="10.695196687312757"><ele>1271.0</ele><time>2026-04-16T08:58:03.001Z</time></trkpt><trkpt lat="44.12742353698109" lon="10.695380381210207"><ele>1271.0</ele><time>2026-04-16T08:58:04.001Z</time></trkpt><trkpt lat="44.1273290840201" lon="10.695515716253645"><ele>1267.25</ele><time>2026-04-16T08:58:05.001Z</time></trkpt><trkpt lat="44.127224800487895" lon="10.695649600627606"><ele>1263.5</ele><time>2026-04-16T08:58:06.001Z</time></trkpt><trkpt lat="44.127093017493685" lon="10.69570626443433"><ele>1259.75</ele><time>2026-04-16T08:58:07.001Z</time></trkpt><trkpt lat="44.12694434024473" lon="10.69574476074415"><ele>1256.0</ele><time>2026-04-16T08:58:08.001Z</time></trkpt><trkpt lat="44.12677345861558" lon="10.695785741380039"><ele>1256.0</ele><time>2026-04-16T08:58:09.001Z</time></trkpt><trkpt lat="44.1266103691197" lon="10.695845725518497"><ele>1256.0</ele><time>2026-04-16T08:58:10.001Z</time></trkpt><trkpt lat="44.12644606546747" lon="10.695876536105672"><ele>1256.0</ele><time>2026-04-16T08:58:11.001Z</time></trkpt><trkpt lat="44.12630461721576" lon="10.695892115354663"><ele>1253.5</ele><time>2026-04-16T08:58:12.001Z</time></trkpt><trkpt lat="44.12616674244593" lon="10.695862939788043"><ele>1251.0</ele><time>2026-04-16T08:58:13.001Z</time></trkpt><trkpt lat="44.126042479165385" lon="10.695866001833988"><ele>1248.5</ele><time>2026-04-16T08:58:14.001Z</time></trkpt><trkpt lat="44.125925449330474" lon="10.695921103059534"><ele>1246.0</ele><time>2026-04-16T08:58:15.001Z</time></trkpt><trkpt lat="44.12582855599977" lon="10.696079773516052"><ele>1244.5</ele><time>2026-04-16T08:58:16.001Z</time></trkpt><trkpt lat="44.12573572469666" lon="10.696227466833369"><ele>1243.0</ele><time>2026-04-16T08:58:17.001Z</time></trkpt><trkpt lat="44.125633617649406" lon="10.69640066576581"><ele>1241.5</ele><time>2026-04-16T08:58:18.001Z</time></trkpt><trkpt lat="44.12555155199292" lon="10.696558623608702"><ele>1240.0</ele><time>2026-04-16T08:58:19.001Z</time></trkpt><trkpt lat="44.125503059104574" lon="10.696744980144437"><ele>1244.6666666666665</ele><time>2026-04-16T08:58:20.001Z</time></trkpt><trkpt lat="44.125477687821274" lon="10.696957362054052"><ele>1249.3333333333333</ele><time>2026-04-16T08:58:21.001Z</time></trkpt><trkpt lat="44.125465866320845" lon="10.697189407299811"><ele>1254.0</ele><time>2026-04-16T08:58:22.001Z</time></trkpt><trkpt lat="44.125464332728654" lon="10.697422062597033"><ele>1254.0</ele><time>2026-04-16T08:58:23.001Z</time></trkpt><trkpt lat="44.12546110539744" lon="10.697658769652781"><ele>1254.0</ele><time>2026-04-16T08:58:24.001Z</time></trkpt><trkpt lat="44.12546299721385" lon="10.697886417100172"><ele>1254.0</ele><time>2026-04-16T08:58:25.001Z</time></trkpt><trkpt lat="44.125447486465475" lon="10.698107179325918"><ele>1251.0</ele><time>2026-04-16T08:58:26.001Z</time></trkpt><trkpt lat="44.12540346526318" lon="10.6983035468669"><ele>1248.0</ele><time>2026-04-16T08:58:27.001Z</time></trkpt><trkpt lat="44.12531090035212" lon="10.69850923873381"><ele>1245.0</ele><time>2026-04-16T08:58:28.001Z</time></trkpt><trkpt lat="44.12521314420468" lon="10.698736269173898"><ele>1242.3333333333333</ele><time>2026-04-16T08:58:29.001Z</time></trkpt><trkpt lat="44.125111314511756" lon="10.698951775791889"><ele>1239.6666666666665</ele><time>2026-04-16T08:58:30.001Z</time></trkpt><trkpt lat="44.125006805266025" lon="10.699165100505601"><ele>1237.0</ele><time>2026-04-16T08:58:31.001Z</time></trkpt><trkpt lat="44.12492512742724" lon="10.699365110004448"><ele>1244.3333333333333</ele><time>2026-04-16T08:58:32.001Z</time></trkpt><trkpt lat="44.12486469050252" lon="10.699569021682917"><ele>1251.6666666666667</ele><time>2026-04-16T08:58:33.001Z</time></trkpt><trkpt lat="44.12483949262094" lon="10.699772982562845"><ele>1259.0</ele><time>2026-04-16T08:58:34.001Z</time></trkpt><trkpt lat="44.12482648033762" lon="10.699977799499523"><ele>1259.0</ele><time>2026-04-16T08:58:35.001Z</time></trkpt><trkpt lat="44.12483679714474" lon="10.700174447180895"><ele>1259.0</ele><time>2026-04-16T08:58:36.001Z</time></trkpt><trkpt lat="44.12487172853532" lon="10.700367238513236"><ele>1259.0</ele><time>2026-04-16T08:58:37.001Z</time></trkpt><trkpt lat="44.12492118242196" lon="10.70055390566629"><ele>1259.0</ele><time>2026-04-16T08:58:38.001Z</time></trkpt><trkpt lat="44.12500320568679" lon="10.700690079407174"><ele>1250.0</ele><time>2026-04-16T08:58:39.001Z</time></trkpt><trkpt lat="44.12508277329657" lon="10.700813555526548"><ele>1241.0</ele><time>2026-04-16T08:58:40.001Z</time></trkpt><trkpt lat="44.12512777282768" lon="10.70094790612513"><ele>1232.0</ele><time>2026-04-16T08:58:41.001Z</time></trkpt><trkpt lat="44.12512422282595" lon="10.701114761205753"><ele>1223.0</ele><time>2026-04-16T08:58:42.001Z</time></trkpt><trkpt lat="44.12507539208636" lon="10.70130736138755"><ele>1219.3333333333335</ele><time>2026-04-16T08:58:43.001Z</time></trkpt><trkpt lat="44.12501431744619" lon="10.701511186198374"><ele>1215.6666666666667</ele><time>2026-04-16T08:58:44.001Z</time></trkpt><trkpt lat="44.124956553898805" lon="10.701724873233553"><ele>1212.0</ele><time>2026-04-16T08:58:45.001Z</time></trkpt><trkpt lat="44.12490892394393" lon="10.701949349370407"><ele>1211.0</ele><time>2026-04-16T08:58:46.001Z</time></trkpt><trkpt lat="44.124891889704486" lon="10.702188348432097"><ele>1210.0</ele><time>2026-04-16T08:58:47.001Z</time></trkpt><trkpt lat="44.12488915966798" lon="10.702443521499347"><ele>1209.0</ele><time>2026-04-16T08:58:48.001Z</time></trkpt><trkpt lat="44.124903866607006" lon="10.702666430675201"><ele>1211.0</ele><time>2026-04-16T08:58:49.001Z</time></trkpt><trkpt lat="44.12493682497429" lon="10.702870899334084"><ele>1213.0</ele><time>2026-04-16T08:58:50.001Z</time></trkpt><trkpt lat="44.124996111961956" lon="10.703087093800598"><ele>1215.0</ele><time>2026-04-16T08:58:51.001Z</time></trkpt><trkpt lat="44.12506382827947" lon="10.703308366963173"><ele>1215.0</ele><time>2026-04-16T08:58:52.001Z</time></trkpt><trkpt lat="44.12515663723969" lon="10.70353348407423"><ele>1215.0</ele><time>2026-04-16T08:58:53.001Z</time></trkpt><trkpt lat="44.12524921667262" lon="10.703728314853828"><ele>1215.0</ele><time>2026-04-16T08:58:54.001Z</time></trkpt><trkpt lat="44.12535091144457" lon="10.703893118941474"><ele>1215.0</ele><time>2026-04-16T08:58:55.001Z</time></trkpt><trkpt lat="44.12545637581026" lon="10.704038974020444"><ele>1215.0</ele><time>2026-04-16T08:58:56.001Z</time></trkpt><trkpt lat="44.125572548215715" lon="10.704143474093652"><ele>1215.0</ele><time>2026-04-16T08:58:57.001Z</time></trkpt><trkpt lat="44.1256945357365" lon="10.704213979015213"><ele>1215.0</ele><time>2026-04-16T08:58:58.001Z</time></trkpt><trkpt lat="44.12581847049517" lon="10.704241864381983"><ele>1215.0</ele><time>2026-04-16T08:58:59.001Z</time></trkpt><trkpt lat="44.12594415397554" lon="10.704249493580669"><ele>1215.0</ele><time>2026-04-16T08:59:00.001Z</time></trkpt><trkpt lat="44.12606902531701" lon="10.704263425298738"><ele>1215.0</ele><time>2026-04-16T08:59:01.001Z</time></trkpt><trkpt lat="44.126182857095685" lon="10.704279526460006"><ele>1215.0</ele><time>2026-04-16T08:59:02.001Z</time></trkpt><trkpt lat="44.12627663272622" lon="10.704310602347572"><ele>1215.0</ele><time>2026-04-16T08:59:03.001Z</time></trkpt><trkpt lat="44.12632777697745" lon="10.704411188987235"><ele>1215.0</ele><time>2026-04-16T08:59:04.001Z</time></trkpt><trkpt lat="44.12635752928388" lon="10.704565242000028"><ele>1215.0</ele><time>2026-04-16T08:59:05.001Z</time></trkpt><trkpt lat="44.126362313548015" lon="10.704745166517249"><ele>1215.0</ele><time>2026-04-16T08:59:06.001Z</time></trkpt><trkpt lat="44.126347799154374" lon="10.704940554936002"><ele>1213.6666666666667</ele><time>2026-04-16T08:59:07.001Z</time></trkpt><trkpt lat="44.12633541229835" lon="10.705167621107387"><ele>1212.3333333333335</ele><time>2026-04-16T08:59:08.001Z</time></trkpt><trkpt lat="44.12633082195883" lon="10.705411103558951"><ele>1211.0</ele><time>2026-04-16T08:59:09.001Z</time></trkpt><trkpt lat="44.126310633317125" lon="10.705646612746433"><ele>1211.0</ele><time>2026-04-16T08:59:10.001Z</time></trkpt><trkpt lat="44.1262961737542" lon="10.705844081586157"><ele>1211.0</ele><time>2026-04-16T08:59:11.001Z</time></trkpt><trkpt lat="44.12628203939513" lon="10.706015509593794"><ele>1211.0</ele><time>2026-04-16T08:59:12.001Z</time></trkpt><trkpt lat="44.126260426145876" lon="10.706165647135503"><ele>1211.0</ele><time>2026-04-16T08:59:13.001Z</time></trkpt><trkpt lat="44.126215739946794" lon="10.706298546133356"><ele>1205.0</ele><time>2026-04-16T08:59:14.001Z</time></trkpt><trkpt lat="44.126151021972305" lon="10.706443916187759"><ele>1199.0</ele><time>2026-04-16T08:59:15.001Z</time></trkpt><trkpt lat="44.12604532948294" lon="10.706569182379235"><ele>1193.0</ele><time>2026-04-16T08:59:16.001Z</time></trkpt><trkpt lat="44.1259086445981" lon="10.70668679405684"><ele>1187.0</ele><time>2026-04-16T08:59:17.001Z</time></trkpt><trkpt lat="44.12576303367997" lon="10.706790353015178"><ele>1191.0</ele><time>2026-04-16T08:59:18.001Z</time></trkpt><trkpt lat="44.12562881333936" lon="10.706884754095048"><ele>1195.0</ele><time>2026-04-16T08:59:19.001Z</time></trkpt><trkpt lat="44.12552050398213" lon="10.707004772718085"><ele>1199.0</ele><time>2026-04-16T08:59:20.001Z</time></trkpt><trkpt lat="44.12542685856573" lon="10.707167278195424"><ele>1203.0</ele><time>2026-04-16T08:59:21.001Z</time></trkpt><trkpt lat="44.125315425476415" lon="10.707358944976535"><ele>1203.0</ele><time>2026-04-16T08:59:22.001Z</time></trkpt><trkpt lat="44.12522218424222" lon="10.707544818167976"><ele>1203.0</ele><time>2026-04-16T08:59:23.001Z</time></trkpt><trkpt lat="44.12514023951179" lon="10.707706997024223"><ele>1203.0</ele><time>2026-04-16T08:59:24.001Z</time></trkpt><trkpt lat="44.12508524901507" lon="10.707869418705764"><ele>1203.0</ele><time>2026-04-16T08:59:25.001Z</time></trkpt><trkpt lat="44.125048329569076" lon="10.708022789159143"><ele>1199.25</ele><time>2026-04-16T08:59:26.001Z</time></trkpt><trkpt lat="44.12503679130789" lon="10.70817511257976"><ele>1195.5</ele><time>2026-04-16T08:59:27.001Z</time></trkpt><trkpt lat="44.12505434852748" lon="10.708328021154758"><ele>1191.75</ele><time>2026-04-16T08:59:28.001Z</time></trkpt><trkpt lat="44.125093543939414" lon="10.708497350618735"><ele>1188.0</ele><time>2026-04-16T08:59:29.001Z</time></trkpt><trkpt lat="44.12517696930005" lon="10.708676875116346"><ele>1188.0</ele><time>2026-04-16T08:59:30.001Z</time></trkpt><trkpt lat="44.125276699870575" lon="10.708877105505413"><ele>1188.0</ele><time>2026-04-16T08:59:31.001Z</time></trkpt><trkpt lat="44.12536460352865" lon="10.709039557144107"><ele>1188.0</ele><time>2026-04-16T08:59:32.001Z</time></trkpt><trkpt lat="44.12544504746654" lon="10.70917159892272"><ele>1188.0</ele><time>2026-04-16T08:59:33.001Z</time></trkpt><trkpt lat="44.12555365604486" lon="10.709291797164626"><ele>1188.0</ele><time>2026-04-16T08:59:34.001Z</time></trkpt><trkpt lat="44.125663411101534" lon="10.709336406198608"><ele>1188.0</ele><time>2026-04-16T08:59:35.001Z</time></trkpt><trkpt lat="44.12577459591925" lon="10.709390115117907"><ele>1188.0</ele><time>2026-04-16T08:59:36.001Z</time></trkpt><trkpt lat="44.125858098006255" lon="10.70949905902201"><ele>1188.0</ele><time>2026-04-16T08:59:37.001Z</time></trkpt><trkpt lat="44.12590606480704" lon="10.709638678066915"><ele>1188.25</ele><time>2026-04-16T08:59:38.001Z</time></trkpt><trkpt lat="44.125916693683074" lon="10.709798368385757"><ele>1188.5</ele><time>2026-04-16T08:59:39.001Z</time></trkpt><trkpt lat="44.12590373290677" lon="10.709938048093177"><ele>1188.75</ele><time>2026-04-16T08:59:40.001Z</time></trkpt><trkpt lat="44.12582914316698" lon="10.71006429647655"><ele>1189.0</ele><time>2026-04-16T08:59:41.001Z</time></trkpt><trkpt lat="44.12570661900312" lon="10.710218654254334"><ele>1181.0</ele><time>2026-04-16T08:59:42.001Z</time></trkpt><trkpt lat="44.125584762045854" lon="10.710366015848152"><ele>1173.0</ele><time>2026-04-16T08:59:43.001Z</time></trkpt><trkpt lat="44.12548739932807" lon="10.710518030651885"><ele>1165.0</ele><time>2026-04-16T08:59:44.001Z</time></trkpt><trkpt lat="44.1253896324189" lon="10.710664196581808"><ele>1165.0</ele><time>2026-04-16T08:59:45.001Z</time></trkpt><trkpt lat="44.125269659085546" lon="10.710774978787898"><ele>1165.0</ele><time>2026-04-16T08:59:46.001Z</time></trkpt><trkpt lat="44.125162534700785" lon="10.710845992234411"><ele>1165.0</ele><time>2026-04-16T08:59:47.001Z</time></trkpt><trkpt lat="44.12508068954168" lon="10.710957125619016"><ele>1165.0</ele><time>2026-04-16T08:59:48.001Z</time></trkpt><trkpt lat="44.12498737806885" lon="10.71110290351055"><ele>1163.75</ele><time>2026-04-16T08:59:49.001Z</time></trkpt><trkpt lat="44.12490649407431" lon="10.711273626216844"><ele>1162.5</ele><time>2026-04-16T08:59:50.001Z</time></trkpt><trkpt lat="44.12479588740023" lon="10.711370301272153"><ele>1161.25</ele><time>2026-04-16T08:59:51.001Z</time></trkpt><trkpt lat="44.12468461034443" lon="10.711390566041938"><ele>1160.0</ele><time>2026-04-16T08:59:52.001Z</time></trkpt><trkpt lat="44.12457957619828" lon="10.711363911302305"><ele>1160.0</ele><time>2026-04-16T08:59:53.001Z</time></trkpt><trkpt lat="44.1245024756731" lon="10.711320246988238"><ele>1160.0</ele><time>2026-04-16T08:59:54.001Z</time></trkpt><trkpt lat="44.12441400308433" lon="10.711340512195004"><ele>1160.0</ele><time>2026-04-16T08:59:56.001Z</time></trkpt><trkpt lat="44.124373790199186" lon="10.711420248884595"><ele>1160.0</ele><time>2026-04-16T08:59:57.001Z</time></trkpt><trkpt lat="44.1243732528793" lon="10.711549191628222"><ele>1160.0</ele><time>2026-04-16T08:59:58.001Z</time></trkpt><trkpt lat="44.12437643696072" lon="10.711727964399463"><ele>1160.0</ele><time>2026-04-16T08:59:59.001Z</time></trkpt><trkpt lat="44.124355942338056" lon="10.711854769124121"><ele>1160.0</ele><time>2026-04-16T09:00:00.001Z</time></trkpt><trkpt lat="44.1243350332955" lon="10.7120170549871"><ele>1160.0</ele><time>2026-04-16T09:00:01.001Z</time></trkpt><trkpt lat="44.12429419058795" lon="10.71216372591159"><ele>1160.0</ele><time>2026-04-16T09:00:02.001Z</time></trkpt><trkpt lat="44.12422594145593" lon="10.712335746327764"><ele>1157.75</ele><time>2026-04-16T09:00:03.001Z</time></trkpt><trkpt lat="44.124167893093095" lon="10.712524473489616"><ele>1155.5</ele><time>2026-04-16T09:00:04.001Z</time></trkpt><trkpt lat="44.12412842187802" lon="10.712717351916032"><ele>1153.25</ele><time>2026-04-16T09:00:05.001Z</time></trkpt><trkpt lat="44.12408044500819" lon="10.712906099074006"><ele>1151.0</ele><time>2026-04-16T09:00:06.001Z</time></trkpt><trkpt lat="44.12398252526735" lon="10.713007137386365"><ele>1151.0</ele><time>2026-04-16T09:00:07.001Z</time></trkpt><trkpt lat="44.12386722794968" lon="10.713101913280799"><ele>1151.0</ele><time>2026-04-16T09:00:08.001Z</time></trkpt><trkpt lat="44.12378478219245" lon="10.713249900686419"><ele>1151.0</ele><time>2026-04-16T09:00:09.001Z</time></trkpt><trkpt lat="44.12370844503661" lon="10.713418833980235"><ele>1151.0</ele><time>2026-04-16T09:00:10.001Z</time></trkpt><trkpt lat="44.123627437424425" lon="10.713572920744951"><ele>1147.25</ele><time>2026-04-16T09:00:11.001Z</time></trkpt><trkpt lat="44.12361960917411" lon="10.713771521777964"><ele>1143.5</ele><time>2026-04-16T09:00:12.001Z</time></trkpt><trkpt lat="44.12365046725557" lon="10.713980522017263"><ele>1139.75</ele><time>2026-04-16T09:00:13.001Z</time></trkpt><trkpt lat="44.123700880895676" lon="10.71415479532332"><ele>1136.0</ele><time>2026-04-16T09:00:14.001Z</time></trkpt><trkpt lat="44.12372846978842" lon="10.714305103381184"><ele>1132.0</ele><time>2026-04-16T09:00:15.001Z</time></trkpt><trkpt lat="44.123731596019695" lon="10.714435449471136"><ele>1128.0</ele><time>2026-04-16T09:00:16.001Z</time></trkpt><trkpt lat="44.12368749892443" lon="10.7145368432514"><ele>1124.0</ele><time>2026-04-16T09:00:17.001Z</time></trkpt><trkpt lat="44.12357794551634" lon="10.71463107489915"><ele>1120.0</ele><time>2026-04-16T09:00:18.001Z</time></trkpt><trkpt lat="44.1234655981055" lon="10.714719186877467"><ele>1116.0</ele><time>2026-04-16T09:00:19.001Z</time></trkpt><trkpt lat="44.12336808465087" lon="10.714813484744218"><ele>1116.0</ele><time>2026-04-16T09:00:20.001Z</time></trkpt><trkpt lat="44.12329638244487" lon="10.714934773621819"><ele>1116.0</ele><time>2026-04-16T09:00:21.001Z</time></trkpt><trkpt lat="44.12324640060922" lon="10.715112270357416"><ele>1116.0</ele><time>2026-04-16T09:00:22.001Z</time></trkpt><trkpt lat="44.12319005747381" lon="10.715308745855976"><ele>1116.0</ele><time>2026-04-16T09:00:23.001Z</time></trkpt><trkpt lat="44.123123314182926" lon="10.715508409865778"><ele>1119.0</ele><time>2026-04-16T09:00:24.001Z</time></trkpt><trkpt lat="44.123033512508854" lon="10.715747125417101"><ele>1122.0</ele><time>2026-04-16T09:00:25.001Z</time></trkpt><trkpt lat="44.12292798779001" lon="10.715940601683124"><ele>1125.0</ele><time>2026-04-16T09:00:26.001Z</time></trkpt><trkpt lat="44.12284490092978" lon="10.716099062738275"><ele>1121.4</ele><time>2026-04-16T09:00:27.001Z</time></trkpt><trkpt lat="44.12276677333173" lon="10.716207648612091"><ele>1117.8</ele><time>2026-04-16T09:00:28.001Z</time></trkpt><trkpt lat="44.12272222376527" lon="10.716307376847803"><ele>1114.2</ele><time>2026-04-16T09:00:29.001Z</time></trkpt><trkpt lat="44.122695191567026" lon="10.716431211648437"><ele>1110.6</ele><time>2026-04-16T09:00:30.001Z</time></trkpt><trkpt lat="44.12271083226519" lon="10.716544994365968"><ele>1107.0</ele><time>2026-04-16T09:00:31.001Z</time></trkpt><trkpt lat="44.12275138982251" lon="10.716644805270077"><ele>1107.0</ele><time>2026-04-16T09:00:32.001Z</time></trkpt><trkpt lat="44.122840552056715" lon="10.716698983740246"><ele>1107.0</ele><time>2026-04-16T09:00:33.001Z</time></trkpt><trkpt lat="44.12294740056141" lon="10.716684427424834"><ele>1107.0</ele><time>2026-04-16T09:00:34.001Z</time></trkpt><trkpt lat="44.12305798922429" lon="10.716596781347146"><ele>1107.0</ele><time>2026-04-16T09:00:35.001Z</time></trkpt><trkpt lat="44.123156560296465" lon="10.71642540809018"><ele>1101.3333333333333</ele><time>2026-04-16T09:00:36.001Z</time></trkpt><trkpt lat="44.12325232281252" lon="10.716261606766023"><ele>1095.6666666666665</ele><time>2026-04-16T09:00:37.001Z</time></trkpt><trkpt lat="44.12335291386346" lon="10.716089477670055"><ele>1090.0</ele><time>2026-04-16T09:00:38.001Z</time></trkpt><trkpt lat="44.12345705978666" lon="10.715909379752881"><ele>1090.0</ele><time>2026-04-16T09:00:39.001Z</time></trkpt><trkpt lat="44.1235541964671" lon="10.71574119206815"><ele>1090.0</ele><time>2026-04-16T09:00:40.001Z</time></trkpt><trkpt lat="44.123628620525615" lon="10.715612330241472"><ele>1090.0</ele><time>2026-04-16T09:00:41.001Z</time></trkpt><trkpt lat="44.123699948153345" lon="10.71550366952377"><ele>1090.0</ele><time>2026-04-16T09:00:42Z</time></trkpt><trkpt lat="44.12377509038343" lon="10.715418319690086"><ele>1090.0</ele><time>2026-04-16T09:00:43Z</time></trkpt><trkpt lat="44.12385265591095" lon="10.715425265841"><ele>1090.0</ele><time>2026-04-16T09:00:45Z</time></trkpt><trkpt lat="44.12391750206691" lon="10.715474420542686"><ele>1090.0</ele><time>2026-04-16T09:00:46Z</time></trkpt><trkpt lat="44.12394305357899" lon="10.715575439943049"><ele>1090.0</ele><time>2026-04-16T09:00:47.001Z</time></trkpt><trkpt lat="44.12387798944151" lon="10.715690454101537"><ele>1090.0</ele><time>2026-04-16T09:00:48.001Z</time></trkpt><trkpt lat="44.123791903392416" lon="10.715806977381948"><ele>1090.0</ele><time>2026-04-16T09:00:49.001Z</time></trkpt><trkpt lat="44.123690602477005" lon="10.71592669835377"><ele>1090.0</ele><time>2026-04-16T09:00:50.001Z</time></trkpt><trkpt lat="44.123597585501486" lon="10.716067827062568"><ele>1090.0</ele><time>2026-04-16T09:00:51.001Z</time></trkpt><trkpt lat="44.12350769737246" lon="10.716255606664495"><ele>1090.0</ele><time>2026-04-16T09:00:52.001Z</time></trkpt><trkpt lat="44.1234141024348" lon="10.716457343700217"><ele>1089.6666666666665</ele><time>2026-04-16T09:00:53.001Z</time></trkpt><trkpt lat="44.12331906634216" lon="10.716657904138131"><ele>1089.3333333333333</ele><time>2026-04-16T09:00:54.001Z</time></trkpt><trkpt lat="44.1232115209257" lon="10.716856334230538"><ele>1089.0</ele><time>2026-04-16T09:00:55.001Z</time></trkpt><trkpt lat="44.12308659394321" lon="10.717060443608482"><ele>1089.0</ele><time>2026-04-16T09:00:56.001Z</time></trkpt><trkpt lat="44.12295759107282" lon="10.717269857918831"><ele>1089.0</ele><time>2026-04-16T09:00:57.001Z</time></trkpt><trkpt lat="44.122831187305955" lon="10.717467900597388"><ele>1089.0</ele><time>2026-04-16T09:00:58.001Z</time></trkpt><trkpt lat="44.12271335768309" lon="10.717666038106172"><ele>1090.3333333333333</ele><time>2026-04-16T09:00:59.001Z</time></trkpt><trkpt lat="44.12260441528895" lon="10.71787317873193"><ele>1091.6666666666665</ele><time>2026-04-16T09:01:00.001Z</time></trkpt><trkpt lat="44.122487460274556" lon="10.718076680289593"><ele>1093.0</ele><time>2026-04-16T09:01:01.001Z</time></trkpt><trkpt lat="44.12236806121768" lon="10.718270707506022"><ele>1093.0</ele><time>2026-04-16T09:01:02.001Z</time></trkpt><trkpt lat="44.12226619337721" lon="10.718458522465907"><ele>1093.0</ele><time>2026-04-16T09:01:03.001Z</time></trkpt><trkpt lat="44.122162452023154" lon="10.718642725507"><ele>1093.0</ele><time>2026-04-16T09:01:04.001Z</time></trkpt><trkpt lat="44.12206969954671" lon="10.718811715683982"><ele>1090.2</ele><time>2026-04-16T09:01:05.001Z</time></trkpt><trkpt lat="44.12198880341178" lon="10.718956863821909"><ele>1087.4</ele><time>2026-04-16T09:01:06.001Z</time></trkpt><trkpt lat="44.12192146712043" lon="10.719074034076268"><ele>1084.6000000000001</ele><time>2026-04-16T09:01:07.001Z</time></trkpt><trkpt lat="44.12188490594431" lon="10.719184977114736"><ele>1081.8</ele><time>2026-04-16T09:01:08.001Z</time></trkpt><trkpt lat="44.12187739271618" lon="10.719331829846812"><ele>1079.0</ele><time>2026-04-16T09:01:09.001Z</time></trkpt><trkpt lat="44.12190340406299" lon="10.719507617227732"><ele>1079.0</ele><time>2026-04-16T09:01:10.001Z</time></trkpt><trkpt lat="44.1219418190965" lon="10.719698072247528"><ele>1079.0</ele><time>2026-04-16T09:01:11.001Z</time></trkpt><trkpt lat="44.12197721147193" lon="10.719910398203275"><ele>1079.0</ele><time>2026-04-16T09:01:12.001Z</time></trkpt><trkpt lat="44.12201156522973" lon="10.720135524609903"><ele>1082.75</ele><time>2026-04-16T09:01:13.001Z</time></trkpt><trkpt lat="44.12204221362298" lon="10.720346838168204"><ele>1086.5</ele><time>2026-04-16T09:01:14.001Z</time></trkpt><trkpt lat="44.122070806700314" lon="10.720532586940202"><ele>1090.25</ele><time>2026-04-16T09:01:15.001Z</time></trkpt><trkpt lat="44.12211610360313" lon="10.720710755611782"><ele>1094.0</ele><time>2026-04-16T09:01:16.001Z</time></trkpt><trkpt lat="44.12217964483241" lon="10.720877122408972"><ele>1094.0</ele><time>2026-04-16T09:01:17.001Z</time></trkpt><trkpt lat="44.12226968025328" lon="10.721052152937547"><ele>1094.0</ele><time>2026-04-16T09:01:18.001Z</time></trkpt><trkpt lat="44.12237595989225" lon="10.721249197179624"><ele>1094.0</ele><time>2026-04-16T09:01:19.001Z</time></trkpt><trkpt lat="44.12249090569009" lon="10.721449482322463"><ele>1083.0</ele><time>2026-04-16T09:01:20.001Z</time></trkpt><trkpt lat="44.12260475069767" lon="10.7216542962123"><ele>1072.0</ele><time>2026-04-16T09:01:21.001Z</time></trkpt><trkpt lat="44.1227207890453" lon="10.72185680423309"><ele>1061.0</ele><time>2026-04-16T09:01:22.001Z</time></trkpt><trkpt lat="44.12282385898483" lon="10.722035776354295"><ele>1061.0</ele><time>2026-04-16T09:01:23.001Z</time></trkpt><trkpt lat="44.12290552859807" lon="10.722195583175811"><ele>1061.0</ele><time>2026-04-16T09:01:24.001Z</time></trkpt><trkpt lat="44.122980901587454" lon="10.722325721656937"><ele>1061.0</ele><time>2026-04-16T09:01:25.001Z</time></trkpt><trkpt lat="44.12304435710538" lon="10.72244271382428"><ele>1061.0</ele><time>2026-04-16T09:01:26.001Z</time></trkpt><trkpt lat="44.12308177166632" lon="10.722571317175598"><ele>1061.0</ele><time>2026-04-16T09:01:27.001Z</time></trkpt><trkpt lat="44.12308311676561" lon="10.722713128148305"><ele>1061.0</ele><time>2026-04-16T09:01:28.001Z</time></trkpt><trkpt lat="44.12302860654533" lon="10.722857003751939"><ele>1061.0</ele><time>2026-04-16T09:01:29.001Z</time></trkpt><trkpt lat="44.1229372928277" lon="10.72298900713826"><ele>1061.0</ele><time>2026-04-16T09:01:30.001Z</time></trkpt><trkpt lat="44.12282950588399" lon="10.72312013821373"><ele>1056.25</ele><time>2026-04-16T09:01:31.001Z</time></trkpt><trkpt lat="44.12273072020383" lon="10.723270066839714"><ele>1051.5</ele><time>2026-04-16T09:01:32.001Z</time></trkpt><trkpt lat="44.12263785956095" lon="10.723438763030986"><ele>1046.75</ele><time>2026-04-16T09:01:33.001Z</time></trkpt><trkpt lat="44.12255135004471" lon="10.723601558547024"><ele>1042.0</ele><time>2026-04-16T09:01:34.001Z</time></trkpt><trkpt lat="44.12244738369927" lon="10.72375000931551"><ele>1046.0</ele><time>2026-04-16T09:01:35.001Z</time></trkpt><trkpt lat="44.12235422267135" lon="10.723885241132361"><ele>1050.0</ele><time>2026-04-16T09:01:36.001Z</time></trkpt><trkpt lat="44.12228721778353" lon="10.724011092948114"><ele>1054.0</ele><time>2026-04-16T09:01:37.001Z</time></trkpt><trkpt lat="44.12225766758639" lon="10.72415795962874"><ele>1058.0</ele><time>2026-04-16T09:01:38.001Z</time></trkpt><trkpt lat="44.12225079329314" lon="10.724326101832547"><ele>1050.5</ele><time>2026-04-16T09:01:39.001Z</time></trkpt><trkpt lat="44.12224552039358" lon="10.72448003134498"><ele>1043.0</ele><time>2026-04-16T09:01:40.001Z</time></trkpt><trkpt lat="44.122231640545465" lon="10.724621012708248"><ele>1035.5</ele><time>2026-04-16T09:01:41.001Z</time></trkpt><trkpt lat="44.12217285142008" lon="10.724757336750452"><ele>1028.0</ele><time>2026-04-16T09:01:42.001Z</time></trkpt><trkpt lat="44.12206733450218" lon="10.724899631293937"><ele>1028.0</ele><time>2026-04-16T09:01:43.001Z</time></trkpt><trkpt lat="44.12193881948765" lon="10.72502160207112"><ele>1028.0</ele><time>2026-04-16T09:01:44.001Z</time></trkpt><trkpt lat="44.12184070444264" lon="10.725140220259423"><ele>1028.0</ele><time>2026-04-16T09:01:45.001Z</time></trkpt><trkpt lat="44.12177611006107" lon="10.725266576228263"><ele>1028.0</ele><time>2026-04-16T09:01:46.001Z</time></trkpt><trkpt lat="44.1217283076982" lon="10.725403494301009"><ele>1022.5</ele><time>2026-04-16T09:01:47.001Z</time></trkpt><trkpt lat="44.12172514920222" lon="10.725562464057136"><ele>1017.0</ele><time>2026-04-16T09:01:48.001Z</time></trkpt><trkpt lat="44.12175404771629" lon="10.725744947025033"><ele>1011.5</ele><time>2026-04-16T09:01:49.001Z</time></trkpt><trkpt lat="44.12180890719047" lon="10.725920738820173"><ele>1006.0</ele><time>2026-04-16T09:01:50.001Z</time></trkpt><trkpt lat="44.1218566202038" lon="10.726080838473099"><ele>1001.5</ele><time>2026-04-16T09:01:51.001Z</time></trkpt><trkpt lat="44.12186829094449" lon="10.726249428682987"><ele>997.0</ele><time>2026-04-16T09:01:52.001Z</time></trkpt><trkpt lat="44.12183901695759" lon="10.72641325434572"><ele>992.5</ele><time>2026-04-16T09:01:53.001Z</time></trkpt><trkpt lat="44.12177732501493" lon="10.726548155284748"><ele>988.0</ele><time>2026-04-16T09:01:54.001Z</time></trkpt><trkpt lat="44.1217005374305" lon="10.726648179525952"><ele>988.0</ele><time>2026-04-16T09:01:55.001Z</time></trkpt><trkpt lat="44.12159637187234" lon="10.726695614687587"><ele>988.0</ele><time>2026-04-16T09:01:56.001Z</time></trkpt><trkpt lat="44.121498605311274" lon="10.726671174008377"><ele>988.0</ele><time>2026-04-16T09:01:57.001Z</time></trkpt><trkpt lat="44.12140702959226" lon="10.726595063239081"><ele>988.0</ele><time>2026-04-16T09:01:58.001Z</time></trkpt><trkpt lat="44.121325331636214" lon="10.726448370951097"><ele>988.0</ele><time>2026-04-16T09:01:59.001Z</time></trkpt><trkpt lat="44.121201340584214" lon="10.726340812248699"><ele>986.0</ele><time>2026-04-16T09:02:00.001Z</time></trkpt><trkpt lat="44.12108378029019" lon="10.726229673112769"><ele>984.0</ele><time>2026-04-16T09:02:01.001Z</time></trkpt><trkpt lat="44.120954162401254" lon="10.72615364040777"><ele>982.0</ele><time>2026-04-16T09:02:02.001Z</time></trkpt><trkpt lat="44.120832769913804" lon="10.726115790452797"><ele>980.0</ele><time>2026-04-16T09:02:03.001Z</time></trkpt><trkpt lat="44.1207135536711" lon="10.726079109306765"><ele>980.0</ele><time>2026-04-16T09:02:04.001Z</time></trkpt><trkpt lat="44.120595821750676" lon="10.726078313511332"><ele>980.0</ele><time>2026-04-16T09:02:05.001Z</time></trkpt><trkpt lat="44.120475480590635" lon="10.72610734090993"><ele>980.0</ele><time>2026-04-16T09:02:06.001Z</time></trkpt><trkpt lat="44.12037189618836" lon="10.726132315356008"><ele>980.0</ele><time>2026-04-16T09:02:07.001Z</time></trkpt><trkpt lat="44.120274576590795" lon="10.726168117183567"><ele>980.0</ele><time>2026-04-16T09:02:08.001Z</time></trkpt><trkpt lat="44.1201800237733" lon="10.726124502696953"><ele>980.0</ele><time>2026-04-16T09:02:09.001Z</time></trkpt><trkpt lat="44.12009818008364" lon="10.72614667780369"><ele>980.0</ele><time>2026-04-16T09:02:10.001Z</time></trkpt><trkpt lat="44.12000791930293" lon="10.726238667391065"><ele>980.0</ele><time>2026-04-16T09:02:11.001Z</time></trkpt><trkpt lat="44.11990862807525" lon="10.726375940790644"><ele>980.0</ele><time>2026-04-16T09:02:12.001Z</time></trkpt><trkpt lat="44.11981194313935" lon="10.726572079601526"><ele>986.3333333333334</ele><time>2026-04-16T09:02:13.001Z</time></trkpt><trkpt lat="44.11971751626219" lon="10.726751017173605"><ele>992.6666666666667</ele><time>2026-04-16T09:02:14.001Z</time></trkpt><trkpt lat="44.11963720311182" lon="10.726933947464754"><ele>999.0</ele><time>2026-04-16T09:02:15.001Z</time></trkpt><trkpt lat="44.11957327889084" lon="10.727121356510493"><ele>999.0</ele><time>2026-04-16T09:02:16.001Z</time></trkpt><trkpt lat="44.11952279844348" lon="10.727294120732868"><ele>999.0</ele><time>2026-04-16T09:02:17.001Z</time></trkpt><trkpt lat="44.11949344515045" lon="10.727484121593509"><ele>999.0</ele><time>2026-04-16T09:02:18.001Z</time></trkpt><trkpt lat="44.1194819374787" lon="10.72768532220395"><ele>999.0</ele><time>2026-04-16T09:02:19.001Z</time></trkpt><trkpt lat="44.119464958317586" lon="10.727877968251214"><ele>994.8000000000001</ele><time>2026-04-16T09:02:20.001Z</time></trkpt><trkpt lat="44.11943280953447" lon="10.728047995386525"><ele>990.6000000000001</ele><time>2026-04-16T09:02:21.001Z</time></trkpt><trkpt lat="44.11940083592546" lon="10.728193377636586"><ele>986.4</ele><time>2026-04-16T09:02:22.001Z</time></trkpt><trkpt lat="44.11937109049948" lon="10.728295307778664"><ele>982.2</ele><time>2026-04-16T09:02:23.001Z</time></trkpt><trkpt lat="44.119378124936325" lon="10.728446469317586"><ele>978.0</ele><time>2026-04-16T09:02:25.001Z</time></trkpt><trkpt lat="44.119432644216545" lon="10.728493139366787"><ele>978.0</ele><time>2026-04-16T09:02:26.001Z</time></trkpt><trkpt lat="44.11948991420791" lon="10.728530009560016"><ele>978.0</ele><time>2026-04-16T09:02:27.001Z</time></trkpt><trkpt lat="44.119584139890776" lon="10.728452708660967"><ele>978.0</ele><time>2026-04-16T09:02:28.001Z</time></trkpt><trkpt lat="44.1196437411994" lon="10.728324279470215"><ele>978.0</ele><time>2026-04-16T09:02:29.001Z</time></trkpt><trkpt lat="44.119691578322296" lon="10.728164277711368"><ele>978.0</ele><time>2026-04-16T09:02:30.001Z</time></trkpt><trkpt lat="44.11970197400445" lon="10.728011717906927"><ele>978.0</ele><time>2026-04-16T09:02:31.001Z</time></trkpt><trkpt lat="44.1196692290572" lon="10.72786622676439"><ele>978.0</ele><time>2026-04-16T09:02:32.001Z</time></trkpt><trkpt lat="44.119672798866254" lon="10.727730850892092"><ele>978.0</ele><time>2026-04-16T09:02:33.001Z</time></trkpt><trkpt lat="44.119708888329605" lon="10.727614671980865"><ele>978.0</ele><time>2026-04-16T09:02:34.001Z</time></trkpt><trkpt lat="44.119758625253006" lon="10.727479789876059"><ele>978.0</ele><time>2026-04-16T09:02:35.001Z</time></trkpt><trkpt lat="44.11980575388723" lon="10.727357766493807"><ele>982.2</ele><time>2026-04-16T09:02:36.001Z</time></trkpt><trkpt lat="44.119870388446245" lon="10.72725862031328"><ele>986.4</ele><time>2026-04-16T09:02:37.001Z</time></trkpt><trkpt lat="44.119945765305495" lon="10.727202481063847"><ele>990.6000000000001</ele><time>2026-04-16T09:02:38.001Z</time></trkpt><trkpt lat="44.120042521838045" lon="10.72715885367115"><ele>994.8000000000001</ele><time>2026-04-16T09:02:39.001Z</time></trkpt><trkpt lat="44.120117927402326" lon="10.727121907110222"><ele>999.0</ele><time>2026-04-16T09:02:40.001Z</time></trkpt><trkpt lat="44.1202080800023" lon="10.727117785065191"><ele>990.6</ele><time>2026-04-16T09:02:42.001Z</time></trkpt><trkpt lat="44.12021131569892" lon="10.72724014615862"><ele>982.2</ele><time>2026-04-16T09:02:44.001Z</time></trkpt><trkpt lat="44.120157398081965" lon="10.72731927324995"><ele>973.8000000000001</ele><time>2026-04-16T09:02:45.001Z</time></trkpt><trkpt lat="44.120092676733464" lon="10.727416539989564"><ele>965.4000000000001</ele><time>2026-04-16T09:02:46.001Z</time></trkpt><trkpt lat="44.12003624753853" lon="10.727552206458551"><ele>957.0</ele><time>2026-04-16T09:02:47.001Z</time></trkpt><trkpt lat="44.119980392294394" lon="10.727693160991404"><ele>953.0</ele><time>2026-04-16T09:02:48.001Z</time></trkpt><trkpt lat="44.11994075448989" lon="10.727887806200373"><ele>949.0</ele><time>2026-04-16T09:02:49.001Z</time></trkpt><trkpt lat="44.11992154514225" lon="10.728109870311041"><ele>945.0</ele><time>2026-04-16T09:02:50.001Z</time></trkpt><trkpt lat="44.11988686578574" lon="10.728327416010385"><ele>950.3333333333333</ele><time>2026-04-16T09:02:51.001Z</time></trkpt><trkpt lat="44.11984466582907" lon="10.728529120290942"><ele>955.6666666666666</ele><time>2026-04-16T09:02:52.001Z</time></trkpt><trkpt lat="44.119779544929" lon="10.728726222024731"><ele>961.0</ele><time>2026-04-16T09:02:53.001Z</time></trkpt><trkpt lat="44.119690756169184" lon="10.728918176673602"><ele>961.0</ele><time>2026-04-16T09:02:54.001Z</time></trkpt><trkpt lat="44.11961464513939" lon="10.729088690574352"><ele>961.0</ele><time>2026-04-16T09:02:55.001Z</time></trkpt><trkpt lat="44.11955028737328" lon="10.729273637818885"><ele>961.0</ele><time>2026-04-16T09:02:56.001Z</time></trkpt><trkpt lat="44.11947953306987" lon="10.72942121868544"><ele>961.0</ele><time>2026-04-16T09:02:57.001Z</time></trkpt><trkpt lat="44.11938600138" lon="10.729589162645917"><ele>954.5999999999999</ele><time>2026-04-16T09:02:58.001Z</time></trkpt><trkpt lat="44.119274158411805" lon="10.729726535501925"><ele>948.1999999999999</ele><time>2026-04-16T09:02:59.001Z</time></trkpt><trkpt lat="44.1191901168465" lon="10.729833723516625"><ele>941.8000000000001</ele><time>2026-04-16T09:03:00.001Z</time></trkpt><trkpt lat="44.119121259346215" lon="10.729944580357005"><ele>935.4000000000001</ele><time>2026-04-16T09:03:01.001Z</time></trkpt><trkpt lat="44.11906431667986" lon="10.729989997175952"><ele>929.0</ele><time>2026-04-16T09:03:02.001Z</time></trkpt><trkpt lat="44.11896618238189" lon="10.73000976278241"><ele>929.0</ele><time>2026-04-16T09:03:03.001Z</time></trkpt><trkpt lat="44.118855558014566" lon="10.729945675016321"><ele>929.0</ele><time>2026-04-16T09:03:04.001Z</time></trkpt><trkpt lat="44.11874559846913" lon="10.729826196789725"><ele>929.0</ele><time>2026-04-16T09:03:05.001Z</time></trkpt><trkpt lat="44.11861644875485" lon="10.729749795855195"><ele>929.0</ele><time>2026-04-16T09:03:06.001Z</time></trkpt><trkpt lat="44.11848680849638" lon="10.729711979161294"><ele>929.0</ele><time>2026-04-16T09:03:07.001Z</time></trkpt><trkpt lat="44.118364421406184" lon="10.72971000057132"><ele>929.0</ele><time>2026-04-16T09:03:08.001Z</time></trkpt><trkpt lat="44.11820195062874" lon="10.729749503056627"><ele>929.0</ele><time>2026-04-16T09:03:09.001Z</time></trkpt><trkpt lat="44.11803045262518" lon="10.729871850592266"><ele>933.6666666666667</ele><time>2026-04-16T09:03:10.001Z</time></trkpt><trkpt lat="44.11786571084172" lon="10.729979487468722"><ele>938.3333333333333</ele><time>2026-04-16T09:03:11.001Z</time></trkpt><trkpt lat="44.117714263623895" lon="10.730141372161953"><ele>943.0</ele><time>2026-04-16T09:03:12.001Z</time></trkpt><trkpt lat="44.1175625756635" lon="10.73031400359446"><ele>939.75</ele><time>2026-04-16T09:03:13.001Z</time></trkpt><trkpt lat="44.11745346242779" lon="10.730444112363019"><ele>936.5</ele><time>2026-04-16T09:03:14.001Z</time></trkpt><trkpt lat="44.11734036834307" lon="10.730555855771946"><ele>933.25</ele><time>2026-04-16T09:03:15.001Z</time></trkpt><trkpt lat="44.11721346475272" lon="10.730615507786172"><ele>930.0</ele><time>2026-04-16T09:03:16.001Z</time></trkpt><trkpt lat="44.117101598793994" lon="10.730678763760016"><ele>930.0</ele><time>2026-04-16T09:03:17.001Z</time></trkpt><trkpt lat="44.11702756104637" lon="10.730747446674442"><ele>930.0</ele><time>2026-04-16T09:03:18.001Z</time></trkpt><trkpt lat="44.116963959157395" lon="10.730865023405954"><ele>930.0</ele><time>2026-04-16T09:03:19.001Z</time></trkpt><trkpt lat="44.116914652091836" lon="10.73099800135238"><ele>930.0</ele><time>2026-04-16T09:03:20.001Z</time></trkpt><trkpt lat="44.116779418093316" lon="10.731081958064335"><ele>923.3333333333333</ele><time>2026-04-16T09:03:21.001Z</time></trkpt><trkpt lat="44.11664235115703" lon="10.731159162816299"><ele>916.6666666666666</ele><time>2026-04-16T09:03:22.001Z</time></trkpt><trkpt lat="44.11649690652218" lon="10.73121307119038"><ele>910.0</ele><time>2026-04-16T09:03:23.001Z</time></trkpt><trkpt lat="44.116344298995514" lon="10.73124872061815"><ele>910.0</ele><time>2026-04-16T09:03:24.001Z</time></trkpt><trkpt lat="44.11620904642842" lon="10.731247275532468"><ele>910.0</ele><time>2026-04-16T09:03:25.001Z</time></trkpt><trkpt lat="44.116079930745784" lon="10.731286482643213"><ele>910.0</ele><time>2026-04-16T09:03:26.001Z</time></trkpt><trkpt lat="44.11599672080015" lon="10.73136991080585"><ele>910.0</ele><time>2026-04-16T09:03:27.001Z</time></trkpt><trkpt lat="44.11590125064395" lon="10.731495239840896"><ele>910.0</ele><time>2026-04-16T09:03:28.001Z</time></trkpt><trkpt lat="44.11581541907048" lon="10.731648240185878"><ele>910.0</ele><time>2026-04-16T09:03:29.001Z</time></trkpt><trkpt lat="44.11568550828606" lon="10.731766866037324"><ele>910.0</ele><time>2026-04-16T09:03:30.001Z</time></trkpt><trkpt lat="44.11554135718207" lon="10.731829810977153"><ele>910.0</ele><time>2026-04-16T09:03:31.001Z</time></trkpt><trkpt lat="44.11544693884718" lon="10.731912867107358"><ele>906.0</ele><time>2026-04-16T09:03:32.001Z</time></trkpt><trkpt lat="44.11537540545198" lon="10.732045449523092"><ele>902.0</ele><time>2026-04-16T09:03:33.001Z</time></trkpt><trkpt lat="44.11533698841379" lon="10.732208516419394"><ele>898.0</ele><time>2026-04-16T09:03:34.001Z</time></trkpt><trkpt lat="44.115286416218595" lon="10.732350075613528"><ele>894.0</ele><time>2026-04-16T09:03:35.001Z</time></trkpt><trkpt lat="44.11520042194724" lon="10.732410613985888"><ele>894.0</ele><time>2026-04-16T09:03:36.001Z</time></trkpt><trkpt lat="44.11506662113315" lon="10.732434828803887"><ele>894.0</ele><time>2026-04-16T09:03:37.001Z</time></trkpt><trkpt lat="44.11491733712044" lon="10.732410227006731"><ele>894.0</ele><time>2026-04-16T09:03:38.001Z</time></trkpt><trkpt lat="44.114788835265216" lon="10.732423130028355"><ele>894.0</ele><time>2026-04-16T09:03:39.001Z</time></trkpt><trkpt lat="44.11470039889643" lon="10.73244998110083"><ele>899.25</ele><time>2026-04-16T09:03:40.001Z</time></trkpt><trkpt lat="44.11463208877065" lon="10.7325468251982"><ele>904.5</ele><time>2026-04-16T09:03:42.001Z</time></trkpt><trkpt lat="44.114678294621804" lon="10.73273170047692"><ele>909.75</ele><time>2026-04-16T09:03:44.001Z</time></trkpt><trkpt lat="44.11477348433364" lon="10.732768238632815"><ele>915.0</ele><time>2026-04-16T09:03:45.001Z</time></trkpt><trkpt lat="44.114906912901084" lon="10.73274060328247"><ele>908.0</ele><time>2026-04-16T09:03:46.001Z</time></trkpt><trkpt lat="44.11505615772785" lon="10.732708314599297"><ele>901.0</ele><time>2026-04-16T09:03:47.001Z</time></trkpt><trkpt lat="44.1152377308141" lon="10.732667328272443"><ele>894.0</ele><time>2026-04-16T09:03:48.001Z</time></trkpt><trkpt lat="44.11541413541835" lon="10.732627940522379"><ele>894.0</ele><time>2026-04-16T09:03:49.001Z</time></trkpt><trkpt lat="44.11559183567408" lon="10.732599897148392"><ele>894.0</ele><time>2026-04-16T09:03:50.001Z</time></trkpt><trkpt lat="44.115762098510835" lon="10.732560556292032"><ele>894.0</ele><time>2026-04-16T09:03:51.001Z</time></trkpt><trkpt lat="44.11588197466264" lon="10.732525527381616"><ele>890.5</ele><time>2026-04-16T09:03:52.001Z</time></trkpt><trkpt lat="44.11598091016305" lon="10.732453085151459"><ele>887.0</ele><time>2026-04-16T09:03:53.001Z</time></trkpt><trkpt lat="44.11607409224212" lon="10.732347648117152"><ele>883.5</ele><time>2026-04-16T09:03:54.001Z</time></trkpt><trkpt lat="44.116142453250326" lon="10.732166999525392"><ele>880.0</ele><time>2026-04-16T09:03:55.001Z</time></trkpt><trkpt lat="44.11620399687168" lon="10.732023726242156"><ele>880.0</ele><time>2026-04-16T09:03:56.001Z</time></trkpt><trkpt lat="44.11627049015802" lon="10.73192664805369"><ele>880.0</ele><time>2026-04-16T09:03:57.001Z</time></trkpt><trkpt lat="44.116313786251546" lon="10.73184807717639"><ele>880.0</ele><time>2026-04-16T09:03:58.001Z</time></trkpt><trkpt lat="44.11639432389786" lon="10.731902832415088"><ele>880.0</ele><time>2026-04-16T09:03:59.001Z</time></trkpt><trkpt lat="44.116470307279066" lon="10.732043005690281"><ele>880.0</ele><time>2026-04-16T09:04:00.001Z</time></trkpt><trkpt lat="44.11647018462558" lon="10.732193935102135"><ele>880.0</ele><time>2026-04-16T09:04:01.001Z</time></trkpt><trkpt lat="44.116421260834116" lon="10.732321210149404"><ele>880.0</ele><time>2026-04-16T09:04:02.001Z</time></trkpt><trkpt lat="44.11632205829411" lon="10.732423882622975"><ele>880.0</ele><time>2026-04-16T09:04:03.001Z</time></trkpt><trkpt lat="44.1162039577559" lon="10.732519032531812"><ele>880.0</ele><time>2026-04-16T09:04:04.001Z</time></trkpt><trkpt lat="44.11607893098263" lon="10.732603003555035"><ele>876.6666666666666</ele><time>2026-04-16T09:04:05.001Z</time></trkpt><trkpt lat="44.115945951078466" lon="10.732727242388235"><ele>873.3333333333333</ele><time>2026-04-16T09:04:06.001Z</time></trkpt><trkpt lat="44.11581135657786" lon="10.732857757301096"><ele>870.0</ele><time>2026-04-16T09:04:07.001Z</time></trkpt><trkpt lat="44.11566705346993" lon="10.733000630990086"><ele>869.0</ele><time>2026-04-16T09:04:08.001Z</time></trkpt><trkpt lat="44.11550800780237" lon="10.733115418723758"><ele>868.0</ele><time>2026-04-16T09:04:09.001Z</time></trkpt><trkpt lat="44.11535407670532" lon="10.733207573163982"><ele>867.0</ele><time>2026-04-16T09:04:10.001Z</time></trkpt><trkpt lat="44.11519609144517" lon="10.73329006828754"><ele>867.0</ele><time>2026-04-16T09:04:11.001Z</time></trkpt><trkpt lat="44.115058301314775" lon="10.733359162409547"><ele>867.0</ele><time>2026-04-16T09:04:12.001Z</time></trkpt><trkpt lat="44.114932036140836" lon="10.733408587392352"><ele>867.0</ele><time>2026-04-16T09:04:13.001Z</time></trkpt><trkpt lat="44.11481718045481" lon="10.73343020091756"><ele>867.0</ele><time>2026-04-16T09:04:14.001Z</time></trkpt><trkpt lat="44.11471283112181" lon="10.733419227912922"><ele>868.5</ele><time>2026-04-16T09:04:15.001Z</time></trkpt><trkpt lat="44.114596447545566" lon="10.73334134897846"><ele>870.0</ele><time>2026-04-16T09:04:16.001Z</time></trkpt><trkpt lat="44.114485444689414" lon="10.733277862314127"><ele>871.5</ele><time>2026-04-16T09:04:17.001Z</time></trkpt><trkpt lat="44.11438025906847" lon="10.73326482314579"><ele>873.0</ele><time>2026-04-16T09:04:18.001Z</time></trkpt><trkpt lat="44.11425260428694" lon="10.733336293024038"><ele>873.0</ele><time>2026-04-16T09:04:19.001Z</time></trkpt><trkpt lat="44.11410528844246" lon="10.733431600514328"><ele>873.0</ele><time>2026-04-16T09:04:20.001Z</time></trkpt><trkpt lat="44.1139562800067" lon="10.733557988261783"><ele>873.0</ele><time>2026-04-16T09:04:21.001Z</time></trkpt><trkpt lat="44.11382470309786" lon="10.733659507749183"><ele>870.75</ele><time>2026-04-16T09:04:22.001Z</time></trkpt><trkpt lat="44.113722755231365" lon="10.733772849966604"><ele>868.5</ele><time>2026-04-16T09:04:23.001Z</time></trkpt><trkpt lat="44.11364719140187" lon="10.733928643107545"><ele>866.25</ele><time>2026-04-16T09:04:24.001Z</time></trkpt><trkpt lat="44.113569233366576" lon="10.734083491205672"><ele>864.0</ele><time>2026-04-16T09:04:25.001Z</time></trkpt><trkpt lat="44.11346119543442" lon="10.734211032445389"><ele>864.0</ele><time>2026-04-16T09:04:26.001Z</time></trkpt><trkpt lat="44.113309722115126" lon="10.734287561416636"><ele>864.0</ele><time>2026-04-16T09:04:27.001Z</time></trkpt><trkpt lat="44.11313463934304" lon="10.734334881979734"><ele>864.0</ele><time>2026-04-16T09:04:28.001Z</time></trkpt><trkpt lat="44.11299001901634" lon="10.734397836876783"><ele>861.1666666666666</ele><time>2026-04-16T09:04:29.001Z</time></trkpt><trkpt lat="44.11288740411193" lon="10.734468669299472"><ele>858.3333333333333</ele><time>2026-04-16T09:04:30.001Z</time></trkpt><trkpt lat="44.112820930689395" lon="10.73450817057589"><ele>855.5</ele><time>2026-04-16T09:04:31.001Z</time></trkpt><trkpt lat="44.11278107393077" lon="10.734583505512633"><ele>852.6666666666666</ele><time>2026-04-16T09:04:32.001Z</time></trkpt><trkpt lat="44.11277586145508" lon="10.734685075530866"><ele>849.8333333333333</ele><time>2026-04-16T09:04:33.001Z</time></trkpt><trkpt lat="44.11282241906081" lon="10.73480550836818"><ele>847.0</ele><time>2026-04-16T09:04:34.001Z</time></trkpt><trkpt lat="44.112906345124124" lon="10.734860688468341"><ele>847.0</ele><time>2026-04-16T09:04:35.001Z</time></trkpt><trkpt lat="44.113009970511236" lon="10.734852151362876"><ele>847.0</ele><time>2026-04-16T09:04:36.001Z</time></trkpt><trkpt lat="44.11311849917307" lon="10.734749252085516"><ele>847.0</ele><time>2026-04-16T09:04:37.001Z</time></trkpt><trkpt lat="44.11322322052853" lon="10.734625633219208"><ele>847.0</ele><time>2026-04-16T09:04:38.001Z</time></trkpt><trkpt lat="44.113321945197214" lon="10.73450322495468"><ele>845.6666666666666</ele><time>2026-04-16T09:04:39.001Z</time></trkpt><trkpt lat="44.113400798376276" lon="10.734431492272869"><ele>844.3333333333333</ele><time>2026-04-16T09:04:40.001Z</time></trkpt><trkpt lat="44.1134729588105" lon="10.734394130299455"><ele>843.0</ele><time>2026-04-16T09:04:41.001Z</time></trkpt><trkpt lat="44.11354373471996" lon="10.73446847854118"><ele>841.6666666666667</ele><time>2026-04-16T09:04:42.001Z</time></trkpt><trkpt lat="44.11357045694579" lon="10.734581526866773"><ele>840.3333333333334</ele><time>2026-04-16T09:04:43.001Z</time></trkpt><trkpt lat="44.11355213368575" lon="10.734709862975334"><ele>839.0</ele><time>2026-04-16T09:04:44.001Z</time></trkpt><trkpt lat="44.1134917174327" lon="10.734814968460048"><ele>839.0</ele><time>2026-04-16T09:04:45.001Z</time></trkpt><trkpt lat="44.113369135008725" lon="10.7349043748585"><ele>839.0</ele><time>2026-04-16T09:04:46.001Z</time></trkpt><trkpt lat="44.11321921508899" lon="10.734974626249942"><ele>839.0</ele><time>2026-04-16T09:04:47.001Z</time></trkpt><trkpt lat="44.113062704271904" lon="10.735040010901889"><ele>841.6666666666667</ele><time>2026-04-16T09:04:48.001Z</time></trkpt><trkpt lat="44.11289695754955" lon="10.735138265135312"><ele>844.3333333333333</ele><time>2026-04-16T09:04:49.001Z</time></trkpt><trkpt lat="44.11274587339092" lon="10.735271901821001"><ele>847.0</ele><time>2026-04-16T09:04:50.001Z</time></trkpt><trkpt lat="44.11263194556413" lon="10.73543396172486"><ele>840.75</ele><time>2026-04-16T09:04:51.001Z</time></trkpt><trkpt lat="44.11253270916822" lon="10.735583409863963"><ele>834.5</ele><time>2026-04-16T09:04:52.001Z</time></trkpt><trkpt lat="44.11241060682693" lon="10.735671721972137"><ele>828.25</ele><time>2026-04-16T09:04:53.001Z</time></trkpt><trkpt lat="44.1122641906407" lon="10.735688518341297"><ele>822.0</ele><time>2026-04-16T09:04:54Z</time></trkpt><trkpt lat="44.112101820093024" lon="10.735659229736306"><ele>822.0</ele><time>2026-04-16T09:04:55Z</time></trkpt><trkpt lat="44.1119361489211" lon="10.735634179697234"><ele>822.0</ele><time>2026-04-16T09:04:56.001Z</time></trkpt><trkpt lat="44.111753282296306" lon="10.73561658979531"><ele>822.0</ele><time>2026-04-16T09:04:57Z</time></trkpt><trkpt lat="44.11158256834149" lon="10.735592344952137"><ele>819.75</ele><time>2026-04-16T09:04:58Z</time></trkpt><trkpt lat="44.11142097364658" lon="10.735578631200687"><ele>817.5</ele><time>2026-04-16T09:04:59.001Z</time></trkpt><trkpt lat="44.11129515022813" lon="10.73558360113382"><ele>815.25</ele><time>2026-04-16T09:05:00Z</time></trkpt><trkpt lat="44.11118095196592" lon="10.735593880760101"><ele>813.0</ele><time>2026-04-16T09:05:01Z</time></trkpt><trkpt lat="44.11105263060738" lon="10.735706910341255"><ele>813.0</ele><time>2026-04-16T09:05:02.001Z</time></trkpt><trkpt lat="44.11096513605843" lon="10.735783514635408"><ele>813.0</ele><time>2026-04-16T09:05:03Z</time></trkpt><trkpt lat="44.1108681148992" lon="10.735817622135626"><ele>813.0</ele><time>2026-04-16T09:05:04Z</time></trkpt><trkpt lat="44.110751243920326" lon="10.735745713677256"><ele>813.0</ele><time>2026-04-16T09:05:05Z</time></trkpt><trkpt lat="44.11061844531467" lon="10.73565700773073"><ele>814.5</ele><time>2026-04-16T09:05:06Z</time></trkpt><trkpt lat="44.1104891427936" lon="10.735561875431301"><ele>816.0</ele><time>2026-04-16T09:05:07Z</time></trkpt><trkpt lat="44.11037013028864" lon="10.735449543210935"><ele>817.5</ele><time>2026-04-16T09:05:08Z</time></trkpt><trkpt lat="44.11026159796159" lon="10.735364306792738"><ele>819.0</ele><time>2026-04-16T09:05:09Z</time></trkpt><trkpt lat="44.11018529705501" lon="10.73521995782545"><ele>819.0</ele><time>2026-04-16T09:05:10Z</time></trkpt><trkpt lat="44.11012173250965" lon="10.735061949970467"><ele>819.0</ele><time>2026-04-16T09:05:11Z</time></trkpt><trkpt lat="44.11006931351738" lon="10.73493137345106"><ele>819.0</ele><time>2026-04-16T09:05:12Z</time></trkpt><trkpt lat="44.11000038080361" lon="10.734861432827822"><ele>819.0</ele><time>2026-04-16T09:05:13Z</time></trkpt><trkpt lat="44.10990850912322" lon="10.734854230246084"><ele>819.0</ele><time>2026-04-16T09:05:14Z</time></trkpt><trkpt lat="44.10979710060577" lon="10.734917380257956"><ele>819.6666666666667</ele><time>2026-04-16T09:05:15Z</time></trkpt><trkpt lat="44.10965248717573" lon="10.73508631350341"><ele>820.3333333333334</ele><time>2026-04-16T09:05:16Z</time></trkpt><trkpt lat="44.1095122170644" lon="10.73527055504918"><ele>821.0</ele><time>2026-04-16T09:05:17Z</time></trkpt><trkpt lat="44.10937044354667" lon="10.735446264384992"><ele>817.3333333333334</ele><time>2026-04-16T09:05:18Z</time></trkpt><trkpt lat="44.10922166869004" lon="10.735584724614132"><ele>813.6666666666667</ele><time>2026-04-16T09:05:19Z</time></trkpt><trkpt lat="44.10907077791444" lon="10.735746954120227"><ele>810.0</ele><time>2026-04-16T09:05:20Z</time></trkpt><trkpt lat="44.10892006505057" lon="10.735904492370446"><ele>805.0</ele><time>2026-04-16T09:05:21Z</time></trkpt><trkpt lat="44.108750637485564" lon="10.736077079850704"><ele>800.0</ele><time>2026-04-16T09:05:22Z</time></trkpt><trkpt lat="44.10858973248331" lon="10.736244321983882"><ele>795.0</ele><time>2026-04-16T09:05:23Z</time></trkpt><trkpt lat="44.108431497117124" lon="10.736407564630007"><ele>795.0</ele><time>2026-04-16T09:05:24Z</time></trkpt><trkpt lat="44.10827991436811" lon="10.736561203072783"><ele>795.0</ele><time>2026-04-16T09:05:25Z</time></trkpt><trkpt lat="44.10814633532134" lon="10.7366822712708"><ele>795.0</ele><time>2026-04-16T09:05:26Z</time></trkpt><trkpt lat="44.10802481169889" lon="10.736844823406162"><ele>793.8</ele><time>2026-04-16T09:05:27Z</time></trkpt><trkpt lat="44.107916611574176" lon="10.736918605379003"><ele>792.6</ele><time>2026-04-16T09:05:28Z</time></trkpt><trkpt lat="44.107851195199316" lon="10.737021084674812"><ele>791.4000000000001</ele><time>2026-04-16T09:05:29Z</time></trkpt><trkpt lat="44.10780355166886" lon="10.737126991416034"><ele>790.2</ele><time>2026-04-16T09:05:30Z</time></trkpt><trkpt lat="44.10779255189385" lon="10.737264678611279"><ele>789.0</ele><time>2026-04-16T09:05:31Z</time></trkpt><trkpt lat="44.107815363502745" lon="10.737384707462272"><ele>789.0</ele><time>2026-04-16T09:05:32Z</time></trkpt><trkpt lat="44.107903884035046" lon="10.737455257958743"><ele>789.0</ele><time>2026-04-16T09:05:33Z</time></trkpt><trkpt lat="44.108015136782846" lon="10.737459976621675"><ele>789.0</ele><time>2026-04-16T09:05:34Z</time></trkpt><trkpt lat="44.10816555942683" lon="10.737409006188335"><ele>789.0</ele><time>2026-04-16T09:05:35Z</time></trkpt><trkpt lat="44.108284271345816" lon="10.737306511914143"><ele>783.3333333333333</ele><time>2026-04-16T09:05:36Z</time></trkpt><trkpt lat="44.108414456438034" lon="10.737192592369894"><ele>777.6666666666666</ele><time>2026-04-16T09:05:37Z</time></trkpt><trkpt lat="44.10856869120729" lon="10.737040990254204"><ele>772.0</ele><time>2026-04-16T09:05:38Z</time></trkpt><trkpt lat="44.10871503610203" lon="10.736920310614098"><ele>773.6666666666666</ele><time>2026-04-16T09:05:39Z</time></trkpt><trkpt lat="44.108865125407405" lon="10.73678458561329"><ele>775.3333333333333</ele><time>2026-04-16T09:05:40Z</time></trkpt><trkpt lat="44.10901282612759" lon="10.736643091734319"><ele>777.0</ele><time>2026-04-16T09:05:41Z</time></trkpt><trkpt lat="44.10915083102465" lon="10.736505284568985"><ele>777.0</ele><time>2026-04-16T09:05:42Z</time></trkpt><trkpt lat="44.10928517370114" lon="10.736387670861488"><ele>777.0</ele><time>2026-04-16T09:05:43Z</time></trkpt><trkpt lat="44.109408439078926" lon="10.736275911199884"><ele>777.0</ele><time>2026-04-16T09:05:44Z</time></trkpt><trkpt lat="44.10950120655098" lon="10.736209831088361"><ele>777.0</ele><time>2026-04-16T09:05:45Z</time></trkpt><trkpt lat="44.10957991828896" lon="10.73614222255756"><ele>777.0</ele><time>2026-04-16T09:05:46Z</time></trkpt><trkpt lat="44.10966001981981" lon="10.736163170164724"><ele>777.0</ele><time>2026-04-16T09:05:47Z</time></trkpt><trkpt lat="44.10972391418573" lon="10.736280971330302"><ele>777.0</ele><time>2026-04-16T09:05:48Z</time></trkpt><trkpt lat="44.10975587270645" lon="10.736432657707628"><ele>777.0</ele><time>2026-04-16T09:05:49Z</time></trkpt><trkpt lat="44.10973388869586" lon="10.736601562160619"><ele>777.0</ele><time>2026-04-16T09:05:50Z</time></trkpt><trkpt lat="44.10967006738094" lon="10.7367673677446"><ele>770.3333333333334</ele><time>2026-04-16T09:05:51Z</time></trkpt><trkpt lat="44.10957340955872" lon="10.736929561609477"><ele>763.6666666666667</ele><time>2026-04-16T09:05:52Z</time></trkpt><trkpt lat="44.10946107210026" lon="10.73708812412725"><ele>757.0</ele><time>2026-04-16T09:05:53Z</time></trkpt><trkpt lat="44.109364145914554" lon="10.737238788281463"><ele>757.0</ele><time>2026-04-16T09:05:54Z</time></trkpt><trkpt lat="44.10928602655137" lon="10.73738206839538"><ele>757.0</ele><time>2026-04-16T09:05:55Z</time></trkpt><trkpt lat="44.109195160631586" lon="10.737477077593331"><ele>757.0</ele><time>2026-04-16T09:05:56Z</time></trkpt><trkpt lat="44.10908417914963" lon="10.73752932361106"><ele>757.0</ele><time>2026-04-16T09:05:57Z</time></trkpt><trkpt lat="44.108962086640176" lon="10.737475972076492"><ele>760.0</ele><time>2026-04-16T09:05:58Z</time></trkpt><trkpt lat="44.10886271216911" lon="10.737396661601698"><ele>763.0</ele><time>2026-04-16T09:05:59Z</time></trkpt><trkpt lat="44.1087750664453" lon="10.73735561764944"><ele>766.0</ele><time>2026-04-16T09:06:00Z</time></trkpt><trkpt lat="44.108677539236574" lon="10.737361103448684"><ele>769.0</ele><time>2026-04-16T09:06:01Z</time></trkpt><trkpt lat="44.10858070226661" lon="10.737466504769914"><ele>772.0</ele><time>2026-04-16T09:06:02Z</time></trkpt><trkpt lat="44.10848221661619" lon="10.737639959158239"><ele>768.3333333333333</ele><time>2026-04-16T09:06:03Z</time></trkpt><trkpt lat="44.10840939081404" lon="10.737864927654606"><ele>764.6666666666666</ele><time>2026-04-16T09:06:04Z</time></trkpt><trkpt lat="44.10831997575354" lon="10.738067734897703"><ele>761.0</ele><time>2026-04-16T09:06:05Z</time></trkpt><trkpt lat="44.10821204784445" lon="10.738210439557227"><ele>761.0</ele><time>2026-04-16T09:06:06Z</time></trkpt><trkpt lat="44.10808495154231" lon="10.738330473312743"><ele>761.0</ele><time>2026-04-16T09:06:07Z</time></trkpt><trkpt lat="44.10793113000722" lon="10.738404699043926"><ele>761.0</ele><time>2026-04-16T09:06:08Z</time></trkpt><trkpt lat="44.10779199513102" lon="10.738481475271259"><ele>761.25</ele><time>2026-04-16T09:06:09Z</time></trkpt><trkpt lat="44.107689633847755" lon="10.738573108053432"><ele>761.5</ele><time>2026-04-16T09:06:10Z</time></trkpt><trkpt lat="44.107602093833634" lon="10.738721712530054"><ele>761.75</ele><time>2026-04-16T09:06:11Z</time></trkpt><trkpt lat="44.10750737592529" lon="10.73889847306349"><ele>762.0</ele><time>2026-04-16T09:06:12Z</time></trkpt><trkpt lat="44.107367310038825" lon="10.739012398243107"><ele>762.0</ele><time>2026-04-16T09:06:13Z</time></trkpt><trkpt lat="44.1072167252467" lon="10.739103327189357"><ele>762.0</ele><time>2026-04-16T09:06:14Z</time></trkpt><trkpt lat="44.10709863788697" lon="10.739188313631455"><ele>762.0</ele><time>2026-04-16T09:06:15Z</time></trkpt><trkpt lat="44.10703300401476" lon="10.739258765495013"><ele>762.0</ele><time>2026-04-16T09:06:16Z</time></trkpt><trkpt lat="44.10699357703281" lon="10.739349671412354"><ele>759.0</ele><time>2026-04-16T09:06:17Z</time></trkpt><trkpt lat="44.10695940331924" lon="10.7395225269277"><ele>756.0</ele><time>2026-04-16T09:06:18Z</time></trkpt><trkpt lat="44.106970310193695" lon="10.739759041140115"><ele>753.0</ele><time>2026-04-16T09:06:19Z</time></trkpt><trkpt lat="44.1070353633816" lon="10.73997615126476"><ele>753.0</ele><time>2026-04-16T09:06:20Z</time></trkpt><trkpt lat="44.107096071656564" lon="10.740171969277776"><ele>753.0</ele><time>2026-04-16T09:06:21Z</time></trkpt><trkpt lat="44.107111284910516" lon="10.740339531737426"><ele>753.0</ele><time>2026-04-16T09:06:22Z</time></trkpt><trkpt lat="44.107090117108825" lon="10.7404799281446"><ele>753.0</ele><time>2026-04-16T09:06:23Z</time></trkpt><trkpt lat="44.107017870274056" lon="10.74060386325803"><ele>744.0</ele><time>2026-04-16T09:06:24Z</time></trkpt><trkpt lat="44.106892988434666" lon="10.740726178001083"><ele>735.0</ele><time>2026-04-16T09:06:25Z</time></trkpt><trkpt lat="44.10675088997561" lon="10.740825798330679"><ele>726.0</ele><time>2026-04-16T09:06:26Z</time></trkpt><trkpt lat="44.10662651425899" lon="10.740934017143704"><ele>727.5</ele><time>2026-04-16T09:06:27Z</time></trkpt><trkpt lat="44.10649967270119" lon="10.741035072269899"><ele>729.0</ele><time>2026-04-16T09:06:28Z</time></trkpt><trkpt lat="44.10636277715127" lon="10.741083746099402"><ele>730.5</ele><time>2026-04-16T09:06:29Z</time></trkpt><trkpt lat="44.10620418847477" lon="10.741109641104075"><ele>732.0</ele><time>2026-04-16T09:06:30Z</time></trkpt><trkpt lat="44.10606261707147" lon="10.74106638640598"><ele>732.0</ele><time>2026-04-16T09:06:31Z</time></trkpt><trkpt lat="44.105932797619026" lon="10.741015729365508"><ele>732.0</ele><time>2026-04-16T09:06:32Z</time></trkpt><trkpt lat="44.10581329237303" lon="10.741051564806797"><ele>732.0</ele><time>2026-04-16T09:06:33Z</time></trkpt><trkpt lat="44.10570060962574" lon="10.741118724056587"><ele>732.0</ele><time>2026-04-16T09:06:34Z</time></trkpt><trkpt lat="44.10559608191282" lon="10.741265667526154"><ele>724.25</ele><time>2026-04-16T09:06:35Z</time></trkpt><trkpt lat="44.10550522249782" lon="10.741372867472839"><ele>716.5</ele><time>2026-04-16T09:06:36Z</time></trkpt><trkpt lat="44.10539783689987" lon="10.74140610189461"><ele>708.75</ele><time>2026-04-16T09:06:37Z</time></trkpt><trkpt lat="44.10528134330661" lon="10.741369384249136"><ele>701.0</ele><time>2026-04-16T09:06:38Z</time></trkpt><trkpt lat="44.10516333237272" lon="10.741274491994128"><ele>701.0</ele><time>2026-04-16T09:06:39Z</time></trkpt><trkpt lat="44.1050404705659" lon="10.74118626927718"><ele>701.0</ele><time>2026-04-16T09:06:40Z</time></trkpt><trkpt lat="44.10491186034001" lon="10.741144751065274"><ele>701.0</ele><time>2026-04-16T09:06:41Z</time></trkpt><trkpt lat="44.104796310243636" lon="10.74116573911185"><ele>701.0</ele><time>2026-04-16T09:06:42Z</time></trkpt><trkpt lat="44.104694536308926" lon="10.741277973740447"><ele>702.3333333333333</ele><time>2026-04-16T09:06:43Z</time></trkpt><trkpt lat="44.10458042322513" lon="10.741437104577043"><ele>703.6666666666666</ele><time>2026-04-16T09:06:44Z</time></trkpt><trkpt lat="44.10446657004405" lon="10.741616594807141"><ele>705.0</ele><time>2026-04-16T09:06:45Z</time></trkpt><trkpt lat="44.104379835070255" lon="10.741768781231006"><ele>705.0</ele><time>2026-04-16T09:06:46Z</time></trkpt><trkpt lat="44.104318003913555" lon="10.741852749486947"><ele>705.0</ele><time>2026-04-16T09:06:47Z</time></trkpt><trkpt lat="44.104290709774666" lon="10.741955644949345"><ele>705.0</ele><time>2026-04-16T09:06:48Z</time></trkpt><trkpt lat="44.10428607404664" lon="10.742070309673297"><ele>705.0</ele><time>2026-04-16T09:06:49Z</time></trkpt><trkpt lat="44.1044379131731" lon="10.742168807972128"><ele>705.0</ele><time>2026-04-16T09:06:51Z</time></trkpt><trkpt lat="44.10453638165083" lon="10.742152455709926"><ele>705.0</ele><time>2026-04-16T09:06:52Z</time></trkpt><trkpt lat="44.10466283153405" lon="10.742094450087706"><ele>705.0</ele><time>2026-04-16T09:06:53Z</time></trkpt><trkpt lat="44.10478932227963" lon="10.74199668093139"><ele>705.0</ele><time>2026-04-16T09:06:54Z</time></trkpt><trkpt lat="44.10486856340419" lon="10.741879451454945"><ele>705.0</ele><time>2026-04-16T09:06:55Z</time></trkpt><trkpt lat="44.10493670544685" lon="10.74174175844555"><ele>704.0</ele><time>2026-04-16T09:06:56Z</time></trkpt><trkpt lat="44.10499318290406" lon="10.741626358565737"><ele>703.0</ele><time>2026-04-16T09:06:57Z</time></trkpt><trkpt lat="44.105098465528386" lon="10.741650467898804"><ele>702.0</ele><time>2026-04-16T09:06:58Z</time></trkpt><trkpt lat="44.10520814749781" lon="10.74174062037469"><ele>701.0</ele><time>2026-04-16T09:06:59.001Z</time></trkpt><trkpt lat="44.10533893734213" lon="10.7418431373006"><ele>695.0</ele><time>2026-04-16T09:07:00Z</time></trkpt><trkpt lat="44.10547093467125" lon="10.741934902227511"><ele>689.0</ele><time>2026-04-16T09:07:01Z</time></trkpt><trkpt lat="44.10560475993677" lon="10.741999113777837"><ele>683.0</ele><time>2026-04-16T09:07:02.001Z</time></trkpt><trkpt lat="44.105718678712854" lon="10.74203232782706"><ele>677.0</ele><time>2026-04-16T09:07:03Z</time></trkpt><trkpt lat="44.105843130222674" lon="10.742003911659214"><ele>675.0</ele><time>2026-04-16T09:07:04Z</time></trkpt><trkpt lat="44.105950162302754" lon="10.741941691543882"><ele>673.0</ele><time>2026-04-16T09:07:05.001Z</time></trkpt><trkpt lat="44.10605315481238" lon="10.741867045351528"><ele>671.0</ele><time>2026-04-16T09:07:06Z</time></trkpt><trkpt lat="44.10613100558924" lon="10.741805567434518"><ele>669.0</ele><time>2026-04-16T09:07:07Z</time></trkpt><trkpt lat="44.10620901250323" lon="10.741833306515948"><ele>667.0</ele><time>2026-04-16T09:07:08Z</time></trkpt><trkpt lat="44.10623876955439" lon="10.741943871065212"><ele>667.0</ele><time>2026-04-16T09:07:09Z</time></trkpt><trkpt lat="44.106190114271804" lon="10.742082733108973"><ele>667.0</ele><time>2026-04-16T09:07:10Z</time></trkpt><trkpt lat="44.106091472833675" lon="10.742147031617689"><ele>667.0</ele><time>2026-04-16T09:07:11Z</time></trkpt><trkpt lat="44.10597777340618" lon="10.742159220165414"><ele>667.0</ele><time>2026-04-16T09:07:12Z</time></trkpt><trkpt lat="44.105841726241145" lon="10.742164285931844"><ele>670.3333333333334</ele><time>2026-04-16T09:07:13Z</time></trkpt><trkpt lat="44.10568060934503" lon="10.742194617217674"><ele>673.6666666666666</ele><time>2026-04-16T09:07:14Z</time></trkpt><trkpt lat="44.10550952747176" lon="10.742236518432955"><ele>677.0</ele><time>2026-04-16T09:07:15Z</time></trkpt><trkpt lat="44.10534868266634" lon="10.742293558225407"><ele>677.0</ele><time>2026-04-16T09:07:16Z</time></trkpt><trkpt lat="44.105228793930266" lon="10.742377352220759"><ele>677.0</ele><time>2026-04-16T09:07:17Z</time></trkpt><trkpt lat="44.10514557450346" lon="10.742460283961234"><ele>677.0</ele><time>2026-04-16T09:07:18Z</time></trkpt><trkpt lat="44.10506659331594" lon="10.742607677657974"><ele>677.0</ele><time>2026-04-16T09:07:19Z</time></trkpt><trkpt lat="44.10500767462986" lon="10.742707347231702"><ele>677.25</ele><time>2026-04-16T09:07:20Z</time></trkpt><trkpt lat="44.10489708378617" lon="10.742764003855026"><ele>677.5</ele><time>2026-04-16T09:07:21Z</time></trkpt><trkpt lat="44.104756649316386" lon="10.742746567944568"><ele>677.75</ele><time>2026-04-16T09:07:22Z</time></trkpt><trkpt lat="44.10459523424226" lon="10.742704656922118"><ele>678.0</ele><time>2026-04-16T09:07:23Z</time></trkpt><trkpt lat="44.10442144366899" lon="10.742680920761867"><ele>678.0</ele><time>2026-04-16T09:07:24Z</time></trkpt><trkpt lat="44.10425321590874" lon="10.74264765483236"><ele>678.0</ele><time>2026-04-16T09:07:25Z</time></trkpt><trkpt lat="44.104097279962" lon="10.742637828580781"><ele>678.0</ele><time>2026-04-16T09:07:26Z</time></trkpt><trkpt lat="44.10397063633619" lon="10.7426118898676"><ele>675.5</ele><time>2026-04-16T09:07:27Z</time></trkpt><trkpt lat="44.103853324442895" lon="10.742634273982034"><ele>673.0</ele><time>2026-04-16T09:07:28Z</time></trkpt><trkpt lat="44.10375796329847" lon="10.742718975511936"><ele>670.5</ele><time>2026-04-16T09:07:29Z</time></trkpt><trkpt lat="44.103666227605544" lon="10.742838522835159"><ele>668.0</ele><time>2026-04-16T09:07:30Z</time></trkpt><trkpt lat="44.103583836386704" lon="10.743025108211429"><ele>664.25</ele><time>2026-04-16T09:07:31Z</time></trkpt><trkpt lat="44.10352083919471" lon="10.743214053274524"><ele>660.5</ele><time>2026-04-16T09:07:32Z</time></trkpt><trkpt lat="44.10348254699392" lon="10.743395769914109"><ele>656.75</ele><time>2026-04-16T09:07:33Z</time></trkpt><trkpt lat="44.10346727180992" lon="10.743574653531706"><ele>653.0</ele><time>2026-04-16T09:07:34Z</time></trkpt><trkpt lat="44.10349241414942" lon="10.743724096596104"><ele>651.8</ele><time>2026-04-16T09:07:35Z</time></trkpt><trkpt lat="44.103515172878105" lon="10.743872039569487"><ele>650.5999999999999</ele><time>2026-04-16T09:07:36Z</time></trkpt><trkpt lat="44.10348742180137" lon="10.74399413158929"><ele>649.4000000000001</ele><time>2026-04-16T09:07:37Z</time></trkpt><trkpt lat="44.10339024090728" lon="10.744040474073966"><ele>648.2</ele><time>2026-04-16T09:07:38Z</time></trkpt><trkpt lat="44.10327753863993" lon="10.74402346835031"><ele>647.0</ele><time>2026-04-16T09:07:39Z</time></trkpt><trkpt lat="44.10314844062072" lon="10.744002324917844"><ele>643.5</ele><time>2026-04-16T09:07:40Z</time></trkpt><trkpt lat="44.103045100190926" lon="10.74400616054316"><ele>640.0</ele><time>2026-04-16T09:07:41Z</time></trkpt><trkpt lat="44.10298512605127" lon="10.744053550706633"><ele>636.5</ele><time>2026-04-16T09:07:42Z</time></trkpt><trkpt lat="44.102959894569224" lon="10.744135939259197"><ele>633.0</ele><time>2026-04-16T09:07:43Z</time></trkpt><trkpt lat="44.10297248490524" lon="10.744271978763617"><ele>629.5</ele><time>2026-04-16T09:07:44Z</time></trkpt><trkpt lat="44.10301907011153" lon="10.744377383292255"><ele>626.0</ele><time>2026-04-16T09:07:45Z</time></trkpt><trkpt lat="44.10309879005642" lon="10.744430318324603"><ele>625.6</ele><time>2026-04-16T09:07:46Z</time></trkpt><trkpt lat="44.10319423195063" lon="10.744453600639678"><ele>625.2</ele><time>2026-04-16T09:07:47Z</time></trkpt><trkpt lat="44.10332225835508" lon="10.744436368786491"><ele>624.8</ele><time>2026-04-16T09:07:48Z</time></trkpt><trkpt lat="44.10342371707274" lon="10.744454895789701"><ele>624.4</ele><time>2026-04-16T09:07:49Z</time></trkpt><trkpt lat="44.10349113426974" lon="10.744472398394647"><ele>624.0</ele><time>2026-04-16T09:07:50Z</time></trkpt><trkpt lat="44.103526464710924" lon="10.744575511422717"><ele>624.0</ele><time>2026-04-16T09:07:51Z</time></trkpt><trkpt lat="44.10350502265499" lon="10.744681511986915"><ele>624.0</ele><time>2026-04-16T09:07:52Z</time></trkpt><trkpt lat="44.103426945922934" lon="10.744738699444788"><ele>624.0</ele><time>2026-04-16T09:07:53Z</time></trkpt><trkpt lat="44.10332351919476" lon="10.744762296084472"><ele>624.0</ele><time>2026-04-16T09:07:54Z</time></trkpt><trkpt lat="44.10319550844078" lon="10.744695516045118"><ele>624.0</ele><time>2026-04-16T09:07:55Z</time></trkpt><trkpt lat="44.10305648553279" lon="10.744624504974803"><ele>624.0</ele><time>2026-04-16T09:07:56Z</time></trkpt><trkpt lat="44.102925837959916" lon="10.744567891475407"><ele>624.0</ele><time>2026-04-16T09:07:57Z</time></trkpt><trkpt lat="44.10280616555363" lon="10.744532370623453"><ele>624.0</ele><time>2026-04-16T09:07:58Z</time></trkpt><trkpt lat="44.10267890063312" lon="10.744545204179492"><ele>624.0</ele><time>2026-04-16T09:07:59Z</time></trkpt><trkpt lat="44.102540234262214" lon="10.744583602491039"><ele>628.3333333333334</ele><time>2026-04-16T09:08:00Z</time></trkpt><trkpt lat="44.102388820902554" lon="10.744716185729983"><ele>632.6666666666667</ele><time>2026-04-16T09:08:01Z</time></trkpt><trkpt lat="44.102254084536725" lon="10.74488145767394"><ele>637.0</ele><time>2026-04-16T09:08:02Z</time></trkpt><trkpt lat="44.102113208275696" lon="10.745079339367853"><ele>636.0</ele><time>2026-04-16T09:08:03Z</time></trkpt><trkpt lat="44.101980828883285" lon="10.74522734559105"><ele>635.0</ele><time>2026-04-16T09:08:04Z</time></trkpt><trkpt lat="44.10186710474886" lon="10.7453230882597"><ele>634.0</ele><time>2026-04-16T09:08:05Z</time></trkpt><trkpt lat="44.10178042153455" lon="10.745406350972825"><ele>633.0</ele><time>2026-04-16T09:08:06Z</time></trkpt><trkpt lat="44.101715527173404" lon="10.745488445554559"><ele>633.0</ele><time>2026-04-16T09:08:07Z</time></trkpt><trkpt lat="44.101672017728895" lon="10.74560161044698"><ele>633.0</ele><time>2026-04-16T09:08:08Z</time></trkpt><trkpt lat="44.101645508165376" lon="10.745718258099213"><ele>633.0</ele><time>2026-04-16T09:08:09Z</time></trkpt><trkpt lat="44.101639330407956" lon="10.745836823804577"><ele>633.0</ele><time>2026-04-16T09:08:10Z</time></trkpt><trkpt lat="44.101633265370324" lon="10.745972323569543"><ele>633.0</ele><time>2026-04-16T09:08:11Z</time></trkpt><trkpt lat="44.10162763550457" lon="10.746148989843451"><ele>634.25</ele><time>2026-04-16T09:08:12Z</time></trkpt><trkpt lat="44.10160237550374" lon="10.74633657919398"><ele>635.5</ele><time>2026-04-16T09:08:13Z</time></trkpt><trkpt lat="44.10158935864047" lon="10.74654195692467"><ele>636.75</ele><time>2026-04-16T09:08:14Z</time></trkpt><trkpt lat="44.10157199667477" lon="10.746746467839507"><ele>638.0</ele><time>2026-04-16T09:08:15Z</time></trkpt><trkpt lat="44.1015509908483" lon="10.746964504079596"><ele>634.75</ele><time>2026-04-16T09:08:16Z</time></trkpt><trkpt lat="44.10153471876172" lon="10.747183735224649"><ele>631.5</ele><time>2026-04-16T09:08:17Z</time></trkpt><trkpt lat="44.101514644134916" lon="10.747367762052615"><ele>628.25</ele><time>2026-04-16T09:08:18Z</time></trkpt><trkpt lat="44.10149929777608" lon="10.747529844023942"><ele>625.0</ele><time>2026-04-16T09:08:19Z</time></trkpt><trkpt lat="44.10145888345102" lon="10.747699917687997"><ele>623.25</ele><time>2026-04-16T09:08:20Z</time></trkpt><trkpt lat="44.10136980304883" lon="10.74785762665331"><ele>621.5</ele><time>2026-04-16T09:08:21Z</time></trkpt><trkpt lat="44.101248639925814" lon="10.747994470957439"><ele>619.75</ele><time>2026-04-16T09:08:22Z</time></trkpt><trkpt lat="44.10113336053289" lon="10.74812377354388"><ele>618.0</ele><time>2026-04-16T09:08:23Z</time></trkpt><trkpt lat="44.10102487762533" lon="10.74825441294553"><ele>618.0</ele><time>2026-04-16T09:08:24Z</time></trkpt><trkpt lat="44.10091554811668" lon="10.748381402259728"><ele>618.0</ele><time>2026-04-16T09:08:25Z</time></trkpt><trkpt lat="44.10082636506178" lon="10.74850965802487"><ele>618.0</ele><time>2026-04-16T09:08:26Z</time></trkpt><trkpt lat="44.10073915462668" lon="10.748631433096984"><ele>618.0</ele><time>2026-04-16T09:08:27Z</time></trkpt><trkpt lat="44.10064041379605" lon="10.748755346469162"><ele>617.1999999999999</ele><time>2026-04-16T09:08:28Z</time></trkpt><trkpt lat="44.10055852241069" lon="10.74886230431888"><ele>616.4</ele><time>2026-04-16T09:08:29Z</time></trkpt><trkpt lat="44.100465876918285" lon="10.748976245793838"><ele>615.5999999999999</ele><time>2026-04-16T09:08:30Z</time></trkpt><trkpt lat="44.10038657252202" lon="10.749081678184298"><ele>614.8</ele><time>2026-04-16T09:08:31Z</time></trkpt><trkpt lat="44.10032408742178" lon="10.749148332605692"><ele>614.0</ele><time>2026-04-16T09:08:32Z</time></trkpt><trkpt lat="44.1002732103674" lon="10.749246043265845"><ele>612.0</ele><time>2026-04-16T09:08:33Z</time></trkpt><trkpt lat="44.10023351607414" lon="10.7493790052109"><ele>610.0</ele><time>2026-04-16T09:08:34Z</time></trkpt><trkpt lat="44.10023710496216" lon="10.749568286815151"><ele>608.0</ele><time>2026-04-16T09:08:35Z</time></trkpt><trkpt lat="44.10027112616698" lon="10.749765499540011"><ele>606.0</ele><time>2026-04-16T09:08:36Z</time></trkpt><trkpt lat="44.10024806272179" lon="10.749939625606311"><ele>606.0</ele><time>2026-04-16T09:08:37Z</time></trkpt><trkpt lat="44.100185209980864" lon="10.750088351126974"><ele>606.0</ele><time>2026-04-16T09:08:38Z</time></trkpt><trkpt lat="44.100085167290004" lon="10.75022642800427"><ele>606.0</ele><time>2026-04-16T09:08:39Z</time></trkpt><trkpt lat="44.09997671867536" lon="10.750346778351375"><ele>606.0</ele><time>2026-04-16T09:08:40Z</time></trkpt><trkpt lat="44.09987117254841" lon="10.750458135321809"><ele>604.2</ele><time>2026-04-16T09:08:41Z</time></trkpt><trkpt lat="44.09978244606419" lon="10.75055489780614"><ele>602.4000000000001</ele><time>2026-04-16T09:08:42Z</time></trkpt><trkpt lat="44.09969554920959" lon="10.750641781193904"><ele>600.6</ele><time>2026-04-16T09:08:43Z</time></trkpt><trkpt lat="44.099597401215604" lon="10.750709134486828"><ele>598.8000000000001</ele><time>2026-04-16T09:08:44Z</time></trkpt><trkpt lat="44.09950073292123" lon="10.750732812427778"><ele>597.0</ele><time>2026-04-16T09:08:45Z</time></trkpt><trkpt lat="44.099390136548706" lon="10.75074540335691"><ele>597.0</ele><time>2026-04-16T09:08:46Z</time></trkpt><trkpt lat="44.09927282710159" lon="10.750719257649562"><ele>597.0</ele><time>2026-04-16T09:08:47Z</time></trkpt><trkpt lat="44.09916638781714" lon="10.750704300439525"><ele>597.0</ele><time>2026-04-16T09:08:48Z</time></trkpt><trkpt lat="44.09907129986646" lon="10.75071744022175"><ele>597.0</ele><time>2026-04-16T09:08:49Z</time></trkpt><trkpt lat="44.09897524260027" lon="10.750758464865166"><ele>597.0</ele><time>2026-04-16T09:08:50Z</time></trkpt><trkpt lat="44.09885691793453" lon="10.750846547666752"><ele>596.0</ele><time>2026-04-16T09:08:51Z</time></trkpt><trkpt lat="44.098757607425554" lon="10.750897144513209"><ele>595.0</ele><time>2026-04-16T09:08:52Z</time></trkpt><trkpt lat="44.09864934668371" lon="10.75092103586438"><ele>594.0</ele><time>2026-04-16T09:08:53Z</time></trkpt><trkpt lat="44.098526722035245" lon="10.750944561628515"><ele>593.0</ele><time>2026-04-16T09:08:54Z</time></trkpt><trkpt lat="44.098396843229175" lon="10.750948330017975"><ele>593.0</ele><time>2026-04-16T09:08:55Z</time></trkpt><trkpt lat="44.09827282969911" lon="10.750952196853666"><ele>593.0</ele><time>2026-04-16T09:08:56Z</time></trkpt><trkpt lat="44.09815924555655" lon="10.750946627583765"><ele>593.0</ele><time>2026-04-16T09:08:57Z</time></trkpt><trkpt lat="44.09807506281027" lon="10.75092031987531"><ele>593.0</ele><time>2026-04-16T09:08:58Z</time></trkpt><trkpt lat="44.097955140581135" lon="10.7509179936064"><ele>593.0</ele><time>2026-04-16T09:09:00Z</time></trkpt><trkpt lat="44.09785106561523" lon="10.750969529626799"><ele>592.6</ele><time>2026-04-16T09:09:02Z</time></trkpt><trkpt lat="44.09778822972836" lon="10.751017371305105"><ele>592.1999999999999</ele><time>2026-04-16T09:09:03Z</time></trkpt><trkpt lat="44.097707256013024" lon="10.751090826324328"><ele>591.8</ele><time>2026-04-16T09:09:04Z</time></trkpt><trkpt lat="44.097618482094234" lon="10.75116858578749"><ele>591.4</ele><time>2026-04-16T09:09:05.001Z</time></trkpt><trkpt lat="44.097509475369755" lon="10.75123762607659"><ele>591.0</ele><time>2026-04-16T09:09:06Z</time></trkpt><trkpt lat="44.09740534071356" lon="10.751324942519972"><ele>596.0</ele><time>2026-04-16T09:09:07Z</time></trkpt><trkpt lat="44.09729688603361" lon="10.751454816227914"><ele>601.0</ele><time>2026-04-16T09:09:08.001Z</time></trkpt><trkpt lat="44.09721917276595" lon="10.751586313288293"><ele>606.0</ele><time>2026-04-16T09:09:09Z</time></trkpt><trkpt lat="44.09714712759037" lon="10.751733514614974"><ele>611.0</ele><time>2026-04-16T09:09:10Z</time></trkpt><trkpt lat="44.097084461306544" lon="10.751891403849765"><ele>611.0</ele><time>2026-04-16T09:09:11.001Z</time></trkpt><trkpt lat="44.0970356334871" lon="10.752035631112964"><ele>611.0</ele><time>2026-04-16T09:09:12.001Z</time></trkpt><trkpt lat="44.09701506108268" lon="10.752194157712616"><ele>611.0</ele><time>2026-04-16T09:09:13.001Z</time></trkpt><trkpt lat="44.09701017968219" lon="10.752361264465941"><ele>611.0</ele><time>2026-04-16T09:09:14Z</time></trkpt><trkpt lat="44.097033983335415" lon="10.752518521710615"><ele>611.0</ele><time>2026-04-16T09:09:15Z</time></trkpt><trkpt lat="44.09703560107687" lon="10.752654116339167"><ele>611.0</ele><time>2026-04-16T09:09:16Z</time></trkpt><trkpt lat="44.0969879886761" lon="10.752766505961917"><ele>611.0</ele><time>2026-04-16T09:09:17Z</time></trkpt><trkpt lat="44.09691647979076" lon="10.752840360289467"><ele>611.0</ele><time>2026-04-16T09:09:18Z</time></trkpt><trkpt lat="44.09683085626459" lon="10.752878163800208"><ele>611.0</ele><time>2026-04-16T09:09:19Z</time></trkpt><trkpt lat="44.09674466398894" lon="10.752904071929853"><ele>604.5</ele><time>2026-04-16T09:09:20Z</time></trkpt><trkpt lat="44.096634069962086" lon="10.752932086734434"><ele>598.0</ele><time>2026-04-16T09:09:21Z</time></trkpt><trkpt lat="44.09649919894215" lon="10.7529535576982"><ele>591.5</ele><time>2026-04-16T09:09:22Z</time></trkpt><trkpt lat="44.09637524788606" lon="10.75299474008359"><ele>585.0</ele><time>2026-04-16T09:09:23Z</time></trkpt><trkpt lat="44.09624943812064" lon="10.753036009025907"><ele>585.0</ele><time>2026-04-16T09:09:24Z</time></trkpt><trkpt lat="44.09611298173382" lon="10.753091843185942"><ele>585.0</ele><time>2026-04-16T09:09:25Z</time></trkpt><trkpt lat="44.09598450503734" lon="10.75317509397623"><ele>585.0</ele><time>2026-04-16T09:09:26Z</time></trkpt><trkpt lat="44.09585608640267" lon="10.753240980842488"><ele>585.0</ele><time>2026-04-16T09:09:27Z</time></trkpt><trkpt lat="44.09574511843263" lon="10.753309094478189"><ele>593.75</ele><time>2026-04-16T09:09:28Z</time></trkpt><trkpt lat="44.09563566073041" lon="10.75336569177497"><ele>602.5</ele><time>2026-04-16T09:09:29Z</time></trkpt><trkpt lat="44.0955479220932" lon="10.753448262893768"><ele>611.25</ele><time>2026-04-16T09:09:30Z</time></trkpt><trkpt lat="44.0954730158717" lon="10.753566765893028"><ele>620.0</ele><time>2026-04-16T09:09:31Z</time></trkpt><trkpt lat="44.09541716442474" lon="10.75370624751171"><ele>619.5</ele><time>2026-04-16T09:09:32Z</time></trkpt><trkpt lat="44.095408258996265" lon="10.753874624174932"><ele>619.0</ele><time>2026-04-16T09:09:33Z</time></trkpt><trkpt lat="44.095422121448436" lon="10.754051582008216"><ele>618.5</ele><time>2026-04-16T09:09:34Z</time></trkpt><trkpt lat="44.09544047762796" lon="10.754233374206963"><ele>618.0</ele><time>2026-04-16T09:09:35Z</time></trkpt><trkpt lat="44.095442757030874" lon="10.754391976842411"><ele>618.0</ele><time>2026-04-16T09:09:36Z</time></trkpt><trkpt lat="44.09539863581115" lon="10.75452280006328"><ele>618.0</ele><time>2026-04-16T09:09:37Z</time></trkpt><trkpt lat="44.095330951631695" lon="10.754665660699406"><ele>618.0</ele><time>2026-04-16T09:09:38Z</time></trkpt><trkpt lat="44.0952468558121" lon="10.754820054809636"><ele>618.0</ele><time>2026-04-16T09:09:39Z</time></trkpt><trkpt lat="44.095166347939916" lon="10.754996905661018"><ele>618.0</ele><time>2026-04-16T09:09:40Z</time></trkpt><trkpt lat="44.095079536978595" lon="10.755202225666105"><ele>618.0</ele><time>2026-04-16T09:09:41Z</time></trkpt><trkpt lat="44.09499144561581" lon="10.755443794009496"><ele>618.0</ele><time>2026-04-16T09:09:42Z</time></trkpt><trkpt lat="44.09492745093066" lon="10.755704024880592"><ele>615.3333333333334</ele><time>2026-04-16T09:09:43Z</time></trkpt><trkpt lat="44.09487133502229" lon="10.755951968821698"><ele>612.6666666666667</ele><time>2026-04-16T09:09:44Z</time></trkpt><trkpt lat="44.09483622453656" lon="10.756195303341816"><ele>610.0</ele><time>2026-04-16T09:09:45Z</time></trkpt><trkpt lat="44.0948224446807" lon="10.756443389600733"><ele>610.0</ele><time>2026-04-16T09:09:46Z</time></trkpt><trkpt lat="44.09481724515423" lon="10.756657902718915"><ele>610.0</ele><time>2026-04-16T09:09:47Z</time></trkpt><trkpt lat="44.094771938864234" lon="10.756835461539271"><ele>610.0</ele><time>2026-04-16T09:09:48Z</time></trkpt><trkpt lat="44.09467254829938" lon="10.756976697306351"><ele>610.0</ele><time>2026-04-16T09:09:49Z</time></trkpt><trkpt lat="44.09455175205076" lon="10.757086260217775"><ele>600.6666666666667</ele><time>2026-04-16T09:09:50Z</time></trkpt><trkpt lat="44.09439057146422" lon="10.757179064838885"><ele>591.3333333333334</ele><time>2026-04-16T09:09:51Z</time></trkpt><trkpt lat="44.09420289366636" lon="10.757234135594244"><ele>582.0</ele><time>2026-04-16T09:09:52Z</time></trkpt><trkpt lat="44.09400621617232" lon="10.757284079807718"><ele>582.0</ele><time>2026-04-16T09:09:53Z</time></trkpt><trkpt lat="44.09380738824017" lon="10.757322221416924"><ele>582.0</ele><time>2026-04-16T09:09:54Z</time></trkpt><trkpt lat="44.093614690546815" lon="10.75736609214647"><ele>582.0</ele><time>2026-04-16T09:09:55Z</time></trkpt><trkpt lat="44.093423943058546" lon="10.757420101660557"><ele>580.6666666666666</ele><time>2026-04-16T09:09:56Z</time></trkpt><trkpt lat="44.093238758405974" lon="10.757460057288581"><ele>579.3333333333333</ele><time>2026-04-16T09:09:57Z</time></trkpt><trkpt lat="44.09307465663118" lon="10.757497588032713"><ele>578.0</ele><time>2026-04-16T09:09:58Z</time></trkpt><trkpt lat="44.09291168455872" lon="10.757540711276652"><ele>578.0</ele><time>2026-04-16T09:09:59Z</time></trkpt><trkpt lat="44.092771674983496" lon="10.757566290654681"><ele>578.0</ele><time>2026-04-16T09:10:00Z</time></trkpt><trkpt lat="44.09261746547464" lon="10.757561390890269"><ele>578.0</ele><time>2026-04-16T09:10:01Z</time></trkpt><trkpt lat="44.09244999618157" lon="10.75752414412985"><ele>580.0</ele><time>2026-04-16T09:10:02Z</time></trkpt><trkpt lat="44.09228224236151" lon="10.757465399704763"><ele>582.0</ele><time>2026-04-16T09:10:03Z</time></trkpt><trkpt lat="44.09212928868888" lon="10.757435854498116"><ele>584.0</ele><time>2026-04-16T09:10:04Z</time></trkpt><trkpt lat="44.091986732573936" lon="10.757438983716396"><ele>584.0</ele><time>2026-04-16T09:10:05Z</time></trkpt><trkpt lat="44.091835559707235" lon="10.757483346183603"><ele>584.0</ele><time>2026-04-16T09:10:06Z</time></trkpt><trkpt lat="44.09166060332334" lon="10.757582161883091"><ele>584.0</ele><time>2026-04-16T09:10:07Z</time></trkpt><trkpt lat="44.09148416959263" lon="10.757712061117601"><ele>579.3333333333333</ele><time>2026-04-16T09:10:08Z</time></trkpt><trkpt lat="44.091292553577574" lon="10.757837207039172"><ele>574.6666666666666</ele><time>2026-04-16T09:10:09Z</time></trkpt><trkpt lat="44.09109556410868" lon="10.757921113767555"><ele>570.0</ele><time>2026-04-16T09:10:10Z</time></trkpt><trkpt lat="44.090917646256145" lon="10.758006557020263"><ele>570.0</ele><time>2026-04-16T09:10:11Z</time></trkpt><trkpt lat="44.09076332679875" lon="10.758096569328021"><ele>570.0</ele><time>2026-04-16T09:10:12Z</time></trkpt><trkpt lat="44.09062541082704" lon="10.758208132948829"><ele>570.0</ele><time>2026-04-16T09:10:13Z</time></trkpt><trkpt lat="44.09048622091603" lon="10.758374831284918"><ele>567.0</ele><time>2026-04-16T09:10:14Z</time></trkpt><trkpt lat="44.09038161084224" lon="10.758569630466964"><ele>564.0</ele><time>2026-04-16T09:10:15Z</time></trkpt><trkpt lat="44.09026553971452" lon="10.758765509843482"><ele>561.0</ele><time>2026-04-16T09:10:16Z</time></trkpt><trkpt lat="44.090098481500746" lon="10.758905852355378"><ele>570.6666666666666</ele><time>2026-04-16T09:10:17Z</time></trkpt><trkpt lat="44.089914012358214" lon="10.759015787846408"><ele>580.3333333333333</ele><time>2026-04-16T09:10:18Z</time></trkpt><trkpt lat="44.08972266709777" lon="10.759139564366375"><ele>590.0</ele><time>2026-04-16T09:10:19Z</time></trkpt><trkpt lat="44.08954574973764" lon="10.759261247963044"><ele>586.3333333333333</ele><time>2026-04-16T09:10:20Z</time></trkpt><trkpt lat="44.08938704305481" lon="10.759400693346793"><ele>582.6666666666666</ele><time>2026-04-16T09:10:21Z</time></trkpt><trkpt lat="44.08921887636544" lon="10.75956673642788"><ele>579.0</ele><time>2026-04-16T09:10:22Z</time></trkpt><trkpt lat="44.08905010978464" lon="10.759776844721877"><ele>579.0</ele><time>2026-04-16T09:10:23Z</time></trkpt><trkpt lat="44.08889503669918" lon="10.760012531853585"><ele>579.0</ele><time>2026-04-16T09:10:24Z</time></trkpt><trkpt lat="44.088754422016954" lon="10.760238251791721"><ele>579.0</ele><time>2026-04-16T09:10:25Z</time></trkpt><trkpt lat="44.088608019013044" lon="10.760478547614785"><ele>570.5</ele><time>2026-04-16T09:10:26Z</time></trkpt><trkpt lat="44.088453196012935" lon="10.760712724574333"><ele>562.0</ele><time>2026-04-16T09:10:27Z</time></trkpt><trkpt lat="44.08830799894046" lon="10.760955772709032"><ele>564.0</ele><time>2026-04-16T09:10:28Z</time></trkpt><trkpt lat="44.08814997351121" lon="10.761164806005697"><ele>566.0</ele><time>2026-04-16T09:10:29Z</time></trkpt><trkpt lat="44.08799821241785" lon="10.761387507210147"><ele>568.0</ele><time>2026-04-16T09:10:30Z</time></trkpt><trkpt lat="44.087805804401505" lon="10.761581731761959"><ele>568.0</ele><time>2026-04-16T09:10:31Z</time></trkpt><trkpt lat="44.08761698076739" lon="10.761774306050745"><ele>568.0</ele><time>2026-04-16T09:10:32Z</time></trkpt><trkpt lat="44.087438286945336" lon="10.761951471240765"><ele>565.6666666666667</ele><time>2026-04-16T09:10:33Z</time></trkpt><trkpt lat="44.08728210541555" lon="10.762122968425798"><ele>563.3333333333334</ele><time>2026-04-16T09:10:34Z</time></trkpt><trkpt lat="44.087136974394326" lon="10.762256516755425"><ele>561.0</ele><time>2026-04-16T09:10:35Z</time></trkpt><trkpt lat="44.08700507367263" lon="10.762398488038182"><ele>561.0</ele><time>2026-04-16T09:10:36Z</time></trkpt><trkpt lat="44.08685834657824" lon="10.762510125316622"><ele>561.0</ele><time>2026-04-16T09:10:37Z</time></trkpt><trkpt lat="44.086695642601676" lon="10.762613557844166"><ele>561.0</ele><time>2026-04-16T09:10:38Z</time></trkpt><trkpt lat="44.08651206388912" lon="10.7627192481585"><ele>556.6666666666666</ele><time>2026-04-16T09:10:39Z</time></trkpt><trkpt lat="44.08632046801159" lon="10.762822632989105"><ele>552.3333333333333</ele><time>2026-04-16T09:10:40Z</time></trkpt><trkpt lat="44.08612180102135" lon="10.762947212978716"><ele>548.0</ele><time>2026-04-16T09:10:41Z</time></trkpt><trkpt lat="44.08593646310063" lon="10.76305572135699"><ele>548.0</ele><time>2026-04-16T09:10:42Z</time></trkpt><trkpt lat="44.08577131793254" lon="10.763152859077694"><ele>548.0</ele><time>2026-04-16T09:10:43Z</time></trkpt><trkpt lat="44.085611826719386" lon="10.763207038523825"><ele>548.0</ele><time>2026-04-16T09:10:44Z</time></trkpt><trkpt lat="44.08545002733787" lon="10.763256925367877"><ele>554.0</ele><time>2026-04-16T09:10:45Z</time></trkpt><trkpt lat="44.085266361397636" lon="10.763296732968682"><ele>560.0</ele><time>2026-04-16T09:10:46Z</time></trkpt><trkpt lat="44.085072937547714" lon="10.763311768600511"><ele>566.0</ele><time>2026-04-16T09:10:47Z</time></trkpt><trkpt lat="44.08488369742826" lon="10.763322004177683"><ele>569.6666666666666</ele><time>2026-04-16T09:10:48Z</time></trkpt><trkpt lat="44.08468668278154" lon="10.763351976654024"><ele>573.3333333333334</ele><time>2026-04-16T09:10:49Z</time></trkpt><trkpt lat="44.08450454327236" lon="10.763392947583483"><ele>577.0</ele><time>2026-04-16T09:10:50Z</time></trkpt><trkpt lat="44.08431159348484" lon="10.763454878428846"><ele>577.0</ele><time>2026-04-16T09:10:51Z</time></trkpt><trkpt lat="44.084138866309154" lon="10.763511752718038"><ele>577.0</ele><time>2026-04-16T09:10:52Z</time></trkpt><trkpt lat="44.083982399550784" lon="10.763569850082284"><ele>577.0</ele><time>2026-04-16T09:10:53Z</time></trkpt><trkpt lat="44.083829027554195" lon="10.763629849818503"><ele>573.3333333333334</ele><time>2026-04-16T09:10:54Z</time></trkpt><trkpt lat="44.08369006863952" lon="10.76370320156664"><ele>569.6666666666666</ele><time>2026-04-16T09:10:55Z</time></trkpt><trkpt lat="44.083554411108544" lon="10.763831335123715"><ele>566.0</ele><time>2026-04-16T09:10:56Z</time></trkpt><trkpt lat="44.08343692133296" lon="10.76403191980008"><ele>566.0</ele><time>2026-04-16T09:10:57Z</time></trkpt><trkpt lat="44.08332535871744" lon="10.764243106452396"><ele>566.0</ele><time>2026-04-16T09:10:58Z</time></trkpt><trkpt lat="44.08321382136301" lon="10.764477749299143"><ele>566.0</ele><time>2026-04-16T09:10:59Z</time></trkpt><trkpt lat="44.08311102509496" lon="10.76473373850536"><ele>571.3333333333333</ele><time>2026-04-16T09:11:00Z</time></trkpt><trkpt lat="44.08300599297606" lon="10.76498017648725"><ele>576.6666666666666</ele><time>2026-04-16T09:11:01Z</time></trkpt><trkpt lat="44.08290100367825" lon="10.76516943062431"><ele>582.0</ele><time>2026-04-16T09:11:02Z</time></trkpt><trkpt lat="44.08279158331157" lon="10.765351513753869"><ele>572.0</ele><time>2026-04-16T09:11:03Z</time></trkpt><trkpt lat="44.082652301969354" lon="10.765478579781341"><ele>562.0</ele><time>2026-04-16T09:11:04Z</time></trkpt><trkpt lat="44.08249909650649" lon="10.765581027847654"><ele>552.0</ele><time>2026-04-16T09:11:05Z</time></trkpt><trkpt lat="44.082346254977104" lon="10.765671697830511"><ele>552.0</ele><time>2026-04-16T09:11:06Z</time></trkpt><trkpt lat="44.08219167144858" lon="10.765734834232557"><ele>552.0</ele><time>2026-04-16T09:11:07Z</time></trkpt><trkpt lat="44.08204854757406" lon="10.765737751616244"><ele>552.0</ele><time>2026-04-16T09:11:08Z</time></trkpt><trkpt lat="44.08191568893198" lon="10.765713897734969"><ele>552.0</ele><time>2026-04-16T09:11:09.001Z</time></trkpt><trkpt lat="44.0817733383883" lon="10.765634968915094"><ele>552.0</ele><time>2026-04-16T09:11:10.001Z</time></trkpt><trkpt lat="44.08161750954339" lon="10.76560576688351"><ele>552.0</ele><time>2026-04-16T09:11:11.001Z</time></trkpt><trkpt lat="44.08143664911521" lon="10.765620924652097"><ele>552.0</ele><time>2026-04-16T09:11:12.001Z</time></trkpt><trkpt lat="44.081249522537085" lon="10.765700627380172"><ele>556.0</ele><time>2026-04-16T09:11:13.001Z</time></trkpt><trkpt lat="44.08107930188641" lon="10.765774409482688"><ele>560.0</ele><time>2026-04-16T09:11:14.001Z</time></trkpt><trkpt lat="44.08091946710686" lon="10.765874208337848"><ele>564.0</ele><time>2026-04-16T09:11:15Z</time></trkpt><trkpt lat="44.080763864296365" lon="10.76602415499907"><ele>561.6666666666666</ele><time>2026-04-16T09:11:16Z</time></trkpt><trkpt lat="44.08060040478457" lon="10.76619819925638"><ele>559.3333333333333</ele><time>2026-04-16T09:11:17.001Z</time></trkpt><trkpt lat="44.08044078292983" lon="10.766412041109739"><ele>557.0</ele><time>2026-04-16T09:11:18Z</time></trkpt><trkpt lat="44.080268329758205" lon="10.766593904442487"><ele>557.0</ele><time>2026-04-16T09:11:19Z</time></trkpt><trkpt lat="44.08010895061122" lon="10.766776529451505"><ele>557.0</ele><time>2026-04-16T09:11:20Z</time></trkpt><trkpt lat="44.0799460589832" lon="10.766945424960275"><ele>557.0</ele><time>2026-04-16T09:11:21Z</time></trkpt><trkpt lat="44.07976516667272" lon="10.76711315396975"><ele>545.0</ele><time>2026-04-16T09:11:22Z</time></trkpt><trkpt lat="44.07957193654426" lon="10.767269085614378"><ele>533.0</ele><time>2026-04-16T09:11:23Z</time></trkpt><trkpt lat="44.0793978896295" lon="10.76741302848588"><ele>521.0</ele><time>2026-04-16T09:11:24Z</time></trkpt><trkpt lat="44.07924769790714" lon="10.76753400622928"><ele>521.0</ele><time>2026-04-16T09:11:25Z</time></trkpt><trkpt lat="44.07911652168084" lon="10.76763517442593"><ele>521.0</ele><time>2026-04-16T09:11:26Z</time></trkpt><trkpt lat="44.07899155437665" lon="10.767691830306067"><ele>521.0</ele><time>2026-04-16T09:11:27Z</time></trkpt><trkpt lat="44.07885251109188" lon="10.76770213587268"><ele>521.0</ele><time>2026-04-16T09:11:28Z</time></trkpt><trkpt lat="44.078702151927565" lon="10.767644168509616"><ele>520.6666666666666</ele><time>2026-04-16T09:11:29Z</time></trkpt><trkpt lat="44.07853488909978" lon="10.767536982057708"><ele>520.3333333333334</ele><time>2026-04-16T09:11:30Z</time></trkpt><trkpt lat="44.07835684761732" lon="10.767453641013846"><ele>520.0</ele><time>2026-04-16T09:11:31Z</time></trkpt><trkpt lat="44.07816328286338" lon="10.767400741893834"><ele>519.6666666666667</ele><time>2026-04-16T09:11:32Z</time></trkpt><trkpt lat="44.0779549911436" lon="10.767362677924185"><ele>519.3333333333334</ele><time>2026-04-16T09:11:33Z</time></trkpt><trkpt lat="44.07775702213855" lon="10.767329311214773"><ele>519.0</ele><time>2026-04-16T09:11:34Z</time></trkpt><trkpt lat="44.077563375056904" lon="10.767318578443932"><ele>524.6666666666666</ele><time>2026-04-16T09:11:35Z</time></trkpt><trkpt lat="44.07736145637066" lon="10.767346614866636"><ele>530.3333333333333</ele><time>2026-04-16T09:11:36Z</time></trkpt><trkpt lat="44.07715120878145" lon="10.767427637135876"><ele>536.0</ele><time>2026-04-16T09:11:37Z</time></trkpt><trkpt lat="44.07691504837824" lon="10.767484376320784"><ele>536.0</ele><time>2026-04-16T09:11:38Z</time></trkpt><trkpt lat="44.076679667564655" lon="10.767557129688726"><ele>536.0</ele><time>2026-04-16T09:11:39Z</time></trkpt><trkpt lat="44.07644477815194" lon="10.76760891855535"><ele>531.0</ele><time>2026-04-16T09:11:40Z</time></trkpt><trkpt lat="44.07619994680502" lon="10.767643871712412"><ele>526.0</ele><time>2026-04-16T09:11:41Z</time></trkpt><trkpt lat="44.0759793100348" lon="10.767642920971843"><ele>526.0</ele><time>2026-04-16T09:11:42Z</time></trkpt><trkpt lat="44.07578478011897" lon="10.767654554717222"><ele>526.0</ele><time>2026-04-16T09:11:43Z</time></trkpt><trkpt lat="44.075598144651174" lon="10.7676566536866"><ele>526.0</ele><time>2026-04-16T09:11:44Z</time></trkpt><trkpt lat="44.07540652505156" lon="10.767592702536128"><ele>520.6666666666667</ele><time>2026-04-16T09:11:45Z</time></trkpt><trkpt lat="44.075223467089714" lon="10.767498955768497"><ele>515.3333333333334</ele><time>2026-04-16T09:11:46Z</time></trkpt><trkpt lat="44.07503211634662" lon="10.767406695837662"><ele>510.0</ele><time>2026-04-16T09:11:47Z</time></trkpt><trkpt lat="44.07483797993752" lon="10.767331670507419"><ele>507.66666666666663</ele><time>2026-04-16T09:11:48Z</time></trkpt><trkpt lat="44.07463050753704" lon="10.767266968543737"><ele>505.3333333333333</ele><time>2026-04-16T09:11:49Z</time></trkpt><trkpt lat="44.07441568448979" lon="10.767200655708551"><ele>503.0</ele><time>2026-04-16T09:11:50Z</time></trkpt><trkpt lat="44.07420495831041" lon="10.767134958831226"><ele>504.0</ele><time>2026-04-16T09:11:51Z</time></trkpt><trkpt lat="44.07403354291305" lon="10.767046515703115"><ele>505.0</ele><time>2026-04-16T09:11:52Z</time></trkpt><trkpt lat="44.07389867666912" lon="10.766916539107402"><ele>506.0</ele><time>2026-04-16T09:11:53Z</time></trkpt><trkpt lat="44.07375925774806" lon="10.76682808137399"><ele>506.0</ele><time>2026-04-16T09:11:54Z</time></trkpt><trkpt lat="44.073594122512894" lon="10.7667846408898"><ele>506.0</ele><time>2026-04-16T09:11:55Z</time></trkpt><trkpt lat="44.073419266646184" lon="10.766761913969463"><ele>506.0</ele><time>2026-04-16T09:11:56Z</time></trkpt><trkpt lat="44.073247252039074" lon="10.76669887122373"><ele>503.75</ele><time>2026-04-16T09:11:57Z</time></trkpt><trkpt lat="44.07310044384721" lon="10.766638996651341"><ele>501.5</ele><time>2026-04-16T09:11:58Z</time></trkpt><trkpt lat="44.072985433863614" lon="10.766542242098518"><ele>499.25</ele><time>2026-04-16T09:11:59Z</time></trkpt><trkpt lat="44.07289742379052" lon="10.766385675963374"><ele>497.0</ele><time>2026-04-16T09:12:00Z</time></trkpt><trkpt lat="44.07282889239141" lon="10.7661880530187"><ele>495.66666666666663</ele><time>2026-04-16T09:12:01Z</time></trkpt><trkpt lat="44.072747506417656" lon="10.765973872169125"><ele>494.33333333333337</ele><time>2026-04-16T09:12:02Z</time></trkpt><trkpt lat="44.07264822852267" lon="10.765731715184916"><ele>493.0</ele><time>2026-04-16T09:12:03Z</time></trkpt><trkpt lat="44.07251509902786" lon="10.765493212607385"><ele>491.0</ele><time>2026-04-16T09:12:04Z</time></trkpt><trkpt lat="44.07239021526212" lon="10.765256211702788"><ele>489.0</ele><time>2026-04-16T09:12:05Z</time></trkpt><trkpt lat="44.072288606076675" lon="10.765035813911393"><ele>487.0</ele><time>2026-04-16T09:12:06Z</time></trkpt><trkpt lat="44.07218678227631" lon="10.764863644685704"><ele>487.0</ele><time>2026-04-16T09:12:07Z</time></trkpt><trkpt lat="44.07208216078326" lon="10.764716301327892"><ele>487.0</ele><time>2026-04-16T09:12:08Z</time></trkpt><trkpt lat="44.07197655096664" lon="10.764626094301626"><ele>487.0</ele><time>2026-04-16T09:12:09Z</time></trkpt><trkpt lat="44.07185500482345" lon="10.764586218661151"><ele>487.0</ele><time>2026-04-16T09:12:10Z</time></trkpt><trkpt lat="44.07169083546155" lon="10.764586356529037"><ele>486.33333333333337</ele><time>2026-04-16T09:12:11Z</time></trkpt><trkpt lat="44.07151922945965" lon="10.764663810392666"><ele>485.66666666666663</ele><time>2026-04-16T09:12:12Z</time></trkpt><trkpt lat="44.071321143349856" lon="10.764741216792327"><ele>485.0</ele><time>2026-04-16T09:12:13Z</time></trkpt><trkpt lat="44.07114961794217" lon="10.76480869653025"><ele>485.0</ele><time>2026-04-16T09:12:14Z</time></trkpt><trkpt lat="44.07102248900148" lon="10.764880496616316"><ele>485.0</ele><time>2026-04-16T09:12:15Z</time></trkpt><trkpt lat="44.070904826542574" lon="10.765014872263695"><ele>485.0</ele><time>2026-04-16T09:12:16Z</time></trkpt><trkpt lat="44.07080849302144" lon="10.765163724893378"><ele>485.0</ele><time>2026-04-16T09:12:17Z</time></trkpt><trkpt lat="44.07071336541132" lon="10.765356870550985"><ele>484.0</ele><time>2026-04-16T09:12:18Z</time></trkpt><trkpt lat="44.070618154252244" lon="10.76551645324247"><ele>483.0</ele><time>2026-04-16T09:12:19Z</time></trkpt><trkpt lat="44.07053965330379" lon="10.765633117597858"><ele>482.0</ele><time>2026-04-16T09:12:20Z</time></trkpt><trkpt lat="44.07045559555798" lon="10.765735347443362"><ele>481.0</ele><time>2026-04-16T09:12:21Z</time></trkpt><trkpt lat="44.070362141032845" lon="10.765729381906272"><ele>481.0</ele><time>2026-04-16T09:12:22Z</time></trkpt><trkpt lat="44.070247114334705" lon="10.765664088727052"><ele>481.0</ele><time>2026-04-16T09:12:23Z</time></trkpt><trkpt lat="44.07011938848128" lon="10.765587991416048"><ele>481.0</ele><time>2026-04-16T09:12:24Z</time></trkpt><trkpt lat="44.06997426780107" lon="10.765506341306462"><ele>481.0</ele><time>2026-04-16T09:12:25Z</time></trkpt><trkpt lat="44.06981123105926" lon="10.765438403841594"><ele>479.6666666666667</ele><time>2026-04-16T09:12:26Z</time></trkpt><trkpt lat="44.069624170328176" lon="10.765396129986502"><ele>478.33333333333337</ele><time>2026-04-16T09:12:27Z</time></trkpt><trkpt lat="44.0694645001074" lon="10.76532456107554"><ele>477.0</ele><time>2026-04-16T09:12:28Z</time></trkpt><trkpt lat="44.06930657097448" lon="10.765240389066076"><ele>482.33333333333337</ele><time>2026-04-16T09:12:29Z</time></trkpt><trkpt lat="44.069143455393665" lon="10.765131901586058"><ele>487.6666666666667</ele><time>2026-04-16T09:12:30Z</time></trkpt><trkpt lat="44.06898589270518" lon="10.765054299763175"><ele>493.0</ele><time>2026-04-16T09:12:31Z</time></trkpt><trkpt lat="44.06883170700905" lon="10.765011470867547"><ele>493.0</ele><time>2026-04-16T09:12:32Z</time></trkpt><trkpt lat="44.06867508408061" lon="10.765015251656509"><ele>493.0</ele><time>2026-04-16T09:12:33Z</time></trkpt><trkpt lat="44.06850511754819" lon="10.765052169554401"><ele>493.0</ele><time>2026-04-16T09:12:34Z</time></trkpt><trkpt lat="44.06832300253807" lon="10.765096323440485"><ele>488.6666666666667</ele><time>2026-04-16T09:12:35Z</time></trkpt><trkpt lat="44.06812723129198" lon="10.765123425397627"><ele>484.33333333333337</ele><time>2026-04-16T09:12:36Z</time></trkpt><trkpt lat="44.06794354627682" lon="10.765068512596011"><ele>480.0</ele><time>2026-04-16T09:12:37Z</time></trkpt><trkpt lat="44.06775271616087" lon="10.765019810326553"><ele>480.0</ele><time>2026-04-16T09:12:38Z</time></trkpt><trkpt lat="44.06755582787761" lon="10.76497190530838"><ele>480.0</ele><time>2026-04-16T09:12:39Z</time></trkpt><trkpt lat="44.06735787401994" lon="10.764966845205134"><ele>480.0</ele><time>2026-04-16T09:12:40Z</time></trkpt><trkpt lat="44.0671549653623" lon="10.764971248749637"><ele>481.33333333333337</ele><time>2026-04-16T09:12:41Z</time></trkpt><trkpt lat="44.066938985588" lon="10.765004435878302"><ele>482.6666666666667</ele><time>2026-04-16T09:12:42Z</time></trkpt><trkpt lat="44.06674377812146" lon="10.76502054039046"><ele>484.0</ele><time>2026-04-16T09:12:43Z</time></trkpt><trkpt lat="44.066553045447556" lon="10.765012217022694"><ele>489.6666666666667</ele><time>2026-04-16T09:12:44Z</time></trkpt><trkpt lat="44.06638699330293" lon="10.765013344582156"><ele>495.33333333333337</ele><time>2026-04-16T09:12:45Z</time></trkpt><trkpt lat="44.06623237387504" lon="10.76501388398743"><ele>501.0</ele><time>2026-04-16T09:12:46Z</time></trkpt><trkpt lat="44.066065206214105" lon="10.765057397590876"><ele>501.0</ele><time>2026-04-16T09:12:47Z</time></trkpt><trkpt lat="44.06589233686579" lon="10.7651427137729"><ele>501.0</ele><time>2026-04-16T09:12:48Z</time></trkpt><trkpt lat="44.06573130470947" lon="10.76528876692398"><ele>501.0</ele><time>2026-04-16T09:12:49Z</time></trkpt><trkpt lat="44.06557508198502" lon="10.76542135302638"><ele>497.5</ele><time>2026-04-16T09:12:50Z</time></trkpt><trkpt lat="44.06545143840013" lon="10.765521655638695"><ele>494.0</ele><time>2026-04-16T09:12:51Z</time></trkpt><trkpt lat="44.06535349639915" lon="10.765625066503407"><ele>490.5</ele><time>2026-04-16T09:12:52Z</time></trkpt><trkpt lat="44.06527732326529" lon="10.765789419517947"><ele>487.0</ele><time>2026-04-16T09:12:53Z</time></trkpt><trkpt lat="44.06521707753001" lon="10.765961293356764"><ele>480.0</ele><time>2026-04-16T09:12:54Z</time></trkpt><trkpt lat="44.06517541695082" lon="10.766164236369413"><ele>473.0</ele><time>2026-04-16T09:12:55Z</time></trkpt><trkpt lat="44.065163999890736" lon="10.766334261306513"><ele>466.0</ele><time>2026-04-16T09:12:56Z</time></trkpt><trkpt lat="44.065154249686955" lon="10.766467795390266"><ele>459.0</ele><time>2026-04-16T09:12:57Z</time></trkpt><trkpt lat="44.06512767814615" lon="10.766578437890653"><ele>459.0</ele><time>2026-04-16T09:12:58Z</time></trkpt><trkpt lat="44.06501619164949" lon="10.766619078659701"><ele>459.0</ele><time>2026-04-16T09:12:59Z</time></trkpt><trkpt lat="44.06491411514261" lon="10.766627464164495"><ele>459.0</ele><time>2026-04-16T09:13:00Z</time></trkpt><trkpt lat="44.064820191501326" lon="10.766617654041294"><ele>459.0</ele><time>2026-04-16T09:13:01Z</time></trkpt><trkpt lat="44.064718521762536" lon="10.766617476044502"><ele>459.0</ele><time>2026-04-16T09:13:02Z</time></trkpt><trkpt lat="44.06462161961577" lon="10.766620208037287"><ele>458.5</ele><time>2026-04-16T09:13:03Z</time></trkpt><trkpt lat="44.06455476271701" lon="10.766621494261514"><ele>458.0</ele><time>2026-04-16T09:13:04Z</time></trkpt><trkpt lat="44.06446637502926" lon="10.766619549694866"><ele>457.5</ele><time>2026-04-16T09:13:06Z</time></trkpt><trkpt lat="44.064389785679495" lon="10.766629430379004"><ele>457.0</ele><time>2026-04-16T09:13:11Z</time></trkpt><trkpt lat="44.06432323395206" lon="10.766624355511897"><ele>456.5</ele><time>2026-04-16T09:13:13Z</time></trkpt><trkpt lat="44.064251932256575" lon="10.766651210335128"><ele>456.0</ele><time>2026-04-16T09:13:14Z</time></trkpt><trkpt lat="44.06419237266787" lon="10.766722131472825"><ele>456.0</ele><time>2026-04-16T09:13:15Z</time></trkpt><trkpt lat="44.06414296431299" lon="10.766832969351585"><ele>456.0</ele><time>2026-04-16T09:13:16Z</time></trkpt><trkpt lat="44.06409201184438" lon="10.766953992691809"><ele>456.0</ele><time>2026-04-16T09:13:17Z</time></trkpt><trkpt lat="44.064061274887464" lon="10.767043485887037"><ele>456.0</ele><time>2026-04-16T09:13:18Z</time></trkpt><trkpt lat="44.06394797641768" lon="10.767161661012304"><ele>456.0</ele><time>2026-04-16T09:13:20Z</time></trkpt><trkpt lat="44.06388406188214" lon="10.767222854841"><ele>460.20000000000005</ele><time>2026-04-16T09:13:21Z</time></trkpt><trkpt lat="44.06379681407396" lon="10.767308537249285"><ele>464.40000000000003</ele><time>2026-04-16T09:13:22Z</time></trkpt><trkpt lat="44.0637189185559" lon="10.767360664940862"><ele>468.6</ele><time>2026-04-16T09:13:23Z</time></trkpt><trkpt lat="44.0636385100121" lon="10.76738384449674"><ele>472.8</ele><time>2026-04-16T09:13:24Z</time></trkpt><trkpt lat="44.06354154763002" lon="10.767368271602178"><ele>477.0</ele><time>2026-04-16T09:13:25Z</time></trkpt><trkpt lat="44.06345218025298" lon="10.76728751149572"><ele>477.0</ele><time>2026-04-16T09:13:26Z</time></trkpt><trkpt lat="44.06337452322084" lon="10.76722646006651"><ele>477.0</ele><time>2026-04-16T09:13:27Z</time></trkpt><trkpt lat="44.063293412226095" lon="10.767181143072094"><ele>477.0</ele><time>2026-04-16T09:13:28Z</time></trkpt><trkpt lat="44.06323134245748" lon="10.767119665606652"><ele>477.0</ele><time>2026-04-16T09:13:29Z</time></trkpt><trkpt lat="44.06319049951797" lon="10.767012525433064"><ele>477.0</ele><time>2026-04-16T09:13:30Z</time></trkpt><trkpt lat="44.06314207872679" lon="10.766927709418214"><ele>477.0</ele><time>2026-04-16T09:13:31Z</time></trkpt><trkpt lat="44.06308328860749" lon="10.76681899089651"><ele>476.6666666666667</ele><time>2026-04-16T09:13:32Z</time></trkpt><trkpt lat="44.063030416098705" lon="10.766703668691415"><ele>476.33333333333337</ele><time>2026-04-16T09:13:33Z</time></trkpt><trkpt lat="44.062971866456756" lon="10.76660343744131"><ele>476.0</ele><time>2026-04-16T09:13:34Z</time></trkpt><trkpt lat="44.06292913796496" lon="10.766499835307906"><ele>475.6666666666667</ele><time>2026-04-16T09:13:35Z</time></trkpt><trkpt lat="44.06288510673555" lon="10.76639107087321"><ele>475.33333333333337</ele><time>2026-04-16T09:13:36Z</time></trkpt><trkpt lat="44.06283468662221" lon="10.766303161294347"><ele>475.0</ele><time>2026-04-16T09:13:37Z</time></trkpt><trkpt lat="44.062792534021696" lon="10.76619635172733"><ele>475.0</ele><time>2026-04-16T09:13:38Z</time></trkpt><trkpt lat="44.06274005218643" lon="10.76612277180172"><ele>475.0</ele><time>2026-04-16T09:13:39Z</time></trkpt><trkpt lat="44.062671398189174" lon="10.766064002654822"><ele>475.0</ele><time>2026-04-16T09:13:40Z</time></trkpt><trkpt lat="44.062577305586736" lon="10.766019005878578"><ele>475.0</ele><time>2026-04-16T09:13:41Z</time></trkpt><trkpt lat="44.06247298946451" lon="10.76602395363193"><ele>475.0</ele><time>2026-04-16T09:13:42Z</time></trkpt><trkpt lat="44.06238249818214" lon="10.766064767031962"><ele>471.0</ele><time>2026-04-16T09:13:43Z</time></trkpt><trkpt lat="44.062306902141295" lon="10.766135296959497"><ele>467.0</ele><time>2026-04-16T09:13:44Z</time></trkpt><trkpt lat="44.06222799200442" lon="10.766237953965055"><ele>463.0</ele><time>2026-04-16T09:13:45Z</time></trkpt><trkpt lat="44.0621506367963" lon="10.766411564635058"><ele>459.0</ele><time>2026-04-16T09:13:46Z</time></trkpt><trkpt lat="44.06204427890597" lon="10.76659690681466"><ele>459.0</ele><time>2026-04-16T09:13:47Z</time></trkpt><trkpt lat="44.06193888459302" lon="10.766774687553701"><ele>459.0</ele><time>2026-04-16T09:13:48Z</time></trkpt><trkpt lat="44.06185161585453" lon="10.766987890494866"><ele>459.0</ele><time>2026-04-16T09:13:49Z</time></trkpt><trkpt lat="44.06177160881505" lon="10.767226180991097"><ele>457.33333333333337</ele><time>2026-04-16T09:13:50Z</time></trkpt><trkpt lat="44.06168939951363" lon="10.767442825400849"><ele>455.6666666666667</ele><time>2026-04-16T09:13:51Z</time></trkpt><trkpt lat="44.061548844743214" lon="10.767613206969164"><ele>454.0</ele><time>2026-04-16T09:13:52Z</time></trkpt><trkpt lat="44.061423955494924" lon="10.767780541847117"><ele>465.6666666666667</ele><time>2026-04-16T09:13:53Z</time></trkpt><trkpt lat="44.06129887729546" lon="10.767951786897736"><ele>477.33333333333337</ele><time>2026-04-16T09:13:54Z</time></trkpt><trkpt lat="44.06118448164275" lon="10.768092304564352"><ele>489.0</ele><time>2026-04-16T09:13:55Z</time></trkpt><trkpt lat="44.06107776216027" lon="10.768206877038928"><ele>489.0</ele><time>2026-04-16T09:13:56Z</time></trkpt><trkpt lat="44.060942009168876" lon="10.768246248648632"><ele>489.0</ele><time>2026-04-16T09:13:57Z</time></trkpt><trkpt lat="44.060792669086574" lon="10.76819185239302"><ele>489.0</ele><time>2026-04-16T09:13:58Z</time></trkpt><trkpt lat="44.06063029615112" lon="10.76814565950708"><ele>494.33333333333337</ele><time>2026-04-16T09:13:59Z</time></trkpt><trkpt lat="44.06046246305356" lon="10.768061040311943"><ele>499.6666666666667</ele><time>2026-04-16T09:14:00Z</time></trkpt><trkpt lat="44.06029031749768" lon="10.767991827342755"><ele>505.0</ele><time>2026-04-16T09:14:01Z</time></trkpt><trkpt lat="44.060112940155676" lon="10.76793078368986"><ele>504.33333333333337</ele><time>2026-04-16T09:14:02Z</time></trkpt><trkpt lat="44.059929272928876" lon="10.767858777462859"><ele>503.66666666666663</ele><time>2026-04-16T09:14:03Z</time></trkpt><trkpt lat="44.05975013354094" lon="10.767815252164372"><ele>503.0</ele><time>2026-04-16T09:14:04Z</time></trkpt><trkpt lat="44.059589003443364" lon="10.767787344647909"><ele>503.0</ele><time>2026-04-16T09:14:05Z</time></trkpt><trkpt lat="44.059452074842504" lon="10.76779148700789"><ele>503.0</ele><time>2026-04-16T09:14:06Z</time></trkpt><trkpt lat="44.05932434261593" lon="10.767802563559805"><ele>503.0</ele><time>2026-04-16T09:14:07Z</time></trkpt><trkpt lat="44.05920901419485" lon="10.76790065818911"><ele>503.0</ele><time>2026-04-16T09:14:08Z</time></trkpt><trkpt lat="44.05910362841843" lon="10.768031293944029"><ele>495.3333333333333</ele><time>2026-04-16T09:14:09Z</time></trkpt><trkpt lat="44.058962842907114" lon="10.768171346971426"><ele>487.66666666666663</ele><time>2026-04-16T09:14:10Z</time></trkpt><trkpt lat="44.05883863213475" lon="10.768330783512718"><ele>480.0</ele><time>2026-04-16T09:14:11Z</time></trkpt><trkpt lat="44.058705454597735" lon="10.768481799631173"><ele>481.0</ele><time>2026-04-16T09:14:12Z</time></trkpt><trkpt lat="44.05856844065852" lon="10.768618045339776"><ele>482.0</ele><time>2026-04-16T09:14:13Z</time></trkpt><trkpt lat="44.05842464376742" lon="10.768738862355129"><ele>483.0</ele><time>2026-04-16T09:14:14Z</time></trkpt><trkpt lat="44.058264611736035" lon="10.768832314196475"><ele>483.0</ele><time>2026-04-16T09:14:15Z</time></trkpt><trkpt lat="44.058141003007684" lon="10.768930620560628"><ele>483.0</ele><time>2026-04-16T09:14:16Z</time></trkpt><trkpt lat="44.05803927592076" lon="10.769056020652156"><ele>483.0</ele><time>2026-04-16T09:14:17Z</time></trkpt><trkpt lat="44.05798403990655" lon="10.7692168861017"><ele>483.0</ele><time>2026-04-16T09:14:18Z</time></trkpt><trkpt lat="44.057952322405164" lon="10.769393608173853"><ele>489.33333333333337</ele><time>2026-04-16T09:14:19Z</time></trkpt><trkpt lat="44.0579556456983" lon="10.769631584025351"><ele>495.6666666666667</ele><time>2026-04-16T09:14:20Z</time></trkpt><trkpt lat="44.05799061587886" lon="10.769839504103356"><ele>502.0</ele><time>2026-04-16T09:14:21Z</time></trkpt><trkpt lat="44.05803031837531" lon="10.770058083865889"><ele>505.0</ele><time>2026-04-16T09:14:22Z</time></trkpt><trkpt lat="44.058019075021996" lon="10.77021988021667"><ele>508.0</ele><time>2026-04-16T09:14:23Z</time></trkpt><trkpt lat="44.05794732489099" lon="10.77033896313523"><ele>511.0</ele><time>2026-04-16T09:14:24Z</time></trkpt><trkpt lat="44.05784063665588" lon="10.770416733856317"><ele>514.0</ele><time>2026-04-16T09:14:25Z</time></trkpt><trkpt lat="44.05771914174747" lon="10.770475163971035"><ele>514.0</ele><time>2026-04-16T09:14:26Z</time></trkpt><trkpt lat="44.05763592337654" lon="10.770576612917017"><ele>514.0</ele><time>2026-04-16T09:14:27Z</time></trkpt><trkpt lat="44.05758457759269" lon="10.77071700251122"><ele>514.0</ele><time>2026-04-16T09:14:28Z</time></trkpt><trkpt lat="44.05755972470835" lon="10.770893094873802"><ele>514.0</ele><time>2026-04-16T09:14:29Z</time></trkpt><trkpt lat="44.057545811032746" lon="10.771097667837644"><ele>514.6666666666667</ele><time>2026-04-16T09:14:30Z</time></trkpt><trkpt lat="44.05751447530601" lon="10.771297186428363"><ele>515.3333333333334</ele><time>2026-04-16T09:14:31Z</time></trkpt><trkpt lat="44.05744661381226" lon="10.771493551949018"><ele>516.0</ele><time>2026-04-16T09:14:32Z</time></trkpt><trkpt lat="44.057344035344485" lon="10.771671706400756"><ele>516.0</ele><time>2026-04-16T09:14:33Z</time></trkpt><trkpt lat="44.05723242217806" lon="10.771842827906319"><ele>516.0</ele><time>2026-04-16T09:14:34Z</time></trkpt><trkpt lat="44.05712120260648" lon="10.772037528665182"><ele>516.0</ele><time>2026-04-16T09:14:35Z</time></trkpt><trkpt lat="44.057020694877" lon="10.772237606739306"><ele>520.0</ele><time>2026-04-16T09:14:36Z</time></trkpt><trkpt lat="44.05694361773356" lon="10.772452938125085"><ele>524.0</ele><time>2026-04-16T09:14:37Z</time></trkpt><trkpt lat="44.05687161422505" lon="10.77264353209922"><ele>528.0</ele><time>2026-04-16T09:14:38Z</time></trkpt><trkpt lat="44.05680283339982" lon="10.772801095864665"><ele>530.75</ele><time>2026-04-16T09:14:39Z</time></trkpt><trkpt lat="44.056685448133116" lon="10.772873186550788"><ele>533.5</ele><time>2026-04-16T09:14:40Z</time></trkpt><trkpt lat="44.0565547471136" lon="10.772958612598567"><ele>536.25</ele><time>2026-04-16T09:14:41Z</time></trkpt><trkpt lat="44.056413544608596" lon="10.773018258565811"><ele>539.0</ele><time>2026-04-16T09:14:42Z</time></trkpt><trkpt lat="44.05629824408062" lon="10.773089509576073"><ele>539.0</ele><time>2026-04-16T09:14:43Z</time></trkpt><trkpt lat="44.05621217370613" lon="10.773171454641567"><ele>539.0</ele><time>2026-04-16T09:14:44Z</time></trkpt><trkpt lat="44.056199652912085" lon="10.773318175576991"><ele>539.0</ele><time>2026-04-16T09:14:45Z</time></trkpt><trkpt lat="44.056208158524676" lon="10.773447151293388"><ele>539.0</ele><time>2026-04-16T09:14:46Z</time></trkpt><trkpt lat="44.05624683743889" lon="10.773601143433037"><ele>539.0</ele><time>2026-04-16T09:14:47Z</time></trkpt><trkpt lat="44.05631149810406" lon="10.773751906372215"><ele>542.25</ele><time>2026-04-16T09:14:48Z</time></trkpt><trkpt lat="44.05639181459211" lon="10.773914887272301"><ele>545.5</ele><time>2026-04-16T09:14:49Z</time></trkpt><trkpt lat="44.056485406006615" lon="10.774069449162976"><ele>548.75</ele><time>2026-04-16T09:14:50Z</time></trkpt><trkpt lat="44.05659539942364" lon="10.774205814697421"><ele>552.0</ele><time>2026-04-16T09:14:51Z</time></trkpt><trkpt lat="44.056704984481556" lon="10.774290630778271"><ele>552.0</ele><time>2026-04-16T09:14:52Z</time></trkpt><trkpt lat="44.05682752928479" lon="10.774317758729484"><ele>552.0</ele><time>2026-04-16T09:14:53Z</time></trkpt><trkpt lat="44.05695097439874" lon="10.774275869929019"><ele>552.0</ele><time>2026-04-16T09:14:54Z</time></trkpt><trkpt lat="44.057066384344246" lon="10.774174118600364"><ele>552.0</ele><time>2026-04-16T09:14:55Z</time></trkpt><trkpt lat="44.05718183795221" lon="10.774049736720862"><ele>552.0</ele><time>2026-04-16T09:14:56Z</time></trkpt><trkpt lat="44.057300313365594" lon="10.773956771698693"><ele>552.0</ele><time>2026-04-16T09:14:57Z</time></trkpt><trkpt lat="44.057415818312265" lon="10.773949149076227"><ele>552.0</ele><time>2026-04-16T09:14:58Z</time></trkpt><trkpt lat="44.05751745670936" lon="10.77399971396508"><ele>552.0</ele><time>2026-04-16T09:14:59Z</time></trkpt><trkpt lat="44.05759814431535" lon="10.774118007964685"><ele>553.75</ele><time>2026-04-16T09:15:00Z</time></trkpt><trkpt lat="44.05765069747519" lon="10.774286459157073"><ele>555.5</ele><time>2026-04-16T09:15:01.001Z</time></trkpt><trkpt lat="44.05767776454688" lon="10.774473736424925"><ele>557.25</ele><time>2026-04-16T09:15:02.001Z</time></trkpt><trkpt lat="44.05771830774955" lon="10.774660978232152"><ele>559.0</ele><time>2026-04-16T09:15:03.001Z</time></trkpt><trkpt lat="44.057756756351864" lon="10.774864570004565"><ele>560.25</ele><time>2026-04-16T09:15:04.001Z</time></trkpt><trkpt lat="44.05777080617341" lon="10.775047602004644"><ele>561.5</ele><time>2026-04-16T09:15:05.001Z</time></trkpt><trkpt lat="44.05775726019194" lon="10.775208243934417"><ele>562.75</ele><time>2026-04-16T09:15:06.001Z</time></trkpt><trkpt lat="44.05770532767996" lon="10.77534936165058"><ele>564.0</ele><time>2026-04-16T09:15:07.001Z</time></trkpt><trkpt lat="44.057610934899216" lon="10.775458993594448"><ele>570.5</ele><time>2026-04-16T09:15:08.001Z</time></trkpt><trkpt lat="44.057488336790506" lon="10.77551937710285"><ele>577.0</ele><time>2026-04-16T09:15:09.001Z</time></trkpt><trkpt lat="44.05734630718776" lon="10.775530991568669"><ele>583.5</ele><time>2026-04-16T09:15:10.001Z</time></trkpt><trkpt lat="44.05720581712342" lon="10.775498687209948"><ele>590.0</ele><time>2026-04-16T09:15:11.001Z</time></trkpt><trkpt lat="44.057039095441205" lon="10.775465752833865"><ele>591.3333333333333</ele><time>2026-04-16T09:15:12.001Z</time></trkpt><trkpt lat="44.05685738354018" lon="10.775430394583642"><ele>592.6666666666666</ele><time>2026-04-16T09:15:13.001Z</time></trkpt><trkpt lat="44.05667908248002" lon="10.775420946759134"><ele>594.0</ele><time>2026-04-16T09:15:14.001Z</time></trkpt><trkpt lat="44.05649290240571" lon="10.775406868671372"><ele>597.6666666666666</ele><time>2026-04-16T09:15:15.001Z</time></trkpt><trkpt lat="44.05630514885717" lon="10.775380137872892"><ele>601.3333333333333</ele><time>2026-04-16T09:15:16.001Z</time></trkpt><trkpt lat="44.056108585614744" lon="10.77535745749359"><ele>605.0</ele><time>2026-04-16T09:15:17.001Z</time></trkpt><trkpt lat="44.05591410379247" lon="10.775336138651326"><ele>602.6666666666666</ele><time>2026-04-16T09:15:18.001Z</time></trkpt><trkpt lat="44.055726195138114" lon="10.775308832904745"><ele>600.3333333333334</ele><time>2026-04-16T09:15:19.001Z</time></trkpt><trkpt lat="44.0555295484316" lon="10.775287085992845"><ele>598.0</ele><time>2026-04-16T09:15:20.001Z</time></trkpt><trkpt lat="44.05535154709259" lon="10.77525417721858"><ele>598.0</ele><time>2026-04-16T09:15:21.001Z</time></trkpt><trkpt lat="44.055185930736194" lon="10.775226757480574"><ele>598.0</ele><time>2026-04-16T09:15:22.001Z</time></trkpt><trkpt lat="44.05504768272972" lon="10.775195759931371"><ele>598.0</ele><time>2026-04-16T09:15:23.001Z</time></trkpt><trkpt lat="44.0549310259009" lon="10.77516110236335"><ele>598.0</ele><time>2026-04-16T09:15:24.001Z</time></trkpt><trkpt lat="44.05482111801197" lon="10.77514351048481"><ele>594.1999999999999</ele><time>2026-04-16T09:15:25.001Z</time></trkpt><trkpt lat="44.05474200187937" lon="10.775147118210988"><ele>590.4</ele><time>2026-04-16T09:15:26.001Z</time></trkpt><trkpt lat="44.05467324567006" lon="10.775203829380704"><ele>586.5999999999999</ele><time>2026-04-16T09:15:27.001Z</time></trkpt><trkpt lat="44.05461729949908" lon="10.775307365887867"><ele>582.8</ele><time>2026-04-16T09:15:28.001Z</time></trkpt><trkpt lat="44.05460496601506" lon="10.775441874710177"><ele>579.0</ele><time>2026-04-16T09:15:29.001Z</time></trkpt><trkpt lat="44.05462811899816" lon="10.775600046191013"><ele>572.0</ele><time>2026-04-16T09:15:30.001Z</time></trkpt><trkpt lat="44.05467281416718" lon="10.775763091830735"><ele>565.0</ele><time>2026-04-16T09:15:31.001Z</time></trkpt><trkpt lat="44.05473904252317" lon="10.775959681825105"><ele>558.0</ele><time>2026-04-16T09:15:32.001Z</time></trkpt><trkpt lat="44.054809740644096" lon="10.776174848023661"><ele>550.6666666666666</ele><time>2026-04-16T09:15:33.001Z</time></trkpt><trkpt lat="44.05488757638858" lon="10.776387337695228"><ele>543.3333333333333</ele><time>2026-04-16T09:15:34.001Z</time></trkpt><trkpt lat="44.05496376679883" lon="10.776600324313955"><ele>536.0</ele><time>2026-04-16T09:15:35.001Z</time></trkpt><trkpt lat="44.05505246254333" lon="10.77678987353112"><ele>548.6666666666666</ele><time>2026-04-16T09:15:36.001Z</time></trkpt><trkpt lat="44.05516458049287" lon="10.7769692985878"><ele>561.3333333333334</ele><time>2026-04-16T09:15:37.001Z</time></trkpt><trkpt lat="44.0552916570079" lon="10.777136413470584"><ele>574.0</ele><time>2026-04-16T09:15:38.001Z</time></trkpt><trkpt lat="44.05542926135672" lon="10.777304814699434"><ele>574.0</ele><time>2026-04-16T09:15:39.001Z</time></trkpt><trkpt lat="44.055576846399795" lon="10.777492265921754"><ele>574.0</ele><time>2026-04-16T09:15:40.001Z</time></trkpt><trkpt lat="44.05572581878118" lon="10.777684057457396"><ele>574.0</ele><time>2026-04-16T09:15:41.001Z</time></trkpt><trkpt lat="44.0558741274598" lon="10.777879674454969"><ele>575.3333333333334</ele><time>2026-04-16T09:15:42.001Z</time></trkpt><trkpt lat="44.05599495079595" lon="10.778100014357824"><ele>576.6666666666666</ele><time>2026-04-16T09:15:43.001Z</time></trkpt><trkpt lat="44.056115902450045" lon="10.778330913354308"><ele>578.0</ele><time>2026-04-16T09:15:44.001Z</time></trkpt><trkpt lat="44.05623625864884" lon="10.778571045472495"><ele>578.0</ele><time>2026-04-16T09:15:45.001Z</time></trkpt><trkpt lat="44.056373222416234" lon="10.778796111383935"><ele>578.0</ele><time>2026-04-16T09:15:46.001Z</time></trkpt><trkpt lat="44.05648987955852" lon="10.779038510422819"><ele>578.0</ele><time>2026-04-16T09:15:47.001Z</time></trkpt><trkpt lat="44.05662947882048" lon="10.779256803456"><ele>586.3333333333333</ele><time>2026-04-16T09:15:48.001Z</time></trkpt><trkpt lat="44.056781099700984" lon="10.779465925954224"><ele>594.6666666666666</ele><time>2026-04-16T09:15:49.001Z</time></trkpt><trkpt lat="44.056936017083046" lon="10.779663472136514"><ele>603.0</ele><time>2026-04-16T09:15:50.001Z</time></trkpt><trkpt lat="44.05708678311273" lon="10.779841153620065"><ele>603.0</ele><time>2026-04-16T09:15:51.001Z</time></trkpt><trkpt lat="44.057227528138846" lon="10.779987274554493"><ele>603.0</ele><time>2026-04-16T09:15:52.001Z</time></trkpt><trkpt lat="44.05735481936901" lon="10.780126152814061"><ele>603.0</ele><time>2026-04-16T09:15:53.001Z</time></trkpt><trkpt lat="44.05746161416374" lon="10.780258151901219"><ele>602.0</ele><time>2026-04-16T09:15:54.001Z</time></trkpt><trkpt lat="44.05753801200856" lon="10.7803890057488"><ele>601.0</ele><time>2026-04-16T09:15:55.001Z</time></trkpt><trkpt lat="44.05757611587249" lon="10.780531243333003"><ele>600.0</ele><time>2026-04-16T09:15:56.001Z</time></trkpt><trkpt lat="44.05755492611449" lon="10.780669142365433"><ele>599.0</ele><time>2026-04-16T09:15:57.001Z</time></trkpt><trkpt lat="44.057499433895735" lon="10.78080421688854"><ele>598.0</ele><time>2026-04-16T09:15:58.001Z</time></trkpt><trkpt lat="44.057414157501924" lon="10.780948014432026"><ele>603.6666666666667</ele><time>2026-04-16T09:15:59.001Z</time></trkpt><trkpt lat="44.05732039917719" lon="10.781114929985117"><ele>609.3333333333334</ele><time>2026-04-16T09:16:00.001Z</time></trkpt><trkpt lat="44.05721242497913" lon="10.78128892646326"><ele>615.0</ele><time>2026-04-16T09:16:01.001Z</time></trkpt><trkpt lat="44.05709292985338" lon="10.781458822543813"><ele>615.0</ele><time>2026-04-16T09:16:02.001Z</time></trkpt><trkpt lat="44.05696257126873" lon="10.781614423778622"><ele>615.0</ele><time>2026-04-16T09:16:03.001Z</time></trkpt><trkpt lat="44.056821904833996" lon="10.781767575162116"><ele>615.0</ele><time>2026-04-16T09:16:04.001Z</time></trkpt><trkpt lat="44.056697581001636" lon="10.781914950999342"><ele>611.6666666666666</ele><time>2026-04-16T09:16:05.001Z</time></trkpt><trkpt lat="44.05658164606438" lon="10.782100179117762"><ele>608.3333333333333</ele><time>2026-04-16T09:16:06.001Z</time></trkpt><trkpt lat="44.056504962394825" lon="10.78230339916287"><ele>605.0</ele><time>2026-04-16T09:16:07.001Z</time></trkpt><trkpt lat="44.056471655013965" lon="10.782534767748123"><ele>605.0</ele><time>2026-04-16T09:16:08.001Z</time></trkpt><trkpt lat="44.05648763386998" lon="10.78278025006045"><ele>605.0</ele><time>2026-04-16T09:16:09.001Z</time></trkpt><trkpt lat="44.05652016930011" lon="10.783034309668329"><ele>605.0</ele><time>2026-04-16T09:16:10.001Z</time></trkpt><trkpt lat="44.05655322421476" lon="10.78327449392751"><ele>606.3333333333333</ele><time>2026-04-16T09:16:11.001Z</time></trkpt><trkpt lat="44.05658920992247" lon="10.783535085032375"><ele>607.6666666666666</ele><time>2026-04-16T09:16:12.001Z</time></trkpt><trkpt lat="44.05662337035312" lon="10.78378400371462"><ele>609.0</ele><time>2026-04-16T09:16:13.001Z</time></trkpt><trkpt lat="44.05664503348687" lon="10.784006642648965"><ele>610.6666666666666</ele><time>2026-04-16T09:16:14.001Z</time></trkpt><trkpt lat="44.056634602169694" lon="10.784207187858716"><ele>612.3333333333333</ele><time>2026-04-16T09:16:15.001Z</time></trkpt><trkpt lat="44.05659408616621" lon="10.784401856503633"><ele>614.0</ele><time>2026-04-16T09:16:16.001Z</time></trkpt><trkpt lat="44.05651319484415" lon="10.784596163943895"><ele>614.0</ele><time>2026-04-16T09:16:17.001Z</time></trkpt><trkpt lat="44.056404091068934" lon="10.784784750137717"><ele>614.0</ele><time>2026-04-16T09:16:18.001Z</time></trkpt><trkpt lat="44.0562943734623" lon="10.78497578633974"><ele>614.0</ele><time>2026-04-16T09:16:19.001Z</time></trkpt><trkpt lat="44.056165182292645" lon="10.785165768714696"><ele>609.6666666666666</ele><time>2026-04-16T09:16:20.001Z</time></trkpt><trkpt lat="44.056026926457776" lon="10.785305132667299"><ele>605.3333333333334</ele><time>2026-04-16T09:16:21.001Z</time></trkpt><trkpt lat="44.055890738456135" lon="10.785433801993511"><ele>601.0</ele><time>2026-04-16T09:16:22.001Z</time></trkpt><trkpt lat="44.05577529267112" lon="10.78557383038356"><ele>601.0</ele><time>2026-04-16T09:16:23.001Z</time></trkpt><trkpt lat="44.0556842119187" lon="10.785740949552812"><ele>601.0</ele><time>2026-04-16T09:16:24.001Z</time></trkpt><trkpt lat="44.055631159081514" lon="10.785933702854548"><ele>601.0</ele><time>2026-04-16T09:16:25.001Z</time></trkpt><trkpt lat="44.05559977047376" lon="10.78614123488679"><ele>605.3333333333334</ele><time>2026-04-16T09:16:26.001Z</time></trkpt><trkpt lat="44.055587504498774" lon="10.786360480799617"><ele>609.6666666666666</ele><time>2026-04-16T09:16:27.001Z</time></trkpt><trkpt lat="44.055592136063886" lon="10.786576215205645"><ele>614.0</ele><time>2026-04-16T09:16:28.001Z</time></trkpt><trkpt lat="44.055577386795164" lon="10.786769059454615"><ele>614.25</ele><time>2026-04-16T09:16:29.001Z</time></trkpt><trkpt lat="44.05556879709782" lon="10.786955649351238"><ele>614.5</ele><time>2026-04-16T09:16:30.001Z</time></trkpt><trkpt lat="44.05556195082612" lon="10.78715983466777"><ele>614.75</ele><time>2026-04-16T09:16:31.001Z</time></trkpt><trkpt lat="44.0555556880063" lon="10.787372957930476"><ele>615.0</ele><time>2026-04-16T09:16:32.001Z</time></trkpt><trkpt lat="44.055549130718475" lon="10.78757457975203"><ele>614.75</ele><time>2026-04-16T09:16:33.001Z</time></trkpt><trkpt lat="44.05554318266692" lon="10.787761635138528"><ele>614.5</ele><time>2026-04-16T09:16:34.001Z</time></trkpt><trkpt lat="44.0555375105735" lon="10.787940012090413"><ele>614.25</ele><time>2026-04-16T09:16:35.001Z</time></trkpt><trkpt lat="44.055532068150264" lon="10.78811116641248"><ele>614.0</ele><time>2026-04-16T09:16:36.001Z</time></trkpt><trkpt lat="44.05552654219733" lon="10.788284947470181"><ele>614.0</ele><time>2026-04-16T09:16:37.001Z</time></trkpt><trkpt lat="44.05552111704693" lon="10.78845555873198"><ele>614.0</ele><time>2026-04-16T09:16:38.001Z</time></trkpt><trkpt lat="44.055517197015945" lon="10.788617483728842"><ele>614.0</ele><time>2026-04-16T09:16:39.001Z</time></trkpt><trkpt lat="44.05551385661855" lon="10.788767676462705"><ele>614.0</ele><time>2026-04-16T09:16:40.001Z</time></trkpt><trkpt lat="44.05550913210064" lon="10.788935654908402"><ele>614.0</ele><time>2026-04-16T09:16:41.001Z</time></trkpt><trkpt lat="44.05550282139116" lon="10.789117026257541"><ele>614.0</ele><time>2026-04-16T09:16:42.001Z</time></trkpt><trkpt lat="44.055495408749316" lon="10.789296312321271"><ele>614.0</ele><time>2026-04-16T09:16:43.001Z</time></trkpt><trkpt lat="44.055488618887466" lon="10.789459020624902"><ele>614.0</ele><time>2026-04-16T09:16:44.001Z</time></trkpt><trkpt lat="44.05548213447837" lon="10.789609894292678"><ele>614.5</ele><time>2026-04-16T09:16:45.001Z</time></trkpt><trkpt lat="44.055476386027195" lon="10.78974107075109"><ele>615.0</ele><time>2026-04-16T09:16:46.001Z</time></trkpt><trkpt lat="44.05547079839427" lon="10.789868577551902"><ele>615.5</ele><time>2026-04-16T09:16:47.001Z</time></trkpt><trkpt lat="44.05546452348748" lon="10.789983286851538"><ele>616.0</ele><time>2026-04-16T09:16:48.001Z</time></trkpt><trkpt lat="44.05545861761058" lon="10.790087927007315"><ele>616.5</ele><time>2026-04-16T09:16:49.001Z</time></trkpt><trkpt lat="44.05545185395087" lon="10.79018523944765"><ele>617.0</ele><time>2026-04-16T09:16:50.001Z</time></trkpt><trkpt lat="44.05544218635045" lon="10.79032433246344"><ele>618.2</ele><time>2026-04-16T09:16:52.001Z</time></trkpt><trkpt lat="44.05544870557046" lon="10.790428635812685"><ele>619.4000000000001</ele><time>2026-04-16T09:16:54.001Z</time></trkpt><trkpt lat="44.05542513313882" lon="10.790569686894711"><ele>620.5999999999999</ele><time>2026-04-16T09:16:56.001Z</time></trkpt><trkpt lat="44.05542915829196" lon="10.790762988587124"><ele>621.8</ele><time>2026-04-16T09:16:58.001Z</time></trkpt><trkpt lat="44.055439949523254" lon="10.790865661277994"><ele>623.0</ele><time>2026-04-16T09:16:59.001Z</time></trkpt><trkpt lat="44.055439224064884" lon="10.790977814930548"><ele>623.0</ele><time>2026-04-16T09:17:00.001Z</time></trkpt><trkpt lat="44.05550760870939" lon="10.791079737469161"><ele>623.0</ele><time>2026-04-16T09:17:01.001Z</time></trkpt><trkpt lat="44.0555586274223" lon="10.791195571003964"><ele>623.0</ele><time>2026-04-16T09:17:02.001Z</time></trkpt><trkpt lat="44.05560794263986" lon="10.791338180865038"><ele>623.0</ele><time>2026-04-16T09:17:03.001Z</time></trkpt><trkpt lat="44.05564656525282" lon="10.791499635414942"><ele>623.0</ele><time>2026-04-16T09:17:04.001Z</time></trkpt><trkpt lat="44.05569066777011" lon="10.791677125297305"><ele>622.25</ele><time>2026-04-16T09:17:05.001Z</time></trkpt><trkpt lat="44.05572982083367" lon="10.791867272277475"><ele>621.5</ele><time>2026-04-16T09:17:06.001Z</time></trkpt><trkpt lat="44.05576569981955" lon="10.79205173416997"><ele>620.75</ele><time>2026-04-16T09:17:07.001Z</time></trkpt><trkpt lat="44.05580072852815" lon="10.792225172141096"><ele>620.0</ele><time>2026-04-16T09:17:08.001Z</time></trkpt><trkpt lat="44.055840996022376" lon="10.792401090725322"><ele>620.0</ele><time>2026-04-16T09:17:09.001Z</time></trkpt><trkpt lat="44.05588870014957" lon="10.792587675436696"><ele>620.0</ele><time>2026-04-16T09:17:10.001Z</time></trkpt><trkpt lat="44.055939746810054" lon="10.792786221418053"><ele>620.0</ele><time>2026-04-16T09:17:11.001Z</time></trkpt><trkpt lat="44.05600138106339" lon="10.792988428955155"><ele>619.6666666666666</ele><time>2026-04-16T09:17:12.001Z</time></trkpt><trkpt lat="44.05606038901651" lon="10.79319853490444"><ele>619.3333333333334</ele><time>2026-04-16T09:17:13.001Z</time></trkpt><trkpt lat="44.05611762274209" lon="10.79340728085293"><ele>619.0</ele><time>2026-04-16T09:17:14.001Z</time></trkpt><trkpt lat="44.05616598487738" lon="10.793606371590892"><ele>619.0</ele><time>2026-04-16T09:17:15.001Z</time></trkpt><trkpt lat="44.05620127063599" lon="10.793800405733556"><ele>619.0</ele><time>2026-04-16T09:17:16.001Z</time></trkpt><trkpt lat="44.05622037909379" lon="10.794000555492445"><ele>619.0</ele><time>2026-04-16T09:17:17.001Z</time></trkpt><trkpt lat="44.056210316477284" lon="10.794197102593973"><ele>619.0</ele><time>2026-04-16T09:17:18.001Z</time></trkpt><trkpt lat="44.05618927283313" lon="10.794415069055958"><ele>620.6666666666667</ele><time>2026-04-16T09:17:19.001Z</time></trkpt><trkpt lat="44.056134295492654" lon="10.794620360364707"><ele>622.3333333333334</ele><time>2026-04-16T09:17:20.001Z</time></trkpt><trkpt lat="44.05605496395036" lon="10.794840584641486"><ele>624.0</ele><time>2026-04-16T09:17:21.001Z</time></trkpt><trkpt lat="44.05597344345422" lon="10.795052288783205"><ele>627.3333333333334</ele><time>2026-04-16T09:17:22.001Z</time></trkpt><trkpt lat="44.05591531450353" lon="10.79528203765864"><ele>630.6666666666667</ele><time>2026-04-16T09:17:23.001Z</time></trkpt><trkpt lat="44.05586081895948" lon="10.795526600208008"><ele>634.0</ele><time>2026-04-16T09:17:24.001Z</time></trkpt><trkpt lat="44.05581050239289" lon="10.795762429563833"><ele>627.0</ele><time>2026-04-16T09:17:25.001Z</time></trkpt><trkpt lat="44.05575901431587" lon="10.795992749606748"><ele>620.0</ele><time>2026-04-16T09:17:26.001Z</time></trkpt><trkpt lat="44.05573130563213" lon="10.796239308941056"><ele>613.0</ele><time>2026-04-16T09:17:27.001Z</time></trkpt><trkpt lat="44.0557159504414" lon="10.796498093080752"><ele>613.0</ele><time>2026-04-16T09:17:28.001Z</time></trkpt><trkpt lat="44.0556933050342" lon="10.796762447531325"><ele>613.0</ele><time>2026-04-16T09:17:29.001Z</time></trkpt><trkpt lat="44.05567977336125" lon="10.797024587635905"><ele>613.0</ele><time>2026-04-16T09:17:30.001Z</time></trkpt><trkpt lat="44.055669233253184" lon="10.797277564185729"><ele>614.3333333333334</ele><time>2026-04-16T09:17:31.001Z</time></trkpt><trkpt lat="44.05564405055293" lon="10.797506057729858"><ele>615.6666666666666</ele><time>2026-04-16T09:17:32.001Z</time></trkpt><trkpt lat="44.05561567349548" lon="10.797716401282514"><ele>617.0</ele><time>2026-04-16T09:17:33.001Z</time></trkpt><trkpt lat="44.055553037244636" lon="10.79789514920264"><ele>620.6666666666666</ele><time>2026-04-16T09:17:34.001Z</time></trkpt><trkpt lat="44.055477322842975" lon="10.798066791214199"><ele>624.3333333333334</ele><time>2026-04-16T09:17:35.001Z</time></trkpt><trkpt lat="44.055401224717265" lon="10.798262998354685"><ele>628.0</ele><time>2026-04-16T09:17:36.001Z</time></trkpt><trkpt lat="44.05530366192291" lon="10.798442126449338"><ele>627.25</ele><time>2026-04-16T09:17:37.001Z</time></trkpt><trkpt lat="44.05520402579303" lon="10.798622901408915"><ele>626.5</ele><time>2026-04-16T09:17:38.001Z</time></trkpt><trkpt lat="44.05511866864611" lon="10.798788829670633"><ele>625.75</ele><time>2026-04-16T09:17:39.001Z</time></trkpt><trkpt lat="44.05502748099523" lon="10.798919020087803"><ele>625.0</ele><time>2026-04-16T09:17:40.001Z</time></trkpt><trkpt lat="44.05494994819543" lon="10.799021019347464"><ele>625.0</ele><time>2026-04-16T09:17:41.001Z</time></trkpt><trkpt lat="44.054864339540885" lon="10.79911706488387"><ele>625.0</ele><time>2026-04-16T09:17:42.001Z</time></trkpt><trkpt lat="44.05478564010013" lon="10.799201044426463"><ele>625.0</ele><time>2026-04-16T09:17:43.001Z</time></trkpt><trkpt lat="44.05471221867793" lon="10.799273713844697"><ele>625.0</ele><time>2026-04-16T09:17:44.001Z</time></trkpt><trkpt lat="44.054647873566466" lon="10.799335835362292"><ele>625.0</ele><time>2026-04-16T09:17:45.001Z</time></trkpt><trkpt lat="44.05458766605189" lon="10.799393961839286"><ele>627.2</ele><time>2026-04-16T09:17:46.001Z</time></trkpt><trkpt lat="44.054534505893486" lon="10.799448783033545"><ele>629.4</ele><time>2026-04-16T09:17:47.001Z</time></trkpt><trkpt lat="44.0544426561104" lon="10.799557557732959"><ele>631.6</ele><time>2026-04-16T09:17:49.001Z</time></trkpt><trkpt lat="44.0543525621334" lon="10.799693103700852"><ele>633.8</ele><time>2026-04-16T09:17:51.001Z</time></trkpt><trkpt lat="44.05432011126944" lon="10.799794224006778"><ele>636.0</ele><time>2026-04-16T09:17:52.001Z</time></trkpt><trkpt lat="44.05426349892172" lon="10.799869122760297"><ele>636.0</ele><time>2026-04-16T09:17:53.001Z</time></trkpt><trkpt lat="44.05421671807668" lon="10.799971979914975"><ele>636.0</ele><time>2026-04-16T09:17:54.001Z</time></trkpt><trkpt lat="44.05417234135708" lon="10.800079508855093"><ele>636.0</ele><time>2026-04-16T09:17:55.001Z</time></trkpt><trkpt lat="44.05412680429081" lon="10.800193466024604"><ele>636.0</ele><time>2026-04-16T09:17:56.001Z</time></trkpt><trkpt lat="44.054071100416486" lon="10.800333377644405"><ele>636.0</ele><time>2026-04-16T09:17:57.001Z</time></trkpt><trkpt lat="44.053998805080376" lon="10.800503561974345"><ele>636.0</ele><time>2026-04-16T09:17:58.001Z</time></trkpt><trkpt lat="44.05394309698973" lon="10.800678130429517"><ele>636.0</ele><time>2026-04-16T09:17:59.001Z</time></trkpt><trkpt lat="44.053866864912536" lon="10.800822399089915"><ele>636.0</ele><time>2026-04-16T09:18:00.001Z</time></trkpt><trkpt lat="44.053819040856034" lon="10.800941064075115"><ele>636.0</ele><time>2026-04-16T09:18:01.001Z</time></trkpt><trkpt lat="44.05378038895876" lon="10.801045678091933"><ele>636.0</ele><time>2026-04-16T09:18:02.001Z</time></trkpt><trkpt lat="44.05375198059039" lon="10.801139735713175"><ele>636.0</ele><time>2026-04-16T09:18:03.001Z</time></trkpt><trkpt lat="44.053718622679376" lon="10.801242932804406"><ele>636.0</ele><time>2026-04-16T09:18:04.001Z</time></trkpt><trkpt lat="44.05368044074537" lon="10.801328803494362"><ele>636.0</ele><time>2026-04-16T09:18:05.001Z</time></trkpt><trkpt lat="44.05364601027368" lon="10.80140391466497"><ele>636.0</ele><time>2026-04-16T09:18:06.001Z</time></trkpt><trkpt lat="44.05360571315976" lon="10.801483252477203"><ele>636.0</ele><time>2026-04-16T09:18:07.001Z</time></trkpt><trkpt lat="44.053547946909354" lon="10.801550817239418"><ele>636.0</ele><time>2026-04-16T09:18:08.001Z</time></trkpt><trkpt lat="44.05347947012519" lon="10.80162009482817"><ele>636.0</ele><time>2026-04-16T09:18:09.001Z</time></trkpt><trkpt lat="44.05342166977567" lon="10.801678510197245"><ele>636.0</ele><time>2026-04-16T09:18:10.001Z</time></trkpt><trkpt lat="44.05336279068839" lon="10.80174609143713"><ele>636.0</ele><time>2026-04-16T09:18:11.001Z</time></trkpt><trkpt lat="44.05329191087181" lon="10.801809989454936"><ele>636.0</ele><time>2026-04-16T09:18:12.001Z</time></trkpt><trkpt lat="44.05323724864988" lon="10.801873962087134"><ele>636.0</ele><time>2026-04-16T09:18:13.001Z</time></trkpt><trkpt lat="44.0531629963142" lon="10.801954715927668"><ele>636.0</ele><time>2026-04-16T09:18:15.001Z</time></trkpt><trkpt lat="44.05310506203636" lon="10.80205127356446"><ele>636.0</ele><time>2026-04-16T09:18:17.001Z</time></trkpt><trkpt lat="44.05301438405873" lon="10.802179322669145"><ele>636.0</ele><time>2026-04-16T09:18:19.001Z</time></trkpt><trkpt lat="44.052941951909716" lon="10.802281779545016"><ele>636.0</ele><time>2026-04-16T09:18:20.001Z</time></trkpt><trkpt lat="44.05286493697401" lon="10.802405900174714"><ele>636.0</ele><time>2026-04-16T09:18:21.001Z</time></trkpt><trkpt lat="44.05277228759359" lon="10.802545560887125"><ele>636.0</ele><time>2026-04-16T09:18:22.001Z</time></trkpt><trkpt lat="44.05267938798282" lon="10.802699770487175"><ele>637.6666666666666</ele><time>2026-04-16T09:18:23.001Z</time></trkpt><trkpt lat="44.0525819258538" lon="10.802868116231036"><ele>639.3333333333333</ele><time>2026-04-16T09:18:24.001Z</time></trkpt><trkpt lat="44.05249597597006" lon="10.80306986389737"><ele>641.0</ele><time>2026-04-16T09:18:25.001Z</time></trkpt><trkpt lat="44.05241285832792" lon="10.803269487923183"><ele>639.0</ele><time>2026-04-16T09:18:26.001Z</time></trkpt><trkpt lat="44.05233814226059" lon="10.80348514969872"><ele>637.0</ele><time>2026-04-16T09:18:27.001Z</time></trkpt><trkpt lat="44.05226266725308" lon="10.803707390057724"><ele>635.0</ele><time>2026-04-16T09:18:28.001Z</time></trkpt><trkpt lat="44.052196304782726" lon="10.803912070326824"><ele>635.0</ele><time>2026-04-16T09:18:29.001Z</time></trkpt><trkpt lat="44.052143199508365" lon="10.804091031544765"><ele>635.0</ele><time>2026-04-16T09:18:30.001Z</time></trkpt><trkpt lat="44.05209271243603" lon="10.804267381416318"><ele>635.0</ele><time>2026-04-16T09:18:31.001Z</time></trkpt><trkpt lat="44.0520054215866" lon="10.804402435244306"><ele>635.0</ele><time>2026-04-16T09:18:32.001Z</time></trkpt><trkpt lat="44.051915592794" lon="10.804571112863472"><ele>637.6666666666666</ele><time>2026-04-16T09:18:33.001Z</time></trkpt><trkpt lat="44.05178675581193" lon="10.804714279969767"><ele>640.3333333333334</ele><time>2026-04-16T09:18:34.001Z</time></trkpt><trkpt lat="44.051644148619616" lon="10.804843816819572"><ele>643.0</ele><time>2026-04-16T09:18:35.001Z</time></trkpt><trkpt lat="44.051510514837105" lon="10.804971175845456"><ele>643.0</ele><time>2026-04-16T09:18:36.001Z</time></trkpt><trkpt lat="44.05137419315296" lon="10.805069395164011"><ele>643.0</ele><time>2026-04-16T09:18:37.001Z</time></trkpt><trkpt lat="44.05124616818216" lon="10.805115784641176"><ele>643.0</ele><time>2026-04-16T09:18:38.001Z</time></trkpt><trkpt lat="44.05110904528611" lon="10.805118440338292"><ele>643.0</ele><time>2026-04-16T09:18:39.001Z</time></trkpt><trkpt lat="44.05097052826633" lon="10.805072259147382"><ele>643.0</ele><time>2026-04-16T09:18:40.001Z</time></trkpt><trkpt lat="44.05082722695027" lon="10.805095575122508"><ele>643.0</ele><time>2026-04-16T09:18:41.001Z</time></trkpt><trkpt lat="44.05068830534455" lon="10.805180635514445"><ele>643.0</ele><time>2026-04-16T09:18:42.001Z</time></trkpt><trkpt lat="44.05058283559389" lon="10.805320329973378"><ele>643.0</ele><time>2026-04-16T09:18:43.001Z</time></trkpt><trkpt lat="44.05046782127785" lon="10.805479588290938"><ele>641.6666666666667</ele><time>2026-04-16T09:18:44.001Z</time></trkpt><trkpt lat="44.05037209000297" lon="10.805665203528047"><ele>640.3333333333334</ele><time>2026-04-16T09:18:45.001Z</time></trkpt><trkpt lat="44.05028529057077" lon="10.805871018897777"><ele>639.0</ele><time>2026-04-16T09:18:46.001Z</time></trkpt><trkpt lat="44.05020012852137" lon="10.806090798150455"><ele>638.6666666666666</ele><time>2026-04-16T09:18:47.001Z</time></trkpt><trkpt lat="44.05012166243461" lon="10.806306209041438"><ele>638.3333333333333</ele><time>2026-04-16T09:18:48.001Z</time></trkpt><trkpt lat="44.05004115783806" lon="10.806504403630651"><ele>638.0</ele><time>2026-04-16T09:18:49.001Z</time></trkpt><trkpt lat="44.049945225958275" lon="10.80666067871904"><ele>638.0</ele><time>2026-04-16T09:18:50.001Z</time></trkpt><trkpt lat="44.04981852347937" lon="10.80677781782646"><ele>638.0</ele><time>2026-04-16T09:18:51.001Z</time></trkpt><trkpt lat="44.049675074444735" lon="10.806874388275965"><ele>638.0</ele><time>2026-04-16T09:18:52.001Z</time></trkpt><trkpt lat="44.04953707810235" lon="10.80694760416442"><ele>637.6666666666666</ele><time>2026-04-16T09:18:53.001Z</time></trkpt><trkpt lat="44.04938082229637" lon="10.80699760545807"><ele>637.3333333333334</ele><time>2026-04-16T09:18:54.001Z</time></trkpt><trkpt lat="44.049212586114734" lon="10.806995080579023"><ele>637.0</ele><time>2026-04-16T09:18:55.001Z</time></trkpt><trkpt lat="44.04906764373934" lon="10.806978044813567"><ele>637.0</ele><time>2026-04-16T09:18:56.001Z</time></trkpt><trkpt lat="44.048929393679195" lon="10.806972194261192"><ele>637.0</ele><time>2026-04-16T09:18:57.001Z</time></trkpt><trkpt lat="44.04881454863276" lon="10.807000542013968"><ele>637.0</ele><time>2026-04-16T09:18:58.001Z</time></trkpt><trkpt lat="44.04871551685237" lon="10.807093483077491"><ele>637.0</ele><time>2026-04-16T09:18:59.001Z</time></trkpt><trkpt lat="44.04864687244805" lon="10.807218139246835"><ele>637.0</ele><time>2026-04-16T09:19:00.001Z</time></trkpt><trkpt lat="44.04858039518279" lon="10.80737559128488"><ele>637.0</ele><time>2026-04-16T09:19:01.001Z</time></trkpt><trkpt lat="44.04852206730759" lon="10.807566826728744"><ele>637.0</ele><time>2026-04-16T09:19:02.001Z</time></trkpt><trkpt lat="44.04846531765271" lon="10.807766279228357"><ele>637.0</ele><time>2026-04-16T09:19:03.001Z</time></trkpt><trkpt lat="44.04839575459489" lon="10.807964273056681"><ele>636.5</ele><time>2026-04-16T09:19:04.001Z</time></trkpt><trkpt lat="44.0483253827076" lon="10.80814445987617"><ele>636.0</ele><time>2026-04-16T09:19:05.001Z</time></trkpt><trkpt lat="44.04825657737502" lon="10.80829708742349"><ele>635.5</ele><time>2026-04-16T09:19:06.001Z</time></trkpt><trkpt lat="44.04820916600101" lon="10.80840374917149"><ele>635.0</ele><time>2026-04-16T09:19:07.001Z</time></trkpt><trkpt lat="44.048132756991166" lon="10.808471136976479"><ele>633.25</ele><time>2026-04-16T09:19:08.001Z</time></trkpt><trkpt lat="44.048031512825006" lon="10.808474499463445"><ele>631.5</ele><time>2026-04-16T09:19:09.001Z</time></trkpt><trkpt lat="44.04789843140595" lon="10.808447173430203"><ele>629.75</ele><time>2026-04-16T09:19:10.001Z</time></trkpt><trkpt lat="44.047735116115504" lon="10.808413048750937"><ele>628.0</ele><time>2026-04-16T09:19:11.001Z</time></trkpt><trkpt lat="44.047572453239965" lon="10.808383876263767"><ele>630.3333333333334</ele><time>2026-04-16T09:19:12.001Z</time></trkpt><trkpt lat="44.04740621727074" lon="10.808367827909871"><ele>632.6666666666666</ele><time>2026-04-16T09:19:13.001Z</time></trkpt><trkpt lat="44.04725383778135" lon="10.808349312031266"><ele>635.0</ele><time>2026-04-16T09:19:14.001Z</time></trkpt><trkpt lat="44.04711315297924" lon="10.808345047740383"><ele>635.0</ele><time>2026-04-16T09:19:15.001Z</time></trkpt><trkpt lat="44.04700654740407" lon="10.808315701050908"><ele>635.0</ele><time>2026-04-16T09:19:16.001Z</time></trkpt><trkpt lat="44.04692371448331" lon="10.808358286209447"><ele>635.0</ele><time>2026-04-16T09:19:17.001Z</time></trkpt><trkpt lat="44.04685304241418" lon="10.808435124485165"><ele>635.0</ele><time>2026-04-16T09:19:18.001Z</time></trkpt><trkpt lat="44.04680748437163" lon="10.808535996976365"><ele>635.0</ele><time>2026-04-16T09:19:19.001Z</time></trkpt><trkpt lat="44.04679313884167" lon="10.808702808420604"><ele>636.25</ele><time>2026-04-16T09:19:20.001Z</time></trkpt><trkpt lat="44.046810318245335" lon="10.80888531630312"><ele>637.5</ele><time>2026-04-16T09:19:21.001Z</time></trkpt><trkpt lat="44.04686262612753" lon="10.809069903305131"><ele>638.75</ele><time>2026-04-16T09:19:22.001Z</time></trkpt><trkpt lat="44.046904206623424" lon="10.8092572843222"><ele>640.0</ele><time>2026-04-16T09:19:23.001Z</time></trkpt><trkpt lat="44.04692152726486" lon="10.809445573587167"><ele>640.75</ele><time>2026-04-16T09:19:24.001Z</time></trkpt><trkpt lat="44.046900406369254" lon="10.809625990155782"><ele>641.5</ele><time>2026-04-16T09:19:25.001Z</time></trkpt><trkpt lat="44.046819547605054" lon="10.809799867241997"><ele>642.25</ele><time>2026-04-16T09:19:26.001Z</time></trkpt><trkpt lat="44.04674051475817" lon="10.809970287076611"><ele>643.0</ele><time>2026-04-16T09:19:27.001Z</time></trkpt><trkpt lat="44.04662532807525" lon="10.810117298159524"><ele>646.0</ele><time>2026-04-16T09:19:28.001Z</time></trkpt><trkpt lat="44.046489879584506" lon="10.810228724123492"><ele>649.0</ele><time>2026-04-16T09:19:29.001Z</time></trkpt><trkpt lat="44.046333917620224" lon="10.810312273143337"><ele>652.0</ele><time>2026-04-16T09:19:30.001Z</time></trkpt><trkpt lat="44.04617059097715" lon="10.810396027796958"><ele>652.0</ele><time>2026-04-16T09:19:31.001Z</time></trkpt><trkpt lat="44.04600258418063" lon="10.810503788212547"><ele>652.0</ele><time>2026-04-16T09:19:32.001Z</time></trkpt><trkpt lat="44.04582688294526" lon="10.810621669932027"><ele>652.0</ele><time>2026-04-16T09:19:33.001Z</time></trkpt><trkpt lat="44.04565245909831" lon="10.810752254305173"><ele>654.0</ele><time>2026-04-16T09:19:34.001Z</time></trkpt><trkpt lat="44.04547983480524" lon="10.810868801206485"><ele>656.0</ele><time>2026-04-16T09:19:35.001Z</time></trkpt><trkpt lat="44.04530547380599" lon="10.811013425411991"><ele>658.0</ele><time>2026-04-16T09:19:36.001Z</time></trkpt><trkpt lat="44.04514309108808" lon="10.811150440270119"><ele>658.0</ele><time>2026-04-16T09:19:37.001Z</time></trkpt><trkpt lat="44.04499627499283" lon="10.81127584790294"><ele>658.0</ele><time>2026-04-16T09:19:38.001Z</time></trkpt><trkpt lat="44.04484944233232" lon="10.81138223079232"><ele>658.0</ele><time>2026-04-16T09:19:39.001Z</time></trkpt><trkpt lat="44.0447235513396" lon="10.81148264441519"><ele>661.0</ele><time>2026-04-16T09:19:40.001Z</time></trkpt><trkpt lat="44.044596828357406" lon="10.811597162866214"><ele>664.0</ele><time>2026-04-16T09:19:41.001Z</time></trkpt><trkpt lat="44.04448049040758" lon="10.811707751978659"><ele>667.0</ele><time>2026-04-16T09:19:42.001Z</time></trkpt><trkpt lat="44.04439382612598" lon="10.811838196191534"><ele>670.0</ele><time>2026-04-16T09:19:43.001Z</time></trkpt><trkpt lat="44.04434024050134" lon="10.812008867862746"><ele>670.0</ele><time>2026-04-16T09:19:44.001Z</time></trkpt><trkpt lat="44.04429057961054" lon="10.812199198267425"><ele>670.0</ele><time>2026-04-16T09:19:45.001Z</time></trkpt><trkpt lat="44.044261231307914" lon="10.812370249505124"><ele>670.0</ele><time>2026-04-16T09:19:46.001Z</time></trkpt><trkpt lat="44.04427015556029" lon="10.812546335731087"><ele>670.0</ele><time>2026-04-16T09:19:47.001Z</time></trkpt><trkpt lat="44.04432206525733" lon="10.812705549535124"><ele>672.25</ele><time>2026-04-16T09:19:48.001Z</time></trkpt><trkpt lat="44.04439586526396" lon="10.812827716704199"><ele>674.5</ele><time>2026-04-16T09:19:49.001Z</time></trkpt><trkpt lat="44.04449333118484" lon="10.812924252978334"><ele>676.75</ele><time>2026-04-16T09:19:50.001Z</time></trkpt><trkpt lat="44.04461663315686" lon="10.81300423810037"><ele>679.0</ele><time>2026-04-16T09:19:51.001Z</time></trkpt><trkpt lat="44.04474964800643" lon="10.813082713156804"><ele>679.0</ele><time>2026-04-16T09:19:52.001Z</time></trkpt><trkpt lat="44.044887702031915" lon="10.813152364537599"><ele>679.0</ele><time>2026-04-16T09:19:53.001Z</time></trkpt><trkpt lat="44.04502464052944" lon="10.813224142897877"><ele>679.0</ele><time>2026-04-16T09:19:54.001Z</time></trkpt><trkpt lat="44.045158952082666" lon="10.813290960525615"><ele>679.0</ele><time>2026-04-16T09:19:55.001Z</time></trkpt><trkpt lat="44.04528126171597" lon="10.81336169232162"><ele>678.5</ele><time>2026-04-16T09:19:56.001Z</time></trkpt><trkpt lat="44.04538264818717" lon="10.813453695761348"><ele>678.0</ele><time>2026-04-16T09:19:57.001Z</time></trkpt><trkpt lat="44.04544605001246" lon="10.813589163859858"><ele>677.5</ele><time>2026-04-16T09:19:58.001Z</time></trkpt><trkpt lat="44.045479785075884" lon="10.813745509965518"><ele>677.0</ele><time>2026-04-16T09:19:59.001Z</time></trkpt><trkpt lat="44.04546974834109" lon="10.813912538211762"><ele>679.5</ele><time>2026-04-16T09:20:00.001Z</time></trkpt><trkpt lat="44.04543218965683" lon="10.814060648262519"><ele>682.0</ele><time>2026-04-16T09:20:01.001Z</time></trkpt><trkpt lat="44.045346990919064" lon="10.814169207137997"><ele>684.5</ele><time>2026-04-16T09:20:02.001Z</time></trkpt><trkpt lat="44.045256697647446" lon="10.814316298315386"><ele>687.0</ele><time>2026-04-16T09:20:03.001Z</time></trkpt><trkpt lat="44.04515611491723" lon="10.814477677911658"><ele>687.3333333333334</ele><time>2026-04-16T09:20:04.001Z</time></trkpt><trkpt lat="44.04504033362578" lon="10.814663442493243"><ele>687.6666666666667</ele><time>2026-04-16T09:20:05.001Z</time></trkpt><trkpt lat="44.04492166597402" lon="10.814874538778732"><ele>688.0</ele><time>2026-04-16T09:20:06.001Z</time></trkpt><trkpt lat="44.04478387842601" lon="10.815046559103752"><ele>693.0</ele><time>2026-04-16T09:20:07.001Z</time></trkpt><trkpt lat="44.044651617239666" lon="10.815235634880592"><ele>698.0</ele><time>2026-04-16T09:20:08.001Z</time></trkpt><trkpt lat="44.04451596403349" lon="10.815449301029087"><ele>703.0</ele><time>2026-04-16T09:20:09.001Z</time></trkpt><trkpt lat="44.04438194525579" lon="10.815660734226572"><ele>703.0</ele><time>2026-04-16T09:20:10.001Z</time></trkpt><trkpt lat="44.04426942248149" lon="10.815875255663759"><ele>703.0</ele><time>2026-04-16T09:20:11.001Z</time></trkpt><trkpt lat="44.04419124586716" lon="10.816099822466688"><ele>703.0</ele><time>2026-04-16T09:20:12.001Z</time></trkpt><trkpt lat="44.044132440599974" lon="10.816345373458654"><ele>707.0</ele><time>2026-04-16T09:20:13.001Z</time></trkpt><trkpt lat="44.04409057008821" lon="10.81660344695558"><ele>711.0</ele><time>2026-04-16T09:20:14.001Z</time></trkpt><trkpt lat="44.04405244771209" lon="10.816878423227351"><ele>715.0</ele><time>2026-04-16T09:20:15.001Z</time></trkpt><trkpt lat="44.04399715132322" lon="10.81715302974562"><ele>715.0</ele><time>2026-04-16T09:20:16.001Z</time></trkpt><trkpt lat="44.0439374551776" lon="10.817436927696416"><ele>715.0</ele><time>2026-04-16T09:20:17.001Z</time></trkpt><trkpt lat="44.04388687910148" lon="10.817719010547718"><ele>715.0</ele><time>2026-04-16T09:20:18.001Z</time></trkpt><trkpt lat="44.043829894559835" lon="10.818005436722073"><ele>715.6666666666667</ele><time>2026-04-16T09:20:19.001Z</time></trkpt><trkpt lat="44.04377393275872" lon="10.818291676679975"><ele>716.3333333333334</ele><time>2026-04-16T09:20:20.001Z</time></trkpt><trkpt lat="44.04371425903537" lon="10.818573423822688"><ele>717.0</ele><time>2026-04-16T09:20:21.001Z</time></trkpt><trkpt lat="44.043662550021715" lon="10.81881932075721"><ele>718.0</ele><time>2026-04-16T09:20:22.001Z</time></trkpt><trkpt lat="44.0436189647474" lon="10.819039706578147"><ele>719.0</ele><time>2026-04-16T09:20:23.001Z</time></trkpt><trkpt lat="44.04361026231864" lon="10.819238749123123"><ele>720.0</ele><time>2026-04-16T09:20:24.001Z</time></trkpt><trkpt lat="44.043638815471134" lon="10.819421529462728"><ele>721.0</ele><time>2026-04-16T09:20:25.001Z</time></trkpt><trkpt lat="44.04369730907093" lon="10.819608931636838"><ele>722.6666666666667</ele><time>2026-04-16T09:20:26.001Z</time></trkpt><trkpt lat="44.04375029640667" lon="10.819820255885388"><ele>724.3333333333334</ele><time>2026-04-16T09:20:27.001Z</time></trkpt><trkpt lat="44.043775158250014" lon="10.820041833403712"><ele>726.0</ele><time>2026-04-16T09:20:28.001Z</time></trkpt><trkpt lat="44.043785353103466" lon="10.820281498098952"><ele>728.6666666666666</ele><time>2026-04-16T09:20:29.001Z</time></trkpt><trkpt lat="44.04377959732179" lon="10.820528351878703"><ele>731.3333333333333</ele><time>2026-04-16T09:20:30.001Z</time></trkpt><trkpt lat="44.04378745096863" lon="10.820750184486329"><ele>734.0</ele><time>2026-04-16T09:20:31.001Z</time></trkpt><trkpt lat="44.043828026377305" lon="10.820944659407896"><ele>735.25</ele><time>2026-04-16T09:20:32.001Z</time></trkpt><trkpt lat="44.043892705722904" lon="10.821132082939682"><ele>736.5</ele><time>2026-04-16T09:20:33.001Z</time></trkpt><trkpt lat="44.043965505026534" lon="10.821331047626261"><ele>737.75</ele><time>2026-04-16T09:20:34.001Z</time></trkpt><trkpt lat="44.04399187995585" lon="10.821490055215913"><ele>739.0</ele><time>2026-04-16T09:20:35.001Z</time></trkpt><trkpt lat="44.04397137093702" lon="10.82168970700321"><ele>740.0</ele><time>2026-04-16T09:20:36.001Z</time></trkpt><trkpt lat="44.04390416689419" lon="10.821887361023398"><ele>741.0</ele><time>2026-04-16T09:20:37.001Z</time></trkpt><trkpt lat="44.04383096711175" lon="10.82208489259894"><ele>742.0</ele><time>2026-04-16T09:20:38.001Z</time></trkpt><trkpt lat="44.04376678317813" lon="10.82229431323645"><ele>742.0</ele><time>2026-04-16T09:20:39.001Z</time></trkpt><trkpt lat="44.043707732638325" lon="10.822529194741689"><ele>742.0</ele><time>2026-04-16T09:20:40.001Z</time></trkpt><trkpt lat="44.04364544195157" lon="10.822774127479972"><ele>742.0</ele><time>2026-04-16T09:20:41.001Z</time></trkpt><trkpt lat="44.043578604354856" lon="10.823022242055616"><ele>743.3333333333334</ele><time>2026-04-16T09:20:42.001Z</time></trkpt><trkpt lat="44.043535223104584" lon="10.823283877321458"><ele>744.6666666666666</ele><time>2026-04-16T09:20:43.001Z</time></trkpt><trkpt lat="44.04349364139749" lon="10.823532142762188"><ele>746.0</ele><time>2026-04-16T09:20:44.001Z</time></trkpt><trkpt lat="44.043465682711314" lon="10.823763363813665"><ele>746.0</ele><time>2026-04-16T09:20:45.001Z</time></trkpt><trkpt lat="44.04344005718219" lon="10.823964545405556"><ele>746.0</ele><time>2026-04-16T09:20:46.001Z</time></trkpt><trkpt lat="44.043470034731946" lon="10.824165848314905"><ele>746.0</ele><time>2026-04-16T09:20:47.001Z</time></trkpt><trkpt lat="44.04352736254851" lon="10.824374822806828"><ele>747.3333333333333</ele><time>2026-04-16T09:20:48.001Z</time></trkpt><trkpt lat="44.043613555763514" lon="10.824609125202292"><ele>748.6666666666666</ele><time>2026-04-16T09:20:49.001Z</time></trkpt><trkpt lat="44.043639113215505" lon="10.824850352663445"><ele>750.0</ele><time>2026-04-16T09:20:50.001Z</time></trkpt><trkpt lat="44.04363560418411" lon="10.825084955909205"><ele>750.3333333333334</ele><time>2026-04-16T09:20:51.001Z</time></trkpt><trkpt lat="44.04360476171524" lon="10.82530909166925"><ele>750.6666666666667</ele><time>2026-04-16T09:20:52.001Z</time></trkpt><trkpt lat="44.043531394087964" lon="10.825485283237299"><ele>751.0</ele><time>2026-04-16T09:20:53.001Z</time></trkpt><trkpt lat="44.04342519180015" lon="10.825621696730861"><ele>753.6666666666667</ele><time>2026-04-16T09:20:54.001Z</time></trkpt><trkpt lat="44.04329549632919" lon="10.825747933118913"><ele>756.3333333333334</ele><time>2026-04-16T09:20:55.001Z</time></trkpt><trkpt lat="44.04315051074772" lon="10.825878201105526"><ele>759.0</ele><time>2026-04-16T09:20:56.001Z</time></trkpt><trkpt lat="44.0430195731677" lon="10.826022878731"><ele>759.0</ele><time>2026-04-16T09:20:57.001Z</time></trkpt><trkpt lat="44.04288554248994" lon="10.826210335801708"><ele>759.0</ele><time>2026-04-16T09:20:58.001Z</time></trkpt><trkpt lat="44.042741506034425" lon="10.826416845204621"><ele>759.0</ele><time>2026-04-16T09:20:59.001Z</time></trkpt><trkpt lat="44.04261576241721" lon="10.826621613968587"><ele>758.3333333333334</ele><time>2026-04-16T09:21:00.001Z</time></trkpt><trkpt lat="44.04248976449815" lon="10.826818638859569"><ele>757.6666666666667</ele><time>2026-04-16T09:21:01.001Z</time></trkpt><trkpt lat="44.04235315328564" lon="10.827034445185056"><ele>757.0</ele><time>2026-04-16T09:21:02.001Z</time></trkpt><trkpt lat="44.04222627002672" lon="10.827252567605338"><ele>766.3333333333334</ele><time>2026-04-16T09:21:03.001Z</time></trkpt><trkpt lat="44.04212306145244" lon="10.82746493967409"><ele>775.6666666666667</ele><time>2026-04-16T09:21:04.001Z</time></trkpt><trkpt lat="44.0420314734952" lon="10.827691463018445"><ele>785.0</ele><time>2026-04-16T09:21:05.001Z</time></trkpt><trkpt lat="44.041988761327666" lon="10.827942041294467"><ele>785.0</ele><time>2026-04-16T09:21:06.001Z</time></trkpt><trkpt lat="44.04196943054412" lon="10.828207874639551"><ele>785.0</ele><time>2026-04-16T09:21:07.001Z</time></trkpt><trkpt lat="44.04198788583896" lon="10.828458399747294"><ele>785.0</ele><time>2026-04-16T09:21:08.001Z</time></trkpt><trkpt lat="44.04202803722282" lon="10.82872141003513"><ele>786.6666666666667</ele><time>2026-04-16T09:21:09.001Z</time></trkpt><trkpt lat="44.0420792431576" lon="10.828985079428087"><ele>788.3333333333333</ele><time>2026-04-16T09:21:10.001Z</time></trkpt><trkpt lat="44.042117142683026" lon="10.829239796692388"><ele>790.0</ele><time>2026-04-16T09:21:11.001Z</time></trkpt><trkpt lat="44.042128736249694" lon="10.829515661920336"><ele>791.6666666666666</ele><time>2026-04-16T09:21:12.001Z</time></trkpt><trkpt lat="44.04210701340902" lon="10.82977935410138"><ele>793.3333333333333</ele><time>2026-04-16T09:21:13.001Z</time></trkpt><trkpt lat="44.04205441019262" lon="10.830030099320753"><ele>795.0</ele><time>2026-04-16T09:21:14.001Z</time></trkpt><trkpt lat="44.04198580395197" lon="10.830277654647867"><ele>795.0</ele><time>2026-04-16T09:21:15.001Z</time></trkpt><trkpt lat="44.04194156895186" lon="10.830510722341995"><ele>795.0</ele><time>2026-04-16T09:21:16.001Z</time></trkpt><trkpt lat="44.041918465493026" lon="10.83072137305458"><ele>795.0</ele><time>2026-04-16T09:21:17.001Z</time></trkpt><trkpt lat="44.04191745571501" lon="10.830893942701401"><ele>795.4</ele><time>2026-04-16T09:21:18.001Z</time></trkpt><trkpt lat="44.04193097933367" lon="10.831054136653652"><ele>795.8</ele><time>2026-04-16T09:21:19.001Z</time></trkpt><trkpt lat="44.04195818032568" lon="10.831166392024796"><ele>796.2</ele><time>2026-04-16T09:21:20.001Z</time></trkpt><trkpt lat="44.04202959044263" lon="10.831263778475506"><ele>796.6</ele><time>2026-04-16T09:21:21.001Z</time></trkpt><trkpt lat="44.04212976278802" lon="10.831315307508813"><ele>797.0</ele><time>2026-04-16T09:21:22.001Z</time></trkpt><trkpt lat="44.04226153700955" lon="10.831347950612304"><ele>797.0</ele><time>2026-04-16T09:21:23.001Z</time></trkpt><trkpt lat="44.042398344914645" lon="10.831384404774056"><ele>797.0</ele><time>2026-04-16T09:21:24.001Z</time></trkpt><trkpt lat="44.042540344353704" lon="10.831440675919042"><ele>797.0</ele><time>2026-04-16T09:21:25.001Z</time></trkpt><trkpt lat="44.04266430633746" lon="10.831529629856483"><ele>797.0</ele><time>2026-04-16T09:21:26.001Z</time></trkpt><trkpt lat="44.04277258844315" lon="10.831625637503157"><ele>798.0</ele><time>2026-04-16T09:21:27.001Z</time></trkpt><trkpt lat="44.04283916786742" lon="10.831780881759068"><ele>799.0</ele><time>2026-04-16T09:21:28.001Z</time></trkpt><trkpt lat="44.04286795924356" lon="10.831985159190554"><ele>800.0</ele><time>2026-04-16T09:21:29.001Z</time></trkpt><trkpt lat="44.04289031294473" lon="10.832201112786226"><ele>801.0</ele><time>2026-04-16T09:21:30.001Z</time></trkpt><trkpt lat="44.042916967587374" lon="10.832424138987971"><ele>802.6666666666667</ele><time>2026-04-16T09:21:31.001Z</time></trkpt><trkpt lat="44.04296742376535" lon="10.832653752214746"><ele>804.3333333333334</ele><time>2026-04-16T09:21:32.001Z</time></trkpt><trkpt lat="44.043012369814015" lon="10.832897539973468"><ele>806.0</ele><time>2026-04-16T09:21:33.001Z</time></trkpt><trkpt lat="44.0430418183162" lon="10.833142152343234"><ele>806.0</ele><time>2026-04-16T09:21:34.001Z</time></trkpt><trkpt lat="44.04305015838816" lon="10.833385577925382"><ele>806.0</ele><time>2026-04-16T09:21:35.001Z</time></trkpt><trkpt lat="44.04302960818987" lon="10.833629585781663"><ele>806.0</ele><time>2026-04-16T09:21:36.001Z</time></trkpt><trkpt lat="44.04298568484242" lon="10.833883736631432"><ele>807.3333333333334</ele><time>2026-04-16T09:21:37.001Z</time></trkpt><trkpt lat="44.04292405785768" lon="10.834123574116822"><ele>808.6666666666667</ele><time>2026-04-16T09:21:38.001Z</time></trkpt><trkpt lat="44.04286232026223" lon="10.83435901357838"><ele>810.0</ele><time>2026-04-16T09:21:39.001Z</time></trkpt><trkpt lat="44.04282555507108" lon="10.834594680159999"><ele>813.3333333333333</ele><time>2026-04-16T09:21:40.001Z</time></trkpt><trkpt lat="44.04282193772784" lon="10.834838999977187"><ele>816.6666666666666</ele><time>2026-04-16T09:21:41.001Z</time></trkpt><trkpt lat="44.0428436717415" lon="10.835090764449218"><ele>820.0</ele><time>2026-04-16T09:21:42.001Z</time></trkpt><trkpt lat="44.04288142299601" lon="10.835353065050489"><ele>821.3333333333333</ele><time>2026-04-16T09:21:43.001Z</time></trkpt><trkpt lat="44.04291435521722" lon="10.83561039383624"><ele>822.6666666666667</ele><time>2026-04-16T09:21:44.001Z</time></trkpt><trkpt lat="44.04294074884593" lon="10.835836365192796"><ele>824.0</ele><time>2026-04-16T09:21:45.001Z</time></trkpt><trkpt lat="44.04295200207603" lon="10.836047540625277"><ele>824.0</ele><time>2026-04-16T09:21:46.001Z</time></trkpt><trkpt lat="44.042923617083986" lon="10.836236244295549"><ele>824.0</ele><time>2026-04-16T09:21:47.001Z</time></trkpt><trkpt lat="44.042868114754015" lon="10.836415715625092"><ele>824.0</ele><time>2026-04-16T09:21:48.001Z</time></trkpt><trkpt lat="44.042790966310825" lon="10.836568171315495"><ele>824.0</ele><time>2026-04-16T09:21:49.001Z</time></trkpt><trkpt lat="44.042692898472176" lon="10.836674727449392"><ele>822.75</ele><time>2026-04-16T09:21:50.001Z</time></trkpt><trkpt lat="44.04262302290866" lon="10.836835970004318"><ele>821.5</ele><time>2026-04-16T09:21:51.001Z</time></trkpt><trkpt lat="44.042574395916915" lon="10.837025435091025"><ele>820.25</ele><time>2026-04-16T09:21:52.001Z</time></trkpt><trkpt lat="44.04255257152897" lon="10.837243486408557"><ele>819.0</ele><time>2026-04-16T09:21:53.001Z</time></trkpt><trkpt lat="44.042531272265556" lon="10.83746713062584"><ele>817.0</ele><time>2026-04-16T09:21:54.001Z</time></trkpt><trkpt lat="44.042538241991636" lon="10.837686349518549"><ele>815.0</ele><time>2026-04-16T09:21:55.001Z</time></trkpt><trkpt lat="44.04255737761121" lon="10.837897704141325"><ele>813.0</ele><time>2026-04-16T09:21:56.001Z</time></trkpt><trkpt lat="44.042555756041835" lon="10.838085685521268"><ele>811.0</ele><time>2026-04-16T09:21:57.001Z</time></trkpt><trkpt lat="44.0425645858998" lon="10.838258718641207"><ele>811.0</ele><time>2026-04-16T09:21:58.001Z</time></trkpt><trkpt lat="44.04249632600403" lon="10.838413742977409"><ele>811.0</ele><time>2026-04-16T09:21:59.001Z</time></trkpt><trkpt lat="44.04240372312446" lon="10.838554318857764"><ele>811.0</ele><time>2026-04-16T09:22:00.001Z</time></trkpt><trkpt lat="44.04230608546586" lon="10.838696837365331"><ele>811.0</ele><time>2026-04-16T09:22:01.001Z</time></trkpt><trkpt lat="44.042236348028354" lon="10.838853825318612"><ele>807.1999999999999</ele><time>2026-04-16T09:22:02.001Z</time></trkpt><trkpt lat="44.04217394802315" lon="10.83897268908206"><ele>803.4</ele><time>2026-04-16T09:22:03.001Z</time></trkpt><trkpt lat="44.04216328852744" lon="10.839107552100133"><ele>799.6</ele><time>2026-04-16T09:22:04.001Z</time></trkpt><trkpt lat="44.042202570631964" lon="10.839231482114084"><ele>795.8</ele><time>2026-04-16T09:22:05.001Z</time></trkpt><trkpt lat="44.042277285651615" lon="10.839333400045565"><ele>792.0</ele><time>2026-04-16T09:22:06.001Z</time></trkpt><trkpt lat="44.04238952889537" lon="10.839379210451952"><ele>791.25</ele><time>2026-04-16T09:22:07.001Z</time></trkpt><trkpt lat="44.04252264015662" lon="10.839397304603171"><ele>790.5</ele><time>2026-04-16T09:22:08.001Z</time></trkpt><trkpt lat="44.04266264473219" lon="10.8394221191045"><ele>789.75</ele><time>2026-04-16T09:22:09.001Z</time></trkpt><trkpt lat="44.04279168141809" lon="10.839467504186416"><ele>789.0</ele><time>2026-04-16T09:22:10.001Z</time></trkpt><trkpt lat="44.04290691861019" lon="10.839541782626426"><ele>789.0</ele><time>2026-04-16T09:22:11.001Z</time></trkpt><trkpt lat="44.04299197795612" lon="10.839643811718211"><ele>789.0</ele><time>2026-04-16T09:22:12.001Z</time></trkpt><trkpt lat="44.04304563356624" lon="10.839788811077115"><ele>789.0</ele><time>2026-04-16T09:22:13.001Z</time></trkpt><trkpt lat="44.04306568549073" lon="10.83996306221639"><ele>789.0</ele><time>2026-04-16T09:22:14.001Z</time></trkpt><trkpt lat="44.043066667246414" lon="10.84015011821338"><ele>787.5</ele><time>2026-04-16T09:22:15.001Z</time></trkpt><trkpt lat="44.043046569422515" lon="10.840329012255923"><ele>786.0</ele><time>2026-04-16T09:22:16.001Z</time></trkpt><trkpt lat="44.042988241554724" lon="10.840500842310353"><ele>784.5</ele><time>2026-04-16T09:22:17.001Z</time></trkpt><trkpt lat="44.04291376289031" lon="10.840661813411469"><ele>783.0</ele><time>2026-04-16T09:22:18.001Z</time></trkpt><trkpt lat="44.0428519254505" lon="10.840834244684812"><ele>782.8</ele><time>2026-04-16T09:22:19.001Z</time></trkpt><trkpt lat="44.04281538221996" lon="10.841011937094395"><ele>782.5999999999999</ele><time>2026-04-16T09:22:20.001Z</time></trkpt><trkpt lat="44.042803567263434" lon="10.841174172348879"><ele>782.4000000000001</ele><time>2026-04-16T09:22:21.001Z</time></trkpt><trkpt lat="44.04279151269623" lon="10.841317611751677"><ele>782.2</ele><time>2026-04-16T09:22:22.001Z</time></trkpt><trkpt lat="44.042793698613515" lon="10.841446236846089"><ele>782.0</ele><time>2026-04-16T09:22:23.001Z</time></trkpt><trkpt lat="44.04281483805664" lon="10.84157171562617"><ele>782.0</ele><time>2026-04-16T09:22:24.001Z</time></trkpt><trkpt lat="44.042852080597505" lon="10.841700266355856"><ele>782.0</ele><time>2026-04-16T09:22:25.001Z</time></trkpt><trkpt lat="44.042915395024416" lon="10.841838365806536"><ele>782.0</ele><time>2026-04-16T09:22:26.001Z</time></trkpt><trkpt lat="44.04299468809299" lon="10.841999841603913"><ele>782.0</ele><time>2026-04-16T09:22:27.001Z</time></trkpt><trkpt lat="44.04306135827728" lon="10.8421528578347"><ele>781.4000000000001</ele><time>2026-04-16T09:22:28.001Z</time></trkpt><trkpt lat="44.04311256076831" lon="10.842288456441688"><ele>780.8000000000001</ele><time>2026-04-16T09:22:29.001Z</time></trkpt><trkpt lat="44.04317473747347" lon="10.84241103025992"><ele>780.2</ele><time>2026-04-16T09:22:30.001Z</time></trkpt><trkpt lat="44.043247877313696" lon="10.84252715514286"><ele>779.6</ele><time>2026-04-16T09:22:31.001Z</time></trkpt><trkpt lat="44.0433384431351" lon="10.842610590217127"><ele>779.0</ele><time>2026-04-16T09:22:32.001Z</time></trkpt><trkpt lat="44.0434479373832" lon="10.842674047195581"><ele>778.6</ele><time>2026-04-16T09:22:33.001Z</time></trkpt><trkpt lat="44.0435493629716" lon="10.842736564826208"><ele>778.2</ele><time>2026-04-16T09:22:34.001Z</time></trkpt><trkpt lat="44.04364529575451" lon="10.842793254883253"><ele>777.8000000000001</ele><time>2026-04-16T09:22:35.001Z</time></trkpt><trkpt lat="44.04373225901327" lon="10.842824214432971"><ele>777.4000000000001</ele><time>2026-04-16T09:22:36.001Z</time></trkpt><trkpt lat="44.0437949270689" lon="10.842844664441442"><ele>777.0</ele><time>2026-04-16T09:22:37.001Z</time></trkpt><trkpt lat="44.043872907036295" lon="10.84295242806543"><ele>777.0</ele><time>2026-04-16T09:22:39.001Z</time></trkpt><trkpt lat="44.04386472588406" lon="10.84309422057329"><ele>777.0</ele><time>2026-04-16T09:22:41.001Z</time></trkpt><trkpt lat="44.043818001132685" lon="10.843157300188246"><ele>777.0</ele><time>2026-04-16T09:22:42.001Z</time></trkpt><trkpt lat="44.04374026158955" lon="10.843214674409285"><ele>777.0</ele><time>2026-04-16T09:22:43.001Z</time></trkpt><trkpt lat="44.0436561829974" lon="10.843252765883259"><ele>777.0</ele><time>2026-04-16T09:22:44.001Z</time></trkpt><trkpt lat="44.043561867661836" lon="10.843289285000555"><ele>777.0</ele><time>2026-04-16T09:22:45.001Z</time></trkpt><trkpt lat="44.04344115350362" lon="10.84334528865901"><ele>773.3333333333334</ele><time>2026-04-16T09:22:46.001Z</time></trkpt><trkpt lat="44.04328664576867" lon="10.843408943060918"><ele>769.6666666666667</ele><time>2026-04-16T09:22:47.001Z</time></trkpt><trkpt lat="44.04314933409193" lon="10.843523175804954"><ele>766.0</ele><time>2026-04-16T09:22:48.001Z</time></trkpt><trkpt lat="44.043010742729265" lon="10.843663288722173"><ele>766.0</ele><time>2026-04-16T09:22:49.001Z</time></trkpt><trkpt lat="44.04286413271919" lon="10.843791023803881"><ele>766.0</ele><time>2026-04-16T09:22:50.001Z</time></trkpt><trkpt lat="44.042694808574524" lon="10.843881220807553"><ele>766.0</ele><time>2026-04-16T09:22:51.001Z</time></trkpt><trkpt lat="44.04252722427644" lon="10.843993279388215"><ele>762.6666666666667</ele><time>2026-04-16T09:22:52.001Z</time></trkpt><trkpt lat="44.042375285960446" lon="10.844096416630203"><ele>759.3333333333334</ele><time>2026-04-16T09:22:53.001Z</time></trkpt><trkpt lat="44.042232987903944" lon="10.844199325883782"><ele>756.0</ele><time>2026-04-16T09:22:54.001Z</time></trkpt><trkpt lat="44.042118281483965" lon="10.844321839391549"><ele>756.0</ele><time>2026-04-16T09:22:55.001Z</time></trkpt><trkpt lat="44.04203546962774" lon="10.844491949013378"><ele>756.0</ele><time>2026-04-16T09:22:56.001Z</time></trkpt><trkpt lat="44.041952073800864" lon="10.844674779186052"><ele>756.0</ele><time>2026-04-16T09:22:57.001Z</time></trkpt><trkpt lat="44.041867135601656" lon="10.844888004816385"><ele>756.0</ele><time>2026-04-16T09:22:58.001Z</time></trkpt><trkpt lat="44.04177432253389" lon="10.845099627688105"><ele>756.0</ele><time>2026-04-16T09:22:59.001Z</time></trkpt><trkpt lat="44.041664435227574" lon="10.845258538420735"><ele>756.0</ele><time>2026-04-16T09:23:00.001Z</time></trkpt><trkpt lat="44.04154447864608" lon="10.845385091186014"><ele>751.6666666666666</ele><time>2026-04-16T09:23:01.001Z</time></trkpt><trkpt lat="44.0414220271465" lon="10.845509237773637"><ele>747.3333333333333</ele><time>2026-04-16T09:23:02.001Z</time></trkpt><trkpt lat="44.04130299376848" lon="10.845637558475325"><ele>743.0</ele><time>2026-04-16T09:23:03.001Z</time></trkpt><trkpt lat="44.04119737093754" lon="10.845783903215395"><ele>743.0</ele><time>2026-04-16T09:23:04.001Z</time></trkpt><trkpt lat="44.04112632718368" lon="10.845952049690927"><ele>743.0</ele><time>2026-04-16T09:23:05.001Z</time></trkpt><trkpt lat="44.04106624990412" lon="10.84610996963572"><ele>743.0</ele><time>2026-04-16T09:23:06.001Z</time></trkpt><trkpt lat="44.04101958053937" lon="10.84624713296226"><ele>743.0</ele><time>2026-04-16T09:23:07.001Z</time></trkpt><trkpt lat="44.04097381134598" lon="10.846370040169248"><ele>744.2</ele><time>2026-04-16T09:23:08.001Z</time></trkpt><trkpt lat="44.04089061252709" lon="10.846438760248372"><ele>745.4</ele><time>2026-04-16T09:23:09.001Z</time></trkpt><trkpt lat="44.04079142437559" lon="10.846431013521878"><ele>746.6</ele><time>2026-04-16T09:23:10.001Z</time></trkpt><trkpt lat="44.0406821332085" lon="10.846400019902699"><ele>747.8000000000001</ele><time>2026-04-16T09:23:11.001Z</time></trkpt><trkpt lat="44.040571424854605" lon="10.846416260285954"><ele>749.0</ele><time>2026-04-16T09:23:12.001Z</time></trkpt><trkpt lat="44.04046532044565" lon="10.846465814409914"><ele>747.4000000000001</ele><time>2026-04-16T09:23:13.001Z</time></trkpt><trkpt lat="44.04039535252015" lon="10.84659463994276"><ele>745.8</ele><time>2026-04-16T09:23:14.001Z</time></trkpt><trkpt lat="44.040342589718726" lon="10.846719725369924"><ele>744.2</ele><time>2026-04-16T09:23:15.001Z</time></trkpt><trkpt lat="44.04030972496426" lon="10.84685815572655"><ele>742.5999999999999</ele><time>2026-04-16T09:23:16.001Z</time></trkpt><trkpt lat="44.0402600652938" lon="10.846977215073883"><ele>741.0</ele><time>2026-04-16T09:23:17.001Z</time></trkpt><trkpt lat="44.040205428819185" lon="10.847056051728405"><ele>741.0</ele><time>2026-04-16T09:23:18.001Z</time></trkpt><trkpt lat="44.040113064427445" lon="10.847025561648929"><ele>741.0</ele><time>2026-04-16T09:23:19.001Z</time></trkpt><trkpt lat="44.03999319123087" lon="10.847021726841172"><ele>741.0</ele><time>2026-04-16T09:23:20.001Z</time></trkpt><trkpt lat="44.0398786116644" lon="10.847018063468594"><ele>741.0</ele><time>2026-04-16T09:23:21.001Z</time></trkpt><trkpt lat="44.03977284384566" lon="10.84710505324047"><ele>738.4</ele><time>2026-04-16T09:23:22.001Z</time></trkpt><trkpt lat="44.039675876716686" lon="10.847153679833387"><ele>735.8</ele><time>2026-04-16T09:23:23.001Z</time></trkpt><trkpt lat="44.03959704699247" lon="10.847226159228489"><ele>733.1999999999999</ele><time>2026-04-16T09:23:24.001Z</time></trkpt><trkpt lat="44.039512966397986" lon="10.84730552331199"><ele>730.5999999999999</ele><time>2026-04-16T09:23:25.001Z</time></trkpt><trkpt lat="44.03943035290578" lon="10.84738293014324"><ele>728.0</ele><time>2026-04-16T09:23:26.001Z</time></trkpt><trkpt lat="44.03932633792566" lon="10.847434991488049"><ele>728.0</ele><time>2026-04-16T09:23:27.001Z</time></trkpt><trkpt lat="44.03923379977523" lon="10.847524396037262"><ele>728.0</ele><time>2026-04-16T09:23:28.001Z</time></trkpt><trkpt lat="44.039151634644334" lon="10.847603778594545"><ele>728.0</ele><time>2026-04-16T09:23:29.001Z</time></trkpt><trkpt lat="44.03906145746512" lon="10.847701754251721"><ele>728.0</ele><time>2026-04-16T09:23:30.001Z</time></trkpt><trkpt lat="44.03896868211419" lon="10.847835660815171"><ele>725.0</ele><time>2026-04-16T09:23:31.001Z</time></trkpt><trkpt lat="44.03887442274155" lon="10.848004398641802"><ele>722.0</ele><time>2026-04-16T09:23:32.001Z</time></trkpt><trkpt lat="44.03878146345323" lon="10.848204415234783"><ele>719.0</ele><time>2026-04-16T09:23:33.001Z</time></trkpt><trkpt lat="44.03866685600875" lon="10.84841131925091"><ele>720.3333333333333</ele><time>2026-04-16T09:23:34.001Z</time></trkpt><trkpt lat="44.03855825084187" lon="10.848622007918745"><ele>721.6666666666666</ele><time>2026-04-16T09:23:35.001Z</time></trkpt><trkpt lat="44.03844180611958" lon="10.84885337759716"><ele>723.0</ele><time>2026-04-16T09:23:36.001Z</time></trkpt><trkpt lat="44.03832669948386" lon="10.849087281579669"><ele>719.6666666666666</ele><time>2026-04-16T09:23:37.001Z</time></trkpt><trkpt lat="44.038212428307354" lon="10.849324922516734"><ele>716.3333333333333</ele><time>2026-04-16T09:23:38.001Z</time></trkpt><trkpt lat="44.0380972790164" lon="10.849548142804618"><ele>713.0</ele><time>2026-04-16T09:23:39.001Z</time></trkpt><trkpt lat="44.03798481441623" lon="10.849765871458862"><ele>713.0</ele><time>2026-04-16T09:23:40.001Z</time></trkpt><trkpt lat="44.03789005518012" lon="10.84998490611649"><ele>713.0</ele><time>2026-04-16T09:23:41.001Z</time></trkpt><trkpt lat="44.03780760404255" lon="10.850218505516624"><ele>713.0</ele><time>2026-04-16T09:23:42.001Z</time></trkpt><trkpt lat="44.03773677267141" lon="10.850473723400173"><ele>713.0</ele><time>2026-04-16T09:23:43.001Z</time></trkpt><trkpt lat="44.03766686025608" lon="10.85071631686474"><ele>713.0</ele><time>2026-04-16T09:23:44.001Z</time></trkpt><trkpt lat="44.03761856386515" lon="10.850934135779234"><ele>713.0</ele><time>2026-04-16T09:23:45.001Z</time></trkpt><trkpt lat="44.037579395849484" lon="10.851123879944105"><ele>712.75</ele><time>2026-04-16T09:23:46.001Z</time></trkpt><trkpt lat="44.03755296820561" lon="10.851277121561667"><ele>712.5</ele><time>2026-04-16T09:23:47.001Z</time></trkpt><trkpt lat="44.03755099028659" lon="10.851433071617162"><ele>712.25</ele><time>2026-04-16T09:23:48.001Z</time></trkpt><trkpt lat="44.03757467543176" lon="10.851596608950008"><ele>712.0</ele><time>2026-04-16T09:23:49.001Z</time></trkpt><trkpt lat="44.037610318559764" lon="10.85179076031349"><ele>712.0</ele><time>2026-04-16T09:23:50.001Z</time></trkpt><trkpt lat="44.0376496888625" lon="10.852010990236549"><ele>712.0</ele><time>2026-04-16T09:23:51.001Z</time></trkpt><trkpt lat="44.03769031038596" lon="10.852241965583314"><ele>712.0</ele><time>2026-04-16T09:23:52.001Z</time></trkpt><trkpt lat="44.037734291977635" lon="10.852451510158565"><ele>711.0</ele><time>2026-04-16T09:23:53.001Z</time></trkpt><trkpt lat="44.037768725706314" lon="10.852655984506065"><ele>710.0</ele><time>2026-04-16T09:23:54.001Z</time></trkpt><trkpt lat="44.037782723891326" lon="10.852835541397088"><ele>709.0</ele><time>2026-04-16T09:23:55.001Z</time></trkpt><trkpt lat="44.03777165076001" lon="10.852997609929693"><ele>708.0</ele><time>2026-04-16T09:23:56.001Z</time></trkpt><trkpt lat="44.03773363437149" lon="10.853140696701056"><ele>708.0</ele><time>2026-04-16T09:23:57.001Z</time></trkpt><trkpt lat="44.03766174665557" lon="10.853266127012999"><ele>708.0</ele><time>2026-04-16T09:23:58.001Z</time></trkpt><trkpt lat="44.037549196046214" lon="10.85334936578199"><ele>708.0</ele><time>2026-04-16T09:23:59.001Z</time></trkpt><trkpt lat="44.0374519719527" lon="10.853458110734072"><ele>708.0</ele><time>2026-04-16T09:24:00.001Z</time></trkpt><trkpt lat="44.03739128973308" lon="10.85357727349359"><ele>710.5</ele><time>2026-04-16T09:24:01.001Z</time></trkpt><trkpt lat="44.037349757551155" lon="10.853728031648705"><ele>713.0</ele><time>2026-04-16T09:24:02.001Z</time></trkpt><trkpt lat="44.03733771188536" lon="10.853904043542105"><ele>715.5</ele><time>2026-04-16T09:24:03.001Z</time></trkpt><trkpt lat="44.037365423958065" lon="10.854081407323484"><ele>718.0</ele><time>2026-04-16T09:24:04.001Z</time></trkpt><trkpt lat="44.037428084150804" lon="10.8542571925888"><ele>716.75</ele><time>2026-04-16T09:24:05.001Z</time></trkpt><trkpt lat="44.037509187172795" lon="10.854420308689239"><ele>715.5</ele><time>2026-04-16T09:24:06.001Z</time></trkpt><trkpt lat="44.0375979793183" lon="10.854594506658522"><ele>714.25</ele><time>2026-04-16T09:24:07.001Z</time></trkpt><trkpt lat="44.03766774481995" lon="10.854770266315233"><ele>713.0</ele><time>2026-04-16T09:24:08.001Z</time></trkpt><trkpt lat="44.03772565593557" lon="10.854967498511698"><ele>713.6666666666666</ele><time>2026-04-16T09:24:09.001Z</time></trkpt><trkpt lat="44.03774949970905" lon="10.855187612259202"><ele>714.3333333333334</ele><time>2026-04-16T09:24:10.001Z</time></trkpt><trkpt lat="44.03776972636028" lon="10.85543499824631"><ele>715.0</ele><time>2026-04-16T09:24:11.001Z</time></trkpt><trkpt lat="44.0377844775153" lon="10.855693045045955"><ele>715.0</ele><time>2026-04-16T09:24:12.001Z</time></trkpt><trkpt lat="44.03780391734119" lon="10.855936629091056"><ele>715.0</ele><time>2026-04-16T09:24:13.001Z</time></trkpt><trkpt lat="44.03782775462473" lon="10.856191269670177"><ele>715.0</ele><time>2026-04-16T09:24:14.001Z</time></trkpt><trkpt lat="44.03781375816247" lon="10.85642755541555"><ele>715.0</ele><time>2026-04-16T09:24:15.001Z</time></trkpt><trkpt lat="44.03782630144492" lon="10.856638491720204"><ele>715.0</ele><time>2026-04-16T09:24:16.001Z</time></trkpt><trkpt lat="44.03784716742214" lon="10.856815658064836"><ele>715.0</ele><time>2026-04-16T09:24:17.001Z</time></trkpt><trkpt lat="44.037899377525854" lon="10.856967292829976"><ele>715.0</ele><time>2026-04-16T09:24:18.001Z</time></trkpt><trkpt lat="44.037983242565716" lon="10.857082017833571"><ele>715.5</ele><time>2026-04-16T09:24:19.001Z</time></trkpt><trkpt lat="44.03809649662808" lon="10.857177311435636"><ele>716.0</ele><time>2026-04-16T09:24:20.001Z</time></trkpt><trkpt lat="44.038216046503926" lon="10.857284381990452"><ele>716.5</ele><time>2026-04-16T09:24:21.001Z</time></trkpt><trkpt lat="44.038311288243946" lon="10.857408980059606"><ele>717.0</ele><time>2026-04-16T09:24:22.001Z</time></trkpt><trkpt lat="44.03838890568497" lon="10.857563574264066"><ele>714.0</ele><time>2026-04-16T09:24:23.001Z</time></trkpt><trkpt lat="44.03843746641011" lon="10.857761512127421"><ele>711.0</ele><time>2026-04-16T09:24:24.001Z</time></trkpt><trkpt lat="44.03847052570255" lon="10.857981831102464"><ele>708.0</ele><time>2026-04-16T09:24:25.001Z</time></trkpt><trkpt lat="44.038517568573916" lon="10.858218514839878"><ele>708.3333333333334</ele><time>2026-04-16T09:24:26.001Z</time></trkpt><trkpt lat="44.038568881654534" lon="10.858467959364999"><ele>708.6666666666667</ele><time>2026-04-16T09:24:27.001Z</time></trkpt><trkpt lat="44.038625990940524" lon="10.858718628326674"><ele>709.0</ele><time>2026-04-16T09:24:28.001Z</time></trkpt><trkpt lat="44.03866966279433" lon="10.858976899457337"><ele>709.0</ele><time>2026-04-16T09:24:29.001Z</time></trkpt><trkpt lat="44.038712656055246" lon="10.859233111524935"><ele>709.0</ele><time>2026-04-16T09:24:30.001Z</time></trkpt><trkpt lat="44.0387388147582" lon="10.859478968294953"><ele>709.0</ele><time>2026-04-16T09:24:31.001Z</time></trkpt><trkpt lat="44.038756117363" lon="10.85971018931704"><ele>706.75</ele><time>2026-04-16T09:24:32.001Z</time></trkpt><trkpt lat="44.03874614427069" lon="10.859926109569404"><ele>704.5</ele><time>2026-04-16T09:24:33.001Z</time></trkpt><trkpt lat="44.03874542530207" lon="10.86013050440453"><ele>702.25</ele><time>2026-04-16T09:24:34.001Z</time></trkpt><trkpt lat="44.03876309607289" lon="10.860320247711408"><ele>700.0</ele><time>2026-04-16T09:24:35.001Z</time></trkpt><trkpt lat="44.038794871432216" lon="10.860468904515884"><ele>698.6</ele><time>2026-04-16T09:24:36.001Z</time></trkpt><trkpt lat="44.03882915173137" lon="10.86059476229049"><ele>697.2</ele><time>2026-04-16T09:24:37.001Z</time></trkpt><trkpt lat="44.038856711633606" lon="10.860698345054866"><ele>695.8</ele><time>2026-04-16T09:24:38.001Z</time></trkpt><trkpt lat="44.03888294145604" lon="10.860825138084442"><ele>694.4</ele><time>2026-04-16T09:24:40.001Z</time></trkpt><trkpt lat="44.03891208387145" lon="10.860916703024321"><ele>693.0</ele><time>2026-04-16T09:24:42.001Z</time></trkpt><trkpt lat="44.03904993156162" lon="10.860890136227946"><ele>693.0</ele><time>2026-04-16T09:24:44.001Z</time></trkpt><trkpt lat="44.03913403156882" lon="10.860835274639246"><ele>693.0</ele><time>2026-04-16T09:24:45.001Z</time></trkpt><trkpt lat="44.03922810412147" lon="10.860778578073932"><ele>693.0</ele><time>2026-04-16T09:24:46.001Z</time></trkpt><trkpt lat="44.03934525125762" lon="10.860715554488152"><ele>693.0</ele><time>2026-04-16T09:24:47.001Z</time></trkpt><trkpt lat="44.0394617581184" lon="10.860659263238324"><ele>693.0</ele><time>2026-04-16T09:24:48.001Z</time></trkpt><trkpt lat="44.03957379997693" lon="10.860590767512752"><ele>692.75</ele><time>2026-04-16T09:24:49.001Z</time></trkpt><trkpt lat="44.03967845593516" lon="10.860501499453562"><ele>692.5</ele><time>2026-04-16T09:24:50.001Z</time></trkpt><trkpt lat="44.03974242357185" lon="10.860358474685222"><ele>692.25</ele><time>2026-04-16T09:24:51.001Z</time></trkpt><trkpt lat="44.039793900523165" lon="10.860209486518531"><ele>692.0</ele><time>2026-04-16T09:24:52.001Z</time></trkpt><trkpt lat="44.039826835306464" lon="10.860036400530985"><ele>692.0</ele><time>2026-04-16T09:24:53.001Z</time></trkpt><trkpt lat="44.03984846846676" lon="10.859848959259963"><ele>692.0</ele><time>2026-04-16T09:24:54.001Z</time></trkpt><trkpt lat="44.03986297790135" lon="10.859638852501437"><ele>692.0</ele><time>2026-04-16T09:24:55.001Z</time></trkpt><trkpt lat="44.039886588840176" lon="10.859444075913144"><ele>692.0</ele><time>2026-04-16T09:24:56.001Z</time></trkpt><trkpt lat="44.039930646004635" lon="10.8592780385155"><ele>694.4000000000001</ele><time>2026-04-16T09:24:57.001Z</time></trkpt><trkpt lat="44.03997988632046" lon="10.859131394075863"><ele>696.8000000000001</ele><time>2026-04-16T09:24:58.001Z</time></trkpt><trkpt lat="44.04003675056418" lon="10.859025585972807"><ele>699.2</ele><time>2026-04-16T09:24:59.001Z</time></trkpt><trkpt lat="44.04010741729926" lon="10.858964221671823"><ele>701.6</ele><time>2026-04-16T09:25:00.001Z</time></trkpt><trkpt lat="44.040185145833284" lon="10.858915706384751"><ele>704.0</ele><time>2026-04-16T09:25:01.001Z</time></trkpt><trkpt lat="44.040269129537656" lon="10.858896184602862"><ele>704.0</ele><time>2026-04-16T09:25:02.001Z</time></trkpt><trkpt lat="44.04036211595435" lon="10.858874848841017"><ele>704.0</ele><time>2026-04-16T09:25:03.001Z</time></trkpt><trkpt lat="44.040453753226736" lon="10.858866297278793"><ele>704.0</ele><time>2026-04-16T09:25:04.001Z</time></trkpt><trkpt lat="44.0405266360476" lon="10.858860870374647"><ele>704.0</ele><time>2026-04-16T09:25:05.001Z</time></trkpt><trkpt lat="44.04063540503537" lon="10.858848126666159"><ele>704.0</ele><time>2026-04-16T09:25:07.001Z</time></trkpt><trkpt lat="44.040705253422246" lon="10.858832881008462"><ele>704.0</ele><time>2026-04-16T09:25:09.001Z</time></trkpt><trkpt lat="44.04077437666735" lon="10.858846461939503"><ele>704.0</ele><time>2026-04-16T09:25:12.001Z</time></trkpt><trkpt lat="44.040821940644484" lon="10.858785128051618"><ele>704.0</ele><time>2026-04-16T09:26:15.001Z</time></trkpt><trkpt lat="44.04082373174" lon="10.858876187304112"><ele>704.0</ele><time>2026-04-16T09:26:33.145Z</time></trkpt><trkpt lat="44.04058567810586" lon="10.85886437812202"><ele>704.0</ele><time>2026-04-16T09:26:52.001Z</time></trkpt><trkpt lat="44.04073848448532" lon="10.858922322071173"><ele>704.0</ele><time>2026-04-16T09:26:57.001Z</time></trkpt><trkpt lat="44.04072236021624" lon="10.858829022133566"><ele>704.0</ele><time>2026-04-16T09:27:25.001Z</time></trkpt></trkseg></trk></gpx>